<?xml version="1.0" encoding="UTF-8" standalone="no" ?>
<gpx xmlns="http://www.topografix.com/GPX/1/1" xmlns:xsi="http://www.w3.org/2001/XMLSchema-instance" xsi:schemaLocation="http://www.topografix.com/GPX/1/1 http://www.topografix.com/GPX/1/1/gpx.xsd" version="1.1" creator="VisuGPX - https://www.visugpx.com">
  <metadata>
    <name>Morêt-rocher brûlé 8-10-20</name>
    <desc><![CDATA[Boucle en forêt au départ de Morêt jusqu'au rocher brûlé, sans difficulté.
]]></desc>
  </metadata>
  <trk>
    <name><![CDATA[Morêt-rocher brûlé 8-10-20]]></name>
    <trkseg>
      <trkpt lat="48.36821" lon="2.80555">
        <ele>88.48</ele>
        <time>2020-10-08T11:52:40Z</time>
      </trkpt>
      <trkpt lat="48.36818" lon="2.80549">
        <ele>88.59</ele>
        <time>2020-10-08T11:52:45Z</time>
      </trkpt>
      <trkpt lat="48.36814" lon="2.80545">
        <ele>88.51</ele>
        <time>2020-10-08T11:52:50Z</time>
      </trkpt>
      <trkpt lat="48.3681" lon="2.80541">
        <ele>88.41</ele>
        <time>2020-10-08T11:52:55Z</time>
      </trkpt>
      <trkpt lat="48.36808" lon="2.80536">
        <ele>88.45</ele>
        <time>2020-10-08T11:53:00Z</time>
      </trkpt>
      <trkpt lat="48.36804" lon="2.80532">
        <ele>88.8</ele>
        <time>2020-10-08T11:53:05Z</time>
      </trkpt>
      <trkpt lat="48.368" lon="2.80526">
        <ele>89.05</ele>
        <time>2020-10-08T11:53:10Z</time>
      </trkpt>
      <trkpt lat="48.36797" lon="2.80519">
        <ele>89.54</ele>
        <time>2020-10-08T11:53:15Z</time>
      </trkpt>
      <trkpt lat="48.36793" lon="2.80518">
        <ele>89.56</ele>
        <time>2020-10-08T11:53:20Z</time>
      </trkpt>
      <trkpt lat="48.36788" lon="2.80517">
        <ele>89.28</ele>
        <time>2020-10-08T11:53:25Z</time>
      </trkpt>
      <trkpt lat="48.36782" lon="2.80515">
        <ele>89.4</ele>
        <time>2020-10-08T11:53:30Z</time>
      </trkpt>
      <trkpt lat="48.36778" lon="2.80511">
        <ele>90.02</ele>
        <time>2020-10-08T11:53:35Z</time>
      </trkpt>
      <trkpt lat="48.36774" lon="2.80505">
        <ele>90.15</ele>
        <time>2020-10-08T11:53:40Z</time>
      </trkpt>
      <trkpt lat="48.36771" lon="2.805">
        <ele>90.1</ele>
        <time>2020-10-08T11:53:45Z</time>
      </trkpt>
      <trkpt lat="48.36768" lon="2.80494">
        <ele>90.13</ele>
        <time>2020-10-08T11:53:50Z</time>
      </trkpt>
      <trkpt lat="48.36766" lon="2.80487">
        <ele>90.13</ele>
        <time>2020-10-08T11:53:55Z</time>
      </trkpt>
      <trkpt lat="48.36764" lon="2.80479">
        <ele>90.05</ele>
        <time>2020-10-08T11:54:00Z</time>
      </trkpt>
      <trkpt lat="48.36762" lon="2.80472">
        <ele>90.01</ele>
        <time>2020-10-08T11:54:05Z</time>
      </trkpt>
      <trkpt lat="48.36759" lon="2.80466">
        <ele>90.1</ele>
        <time>2020-10-08T11:54:10Z</time>
      </trkpt>
      <trkpt lat="48.36756" lon="2.80461">
        <ele>90.39</ele>
        <time>2020-10-08T11:54:15Z</time>
      </trkpt>
      <trkpt lat="48.36751" lon="2.80455">
        <ele>90.53</ele>
        <time>2020-10-08T11:54:20Z</time>
      </trkpt>
      <trkpt lat="48.36747" lon="2.80448">
        <ele>90.51</ele>
        <time>2020-10-08T11:54:25Z</time>
      </trkpt>
      <trkpt lat="48.36745" lon="2.8044">
        <ele>90.33</ele>
        <time>2020-10-08T11:54:30Z</time>
      </trkpt>
      <trkpt lat="48.36743" lon="2.80433">
        <ele>90.31</ele>
        <time>2020-10-08T11:54:35Z</time>
      </trkpt>
      <trkpt lat="48.36739" lon="2.80426">
        <ele>90.15</ele>
        <time>2020-10-08T11:54:40Z</time>
      </trkpt>
      <trkpt lat="48.36733" lon="2.80419">
        <ele>90.37</ele>
        <time>2020-10-08T11:54:45Z</time>
      </trkpt>
      <trkpt lat="48.3673" lon="2.80411">
        <ele>90.48</ele>
        <time>2020-10-08T11:54:50Z</time>
      </trkpt>
      <trkpt lat="48.36728" lon="2.80405">
        <ele>90.39</ele>
        <time>2020-10-08T11:54:55Z</time>
      </trkpt>
      <trkpt lat="48.36725" lon="2.80399">
        <ele>90.33</ele>
        <time>2020-10-08T11:55:00Z</time>
      </trkpt>
      <trkpt lat="48.36723" lon="2.80392">
        <ele>90.33</ele>
        <time>2020-10-08T11:55:05Z</time>
      </trkpt>
      <trkpt lat="48.3672" lon="2.80385">
        <ele>90.3</ele>
        <time>2020-10-08T11:55:10Z</time>
      </trkpt>
      <trkpt lat="48.36718" lon="2.80378">
        <ele>90.27</ele>
        <time>2020-10-08T11:55:15Z</time>
      </trkpt>
      <trkpt lat="48.36716" lon="2.8037">
        <ele>90.35</ele>
        <time>2020-10-08T11:55:20Z</time>
      </trkpt>
      <trkpt lat="48.36712" lon="2.80362">
        <ele>90.45</ele>
        <time>2020-10-08T11:55:25Z</time>
      </trkpt>
      <trkpt lat="48.36709" lon="2.80357">
        <ele>90.38</ele>
        <time>2020-10-08T11:55:30Z</time>
      </trkpt>
      <trkpt lat="48.36705" lon="2.80354">
        <ele>90.43</ele>
        <time>2020-10-08T11:55:35Z</time>
      </trkpt>
      <trkpt lat="48.367" lon="2.80357">
        <ele>90.45</ele>
        <time>2020-10-08T11:55:40Z</time>
      </trkpt>
      <trkpt lat="48.36695" lon="2.8036">
        <ele>90.51</ele>
        <time>2020-10-08T11:55:45Z</time>
      </trkpt>
      <trkpt lat="48.3669" lon="2.80365">
        <ele>90.81</ele>
        <time>2020-10-08T11:55:50Z</time>
      </trkpt>
      <trkpt lat="48.36686" lon="2.80368">
        <ele>90.93</ele>
        <time>2020-10-08T11:55:55Z</time>
      </trkpt>
      <trkpt lat="48.36681" lon="2.80375">
        <ele>90.93</ele>
        <time>2020-10-08T11:56:00Z</time>
      </trkpt>
      <trkpt lat="48.36676" lon="2.80384">
        <ele>91.24</ele>
        <time>2020-10-08T11:56:05Z</time>
      </trkpt>
      <trkpt lat="48.36673" lon="2.80387">
        <ele>91.94</ele>
        <time>2020-10-08T11:56:10Z</time>
      </trkpt>
      <trkpt lat="48.36669" lon="2.80393">
        <ele>91.94</ele>
        <time>2020-10-08T11:56:15Z</time>
      </trkpt>
      <trkpt lat="48.36665" lon="2.80397">
        <ele>91.6</ele>
        <time>2020-10-08T11:56:20Z</time>
      </trkpt>
      <trkpt lat="48.36662" lon="2.80403">
        <ele>91.52</ele>
        <time>2020-10-08T11:56:25Z</time>
      </trkpt>
      <trkpt lat="48.3666" lon="2.80407">
        <ele>91.46</ele>
        <time>2020-10-08T11:56:30Z</time>
      </trkpt>
      <trkpt lat="48.36656" lon="2.80413">
        <ele>91.69</ele>
        <time>2020-10-08T11:56:35Z</time>
      </trkpt>
      <trkpt lat="48.36654" lon="2.80423">
        <ele>91.84</ele>
        <time>2020-10-08T11:56:40Z</time>
      </trkpt>
      <trkpt lat="48.36652" lon="2.80431">
        <ele>91.84</ele>
        <time>2020-10-08T11:56:45Z</time>
      </trkpt>
      <trkpt lat="48.36651" lon="2.80438">
        <ele>92</ele>
        <time>2020-10-08T11:56:50Z</time>
      </trkpt>
      <trkpt lat="48.3665" lon="2.80444">
        <ele>92.14</ele>
        <time>2020-10-08T11:56:55Z</time>
      </trkpt>
      <trkpt lat="48.3665" lon="2.80446">
        <ele>92.21</ele>
        <time>2020-10-08T11:57:00Z</time>
      </trkpt>
      <trkpt lat="48.36651" lon="2.80443">
        <ele>92.34</ele>
        <time>2020-10-08T11:57:05Z</time>
      </trkpt>
      <trkpt lat="48.36651" lon="2.80439">
        <ele>92.16</ele>
        <time>2020-10-08T11:57:10Z</time>
      </trkpt>
      <trkpt lat="48.36651" lon="2.80439">
        <ele>92.1</ele>
        <time>2020-10-08T11:57:15Z</time>
      </trkpt>
      <trkpt lat="48.3665" lon="2.80441">
        <ele>92.14</ele>
        <time>2020-10-08T11:57:20Z</time>
      </trkpt>
      <trkpt lat="48.36648" lon="2.80449">
        <ele>92.14</ele>
        <time>2020-10-08T11:57:25Z</time>
      </trkpt>
      <trkpt lat="48.36645" lon="2.80457">
        <ele>92.06</ele>
        <time>2020-10-08T11:57:30Z</time>
      </trkpt>
      <trkpt lat="48.36644" lon="2.80466">
        <ele>92</ele>
        <time>2020-10-08T11:57:35Z</time>
      </trkpt>
      <trkpt lat="48.36641" lon="2.80477">
        <ele>91.75</ele>
        <time>2020-10-08T11:57:40Z</time>
      </trkpt>
      <trkpt lat="48.36639" lon="2.80487">
        <ele>91.69</ele>
        <time>2020-10-08T11:57:45Z</time>
      </trkpt>
      <trkpt lat="48.36638" lon="2.80491">
        <ele>91.81</ele>
        <time>2020-10-08T11:57:50Z</time>
      </trkpt>
      <trkpt lat="48.36637" lon="2.80492">
        <ele>91.77</ele>
        <time>2020-10-08T11:57:55Z</time>
      </trkpt>
      <trkpt lat="48.36637" lon="2.80491">
        <ele>91.74</ele>
        <time>2020-10-08T11:58:00Z</time>
      </trkpt>
      <trkpt lat="48.36635" lon="2.80498">
        <ele>91.87</ele>
        <time>2020-10-08T11:58:05Z</time>
      </trkpt>
      <trkpt lat="48.36633" lon="2.80507">
        <ele>91.87</ele>
        <time>2020-10-08T11:58:10Z</time>
      </trkpt>
      <trkpt lat="48.36631" lon="2.80517">
        <ele>92.34</ele>
        <time>2020-10-08T11:58:15Z</time>
      </trkpt>
      <trkpt lat="48.36628" lon="2.80523">
        <ele>92.4</ele>
        <time>2020-10-08T11:58:20Z</time>
      </trkpt>
      <trkpt lat="48.36627" lon="2.80532">
        <ele>92.24</ele>
        <time>2020-10-08T11:58:25Z</time>
      </trkpt>
      <trkpt lat="48.36626" lon="2.80539">
        <ele>92.22</ele>
        <time>2020-10-08T11:58:30Z</time>
      </trkpt>
      <trkpt lat="48.36624" lon="2.80547">
        <ele>92.08</ele>
        <time>2020-10-08T11:58:35Z</time>
      </trkpt>
      <trkpt lat="48.36621" lon="2.80557">
        <ele>91.77</ele>
        <time>2020-10-08T11:58:40Z</time>
      </trkpt>
      <trkpt lat="48.3662" lon="2.80564">
        <ele>91.36</ele>
        <time>2020-10-08T11:58:45Z</time>
      </trkpt>
      <trkpt lat="48.36619" lon="2.80571">
        <ele>91.16</ele>
        <time>2020-10-08T11:58:50Z</time>
      </trkpt>
      <trkpt lat="48.36617" lon="2.80578">
        <ele>90.65</ele>
        <time>2020-10-08T11:58:55Z</time>
      </trkpt>
      <trkpt lat="48.36615" lon="2.80587">
        <ele>90.2</ele>
        <time>2020-10-08T11:59:00Z</time>
      </trkpt>
      <trkpt lat="48.36614" lon="2.80595">
        <ele>90.14</ele>
        <time>2020-10-08T11:59:05Z</time>
      </trkpt>
      <trkpt lat="48.36612" lon="2.80602">
        <ele>90.08</ele>
        <time>2020-10-08T11:59:10Z</time>
      </trkpt>
      <trkpt lat="48.3661" lon="2.80611">
        <ele>89.97</ele>
        <time>2020-10-08T11:59:15Z</time>
      </trkpt>
      <trkpt lat="48.36608" lon="2.80621">
        <ele>89.84</ele>
        <time>2020-10-08T11:59:20Z</time>
      </trkpt>
      <trkpt lat="48.36605" lon="2.80631">
        <ele>89.95</ele>
        <time>2020-10-08T11:59:25Z</time>
      </trkpt>
      <trkpt lat="48.36603" lon="2.80638">
        <ele>89.91</ele>
        <time>2020-10-08T11:59:30Z</time>
      </trkpt>
      <trkpt lat="48.36602" lon="2.80647">
        <ele>89.63</ele>
        <time>2020-10-08T11:59:35Z</time>
      </trkpt>
      <trkpt lat="48.366" lon="2.80653">
        <ele>89.36</ele>
        <time>2020-10-08T11:59:39Z</time>
      </trkpt>
      <trkpt lat="48.36597" lon="2.80663">
        <ele>89.08</ele>
        <time>2020-10-08T11:59:44Z</time>
      </trkpt>
      <trkpt lat="48.36594" lon="2.80671">
        <ele>88.98</ele>
        <time>2020-10-08T11:59:49Z</time>
      </trkpt>
      <trkpt lat="48.36592" lon="2.8068">
        <ele>88.93</ele>
        <time>2020-10-08T11:59:54Z</time>
      </trkpt>
      <trkpt lat="48.36589" lon="2.8069">
        <ele>88.72</ele>
        <time>2020-10-08T11:59:59Z</time>
      </trkpt>
      <trkpt lat="48.36587" lon="2.80698">
        <ele>88.47</ele>
        <time>2020-10-08T12:00:04Z</time>
      </trkpt>
      <trkpt lat="48.36584" lon="2.80707">
        <ele>88.09</ele>
        <time>2020-10-08T12:00:09Z</time>
      </trkpt>
      <trkpt lat="48.36581" lon="2.80716">
        <ele>87.96</ele>
        <time>2020-10-08T12:00:14Z</time>
      </trkpt>
      <trkpt lat="48.36579" lon="2.80725">
        <ele>87.83</ele>
        <time>2020-10-08T12:00:19Z</time>
      </trkpt>
      <trkpt lat="48.36579" lon="2.80735">
        <ele>87.78</ele>
        <time>2020-10-08T12:00:24Z</time>
      </trkpt>
      <trkpt lat="48.3658" lon="2.80743">
        <ele>87.27</ele>
        <time>2020-10-08T12:00:29Z</time>
      </trkpt>
      <trkpt lat="48.36585" lon="2.80749">
        <ele>86.84</ele>
        <time>2020-10-08T12:00:34Z</time>
      </trkpt>
      <trkpt lat="48.36589" lon="2.80754">
        <ele>86.2</ele>
        <time>2020-10-08T12:00:39Z</time>
      </trkpt>
      <trkpt lat="48.36595" lon="2.80757">
        <ele>85.79</ele>
        <time>2020-10-08T12:00:44Z</time>
      </trkpt>
      <trkpt lat="48.36599" lon="2.80761">
        <ele>85.56</ele>
        <time>2020-10-08T12:00:49Z</time>
      </trkpt>
      <trkpt lat="48.36605" lon="2.80765">
        <ele>85.23</ele>
        <time>2020-10-08T12:00:54Z</time>
      </trkpt>
      <trkpt lat="48.36611" lon="2.80767">
        <ele>84.88</ele>
        <time>2020-10-08T12:00:59Z</time>
      </trkpt>
      <trkpt lat="48.36614" lon="2.80771">
        <ele>84.58</ele>
        <time>2020-10-08T12:01:04Z</time>
      </trkpt>
      <trkpt lat="48.36615" lon="2.80774">
        <ele>83.93</ele>
        <time>2020-10-08T12:01:09Z</time>
      </trkpt>
      <trkpt lat="48.36611" lon="2.80775">
        <ele>83.65</ele>
        <time>2020-10-08T12:01:14Z</time>
      </trkpt>
      <trkpt lat="48.36606" lon="2.80772">
        <ele>83.63</ele>
        <time>2020-10-08T12:01:19Z</time>
      </trkpt>
      <trkpt lat="48.36602" lon="2.80769">
        <ele>83.69</ele>
        <time>2020-10-08T12:01:24Z</time>
      </trkpt>
      <trkpt lat="48.36596" lon="2.80765">
        <ele>83.66</ele>
        <time>2020-10-08T12:01:29Z</time>
      </trkpt>
      <trkpt lat="48.36591" lon="2.8076">
        <ele>83.68</ele>
        <time>2020-10-08T12:01:34Z</time>
      </trkpt>
      <trkpt lat="48.36585" lon="2.80757">
        <ele>83.52</ele>
        <time>2020-10-08T12:01:39Z</time>
      </trkpt>
      <trkpt lat="48.36579" lon="2.80755">
        <ele>83.37</ele>
        <time>2020-10-08T12:01:44Z</time>
      </trkpt>
      <trkpt lat="48.36573" lon="2.80752">
        <ele>83.38</ele>
        <time>2020-10-08T12:01:49Z</time>
      </trkpt>
      <trkpt lat="48.36568" lon="2.80747">
        <ele>83.07</ele>
        <time>2020-10-08T12:01:54Z</time>
      </trkpt>
      <trkpt lat="48.36563" lon="2.80743">
        <ele>82.8</ele>
        <time>2020-10-08T12:01:59Z</time>
      </trkpt>
      <trkpt lat="48.36558" lon="2.80738">
        <ele>82.49</ele>
        <time>2020-10-08T12:02:04Z</time>
      </trkpt>
      <trkpt lat="48.36552" lon="2.80733">
        <ele>82.33</ele>
        <time>2020-10-08T12:02:09Z</time>
      </trkpt>
      <trkpt lat="48.36546" lon="2.80729">
        <ele>82.26</ele>
        <time>2020-10-08T12:02:14Z</time>
      </trkpt>
      <trkpt lat="48.36542" lon="2.80725">
        <ele>82.19</ele>
        <time>2020-10-08T12:02:19Z</time>
      </trkpt>
      <trkpt lat="48.36537" lon="2.80721">
        <ele>81.96</ele>
        <time>2020-10-08T12:02:24Z</time>
      </trkpt>
      <trkpt lat="48.36531" lon="2.80718">
        <ele>81.87</ele>
        <time>2020-10-08T12:02:29Z</time>
      </trkpt>
      <trkpt lat="48.36525" lon="2.80718">
        <ele>81.59</ele>
        <time>2020-10-08T12:02:34Z</time>
      </trkpt>
      <trkpt lat="48.3652" lon="2.80716">
        <ele>81.47</ele>
        <time>2020-10-08T12:02:39Z</time>
      </trkpt>
      <trkpt lat="48.36515" lon="2.8071">
        <ele>81.34</ele>
        <time>2020-10-08T12:02:44Z</time>
      </trkpt>
      <trkpt lat="48.36509" lon="2.80706">
        <ele>81.16</ele>
        <time>2020-10-08T12:02:49Z</time>
      </trkpt>
      <trkpt lat="48.36503" lon="2.807">
        <ele>81.02</ele>
        <time>2020-10-08T12:02:54Z</time>
      </trkpt>
      <trkpt lat="48.36496" lon="2.80697">
        <ele>80.99</ele>
        <time>2020-10-08T12:02:59Z</time>
      </trkpt>
      <trkpt lat="48.36488" lon="2.80696">
        <ele>81.2</ele>
        <time>2020-10-08T12:03:04Z</time>
      </trkpt>
      <trkpt lat="48.36483" lon="2.80695">
        <ele>81</ele>
        <time>2020-10-08T12:03:09Z</time>
      </trkpt>
      <trkpt lat="48.36479" lon="2.8069">
        <ele>80.59</ele>
        <time>2020-10-08T12:03:14Z</time>
      </trkpt>
      <trkpt lat="48.36473" lon="2.80687">
        <ele>80.36</ele>
        <time>2020-10-08T12:03:19Z</time>
      </trkpt>
      <trkpt lat="48.36466" lon="2.80688">
        <ele>80.35</ele>
        <time>2020-10-08T12:03:24Z</time>
      </trkpt>
      <trkpt lat="48.36462" lon="2.80683">
        <ele>80.15</ele>
        <time>2020-10-08T12:03:29Z</time>
      </trkpt>
      <trkpt lat="48.3646" lon="2.80678">
        <ele>79.92</ele>
        <time>2020-10-08T12:03:34Z</time>
      </trkpt>
      <trkpt lat="48.36459" lon="2.80679">
        <ele>79.77</ele>
        <time>2020-10-08T12:03:39Z</time>
      </trkpt>
      <trkpt lat="48.36459" lon="2.80679">
        <ele>79.91</ele>
        <time>2020-10-08T12:03:44Z</time>
      </trkpt>
      <trkpt lat="48.36459" lon="2.80678">
        <ele>79.92</ele>
        <time>2020-10-08T12:03:49Z</time>
      </trkpt>
      <trkpt lat="48.36459" lon="2.80676">
        <ele>79.96</ele>
        <time>2020-10-08T12:03:54Z</time>
      </trkpt>
      <trkpt lat="48.36459" lon="2.80676">
        <ele>79.95</ele>
        <time>2020-10-08T12:03:59Z</time>
      </trkpt>
      <trkpt lat="48.36459" lon="2.80675">
        <ele>79.9</ele>
        <time>2020-10-08T12:04:04Z</time>
      </trkpt>
      <trkpt lat="48.36458" lon="2.80674">
        <ele>79.89</ele>
        <time>2020-10-08T12:04:09Z</time>
      </trkpt>
      <trkpt lat="48.36458" lon="2.80674">
        <ele>79.84</ele>
        <time>2020-10-08T12:04:14Z</time>
      </trkpt>
      <trkpt lat="48.36458" lon="2.80672">
        <ele>79.85</ele>
        <time>2020-10-08T12:04:19Z</time>
      </trkpt>
      <trkpt lat="48.36457" lon="2.80672">
        <ele>79.87</ele>
        <time>2020-10-08T12:04:24Z</time>
      </trkpt>
      <trkpt lat="48.36457" lon="2.80672">
        <ele>79.97</ele>
        <time>2020-10-08T12:04:29Z</time>
      </trkpt>
      <trkpt lat="48.36457" lon="2.80672">
        <ele>80.02</ele>
        <time>2020-10-08T12:04:34Z</time>
      </trkpt>
      <trkpt lat="48.36457" lon="2.80672">
        <ele>79.9</ele>
        <time>2020-10-08T12:04:39Z</time>
      </trkpt>
      <trkpt lat="48.36457" lon="2.80672">
        <ele>79.9</ele>
        <time>2020-10-08T12:04:44Z</time>
      </trkpt>
      <trkpt lat="48.36457" lon="2.80672">
        <ele>79.9</ele>
        <time>2020-10-08T12:04:49Z</time>
      </trkpt>
      <trkpt lat="48.36457" lon="2.80672">
        <ele>79.9</ele>
        <time>2020-10-08T12:04:54Z</time>
      </trkpt>
      <trkpt lat="48.36456" lon="2.8067">
        <ele>79.9</ele>
        <time>2020-10-08T12:04:59Z</time>
      </trkpt>
      <trkpt lat="48.36454" lon="2.80667">
        <ele>79.9</ele>
        <time>2020-10-08T12:05:04Z</time>
      </trkpt>
      <trkpt lat="48.36453" lon="2.80663">
        <ele>79.9</ele>
        <time>2020-10-08T12:05:09Z</time>
      </trkpt>
      <trkpt lat="48.3645" lon="2.80659">
        <ele>79.9</ele>
        <time>2020-10-08T12:05:14Z</time>
      </trkpt>
      <trkpt lat="48.36446" lon="2.80655">
        <ele>79.9</ele>
        <time>2020-10-08T12:05:19Z</time>
      </trkpt>
      <trkpt lat="48.36443" lon="2.80647">
        <ele>79.21</ele>
        <time>2020-10-08T12:05:24Z</time>
      </trkpt>
      <trkpt lat="48.3644" lon="2.80642">
        <ele>78.56</ele>
        <time>2020-10-08T12:05:29Z</time>
      </trkpt>
      <trkpt lat="48.36437" lon="2.80636">
        <ele>78.24</ele>
        <time>2020-10-08T12:05:34Z</time>
      </trkpt>
      <trkpt lat="48.36434" lon="2.80628">
        <ele>77.89</ele>
        <time>2020-10-08T12:05:39Z</time>
      </trkpt>
      <trkpt lat="48.36432" lon="2.80622">
        <ele>77.56</ele>
        <time>2020-10-08T12:05:44Z</time>
      </trkpt>
      <trkpt lat="48.36429" lon="2.80617">
        <ele>76.95</ele>
        <time>2020-10-08T12:05:49Z</time>
      </trkpt>
      <trkpt lat="48.36425" lon="2.80611">
        <ele>76.71</ele>
        <time>2020-10-08T12:05:54Z</time>
      </trkpt>
      <trkpt lat="48.36422" lon="2.80605">
        <ele>76.5</ele>
        <time>2020-10-08T12:05:59Z</time>
      </trkpt>
      <trkpt lat="48.36418" lon="2.80598">
        <ele>76.5</ele>
        <time>2020-10-08T12:06:04Z</time>
      </trkpt>
      <trkpt lat="48.36417" lon="2.80594">
        <ele>76.52</ele>
        <time>2020-10-08T12:06:09Z</time>
      </trkpt>
      <trkpt lat="48.36414" lon="2.80589">
        <ele>76.07</ele>
        <time>2020-10-08T12:06:14Z</time>
      </trkpt>
      <trkpt lat="48.36413" lon="2.80585">
        <ele>75.83</ele>
        <time>2020-10-08T12:06:19Z</time>
      </trkpt>
      <trkpt lat="48.36411" lon="2.8058">
        <ele>75.74</ele>
        <time>2020-10-08T12:06:24Z</time>
      </trkpt>
      <trkpt lat="48.36407" lon="2.80573">
        <ele>75.69</ele>
        <time>2020-10-08T12:06:29Z</time>
      </trkpt>
      <trkpt lat="48.36403" lon="2.80567">
        <ele>75.81</ele>
        <time>2020-10-08T12:06:34Z</time>
      </trkpt>
      <trkpt lat="48.36399" lon="2.8056">
        <ele>75.67</ele>
        <time>2020-10-08T12:06:39Z</time>
      </trkpt>
      <trkpt lat="48.36395" lon="2.80554">
        <ele>75.53</ele>
        <time>2020-10-08T12:06:44Z</time>
      </trkpt>
      <trkpt lat="48.36391" lon="2.80546">
        <ele>75.23</ele>
        <time>2020-10-08T12:06:49Z</time>
      </trkpt>
      <trkpt lat="48.36386" lon="2.80542">
        <ele>75.09</ele>
        <time>2020-10-08T12:06:54Z</time>
      </trkpt>
      <trkpt lat="48.36381" lon="2.80534">
        <ele>75</ele>
        <time>2020-10-08T12:06:59Z</time>
      </trkpt>
      <trkpt lat="48.36379" lon="2.80527">
        <ele>75</ele>
        <time>2020-10-08T12:07:04Z</time>
      </trkpt>
      <trkpt lat="48.36373" lon="2.80522">
        <ele>75</ele>
        <time>2020-10-08T12:07:09Z</time>
      </trkpt>
      <trkpt lat="48.3637" lon="2.80517">
        <ele>75.07</ele>
        <time>2020-10-08T12:07:14Z</time>
      </trkpt>
      <trkpt lat="48.36366" lon="2.80511">
        <ele>74.96</ele>
        <time>2020-10-08T12:07:19Z</time>
      </trkpt>
      <trkpt lat="48.36363" lon="2.80505">
        <ele>74.85</ele>
        <time>2020-10-08T12:07:24Z</time>
      </trkpt>
      <trkpt lat="48.36359" lon="2.80497">
        <ele>74.86</ele>
        <time>2020-10-08T12:07:29Z</time>
      </trkpt>
      <trkpt lat="48.36355" lon="2.80491">
        <ele>74.87</ele>
        <time>2020-10-08T12:07:34Z</time>
      </trkpt>
      <trkpt lat="48.36351" lon="2.80484">
        <ele>74.7</ele>
        <time>2020-10-08T12:07:39Z</time>
      </trkpt>
      <trkpt lat="48.36347" lon="2.80478">
        <ele>74.68</ele>
        <time>2020-10-08T12:07:44Z</time>
      </trkpt>
      <trkpt lat="48.36343" lon="2.80472">
        <ele>74.69</ele>
        <time>2020-10-08T12:07:49Z</time>
      </trkpt>
      <trkpt lat="48.36341" lon="2.80466">
        <ele>74.9</ele>
        <time>2020-10-08T12:07:54Z</time>
      </trkpt>
      <trkpt lat="48.36337" lon="2.80462">
        <ele>74.94</ele>
        <time>2020-10-08T12:07:59Z</time>
      </trkpt>
      <trkpt lat="48.36332" lon="2.80458">
        <ele>74.88</ele>
        <time>2020-10-08T12:08:04Z</time>
      </trkpt>
      <trkpt lat="48.36327" lon="2.80453">
        <ele>75</ele>
        <time>2020-10-08T12:08:09Z</time>
      </trkpt>
      <trkpt lat="48.36323" lon="2.80447">
        <ele>74.95</ele>
        <time>2020-10-08T12:08:14Z</time>
      </trkpt>
      <trkpt lat="48.36319" lon="2.80442">
        <ele>75</ele>
        <time>2020-10-08T12:08:19Z</time>
      </trkpt>
      <trkpt lat="48.36316" lon="2.80436">
        <ele>75.18</ele>
        <time>2020-10-08T12:08:24Z</time>
      </trkpt>
      <trkpt lat="48.36312" lon="2.80428">
        <ele>75.16</ele>
        <time>2020-10-08T12:08:29Z</time>
      </trkpt>
      <trkpt lat="48.36307" lon="2.80422">
        <ele>74.97</ele>
        <time>2020-10-08T12:08:34Z</time>
      </trkpt>
      <trkpt lat="48.36303" lon="2.80415">
        <ele>74.95</ele>
        <time>2020-10-08T12:08:39Z</time>
      </trkpt>
      <trkpt lat="48.36299" lon="2.80411">
        <ele>74.85</ele>
        <time>2020-10-08T12:08:44Z</time>
      </trkpt>
      <trkpt lat="48.36296" lon="2.80405">
        <ele>74.81</ele>
        <time>2020-10-08T12:08:49Z</time>
      </trkpt>
      <trkpt lat="48.36293" lon="2.80398">
        <ele>74.87</ele>
        <time>2020-10-08T12:08:54Z</time>
      </trkpt>
      <trkpt lat="48.3629" lon="2.80391">
        <ele>75.11</ele>
        <time>2020-10-08T12:08:59Z</time>
      </trkpt>
      <trkpt lat="48.36286" lon="2.80384">
        <ele>75.18</ele>
        <time>2020-10-08T12:09:04Z</time>
      </trkpt>
      <trkpt lat="48.36284" lon="2.80378">
        <ele>75.05</ele>
        <time>2020-10-08T12:09:09Z</time>
      </trkpt>
      <trkpt lat="48.3628" lon="2.80372">
        <ele>75.06</ele>
        <time>2020-10-08T12:09:14Z</time>
      </trkpt>
      <trkpt lat="48.36275" lon="2.80367">
        <ele>75.16</ele>
        <time>2020-10-08T12:09:19Z</time>
      </trkpt>
      <trkpt lat="48.36272" lon="2.80361">
        <ele>75.39</ele>
        <time>2020-10-08T12:09:24Z</time>
      </trkpt>
      <trkpt lat="48.36267" lon="2.80352">
        <ele>75.57</ele>
        <time>2020-10-08T12:09:29Z</time>
      </trkpt>
      <trkpt lat="48.36263" lon="2.80347">
        <ele>75.65</ele>
        <time>2020-10-08T12:09:34Z</time>
      </trkpt>
      <trkpt lat="48.3626" lon="2.80341">
        <ele>75.64</ele>
        <time>2020-10-08T12:09:39Z</time>
      </trkpt>
      <trkpt lat="48.36257" lon="2.80333">
        <ele>75.66</ele>
        <time>2020-10-08T12:09:44Z</time>
      </trkpt>
      <trkpt lat="48.36254" lon="2.80324">
        <ele>75.58</ele>
        <time>2020-10-08T12:09:49Z</time>
      </trkpt>
      <trkpt lat="48.36252" lon="2.80317">
        <ele>75.38</ele>
        <time>2020-10-08T12:09:54Z</time>
      </trkpt>
      <trkpt lat="48.3625" lon="2.80309">
        <ele>75.37</ele>
        <time>2020-10-08T12:09:59Z</time>
      </trkpt>
      <trkpt lat="48.36246" lon="2.80302">
        <ele>75.34</ele>
        <time>2020-10-08T12:10:04Z</time>
      </trkpt>
      <trkpt lat="48.36243" lon="2.80296">
        <ele>75.27</ele>
        <time>2020-10-08T12:10:09Z</time>
      </trkpt>
      <trkpt lat="48.36239" lon="2.80289">
        <ele>75.36</ele>
        <time>2020-10-08T12:10:14Z</time>
      </trkpt>
      <trkpt lat="48.36234" lon="2.80285">
        <ele>75.41</ele>
        <time>2020-10-08T12:10:19Z</time>
      </trkpt>
      <trkpt lat="48.36231" lon="2.80279">
        <ele>75.41</ele>
        <time>2020-10-08T12:10:24Z</time>
      </trkpt>
      <trkpt lat="48.3623" lon="2.80271">
        <ele>75.29</ele>
        <time>2020-10-08T12:10:29Z</time>
      </trkpt>
      <trkpt lat="48.36229" lon="2.80264">
        <ele>75.24</ele>
        <time>2020-10-08T12:10:34Z</time>
      </trkpt>
      <trkpt lat="48.36228" lon="2.80256">
        <ele>75.27</ele>
        <time>2020-10-08T12:10:39Z</time>
      </trkpt>
      <trkpt lat="48.36227" lon="2.80247">
        <ele>75.12</ele>
        <time>2020-10-08T12:10:44Z</time>
      </trkpt>
      <trkpt lat="48.36227" lon="2.8024">
        <ele>74.98</ele>
        <time>2020-10-08T12:10:49Z</time>
      </trkpt>
      <trkpt lat="48.36224" lon="2.80231">
        <ele>74.91</ele>
        <time>2020-10-08T12:10:54Z</time>
      </trkpt>
      <trkpt lat="48.36221" lon="2.80221">
        <ele>75.04</ele>
        <time>2020-10-08T12:10:59Z</time>
      </trkpt>
      <trkpt lat="48.36219" lon="2.80212">
        <ele>75.1</ele>
        <time>2020-10-08T12:11:04Z</time>
      </trkpt>
      <trkpt lat="48.3622" lon="2.80208">
        <ele>75.09</ele>
        <time>2020-10-08T12:11:09Z</time>
      </trkpt>
      <trkpt lat="48.36221" lon="2.80208">
        <ele>75.26</ele>
        <time>2020-10-08T12:11:14Z</time>
      </trkpt>
      <trkpt lat="48.36224" lon="2.80205">
        <ele>75.51</ele>
        <time>2020-10-08T12:11:19Z</time>
      </trkpt>
      <trkpt lat="48.36227" lon="2.80203">
        <ele>75.51</ele>
        <time>2020-10-08T12:11:24Z</time>
      </trkpt>
      <trkpt lat="48.36231" lon="2.80202">
        <ele>76.53</ele>
        <time>2020-10-08T12:11:29Z</time>
      </trkpt>
      <trkpt lat="48.36236" lon="2.80202">
        <ele>77.18</ele>
        <time>2020-10-08T12:11:34Z</time>
      </trkpt>
      <trkpt lat="48.36241" lon="2.80201">
        <ele>77.59</ele>
        <time>2020-10-08T12:11:39Z</time>
      </trkpt>
      <trkpt lat="48.36247" lon="2.80199">
        <ele>77.75</ele>
        <time>2020-10-08T12:11:44Z</time>
      </trkpt>
      <trkpt lat="48.36253" lon="2.80197">
        <ele>78.01</ele>
        <time>2020-10-08T12:11:49Z</time>
      </trkpt>
      <trkpt lat="48.36257" lon="2.80198">
        <ele>78.29</ele>
        <time>2020-10-08T12:11:54Z</time>
      </trkpt>
      <trkpt lat="48.36263" lon="2.80198">
        <ele>78.61</ele>
        <time>2020-10-08T12:11:59Z</time>
      </trkpt>
      <trkpt lat="48.36268" lon="2.80196">
        <ele>78.77</ele>
        <time>2020-10-08T12:12:04Z</time>
      </trkpt>
      <trkpt lat="48.36274" lon="2.80194">
        <ele>79.12</ele>
        <time>2020-10-08T12:12:09Z</time>
      </trkpt>
      <trkpt lat="48.36279" lon="2.80194">
        <ele>79.84</ele>
        <time>2020-10-08T12:12:14Z</time>
      </trkpt>
      <trkpt lat="48.36284" lon="2.80194">
        <ele>80.14</ele>
        <time>2020-10-08T12:12:19Z</time>
      </trkpt>
      <trkpt lat="48.3629" lon="2.80194">
        <ele>80.32</ele>
        <time>2020-10-08T12:12:25Z</time>
      </trkpt>
      <trkpt lat="48.36294" lon="2.80193">
        <ele>80.79</ele>
        <time>2020-10-08T12:12:30Z</time>
      </trkpt>
      <trkpt lat="48.363" lon="2.80192">
        <ele>81.02</ele>
        <time>2020-10-08T12:12:35Z</time>
      </trkpt>
      <trkpt lat="48.36304" lon="2.80192">
        <ele>81.48</ele>
        <time>2020-10-08T12:12:40Z</time>
      </trkpt>
      <trkpt lat="48.36309" lon="2.80192">
        <ele>81.69</ele>
        <time>2020-10-08T12:12:45Z</time>
      </trkpt>
      <trkpt lat="48.36314" lon="2.80192">
        <ele>82.11</ele>
        <time>2020-10-08T12:12:50Z</time>
      </trkpt>
      <trkpt lat="48.3632" lon="2.80191">
        <ele>82.4</ele>
        <time>2020-10-08T12:12:55Z</time>
      </trkpt>
      <trkpt lat="48.36326" lon="2.8019">
        <ele>82.5</ele>
        <time>2020-10-08T12:13:00Z</time>
      </trkpt>
      <trkpt lat="48.3633" lon="2.80189">
        <ele>82.74</ele>
        <time>2020-10-08T12:13:05Z</time>
      </trkpt>
      <trkpt lat="48.36336" lon="2.80187">
        <ele>82.77</ele>
        <time>2020-10-08T12:13:10Z</time>
      </trkpt>
      <trkpt lat="48.36341" lon="2.80184">
        <ele>82.9</ele>
        <time>2020-10-08T12:13:15Z</time>
      </trkpt>
      <trkpt lat="48.36347" lon="2.80181">
        <ele>82.96</ele>
        <time>2020-10-08T12:13:20Z</time>
      </trkpt>
      <trkpt lat="48.36352" lon="2.80179">
        <ele>83.18</ele>
        <time>2020-10-08T12:13:25Z</time>
      </trkpt>
      <trkpt lat="48.36356" lon="2.80177">
        <ele>83.27</ele>
        <time>2020-10-08T12:13:30Z</time>
      </trkpt>
      <trkpt lat="48.36361" lon="2.80176">
        <ele>83.39</ele>
        <time>2020-10-08T12:13:35Z</time>
      </trkpt>
      <trkpt lat="48.36365" lon="2.80175">
        <ele>83.36</ele>
        <time>2020-10-08T12:13:40Z</time>
      </trkpt>
      <trkpt lat="48.3637" lon="2.80174">
        <ele>83.55</ele>
        <time>2020-10-08T12:13:45Z</time>
      </trkpt>
      <trkpt lat="48.36374" lon="2.80172">
        <ele>83.69</ele>
        <time>2020-10-08T12:13:50Z</time>
      </trkpt>
      <trkpt lat="48.36379" lon="2.8017">
        <ele>83.73</ele>
        <time>2020-10-08T12:13:55Z</time>
      </trkpt>
      <trkpt lat="48.36384" lon="2.80168">
        <ele>83.73</ele>
        <time>2020-10-08T12:14:00Z</time>
      </trkpt>
      <trkpt lat="48.36388" lon="2.80168">
        <ele>83.92</ele>
        <time>2020-10-08T12:14:05Z</time>
      </trkpt>
      <trkpt lat="48.36392" lon="2.80167">
        <ele>84.41</ele>
        <time>2020-10-08T12:14:10Z</time>
      </trkpt>
      <trkpt lat="48.36397" lon="2.80166">
        <ele>84.69</ele>
        <time>2020-10-08T12:14:15Z</time>
      </trkpt>
      <trkpt lat="48.36403" lon="2.80164">
        <ele>84.86</ele>
        <time>2020-10-08T12:14:20Z</time>
      </trkpt>
      <trkpt lat="48.36408" lon="2.80162">
        <ele>85.03</ele>
        <time>2020-10-08T12:14:25Z</time>
      </trkpt>
      <trkpt lat="48.36413" lon="2.80159">
        <ele>85.31</ele>
        <time>2020-10-08T12:14:30Z</time>
      </trkpt>
      <trkpt lat="48.36418" lon="2.80157">
        <ele>85.64</ele>
        <time>2020-10-08T12:14:35Z</time>
      </trkpt>
      <trkpt lat="48.36424" lon="2.80155">
        <ele>85.73</ele>
        <time>2020-10-08T12:14:40Z</time>
      </trkpt>
      <trkpt lat="48.36429" lon="2.80152">
        <ele>85.73</ele>
        <time>2020-10-08T12:14:45Z</time>
      </trkpt>
      <trkpt lat="48.36433" lon="2.80149">
        <ele>85.68</ele>
        <time>2020-10-08T12:14:50Z</time>
      </trkpt>
      <trkpt lat="48.36439" lon="2.80145">
        <ele>86.05</ele>
        <time>2020-10-08T12:14:55Z</time>
      </trkpt>
      <trkpt lat="48.36444" lon="2.80142">
        <ele>86.14</ele>
        <time>2020-10-08T12:15:00Z</time>
      </trkpt>
      <trkpt lat="48.36449" lon="2.80139">
        <ele>86.15</ele>
        <time>2020-10-08T12:15:05Z</time>
      </trkpt>
      <trkpt lat="48.36454" lon="2.80135">
        <ele>86.31</ele>
        <time>2020-10-08T12:15:10Z</time>
      </trkpt>
      <trkpt lat="48.36458" lon="2.80133">
        <ele>86.02</ele>
        <time>2020-10-08T12:15:15Z</time>
      </trkpt>
      <trkpt lat="48.36462" lon="2.80129">
        <ele>86.15</ele>
        <time>2020-10-08T12:15:20Z</time>
      </trkpt>
      <trkpt lat="48.36467" lon="2.80125">
        <ele>86.86</ele>
        <time>2020-10-08T12:15:25Z</time>
      </trkpt>
      <trkpt lat="48.36471" lon="2.80123">
        <ele>87.71</ele>
        <time>2020-10-08T12:15:30Z</time>
      </trkpt>
      <trkpt lat="48.36475" lon="2.80121">
        <ele>88.02</ele>
        <time>2020-10-08T12:15:35Z</time>
      </trkpt>
      <trkpt lat="48.3648" lon="2.80116">
        <ele>88.11</ele>
        <time>2020-10-08T12:15:40Z</time>
      </trkpt>
      <trkpt lat="48.36485" lon="2.80111">
        <ele>88.03</ele>
        <time>2020-10-08T12:15:45Z</time>
      </trkpt>
      <trkpt lat="48.36491" lon="2.80107">
        <ele>87.78</ele>
        <time>2020-10-08T12:15:50Z</time>
      </trkpt>
      <trkpt lat="48.36495" lon="2.80103">
        <ele>88.08</ele>
        <time>2020-10-08T12:15:55Z</time>
      </trkpt>
      <trkpt lat="48.36501" lon="2.80101">
        <ele>88.43</ele>
        <time>2020-10-08T12:16:00Z</time>
      </trkpt>
      <trkpt lat="48.36505" lon="2.80099">
        <ele>88.48</ele>
        <time>2020-10-08T12:16:05Z</time>
      </trkpt>
      <trkpt lat="48.3651" lon="2.80096">
        <ele>88.57</ele>
        <time>2020-10-08T12:16:10Z</time>
      </trkpt>
      <trkpt lat="48.36515" lon="2.80094">
        <ele>88.77</ele>
        <time>2020-10-08T12:16:15Z</time>
      </trkpt>
      <trkpt lat="48.3652" lon="2.80092">
        <ele>89.22</ele>
        <time>2020-10-08T12:16:20Z</time>
      </trkpt>
      <trkpt lat="48.36526" lon="2.80089">
        <ele>89.46</ele>
        <time>2020-10-08T12:16:25Z</time>
      </trkpt>
      <trkpt lat="48.36531" lon="2.80084">
        <ele>89.33</ele>
        <time>2020-10-08T12:16:30Z</time>
      </trkpt>
      <trkpt lat="48.36536" lon="2.8008">
        <ele>89.08</ele>
        <time>2020-10-08T12:16:35Z</time>
      </trkpt>
      <trkpt lat="48.36541" lon="2.80077">
        <ele>89.04</ele>
        <time>2020-10-08T12:16:40Z</time>
      </trkpt>
      <trkpt lat="48.36546" lon="2.80074">
        <ele>89.06</ele>
        <time>2020-10-08T12:16:45Z</time>
      </trkpt>
      <trkpt lat="48.3655" lon="2.80071">
        <ele>89.14</ele>
        <time>2020-10-08T12:16:50Z</time>
      </trkpt>
      <trkpt lat="48.36555" lon="2.80069">
        <ele>89.47</ele>
        <time>2020-10-08T12:16:55Z</time>
      </trkpt>
      <trkpt lat="48.3656" lon="2.80066">
        <ele>89.47</ele>
        <time>2020-10-08T12:17:00Z</time>
      </trkpt>
      <trkpt lat="48.36565" lon="2.80061">
        <ele>89.62</ele>
        <time>2020-10-08T12:17:05Z</time>
      </trkpt>
      <trkpt lat="48.36571" lon="2.80056">
        <ele>90.04</ele>
        <time>2020-10-08T12:17:10Z</time>
      </trkpt>
      <trkpt lat="48.36576" lon="2.80052">
        <ele>90.28</ele>
        <time>2020-10-08T12:17:15Z</time>
      </trkpt>
      <trkpt lat="48.36583" lon="2.80049">
        <ele>90.03</ele>
        <time>2020-10-08T12:17:20Z</time>
      </trkpt>
      <trkpt lat="48.36588" lon="2.80044">
        <ele>89.9</ele>
        <time>2020-10-08T12:17:25Z</time>
      </trkpt>
      <trkpt lat="48.36595" lon="2.80041">
        <ele>89.94</ele>
        <time>2020-10-08T12:17:30Z</time>
      </trkpt>
      <trkpt lat="48.36598" lon="2.80035">
        <ele>89.98</ele>
        <time>2020-10-08T12:17:35Z</time>
      </trkpt>
      <trkpt lat="48.36601" lon="2.80028">
        <ele>89.78</ele>
        <time>2020-10-08T12:17:40Z</time>
      </trkpt>
      <trkpt lat="48.36604" lon="2.8002">
        <ele>89.54</ele>
        <time>2020-10-08T12:17:45Z</time>
      </trkpt>
      <trkpt lat="48.36605" lon="2.80011">
        <ele>89.48</ele>
        <time>2020-10-08T12:17:50Z</time>
      </trkpt>
      <trkpt lat="48.36606" lon="2.80006">
        <ele>89.46</ele>
        <time>2020-10-08T12:17:55Z</time>
      </trkpt>
      <trkpt lat="48.36607" lon="2.79997">
        <ele>89.59</ele>
        <time>2020-10-08T12:18:00Z</time>
      </trkpt>
      <trkpt lat="48.36606" lon="2.79987">
        <ele>89.36</ele>
        <time>2020-10-08T12:18:05Z</time>
      </trkpt>
      <trkpt lat="48.36605" lon="2.79977">
        <ele>89.19</ele>
        <time>2020-10-08T12:18:10Z</time>
      </trkpt>
      <trkpt lat="48.36605" lon="2.7997">
        <ele>89.1</ele>
        <time>2020-10-08T12:18:15Z</time>
      </trkpt>
      <trkpt lat="48.36603" lon="2.79964">
        <ele>89.13</ele>
        <time>2020-10-08T12:18:20Z</time>
      </trkpt>
      <trkpt lat="48.36603" lon="2.79956">
        <ele>89.13</ele>
        <time>2020-10-08T12:18:25Z</time>
      </trkpt>
      <trkpt lat="48.36602" lon="2.79949">
        <ele>89.04</ele>
        <time>2020-10-08T12:18:30Z</time>
      </trkpt>
      <trkpt lat="48.366" lon="2.79941">
        <ele>88.75</ele>
        <time>2020-10-08T12:18:35Z</time>
      </trkpt>
      <trkpt lat="48.366" lon="2.79933">
        <ele>88.73</ele>
        <time>2020-10-08T12:18:40Z</time>
      </trkpt>
      <trkpt lat="48.36599" lon="2.79925">
        <ele>88.58</ele>
        <time>2020-10-08T12:18:45Z</time>
      </trkpt>
      <trkpt lat="48.36599" lon="2.79915">
        <ele>88.35</ele>
        <time>2020-10-08T12:18:50Z</time>
      </trkpt>
      <trkpt lat="48.36598" lon="2.79907">
        <ele>88.31</ele>
        <time>2020-10-08T12:18:55Z</time>
      </trkpt>
      <trkpt lat="48.36596" lon="2.79898">
        <ele>88.42</ele>
        <time>2020-10-08T12:19:00Z</time>
      </trkpt>
      <trkpt lat="48.36595" lon="2.79889">
        <ele>88.57</ele>
        <time>2020-10-08T12:19:05Z</time>
      </trkpt>
      <trkpt lat="48.36595" lon="2.79881">
        <ele>88.49</ele>
        <time>2020-10-08T12:19:10Z</time>
      </trkpt>
      <trkpt lat="48.36594" lon="2.79873">
        <ele>88.33</ele>
        <time>2020-10-08T12:19:15Z</time>
      </trkpt>
      <trkpt lat="48.36592" lon="2.79864">
        <ele>88.31</ele>
        <time>2020-10-08T12:19:20Z</time>
      </trkpt>
      <trkpt lat="48.36591" lon="2.79856">
        <ele>88.36</ele>
        <time>2020-10-08T12:19:25Z</time>
      </trkpt>
      <trkpt lat="48.36589" lon="2.79847">
        <ele>88.42</ele>
        <time>2020-10-08T12:19:30Z</time>
      </trkpt>
      <trkpt lat="48.36587" lon="2.79839">
        <ele>88.38</ele>
        <time>2020-10-08T12:19:35Z</time>
      </trkpt>
      <trkpt lat="48.36585" lon="2.79832">
        <ele>88.31</ele>
        <time>2020-10-08T12:19:40Z</time>
      </trkpt>
      <trkpt lat="48.36585" lon="2.79824">
        <ele>87.98</ele>
        <time>2020-10-08T12:19:45Z</time>
      </trkpt>
      <trkpt lat="48.36585" lon="2.79817">
        <ele>87.55</ele>
        <time>2020-10-08T12:19:50Z</time>
      </trkpt>
      <trkpt lat="48.36584" lon="2.79808">
        <ele>86.96</ele>
        <time>2020-10-08T12:19:55Z</time>
      </trkpt>
      <trkpt lat="48.36582" lon="2.79799">
        <ele>86.88</ele>
        <time>2020-10-08T12:20:00Z</time>
      </trkpt>
      <trkpt lat="48.36581" lon="2.79787">
        <ele>87.63</ele>
        <time>2020-10-08T12:20:05Z</time>
      </trkpt>
      <trkpt lat="48.36581" lon="2.79777">
        <ele>87.84</ele>
        <time>2020-10-08T12:20:10Z</time>
      </trkpt>
      <trkpt lat="48.3658" lon="2.7977">
        <ele>87.17</ele>
        <time>2020-10-08T12:20:15Z</time>
      </trkpt>
      <trkpt lat="48.36579" lon="2.79761">
        <ele>87.02</ele>
        <time>2020-10-08T12:20:20Z</time>
      </trkpt>
      <trkpt lat="48.36578" lon="2.79754">
        <ele>87.2</ele>
        <time>2020-10-08T12:20:25Z</time>
      </trkpt>
      <trkpt lat="48.36578" lon="2.79746">
        <ele>86.65</ele>
        <time>2020-10-08T12:20:30Z</time>
      </trkpt>
      <trkpt lat="48.36577" lon="2.79738">
        <ele>85.91</ele>
        <time>2020-10-08T12:20:35Z</time>
      </trkpt>
      <trkpt lat="48.36577" lon="2.79728">
        <ele>85.76</ele>
        <time>2020-10-08T12:20:40Z</time>
      </trkpt>
      <trkpt lat="48.36576" lon="2.7972">
        <ele>86.05</ele>
        <time>2020-10-08T12:20:45Z</time>
      </trkpt>
      <trkpt lat="48.36574" lon="2.79713">
        <ele>86.66</ele>
        <time>2020-10-08T12:20:50Z</time>
      </trkpt>
      <trkpt lat="48.36573" lon="2.79706">
        <ele>86.77</ele>
        <time>2020-10-08T12:20:55Z</time>
      </trkpt>
      <trkpt lat="48.36572" lon="2.79698">
        <ele>86.82</ele>
        <time>2020-10-08T12:21:00Z</time>
      </trkpt>
      <trkpt lat="48.36571" lon="2.79689">
        <ele>86.82</ele>
        <time>2020-10-08T12:21:05Z</time>
      </trkpt>
      <trkpt lat="48.3657" lon="2.7968">
        <ele>86.65</ele>
        <time>2020-10-08T12:21:10Z</time>
      </trkpt>
      <trkpt lat="48.3657" lon="2.79671">
        <ele>86.55</ele>
        <time>2020-10-08T12:21:15Z</time>
      </trkpt>
      <trkpt lat="48.3657" lon="2.79661">
        <ele>86.81</ele>
        <time>2020-10-08T12:21:20Z</time>
      </trkpt>
      <trkpt lat="48.36569" lon="2.79653">
        <ele>87.05</ele>
        <time>2020-10-08T12:21:25Z</time>
      </trkpt>
      <trkpt lat="48.36566" lon="2.79645">
        <ele>87.01</ele>
        <time>2020-10-08T12:21:30Z</time>
      </trkpt>
      <trkpt lat="48.36566" lon="2.79637">
        <ele>86.57</ele>
        <time>2020-10-08T12:21:35Z</time>
      </trkpt>
      <trkpt lat="48.36567" lon="2.79629">
        <ele>86.19</ele>
        <time>2020-10-08T12:21:40Z</time>
      </trkpt>
      <trkpt lat="48.36565" lon="2.79621">
        <ele>86.57</ele>
        <time>2020-10-08T12:21:45Z</time>
      </trkpt>
      <trkpt lat="48.36564" lon="2.79613">
        <ele>86.81</ele>
        <time>2020-10-08T12:21:50Z</time>
      </trkpt>
      <trkpt lat="48.36564" lon="2.79605">
        <ele>86.83</ele>
        <time>2020-10-08T12:21:55Z</time>
      </trkpt>
      <trkpt lat="48.36563" lon="2.79597">
        <ele>86.3</ele>
        <time>2020-10-08T12:22:00Z</time>
      </trkpt>
      <trkpt lat="48.36561" lon="2.79589">
        <ele>86.2</ele>
        <time>2020-10-08T12:22:05Z</time>
      </trkpt>
      <trkpt lat="48.3656" lon="2.79581">
        <ele>86.18</ele>
        <time>2020-10-08T12:22:10Z</time>
      </trkpt>
      <trkpt lat="48.36559" lon="2.79575">
        <ele>86.46</ele>
        <time>2020-10-08T12:22:15Z</time>
      </trkpt>
      <trkpt lat="48.36558" lon="2.79567">
        <ele>86.58</ele>
        <time>2020-10-08T12:22:20Z</time>
      </trkpt>
      <trkpt lat="48.36558" lon="2.79558">
        <ele>86.6</ele>
        <time>2020-10-08T12:22:25Z</time>
      </trkpt>
      <trkpt lat="48.36557" lon="2.79548">
        <ele>86.6</ele>
        <time>2020-10-08T12:22:30Z</time>
      </trkpt>
      <trkpt lat="48.36557" lon="2.79539">
        <ele>86.4</ele>
        <time>2020-10-08T12:22:35Z</time>
      </trkpt>
      <trkpt lat="48.36555" lon="2.79532">
        <ele>86.28</ele>
        <time>2020-10-08T12:22:40Z</time>
      </trkpt>
      <trkpt lat="48.36556" lon="2.79523">
        <ele>86.48</ele>
        <time>2020-10-08T12:22:45Z</time>
      </trkpt>
      <trkpt lat="48.36555" lon="2.79514">
        <ele>86.79</ele>
        <time>2020-10-08T12:22:50Z</time>
      </trkpt>
      <trkpt lat="48.36553" lon="2.79506">
        <ele>86.79</ele>
        <time>2020-10-08T12:22:55Z</time>
      </trkpt>
      <trkpt lat="48.36551" lon="2.79499">
        <ele>86.59</ele>
        <time>2020-10-08T12:23:00Z</time>
      </trkpt>
      <trkpt lat="48.3655" lon="2.79489">
        <ele>86.73</ele>
        <time>2020-10-08T12:23:05Z</time>
      </trkpt>
      <trkpt lat="48.36549" lon="2.79482">
        <ele>86.69</ele>
        <time>2020-10-08T12:23:10Z</time>
      </trkpt>
      <trkpt lat="48.36548" lon="2.79472">
        <ele>86.54</ele>
        <time>2020-10-08T12:23:15Z</time>
      </trkpt>
      <trkpt lat="48.36547" lon="2.79461">
        <ele>87.1</ele>
        <time>2020-10-08T12:23:20Z</time>
      </trkpt>
      <trkpt lat="48.36544" lon="2.79453">
        <ele>87.78</ele>
        <time>2020-10-08T12:23:25Z</time>
      </trkpt>
      <trkpt lat="48.36544" lon="2.79445">
        <ele>87.74</ele>
        <time>2020-10-08T12:23:30Z</time>
      </trkpt>
      <trkpt lat="48.36544" lon="2.79437">
        <ele>87.33</ele>
        <time>2020-10-08T12:23:35Z</time>
      </trkpt>
      <trkpt lat="48.36544" lon="2.7943">
        <ele>86.74</ele>
        <time>2020-10-08T12:23:40Z</time>
      </trkpt>
      <trkpt lat="48.36543" lon="2.79421">
        <ele>86.45</ele>
        <time>2020-10-08T12:23:45Z</time>
      </trkpt>
      <trkpt lat="48.36542" lon="2.79414">
        <ele>86.48</ele>
        <time>2020-10-08T12:23:50Z</time>
      </trkpt>
      <trkpt lat="48.36541" lon="2.79406">
        <ele>86.71</ele>
        <time>2020-10-08T12:23:55Z</time>
      </trkpt>
      <trkpt lat="48.36542" lon="2.79397">
        <ele>86.59</ele>
        <time>2020-10-08T12:24:00Z</time>
      </trkpt>
      <trkpt lat="48.36542" lon="2.79389">
        <ele>86.68</ele>
        <time>2020-10-08T12:24:05Z</time>
      </trkpt>
      <trkpt lat="48.36541" lon="2.79379">
        <ele>86.64</ele>
        <time>2020-10-08T12:24:10Z</time>
      </trkpt>
      <trkpt lat="48.36539" lon="2.79371">
        <ele>86.62</ele>
        <time>2020-10-08T12:24:15Z</time>
      </trkpt>
      <trkpt lat="48.36539" lon="2.79362">
        <ele>86.64</ele>
        <time>2020-10-08T12:24:20Z</time>
      </trkpt>
      <trkpt lat="48.36539" lon="2.79353">
        <ele>86.63</ele>
        <time>2020-10-08T12:24:25Z</time>
      </trkpt>
      <trkpt lat="48.36538" lon="2.79345">
        <ele>86.5</ele>
        <time>2020-10-08T12:24:30Z</time>
      </trkpt>
      <trkpt lat="48.36537" lon="2.79337">
        <ele>86.44</ele>
        <time>2020-10-08T12:24:35Z</time>
      </trkpt>
      <trkpt lat="48.36536" lon="2.7933">
        <ele>86.23</ele>
        <time>2020-10-08T12:24:40Z</time>
      </trkpt>
      <trkpt lat="48.36533" lon="2.79321">
        <ele>86.31</ele>
        <time>2020-10-08T12:24:45Z</time>
      </trkpt>
      <trkpt lat="48.36531" lon="2.79314">
        <ele>86.18</ele>
        <time>2020-10-08T12:24:50Z</time>
      </trkpt>
      <trkpt lat="48.3653" lon="2.79304">
        <ele>86.12</ele>
        <time>2020-10-08T12:24:55Z</time>
      </trkpt>
      <trkpt lat="48.36531" lon="2.79295">
        <ele>86.39</ele>
        <time>2020-10-08T12:25:00Z</time>
      </trkpt>
      <trkpt lat="48.36532" lon="2.79285">
        <ele>86.3</ele>
        <time>2020-10-08T12:25:05Z</time>
      </trkpt>
      <trkpt lat="48.36534" lon="2.79275">
        <ele>86.29</ele>
        <time>2020-10-08T12:25:10Z</time>
      </trkpt>
      <trkpt lat="48.36534" lon="2.79274">
        <ele>86.48</ele>
        <time>2020-10-08T12:25:15Z</time>
      </trkpt>
      <trkpt lat="48.36534" lon="2.79274">
        <ele>86.48</ele>
        <time>2020-10-08T12:25:20Z</time>
      </trkpt>
      <trkpt lat="48.36534" lon="2.79273">
        <ele>86.48</ele>
        <time>2020-10-08T12:25:25Z</time>
      </trkpt>
      <trkpt lat="48.36534" lon="2.79272">
        <ele>86.48</ele>
        <time>2020-10-08T12:25:30Z</time>
      </trkpt>
      <trkpt lat="48.36534" lon="2.7927">
        <ele>86.48</ele>
        <time>2020-10-08T12:25:35Z</time>
      </trkpt>
      <trkpt lat="48.36535" lon="2.7927">
        <ele>86.48</ele>
        <time>2020-10-08T12:25:40Z</time>
      </trkpt>
      <trkpt lat="48.36537" lon="2.7927">
        <ele>86.48</ele>
        <time>2020-10-08T12:25:45Z</time>
      </trkpt>
      <trkpt lat="48.36537" lon="2.79271">
        <ele>86.48</ele>
        <time>2020-10-08T12:25:50Z</time>
      </trkpt>
      <trkpt lat="48.36537" lon="2.7927">
        <ele>86.48</ele>
        <time>2020-10-08T12:25:55Z</time>
      </trkpt>
      <trkpt lat="48.36537" lon="2.79269">
        <ele>86.48</ele>
        <time>2020-10-08T12:26:00Z</time>
      </trkpt>
      <trkpt lat="48.36536" lon="2.79269">
        <ele>86.48</ele>
        <time>2020-10-08T12:26:05Z</time>
      </trkpt>
      <trkpt lat="48.36535" lon="2.7927">
        <ele>86.48</ele>
        <time>2020-10-08T12:26:10Z</time>
      </trkpt>
      <trkpt lat="48.36535" lon="2.79272">
        <ele>86.48</ele>
        <time>2020-10-08T12:26:15Z</time>
      </trkpt>
      <trkpt lat="48.36535" lon="2.79274">
        <ele>86.48</ele>
        <time>2020-10-08T12:26:20Z</time>
      </trkpt>
      <trkpt lat="48.36534" lon="2.79274">
        <ele>86.48</ele>
        <time>2020-10-08T12:26:25Z</time>
      </trkpt>
      <trkpt lat="48.36535" lon="2.79273">
        <ele>86.48</ele>
        <time>2020-10-08T12:26:30Z</time>
      </trkpt>
      <trkpt lat="48.36534" lon="2.79272">
        <ele>86.48</ele>
        <time>2020-10-08T12:26:35Z</time>
      </trkpt>
      <trkpt lat="48.36533" lon="2.79273">
        <ele>86.48</ele>
        <time>2020-10-08T12:26:40Z</time>
      </trkpt>
      <trkpt lat="48.36533" lon="2.79272">
        <ele>86.48</ele>
        <time>2020-10-08T12:26:45Z</time>
      </trkpt>
      <trkpt lat="48.36533" lon="2.79272">
        <ele>86.48</ele>
        <time>2020-10-08T12:26:50Z</time>
      </trkpt>
      <trkpt lat="48.36534" lon="2.79274">
        <ele>86.48</ele>
        <time>2020-10-08T12:26:55Z</time>
      </trkpt>
      <trkpt lat="48.36534" lon="2.79274">
        <ele>86.48</ele>
        <time>2020-10-08T12:27:00Z</time>
      </trkpt>
      <trkpt lat="48.36534" lon="2.79275">
        <ele>86.48</ele>
        <time>2020-10-08T12:27:05Z</time>
      </trkpt>
      <trkpt lat="48.36535" lon="2.79275">
        <ele>86.48</ele>
        <time>2020-10-08T12:27:10Z</time>
      </trkpt>
      <trkpt lat="48.36536" lon="2.79276">
        <ele>86.48</ele>
        <time>2020-10-08T12:27:15Z</time>
      </trkpt>
      <trkpt lat="48.36537" lon="2.79275">
        <ele>86.48</ele>
        <time>2020-10-08T12:27:20Z</time>
      </trkpt>
      <trkpt lat="48.36537" lon="2.79275">
        <ele>86.48</ele>
        <time>2020-10-08T12:27:25Z</time>
      </trkpt>
      <trkpt lat="48.36538" lon="2.79274">
        <ele>86.48</ele>
        <time>2020-10-08T12:27:30Z</time>
      </trkpt>
      <trkpt lat="48.36539" lon="2.79273">
        <ele>86.48</ele>
        <time>2020-10-08T12:27:35Z</time>
      </trkpt>
      <trkpt lat="48.36539" lon="2.79274">
        <ele>86.48</ele>
        <time>2020-10-08T12:27:40Z</time>
      </trkpt>
      <trkpt lat="48.3654" lon="2.79276">
        <ele>86.48</ele>
        <time>2020-10-08T12:27:45Z</time>
      </trkpt>
      <trkpt lat="48.3654" lon="2.79277">
        <ele>86.48</ele>
        <time>2020-10-08T12:27:50Z</time>
      </trkpt>
      <trkpt lat="48.3654" lon="2.79277">
        <ele>86.48</ele>
        <time>2020-10-08T12:27:55Z</time>
      </trkpt>
      <trkpt lat="48.36538" lon="2.79279">
        <ele>86.48</ele>
        <time>2020-10-08T12:28:00Z</time>
      </trkpt>
      <trkpt lat="48.36538" lon="2.79279">
        <ele>86.48</ele>
        <time>2020-10-08T12:28:05Z</time>
      </trkpt>
      <trkpt lat="48.36537" lon="2.79279">
        <ele>86.48</ele>
        <time>2020-10-08T12:28:10Z</time>
      </trkpt>
      <trkpt lat="48.36537" lon="2.79278">
        <ele>86.48</ele>
        <time>2020-10-08T12:28:15Z</time>
      </trkpt>
      <trkpt lat="48.36537" lon="2.79277">
        <ele>86.48</ele>
        <time>2020-10-08T12:28:20Z</time>
      </trkpt>
      <trkpt lat="48.36537" lon="2.79277">
        <ele>86.48</ele>
        <time>2020-10-08T12:28:25Z</time>
      </trkpt>
      <trkpt lat="48.36537" lon="2.79278">
        <ele>86.48</ele>
        <time>2020-10-08T12:28:30Z</time>
      </trkpt>
      <trkpt lat="48.36538" lon="2.79276">
        <ele>86.48</ele>
        <time>2020-10-08T12:28:35Z</time>
      </trkpt>
      <trkpt lat="48.36539" lon="2.79267">
        <ele>86.48</ele>
        <time>2020-10-08T12:28:40Z</time>
      </trkpt>
      <trkpt lat="48.36538" lon="2.79261">
        <ele>86.48</ele>
        <time>2020-10-08T12:28:45Z</time>
      </trkpt>
      <trkpt lat="48.36536" lon="2.79253">
        <ele>86.48</ele>
        <time>2020-10-08T12:28:50Z</time>
      </trkpt>
      <trkpt lat="48.36536" lon="2.79246">
        <ele>86.48</ele>
        <time>2020-10-08T12:28:55Z</time>
      </trkpt>
      <trkpt lat="48.36537" lon="2.79241">
        <ele>86.48</ele>
        <time>2020-10-08T12:29:00Z</time>
      </trkpt>
      <trkpt lat="48.36538" lon="2.79233">
        <ele>86.48</ele>
        <time>2020-10-08T12:29:05Z</time>
      </trkpt>
      <trkpt lat="48.36538" lon="2.79226">
        <ele>86.45</ele>
        <time>2020-10-08T12:29:10Z</time>
      </trkpt>
      <trkpt lat="48.36539" lon="2.7922">
        <ele>86.4</ele>
        <time>2020-10-08T12:29:15Z</time>
      </trkpt>
      <trkpt lat="48.3654" lon="2.79213">
        <ele>86.18</ele>
        <time>2020-10-08T12:29:20Z</time>
      </trkpt>
      <trkpt lat="48.3654" lon="2.79207">
        <ele>86.1</ele>
        <time>2020-10-08T12:29:25Z</time>
      </trkpt>
      <trkpt lat="48.36541" lon="2.79198">
        <ele>86.1</ele>
        <time>2020-10-08T12:29:30Z</time>
      </trkpt>
      <trkpt lat="48.36541" lon="2.79188">
        <ele>85.94</ele>
        <time>2020-10-08T12:29:35Z</time>
      </trkpt>
      <trkpt lat="48.36541" lon="2.79178">
        <ele>85.87</ele>
        <time>2020-10-08T12:29:40Z</time>
      </trkpt>
      <trkpt lat="48.36542" lon="2.79168">
        <ele>85.97</ele>
        <time>2020-10-08T12:29:45Z</time>
      </trkpt>
      <trkpt lat="48.36545" lon="2.7916">
        <ele>86.06</ele>
        <time>2020-10-08T12:29:50Z</time>
      </trkpt>
      <trkpt lat="48.36545" lon="2.79152">
        <ele>85.9</ele>
        <time>2020-10-08T12:29:55Z</time>
      </trkpt>
      <trkpt lat="48.36545" lon="2.79144">
        <ele>85.94</ele>
        <time>2020-10-08T12:30:00Z</time>
      </trkpt>
      <trkpt lat="48.36546" lon="2.79135">
        <ele>86.02</ele>
        <time>2020-10-08T12:30:05Z</time>
      </trkpt>
      <trkpt lat="48.36547" lon="2.79126">
        <ele>86.05</ele>
        <time>2020-10-08T12:30:10Z</time>
      </trkpt>
      <trkpt lat="48.36547" lon="2.79118">
        <ele>85.97</ele>
        <time>2020-10-08T12:30:15Z</time>
      </trkpt>
      <trkpt lat="48.36547" lon="2.79108">
        <ele>85.85</ele>
        <time>2020-10-08T12:30:20Z</time>
      </trkpt>
      <trkpt lat="48.36548" lon="2.791">
        <ele>85.52</ele>
        <time>2020-10-08T12:30:25Z</time>
      </trkpt>
      <trkpt lat="48.36549" lon="2.79091">
        <ele>85.45</ele>
        <time>2020-10-08T12:30:30Z</time>
      </trkpt>
      <trkpt lat="48.36551" lon="2.79082">
        <ele>85.7</ele>
        <time>2020-10-08T12:30:35Z</time>
      </trkpt>
      <trkpt lat="48.36553" lon="2.79073">
        <ele>85.78</ele>
        <time>2020-10-08T12:30:40Z</time>
      </trkpt>
      <trkpt lat="48.36555" lon="2.79064">
        <ele>85.65</ele>
        <time>2020-10-08T12:30:45Z</time>
      </trkpt>
      <trkpt lat="48.36555" lon="2.79057">
        <ele>85.56</ele>
        <time>2020-10-08T12:30:50Z</time>
      </trkpt>
      <trkpt lat="48.36557" lon="2.79049">
        <ele>85.53</ele>
        <time>2020-10-08T12:30:55Z</time>
      </trkpt>
      <trkpt lat="48.36557" lon="2.7904">
        <ele>85.59</ele>
        <time>2020-10-08T12:31:00Z</time>
      </trkpt>
      <trkpt lat="48.36559" lon="2.79033">
        <ele>85.87</ele>
        <time>2020-10-08T12:31:05Z</time>
      </trkpt>
      <trkpt lat="48.36559" lon="2.79025">
        <ele>86.25</ele>
        <time>2020-10-08T12:31:10Z</time>
      </trkpt>
      <trkpt lat="48.3656" lon="2.79017">
        <ele>86.37</ele>
        <time>2020-10-08T12:31:15Z</time>
      </trkpt>
      <trkpt lat="48.36561" lon="2.79008">
        <ele>86.27</ele>
        <time>2020-10-08T12:31:20Z</time>
      </trkpt>
      <trkpt lat="48.36562" lon="2.78998">
        <ele>86.02</ele>
        <time>2020-10-08T12:31:25Z</time>
      </trkpt>
      <trkpt lat="48.36564" lon="2.78988">
        <ele>85.7</ele>
        <time>2020-10-08T12:31:30Z</time>
      </trkpt>
      <trkpt lat="48.36565" lon="2.78977">
        <ele>85.35</ele>
        <time>2020-10-08T12:31:35Z</time>
      </trkpt>
      <trkpt lat="48.36565" lon="2.78974">
        <ele>85.01</ele>
        <time>2020-10-08T12:31:40Z</time>
      </trkpt>
      <trkpt lat="48.36565" lon="2.78963">
        <ele>84.98</ele>
        <time>2020-10-08T12:31:45Z</time>
      </trkpt>
      <trkpt lat="48.36565" lon="2.78955">
        <ele>85.25</ele>
        <time>2020-10-08T12:31:50Z</time>
      </trkpt>
      <trkpt lat="48.36566" lon="2.78943">
        <ele>85.2</ele>
        <time>2020-10-08T12:31:55Z</time>
      </trkpt>
      <trkpt lat="48.36567" lon="2.78933">
        <ele>85.05</ele>
        <time>2020-10-08T12:32:00Z</time>
      </trkpt>
      <trkpt lat="48.36568" lon="2.78924">
        <ele>85.03</ele>
        <time>2020-10-08T12:32:05Z</time>
      </trkpt>
      <trkpt lat="48.3657" lon="2.78916">
        <ele>85.01</ele>
        <time>2020-10-08T12:32:10Z</time>
      </trkpt>
      <trkpt lat="48.36572" lon="2.78905">
        <ele>84.95</ele>
        <time>2020-10-08T12:32:15Z</time>
      </trkpt>
      <trkpt lat="48.36573" lon="2.78895">
        <ele>84.92</ele>
        <time>2020-10-08T12:32:20Z</time>
      </trkpt>
      <trkpt lat="48.36575" lon="2.78887">
        <ele>85.19</ele>
        <time>2020-10-08T12:32:25Z</time>
      </trkpt>
      <trkpt lat="48.36577" lon="2.78878">
        <ele>85.29</ele>
        <time>2020-10-08T12:32:30Z</time>
      </trkpt>
      <trkpt lat="48.36577" lon="2.78873">
        <ele>85.2</ele>
        <time>2020-10-08T12:32:35Z</time>
      </trkpt>
      <trkpt lat="48.36577" lon="2.78866">
        <ele>85.22</ele>
        <time>2020-10-08T12:32:40Z</time>
      </trkpt>
      <trkpt lat="48.36577" lon="2.78857">
        <ele>85.45</ele>
        <time>2020-10-08T12:32:45Z</time>
      </trkpt>
      <trkpt lat="48.36578" lon="2.78849">
        <ele>85.57</ele>
        <time>2020-10-08T12:32:50Z</time>
      </trkpt>
      <trkpt lat="48.36577" lon="2.78842">
        <ele>85.6</ele>
        <time>2020-10-08T12:32:55Z</time>
      </trkpt>
      <trkpt lat="48.36577" lon="2.78834">
        <ele>85.59</ele>
        <time>2020-10-08T12:33:00Z</time>
      </trkpt>
      <trkpt lat="48.36578" lon="2.78826">
        <ele>85.55</ele>
        <time>2020-10-08T12:33:05Z</time>
      </trkpt>
      <trkpt lat="48.36579" lon="2.78818">
        <ele>85.74</ele>
        <time>2020-10-08T12:33:10Z</time>
      </trkpt>
      <trkpt lat="48.3658" lon="2.7881">
        <ele>86.07</ele>
        <time>2020-10-08T12:33:15Z</time>
      </trkpt>
      <trkpt lat="48.36581" lon="2.78803">
        <ele>86.29</ele>
        <time>2020-10-08T12:33:20Z</time>
      </trkpt>
      <trkpt lat="48.36583" lon="2.78796">
        <ele>86.51</ele>
        <time>2020-10-08T12:33:25Z</time>
      </trkpt>
      <trkpt lat="48.36584" lon="2.78788">
        <ele>86.72</ele>
        <time>2020-10-08T12:33:30Z</time>
      </trkpt>
      <trkpt lat="48.36584" lon="2.78778">
        <ele>87.06</ele>
        <time>2020-10-08T12:33:35Z</time>
      </trkpt>
      <trkpt lat="48.36586" lon="2.7877">
        <ele>87.27</ele>
        <time>2020-10-08T12:33:40Z</time>
      </trkpt>
      <trkpt lat="48.36587" lon="2.78761">
        <ele>87.54</ele>
        <time>2020-10-08T12:33:45Z</time>
      </trkpt>
      <trkpt lat="48.36589" lon="2.78753">
        <ele>87.88</ele>
        <time>2020-10-08T12:33:50Z</time>
      </trkpt>
      <trkpt lat="48.3659" lon="2.78742">
        <ele>88</ele>
        <time>2020-10-08T12:33:55Z</time>
      </trkpt>
      <trkpt lat="48.36591" lon="2.78732">
        <ele>87.91</ele>
        <time>2020-10-08T12:34:00Z</time>
      </trkpt>
      <trkpt lat="48.36592" lon="2.78721">
        <ele>87.77</ele>
        <time>2020-10-08T12:34:05Z</time>
      </trkpt>
      <trkpt lat="48.36593" lon="2.78713">
        <ele>87.47</ele>
        <time>2020-10-08T12:34:10Z</time>
      </trkpt>
      <trkpt lat="48.36594" lon="2.78703">
        <ele>87.49</ele>
        <time>2020-10-08T12:34:15Z</time>
      </trkpt>
      <trkpt lat="48.36595" lon="2.78693">
        <ele>87.58</ele>
        <time>2020-10-08T12:34:20Z</time>
      </trkpt>
      <trkpt lat="48.36596" lon="2.78683">
        <ele>87.28</ele>
        <time>2020-10-08T12:34:25Z</time>
      </trkpt>
      <trkpt lat="48.36596" lon="2.78675">
        <ele>87.01</ele>
        <time>2020-10-08T12:34:30Z</time>
      </trkpt>
      <trkpt lat="48.36598" lon="2.78666">
        <ele>86.96</ele>
        <time>2020-10-08T12:34:35Z</time>
      </trkpt>
      <trkpt lat="48.366" lon="2.7866">
        <ele>87</ele>
        <time>2020-10-08T12:34:40Z</time>
      </trkpt>
      <trkpt lat="48.366" lon="2.78653">
        <ele>86.66</ele>
        <time>2020-10-08T12:34:45Z</time>
      </trkpt>
      <trkpt lat="48.36601" lon="2.78644">
        <ele>86.77</ele>
        <time>2020-10-08T12:34:50Z</time>
      </trkpt>
      <trkpt lat="48.36602" lon="2.78635">
        <ele>86.84</ele>
        <time>2020-10-08T12:34:55Z</time>
      </trkpt>
      <trkpt lat="48.36603" lon="2.78627">
        <ele>86.79</ele>
        <time>2020-10-08T12:35:00Z</time>
      </trkpt>
      <trkpt lat="48.36602" lon="2.78617">
        <ele>86.77</ele>
        <time>2020-10-08T12:35:05Z</time>
      </trkpt>
      <trkpt lat="48.36602" lon="2.78608">
        <ele>86.75</ele>
        <time>2020-10-08T12:35:10Z</time>
      </trkpt>
      <trkpt lat="48.36602" lon="2.78599">
        <ele>86.77</ele>
        <time>2020-10-08T12:35:15Z</time>
      </trkpt>
      <trkpt lat="48.36603" lon="2.7859">
        <ele>86.77</ele>
        <time>2020-10-08T12:35:20Z</time>
      </trkpt>
      <trkpt lat="48.36603" lon="2.78581">
        <ele>86.94</ele>
        <time>2020-10-08T12:35:25Z</time>
      </trkpt>
      <trkpt lat="48.36604" lon="2.78571">
        <ele>86.92</ele>
        <time>2020-10-08T12:35:30Z</time>
      </trkpt>
      <trkpt lat="48.36606" lon="2.78562">
        <ele>86.94</ele>
        <time>2020-10-08T12:35:35Z</time>
      </trkpt>
      <trkpt lat="48.36608" lon="2.78555">
        <ele>86.86</ele>
        <time>2020-10-08T12:35:40Z</time>
      </trkpt>
      <trkpt lat="48.36609" lon="2.78543">
        <ele>87.04</ele>
        <time>2020-10-08T12:35:45Z</time>
      </trkpt>
      <trkpt lat="48.36609" lon="2.78536">
        <ele>87.3</ele>
        <time>2020-10-08T12:35:50Z</time>
      </trkpt>
      <trkpt lat="48.36609" lon="2.78525">
        <ele>87.37</ele>
        <time>2020-10-08T12:35:55Z</time>
      </trkpt>
      <trkpt lat="48.36609" lon="2.78516">
        <ele>87.3</ele>
        <time>2020-10-08T12:36:00Z</time>
      </trkpt>
      <trkpt lat="48.36611" lon="2.78507">
        <ele>87.26</ele>
        <time>2020-10-08T12:36:05Z</time>
      </trkpt>
      <trkpt lat="48.36613" lon="2.78499">
        <ele>87.19</ele>
        <time>2020-10-08T12:36:10Z</time>
      </trkpt>
      <trkpt lat="48.36614" lon="2.7849">
        <ele>87</ele>
        <time>2020-10-08T12:36:15Z</time>
      </trkpt>
      <trkpt lat="48.36615" lon="2.78481">
        <ele>86.84</ele>
        <time>2020-10-08T12:36:20Z</time>
      </trkpt>
      <trkpt lat="48.36616" lon="2.78473">
        <ele>86.88</ele>
        <time>2020-10-08T12:36:25Z</time>
      </trkpt>
      <trkpt lat="48.36617" lon="2.78463">
        <ele>86.97</ele>
        <time>2020-10-08T12:36:30Z</time>
      </trkpt>
      <trkpt lat="48.36617" lon="2.78452">
        <ele>86.91</ele>
        <time>2020-10-08T12:36:35Z</time>
      </trkpt>
      <trkpt lat="48.36617" lon="2.78442">
        <ele>86.8</ele>
        <time>2020-10-08T12:36:40Z</time>
      </trkpt>
      <trkpt lat="48.36619" lon="2.78436">
        <ele>86.63</ele>
        <time>2020-10-08T12:36:45Z</time>
      </trkpt>
      <trkpt lat="48.3662" lon="2.78427">
        <ele>86.24</ele>
        <time>2020-10-08T12:36:50Z</time>
      </trkpt>
      <trkpt lat="48.3662" lon="2.78416">
        <ele>86.42</ele>
        <time>2020-10-08T12:36:55Z</time>
      </trkpt>
      <trkpt lat="48.36622" lon="2.78407">
        <ele>86.82</ele>
        <time>2020-10-08T12:37:00Z</time>
      </trkpt>
      <trkpt lat="48.36623" lon="2.78397">
        <ele>86.73</ele>
        <time>2020-10-08T12:37:05Z</time>
      </trkpt>
      <trkpt lat="48.36624" lon="2.78388">
        <ele>86.51</ele>
        <time>2020-10-08T12:37:10Z</time>
      </trkpt>
      <trkpt lat="48.36625" lon="2.78378">
        <ele>86.4</ele>
        <time>2020-10-08T12:37:15Z</time>
      </trkpt>
      <trkpt lat="48.36626" lon="2.78372">
        <ele>86.38</ele>
        <time>2020-10-08T12:37:20Z</time>
      </trkpt>
      <trkpt lat="48.36628" lon="2.78364">
        <ele>86.43</ele>
        <time>2020-10-08T12:37:25Z</time>
      </trkpt>
      <trkpt lat="48.36629" lon="2.78354">
        <ele>86.33</ele>
        <time>2020-10-08T12:37:30Z</time>
      </trkpt>
      <trkpt lat="48.3663" lon="2.78344">
        <ele>86.1</ele>
        <time>2020-10-08T12:37:35Z</time>
      </trkpt>
      <trkpt lat="48.3663" lon="2.78336">
        <ele>86.11</ele>
        <time>2020-10-08T12:37:40Z</time>
      </trkpt>
      <trkpt lat="48.3663" lon="2.78327">
        <ele>86.43</ele>
        <time>2020-10-08T12:37:45Z</time>
      </trkpt>
      <trkpt lat="48.36635" lon="2.7832">
        <ele>86.53</ele>
        <time>2020-10-08T12:37:50Z</time>
      </trkpt>
      <trkpt lat="48.36641" lon="2.78326">
        <ele>86.4</ele>
        <time>2020-10-08T12:37:55Z</time>
      </trkpt>
      <trkpt lat="48.36643" lon="2.78334">
        <ele>86.18</ele>
        <time>2020-10-08T12:38:00Z</time>
      </trkpt>
      <trkpt lat="48.36646" lon="2.78341">
        <ele>86.15</ele>
        <time>2020-10-08T12:38:05Z</time>
      </trkpt>
      <trkpt lat="48.36649" lon="2.78348">
        <ele>86.19</ele>
        <time>2020-10-08T12:38:10Z</time>
      </trkpt>
      <trkpt lat="48.36651" lon="2.78353">
        <ele>86.15</ele>
        <time>2020-10-08T12:38:15Z</time>
      </trkpt>
      <trkpt lat="48.36653" lon="2.78358">
        <ele>86.18</ele>
        <time>2020-10-08T12:38:20Z</time>
      </trkpt>
      <trkpt lat="48.36656" lon="2.78363">
        <ele>86.22</ele>
        <time>2020-10-08T12:38:25Z</time>
      </trkpt>
      <trkpt lat="48.36659" lon="2.78368">
        <ele>86.49</ele>
        <time>2020-10-08T12:38:30Z</time>
      </trkpt>
      <trkpt lat="48.36662" lon="2.78373">
        <ele>86.52</ele>
        <time>2020-10-08T12:38:35Z</time>
      </trkpt>
      <trkpt lat="48.36663" lon="2.78379">
        <ele>86.69</ele>
        <time>2020-10-08T12:38:40Z</time>
      </trkpt>
      <trkpt lat="48.36664" lon="2.78384">
        <ele>86.68</ele>
        <time>2020-10-08T12:38:45Z</time>
      </trkpt>
      <trkpt lat="48.36666" lon="2.7839">
        <ele>86.68</ele>
        <time>2020-10-08T12:38:50Z</time>
      </trkpt>
      <trkpt lat="48.36668" lon="2.78397">
        <ele>86.56</ele>
        <time>2020-10-08T12:38:55Z</time>
      </trkpt>
      <trkpt lat="48.36671" lon="2.78402">
        <ele>86.45</ele>
        <time>2020-10-08T12:39:00Z</time>
      </trkpt>
      <trkpt lat="48.36672" lon="2.78409">
        <ele>86.31</ele>
        <time>2020-10-08T12:39:05Z</time>
      </trkpt>
      <trkpt lat="48.36674" lon="2.78415">
        <ele>86.13</ele>
        <time>2020-10-08T12:39:10Z</time>
      </trkpt>
      <trkpt lat="48.36677" lon="2.78422">
        <ele>85.97</ele>
        <time>2020-10-08T12:39:15Z</time>
      </trkpt>
      <trkpt lat="48.3668" lon="2.78428">
        <ele>86.2</ele>
        <time>2020-10-08T12:39:20Z</time>
      </trkpt>
      <trkpt lat="48.36682" lon="2.78435">
        <ele>86.81</ele>
        <time>2020-10-08T12:39:25Z</time>
      </trkpt>
      <trkpt lat="48.36685" lon="2.78442">
        <ele>87.01</ele>
        <time>2020-10-08T12:39:30Z</time>
      </trkpt>
      <trkpt lat="48.36685" lon="2.78451">
        <ele>86.98</ele>
        <time>2020-10-08T12:39:35Z</time>
      </trkpt>
      <trkpt lat="48.36686" lon="2.78457">
        <ele>86.88</ele>
        <time>2020-10-08T12:39:40Z</time>
      </trkpt>
      <trkpt lat="48.36687" lon="2.78464">
        <ele>86.99</ele>
        <time>2020-10-08T12:39:45Z</time>
      </trkpt>
      <trkpt lat="48.36688" lon="2.7847">
        <ele>87.09</ele>
        <time>2020-10-08T12:39:50Z</time>
      </trkpt>
      <trkpt lat="48.3669" lon="2.78478">
        <ele>87.06</ele>
        <time>2020-10-08T12:39:55Z</time>
      </trkpt>
      <trkpt lat="48.36692" lon="2.78486">
        <ele>86.94</ele>
        <time>2020-10-08T12:40:00Z</time>
      </trkpt>
      <trkpt lat="48.36694" lon="2.78494">
        <ele>86.78</ele>
        <time>2020-10-08T12:40:05Z</time>
      </trkpt>
      <trkpt lat="48.36696" lon="2.78502">
        <ele>86.68</ele>
        <time>2020-10-08T12:40:10Z</time>
      </trkpt>
      <trkpt lat="48.36699" lon="2.78508">
        <ele>86.3</ele>
        <time>2020-10-08T12:40:15Z</time>
      </trkpt>
      <trkpt lat="48.36701" lon="2.78514">
        <ele>86.29</ele>
        <time>2020-10-08T12:40:20Z</time>
      </trkpt>
      <trkpt lat="48.36704" lon="2.7852">
        <ele>86.49</ele>
        <time>2020-10-08T12:40:25Z</time>
      </trkpt>
      <trkpt lat="48.36708" lon="2.78526">
        <ele>86.66</ele>
        <time>2020-10-08T12:40:30Z</time>
      </trkpt>
      <trkpt lat="48.36711" lon="2.78532">
        <ele>86.98</ele>
        <time>2020-10-08T12:40:35Z</time>
      </trkpt>
      <trkpt lat="48.36712" lon="2.78539">
        <ele>87.1</ele>
        <time>2020-10-08T12:40:40Z</time>
      </trkpt>
      <trkpt lat="48.36716" lon="2.78546">
        <ele>87.25</ele>
        <time>2020-10-08T12:40:45Z</time>
      </trkpt>
      <trkpt lat="48.36718" lon="2.78554">
        <ele>87.33</ele>
        <time>2020-10-08T12:40:50Z</time>
      </trkpt>
      <trkpt lat="48.3672" lon="2.7856">
        <ele>87.33</ele>
        <time>2020-10-08T12:40:55Z</time>
      </trkpt>
      <trkpt lat="48.36724" lon="2.78566">
        <ele>87.43</ele>
        <time>2020-10-08T12:41:00Z</time>
      </trkpt>
      <trkpt lat="48.36729" lon="2.78571">
        <ele>87.54</ele>
        <time>2020-10-08T12:41:05Z</time>
      </trkpt>
      <trkpt lat="48.36732" lon="2.78576">
        <ele>87.59</ele>
        <time>2020-10-08T12:41:10Z</time>
      </trkpt>
      <trkpt lat="48.36735" lon="2.78583">
        <ele>87.68</ele>
        <time>2020-10-08T12:41:15Z</time>
      </trkpt>
      <trkpt lat="48.36738" lon="2.78589">
        <ele>87.87</ele>
        <time>2020-10-08T12:41:20Z</time>
      </trkpt>
      <trkpt lat="48.36742" lon="2.78595">
        <ele>88.14</ele>
        <time>2020-10-08T12:41:25Z</time>
      </trkpt>
      <trkpt lat="48.36746" lon="2.78601">
        <ele>88.46</ele>
        <time>2020-10-08T12:41:30Z</time>
      </trkpt>
      <trkpt lat="48.36749" lon="2.78607">
        <ele>88.67</ele>
        <time>2020-10-08T12:41:35Z</time>
      </trkpt>
      <trkpt lat="48.36752" lon="2.78614">
        <ele>88.94</ele>
        <time>2020-10-08T12:41:40Z</time>
      </trkpt>
      <trkpt lat="48.36757" lon="2.7862">
        <ele>88.99</ele>
        <time>2020-10-08T12:41:45Z</time>
      </trkpt>
      <trkpt lat="48.36761" lon="2.78625">
        <ele>88.85</ele>
        <time>2020-10-08T12:41:50Z</time>
      </trkpt>
      <trkpt lat="48.36765" lon="2.78629">
        <ele>88.45</ele>
        <time>2020-10-08T12:41:55Z</time>
      </trkpt>
      <trkpt lat="48.3677" lon="2.78631">
        <ele>88.24</ele>
        <time>2020-10-08T12:42:00Z</time>
      </trkpt>
      <trkpt lat="48.36775" lon="2.78634">
        <ele>88.19</ele>
        <time>2020-10-08T12:42:05Z</time>
      </trkpt>
      <trkpt lat="48.3678" lon="2.78638">
        <ele>88.21</ele>
        <time>2020-10-08T12:42:10Z</time>
      </trkpt>
      <trkpt lat="48.36785" lon="2.78641">
        <ele>88.38</ele>
        <time>2020-10-08T12:42:15Z</time>
      </trkpt>
      <trkpt lat="48.36789" lon="2.78644">
        <ele>88.36</ele>
        <time>2020-10-08T12:42:20Z</time>
      </trkpt>
      <trkpt lat="48.36794" lon="2.78649">
        <ele>88.16</ele>
        <time>2020-10-08T12:42:25Z</time>
      </trkpt>
      <trkpt lat="48.36798" lon="2.78652">
        <ele>88.09</ele>
        <time>2020-10-08T12:42:30Z</time>
      </trkpt>
      <trkpt lat="48.36803" lon="2.78655">
        <ele>88.08</ele>
        <time>2020-10-08T12:42:35Z</time>
      </trkpt>
      <trkpt lat="48.36808" lon="2.7866">
        <ele>88.06</ele>
        <time>2020-10-08T12:42:40Z</time>
      </trkpt>
      <trkpt lat="48.36813" lon="2.78664">
        <ele>88.1</ele>
        <time>2020-10-08T12:42:45Z</time>
      </trkpt>
      <trkpt lat="48.36818" lon="2.78668">
        <ele>88.19</ele>
        <time>2020-10-08T12:42:50Z</time>
      </trkpt>
      <trkpt lat="48.36823" lon="2.78672">
        <ele>88.21</ele>
        <time>2020-10-08T12:42:55Z</time>
      </trkpt>
      <trkpt lat="48.36828" lon="2.78676">
        <ele>88.28</ele>
        <time>2020-10-08T12:43:00Z</time>
      </trkpt>
      <trkpt lat="48.36833" lon="2.78677">
        <ele>88.44</ele>
        <time>2020-10-08T12:43:05Z</time>
      </trkpt>
      <trkpt lat="48.36839" lon="2.7868">
        <ele>88.63</ele>
        <time>2020-10-08T12:43:10Z</time>
      </trkpt>
      <trkpt lat="48.36844" lon="2.78685">
        <ele>88.8</ele>
        <time>2020-10-08T12:43:15Z</time>
      </trkpt>
      <trkpt lat="48.36848" lon="2.7869">
        <ele>88.8</ele>
        <time>2020-10-08T12:43:20Z</time>
      </trkpt>
      <trkpt lat="48.36853" lon="2.78692">
        <ele>88.84</ele>
        <time>2020-10-08T12:43:25Z</time>
      </trkpt>
      <trkpt lat="48.36857" lon="2.78696">
        <ele>88.94</ele>
        <time>2020-10-08T12:43:30Z</time>
      </trkpt>
      <trkpt lat="48.36859" lon="2.78702">
        <ele>89.15</ele>
        <time>2020-10-08T12:43:35Z</time>
      </trkpt>
      <trkpt lat="48.36863" lon="2.78707">
        <ele>89.32</ele>
        <time>2020-10-08T12:43:40Z</time>
      </trkpt>
      <trkpt lat="48.36868" lon="2.78711">
        <ele>89.53</ele>
        <time>2020-10-08T12:43:45Z</time>
      </trkpt>
      <trkpt lat="48.36872" lon="2.78715">
        <ele>89.82</ele>
        <time>2020-10-08T12:43:50Z</time>
      </trkpt>
      <trkpt lat="48.36877" lon="2.78718">
        <ele>89.93</ele>
        <time>2020-10-08T12:43:55Z</time>
      </trkpt>
      <trkpt lat="48.36882" lon="2.78719">
        <ele>89.93</ele>
        <time>2020-10-08T12:44:00Z</time>
      </trkpt>
      <trkpt lat="48.36887" lon="2.7872">
        <ele>89.8</ele>
        <time>2020-10-08T12:44:05Z</time>
      </trkpt>
      <trkpt lat="48.36893" lon="2.78721">
        <ele>89.44</ele>
        <time>2020-10-08T12:44:10Z</time>
      </trkpt>
      <trkpt lat="48.36899" lon="2.78721">
        <ele>89.16</ele>
        <time>2020-10-08T12:44:15Z</time>
      </trkpt>
      <trkpt lat="48.36902" lon="2.78722">
        <ele>89</ele>
        <time>2020-10-08T12:44:20Z</time>
      </trkpt>
      <trkpt lat="48.36908" lon="2.78725">
        <ele>88.78</ele>
        <time>2020-10-08T12:44:25Z</time>
      </trkpt>
      <trkpt lat="48.36912" lon="2.78727">
        <ele>88.58</ele>
        <time>2020-10-08T12:44:30Z</time>
      </trkpt>
      <trkpt lat="48.36917" lon="2.78729">
        <ele>88.33</ele>
        <time>2020-10-08T12:44:35Z</time>
      </trkpt>
      <trkpt lat="48.36925" lon="2.78731">
        <ele>88.1</ele>
        <time>2020-10-08T12:44:40Z</time>
      </trkpt>
      <trkpt lat="48.3693" lon="2.78732">
        <ele>87.98</ele>
        <time>2020-10-08T12:44:45Z</time>
      </trkpt>
      <trkpt lat="48.36936" lon="2.78734">
        <ele>87.79</ele>
        <time>2020-10-08T12:44:50Z</time>
      </trkpt>
      <trkpt lat="48.36943" lon="2.78736">
        <ele>87.63</ele>
        <time>2020-10-08T12:44:55Z</time>
      </trkpt>
      <trkpt lat="48.36948" lon="2.78739">
        <ele>87.44</ele>
        <time>2020-10-08T12:45:00Z</time>
      </trkpt>
      <trkpt lat="48.36952" lon="2.78741">
        <ele>87.35</ele>
        <time>2020-10-08T12:45:05Z</time>
      </trkpt>
      <trkpt lat="48.36956" lon="2.78744">
        <ele>87.29</ele>
        <time>2020-10-08T12:45:10Z</time>
      </trkpt>
      <trkpt lat="48.36963" lon="2.78746">
        <ele>87.4</ele>
        <time>2020-10-08T12:45:15Z</time>
      </trkpt>
      <trkpt lat="48.3697" lon="2.78752">
        <ele>87.68</ele>
        <time>2020-10-08T12:45:20Z</time>
      </trkpt>
      <trkpt lat="48.36976" lon="2.78758">
        <ele>87.82</ele>
        <time>2020-10-08T12:45:25Z</time>
      </trkpt>
      <trkpt lat="48.36982" lon="2.78761">
        <ele>87.86</ele>
        <time>2020-10-08T12:45:30Z</time>
      </trkpt>
      <trkpt lat="48.36988" lon="2.78763">
        <ele>87.96</ele>
        <time>2020-10-08T12:45:35Z</time>
      </trkpt>
      <trkpt lat="48.36993" lon="2.78765">
        <ele>88.06</ele>
        <time>2020-10-08T12:45:40Z</time>
      </trkpt>
      <trkpt lat="48.36997" lon="2.78768">
        <ele>88.11</ele>
        <time>2020-10-08T12:45:45Z</time>
      </trkpt>
      <trkpt lat="48.37003" lon="2.78769">
        <ele>88.18</ele>
        <time>2020-10-08T12:45:50Z</time>
      </trkpt>
      <trkpt lat="48.37007" lon="2.78772">
        <ele>88.12</ele>
        <time>2020-10-08T12:45:55Z</time>
      </trkpt>
      <trkpt lat="48.37011" lon="2.78775">
        <ele>88.06</ele>
        <time>2020-10-08T12:46:00Z</time>
      </trkpt>
      <trkpt lat="48.37015" lon="2.7878">
        <ele>88.1</ele>
        <time>2020-10-08T12:46:05Z</time>
      </trkpt>
      <trkpt lat="48.3702" lon="2.78783">
        <ele>88.17</ele>
        <time>2020-10-08T12:46:10Z</time>
      </trkpt>
      <trkpt lat="48.37024" lon="2.78787">
        <ele>88.24</ele>
        <time>2020-10-08T12:46:15Z</time>
      </trkpt>
      <trkpt lat="48.37028" lon="2.7879">
        <ele>88.38</ele>
        <time>2020-10-08T12:46:20Z</time>
      </trkpt>
      <trkpt lat="48.37032" lon="2.78792">
        <ele>88.44</ele>
        <time>2020-10-08T12:46:25Z</time>
      </trkpt>
      <trkpt lat="48.37037" lon="2.78795">
        <ele>88.53</ele>
        <time>2020-10-08T12:46:30Z</time>
      </trkpt>
      <trkpt lat="48.37042" lon="2.78797">
        <ele>88.63</ele>
        <time>2020-10-08T12:46:35Z</time>
      </trkpt>
      <trkpt lat="48.37047" lon="2.78801">
        <ele>88.89</ele>
        <time>2020-10-08T12:46:40Z</time>
      </trkpt>
      <trkpt lat="48.37052" lon="2.78802">
        <ele>89.29</ele>
        <time>2020-10-08T12:46:45Z</time>
      </trkpt>
      <trkpt lat="48.37057" lon="2.78804">
        <ele>89.77</ele>
        <time>2020-10-08T12:46:50Z</time>
      </trkpt>
      <trkpt lat="48.37062" lon="2.78808">
        <ele>90.01</ele>
        <time>2020-10-08T12:46:55Z</time>
      </trkpt>
      <trkpt lat="48.37068" lon="2.78812">
        <ele>90.28</ele>
        <time>2020-10-08T12:47:00Z</time>
      </trkpt>
      <trkpt lat="48.37072" lon="2.78817">
        <ele>90.67</ele>
        <time>2020-10-08T12:47:05Z</time>
      </trkpt>
      <trkpt lat="48.37077" lon="2.78823">
        <ele>90.95</ele>
        <time>2020-10-08T12:47:10Z</time>
      </trkpt>
      <trkpt lat="48.37084" lon="2.78828">
        <ele>91.18</ele>
        <time>2020-10-08T12:47:15Z</time>
      </trkpt>
      <trkpt lat="48.3709" lon="2.78832">
        <ele>91.34</ele>
        <time>2020-10-08T12:47:20Z</time>
      </trkpt>
      <trkpt lat="48.37095" lon="2.78836">
        <ele>91.57</ele>
        <time>2020-10-08T12:47:25Z</time>
      </trkpt>
      <trkpt lat="48.371" lon="2.78839">
        <ele>91.81</ele>
        <time>2020-10-08T12:47:30Z</time>
      </trkpt>
      <trkpt lat="48.37103" lon="2.78841">
        <ele>91.94</ele>
        <time>2020-10-08T12:47:35Z</time>
      </trkpt>
      <trkpt lat="48.37106" lon="2.78843">
        <ele>92.12</ele>
        <time>2020-10-08T12:47:40Z</time>
      </trkpt>
      <trkpt lat="48.37105" lon="2.78845">
        <ele>92.32</ele>
        <time>2020-10-08T12:47:45Z</time>
      </trkpt>
      <trkpt lat="48.37104" lon="2.78845">
        <ele>92.37</ele>
        <time>2020-10-08T12:47:50Z</time>
      </trkpt>
      <trkpt lat="48.37102" lon="2.78846">
        <ele>92.22</ele>
        <time>2020-10-08T12:47:55Z</time>
      </trkpt>
      <trkpt lat="48.37099" lon="2.78847">
        <ele>91.99</ele>
        <time>2020-10-08T12:48:00Z</time>
      </trkpt>
      <trkpt lat="48.37097" lon="2.7885">
        <ele>91.86</ele>
        <time>2020-10-08T12:48:05Z</time>
      </trkpt>
      <trkpt lat="48.37098" lon="2.7885">
        <ele>91.94</ele>
        <time>2020-10-08T12:48:10Z</time>
      </trkpt>
      <trkpt lat="48.37097" lon="2.78848">
        <ele>92.47</ele>
        <time>2020-10-08T12:48:15Z</time>
      </trkpt>
      <trkpt lat="48.37096" lon="2.78847">
        <ele>92.46</ele>
        <time>2020-10-08T12:48:20Z</time>
      </trkpt>
      <trkpt lat="48.37094" lon="2.78847">
        <ele>92.38</ele>
        <time>2020-10-08T12:48:26Z</time>
      </trkpt>
      <trkpt lat="48.37092" lon="2.78849">
        <ele>92.22</ele>
        <time>2020-10-08T12:48:31Z</time>
      </trkpt>
      <trkpt lat="48.37091" lon="2.7885">
        <ele>92.19</ele>
        <time>2020-10-08T12:48:36Z</time>
      </trkpt>
      <trkpt lat="48.37094" lon="2.78849">
        <ele>92.17</ele>
        <time>2020-10-08T12:48:41Z</time>
      </trkpt>
      <trkpt lat="48.37097" lon="2.78848">
        <ele>92.16</ele>
        <time>2020-10-08T12:48:46Z</time>
      </trkpt>
      <trkpt lat="48.37097" lon="2.78847">
        <ele>92.17</ele>
        <time>2020-10-08T12:48:51Z</time>
      </trkpt>
      <trkpt lat="48.37098" lon="2.78847">
        <ele>92.12</ele>
        <time>2020-10-08T12:48:56Z</time>
      </trkpt>
      <trkpt lat="48.37098" lon="2.78846">
        <ele>92.43</ele>
        <time>2020-10-08T12:49:02Z</time>
      </trkpt>
      <trkpt lat="48.37099" lon="2.78846">
        <ele>92.42</ele>
        <time>2020-10-08T12:49:07Z</time>
      </trkpt>
      <trkpt lat="48.371" lon="2.78845">
        <ele>92.26</ele>
        <time>2020-10-08T12:49:12Z</time>
      </trkpt>
      <trkpt lat="48.371" lon="2.78845">
        <ele>92.14</ele>
        <time>2020-10-08T12:49:17Z</time>
      </trkpt>
      <trkpt lat="48.37101" lon="2.78845">
        <ele>92.02</ele>
        <time>2020-10-08T12:49:22Z</time>
      </trkpt>
      <trkpt lat="48.37101" lon="2.78845">
        <ele>91.84</ele>
        <time>2020-10-08T12:49:27Z</time>
      </trkpt>
      <trkpt lat="48.37102" lon="2.78844">
        <ele>91.86</ele>
        <time>2020-10-08T12:49:32Z</time>
      </trkpt>
      <trkpt lat="48.37102" lon="2.78844">
        <ele>92.11</ele>
        <time>2020-10-08T12:49:37Z</time>
      </trkpt>
      <trkpt lat="48.37103" lon="2.78844">
        <ele>92.28</ele>
        <time>2020-10-08T12:49:42Z</time>
      </trkpt>
      <trkpt lat="48.37104" lon="2.78843">
        <ele>92.22</ele>
        <time>2020-10-08T12:49:47Z</time>
      </trkpt>
      <trkpt lat="48.37105" lon="2.78843">
        <ele>92.22</ele>
        <time>2020-10-08T12:49:52Z</time>
      </trkpt>
      <trkpt lat="48.37107" lon="2.78843">
        <ele>92.22</ele>
        <time>2020-10-08T12:49:57Z</time>
      </trkpt>
      <trkpt lat="48.37106" lon="2.78843">
        <ele>92.22</ele>
        <time>2020-10-08T12:50:02Z</time>
      </trkpt>
      <trkpt lat="48.37107" lon="2.78842">
        <ele>92.22</ele>
        <time>2020-10-08T12:50:07Z</time>
      </trkpt>
      <trkpt lat="48.37107" lon="2.78841">
        <ele>92.22</ele>
        <time>2020-10-08T12:50:12Z</time>
      </trkpt>
      <trkpt lat="48.37107" lon="2.78842">
        <ele>92.22</ele>
        <time>2020-10-08T12:50:17Z</time>
      </trkpt>
      <trkpt lat="48.37108" lon="2.7884">
        <ele>92.22</ele>
        <time>2020-10-08T12:50:22Z</time>
      </trkpt>
      <trkpt lat="48.37108" lon="2.78841">
        <ele>92.22</ele>
        <time>2020-10-08T12:50:27Z</time>
      </trkpt>
      <trkpt lat="48.37108" lon="2.78841">
        <ele>92.22</ele>
        <time>2020-10-08T12:50:32Z</time>
      </trkpt>
      <trkpt lat="48.37109" lon="2.7884">
        <ele>92.22</ele>
        <time>2020-10-08T12:50:36Z</time>
      </trkpt>
      <trkpt lat="48.37109" lon="2.7884">
        <ele>92.22</ele>
        <time>2020-10-08T12:50:43Z</time>
      </trkpt>
      <trkpt lat="48.37109" lon="2.7884">
        <ele>92.22</ele>
        <time>2020-10-08T12:50:48Z</time>
      </trkpt>
      <trkpt lat="48.37109" lon="2.7884">
        <ele>92.22</ele>
        <time>2020-10-08T12:50:53Z</time>
      </trkpt>
      <trkpt lat="48.37109" lon="2.78839">
        <ele>92.22</ele>
        <time>2020-10-08T12:50:58Z</time>
      </trkpt>
      <trkpt lat="48.37109" lon="2.7884">
        <ele>92.22</ele>
        <time>2020-10-08T12:51:03Z</time>
      </trkpt>
      <trkpt lat="48.37108" lon="2.7884">
        <ele>92.22</ele>
        <time>2020-10-08T12:51:08Z</time>
      </trkpt>
      <trkpt lat="48.37108" lon="2.7884">
        <ele>92.22</ele>
        <time>2020-10-08T12:51:13Z</time>
      </trkpt>
      <trkpt lat="48.37107" lon="2.7884">
        <ele>92.22</ele>
        <time>2020-10-08T12:51:18Z</time>
      </trkpt>
      <trkpt lat="48.37109" lon="2.78841">
        <ele>92.22</ele>
        <time>2020-10-08T12:51:23Z</time>
      </trkpt>
      <trkpt lat="48.3711" lon="2.78841">
        <ele>92.22</ele>
        <time>2020-10-08T12:51:28Z</time>
      </trkpt>
      <trkpt lat="48.3711" lon="2.78841">
        <ele>92.22</ele>
        <time>2020-10-08T12:51:33Z</time>
      </trkpt>
      <trkpt lat="48.3711" lon="2.78842">
        <ele>92.23</ele>
        <time>2020-10-08T12:51:38Z</time>
      </trkpt>
      <trkpt lat="48.3711" lon="2.78842">
        <ele>92.22</ele>
        <time>2020-10-08T12:51:43Z</time>
      </trkpt>
      <trkpt lat="48.3711" lon="2.78842">
        <ele>92.23</ele>
        <time>2020-10-08T12:51:48Z</time>
      </trkpt>
      <trkpt lat="48.37111" lon="2.78844">
        <ele>92.23</ele>
        <time>2020-10-08T12:51:53Z</time>
      </trkpt>
      <trkpt lat="48.37111" lon="2.78844">
        <ele>92.23</ele>
        <time>2020-10-08T12:51:58Z</time>
      </trkpt>
      <trkpt lat="48.3711" lon="2.78844">
        <ele>92.23</ele>
        <time>2020-10-08T12:52:03Z</time>
      </trkpt>
      <trkpt lat="48.37109" lon="2.78845">
        <ele>92.22</ele>
        <time>2020-10-08T12:52:08Z</time>
      </trkpt>
      <trkpt lat="48.37106" lon="2.78841">
        <ele>92.22</ele>
        <time>2020-10-08T12:52:13Z</time>
      </trkpt>
      <trkpt lat="48.37104" lon="2.7884">
        <ele>92.22</ele>
        <time>2020-10-08T12:52:18Z</time>
      </trkpt>
      <trkpt lat="48.37103" lon="2.78841">
        <ele>92.22</ele>
        <time>2020-10-08T12:52:23Z</time>
      </trkpt>
      <trkpt lat="48.37102" lon="2.78842">
        <ele>92.22</ele>
        <time>2020-10-08T12:52:28Z</time>
      </trkpt>
      <trkpt lat="48.37102" lon="2.78844">
        <ele>92.22</ele>
        <time>2020-10-08T12:52:33Z</time>
      </trkpt>
      <trkpt lat="48.37099" lon="2.78845">
        <ele>92.22</ele>
        <time>2020-10-08T12:52:38Z</time>
      </trkpt>
      <trkpt lat="48.37097" lon="2.78843">
        <ele>92.22</ele>
        <time>2020-10-08T12:52:43Z</time>
      </trkpt>
      <trkpt lat="48.37097" lon="2.78842">
        <ele>92.22</ele>
        <time>2020-10-08T12:52:48Z</time>
      </trkpt>
      <trkpt lat="48.37097" lon="2.78842">
        <ele>92.22</ele>
        <time>2020-10-08T12:52:53Z</time>
      </trkpt>
      <trkpt lat="48.37097" lon="2.78841">
        <ele>92.22</ele>
        <time>2020-10-08T12:52:58Z</time>
      </trkpt>
      <trkpt lat="48.37098" lon="2.78841">
        <ele>92.22</ele>
        <time>2020-10-08T12:53:03Z</time>
      </trkpt>
      <trkpt lat="48.37099" lon="2.7884">
        <ele>92.22</ele>
        <time>2020-10-08T12:53:08Z</time>
      </trkpt>
      <trkpt lat="48.371" lon="2.78841">
        <ele>92.22</ele>
        <time>2020-10-08T12:53:13Z</time>
      </trkpt>
      <trkpt lat="48.371" lon="2.78841">
        <ele>92.22</ele>
        <time>2020-10-08T12:53:18Z</time>
      </trkpt>
      <trkpt lat="48.37099" lon="2.78841">
        <ele>92.22</ele>
        <time>2020-10-08T12:53:23Z</time>
      </trkpt>
      <trkpt lat="48.371" lon="2.78841">
        <ele>92.22</ele>
        <time>2020-10-08T12:53:28Z</time>
      </trkpt>
      <trkpt lat="48.371" lon="2.78839">
        <ele>92.22</ele>
        <time>2020-10-08T12:53:33Z</time>
      </trkpt>
      <trkpt lat="48.371" lon="2.78837">
        <ele>92.22</ele>
        <time>2020-10-08T12:53:38Z</time>
      </trkpt>
      <trkpt lat="48.37101" lon="2.78838">
        <ele>92.22</ele>
        <time>2020-10-08T12:53:43Z</time>
      </trkpt>
      <trkpt lat="48.371" lon="2.78839">
        <ele>92.22</ele>
        <time>2020-10-08T12:53:48Z</time>
      </trkpt>
      <trkpt lat="48.371" lon="2.7884">
        <ele>92.22</ele>
        <time>2020-10-08T12:53:53Z</time>
      </trkpt>
      <trkpt lat="48.37099" lon="2.7884">
        <ele>92.22</ele>
        <time>2020-10-08T12:53:58Z</time>
      </trkpt>
      <trkpt lat="48.37098" lon="2.78839">
        <ele>92.22</ele>
        <time>2020-10-08T12:54:03Z</time>
      </trkpt>
      <trkpt lat="48.37097" lon="2.78839">
        <ele>92.22</ele>
        <time>2020-10-08T12:54:08Z</time>
      </trkpt>
      <trkpt lat="48.37097" lon="2.78839">
        <ele>92.22</ele>
        <time>2020-10-08T12:54:13Z</time>
      </trkpt>
      <trkpt lat="48.37098" lon="2.78839">
        <ele>92.22</ele>
        <time>2020-10-08T12:54:18Z</time>
      </trkpt>
      <trkpt lat="48.37099" lon="2.78839">
        <ele>92.22</ele>
        <time>2020-10-08T12:54:23Z</time>
      </trkpt>
      <trkpt lat="48.37099" lon="2.78839">
        <ele>92.22</ele>
        <time>2020-10-08T12:54:28Z</time>
      </trkpt>
      <trkpt lat="48.37099" lon="2.78839">
        <ele>92.22</ele>
        <time>2020-10-08T12:54:33Z</time>
      </trkpt>
      <trkpt lat="48.37099" lon="2.78839">
        <ele>92.22</ele>
        <time>2020-10-08T12:54:38Z</time>
      </trkpt>
      <trkpt lat="48.37098" lon="2.78838">
        <ele>92.22</ele>
        <time>2020-10-08T12:54:43Z</time>
      </trkpt>
      <trkpt lat="48.37097" lon="2.78837">
        <ele>92.22</ele>
        <time>2020-10-08T12:54:48Z</time>
      </trkpt>
      <trkpt lat="48.37097" lon="2.78838">
        <ele>92.22</ele>
        <time>2020-10-08T12:54:53Z</time>
      </trkpt>
      <trkpt lat="48.37099" lon="2.78841">
        <ele>92.22</ele>
        <time>2020-10-08T12:54:58Z</time>
      </trkpt>
      <trkpt lat="48.37104" lon="2.78844">
        <ele>92.52</ele>
        <time>2020-10-08T12:55:03Z</time>
      </trkpt>
      <trkpt lat="48.37106" lon="2.78837">
        <ele>92.36</ele>
        <time>2020-10-08T12:55:08Z</time>
      </trkpt>
      <trkpt lat="48.37107" lon="2.7883">
        <ele>91.97</ele>
        <time>2020-10-08T12:55:13Z</time>
      </trkpt>
      <trkpt lat="48.37109" lon="2.7882">
        <ele>91.84</ele>
        <time>2020-10-08T12:55:18Z</time>
      </trkpt>
      <trkpt lat="48.37113" lon="2.7881">
        <ele>91.86</ele>
        <time>2020-10-08T12:55:23Z</time>
      </trkpt>
      <trkpt lat="48.37117" lon="2.78806">
        <ele>91.45</ele>
        <time>2020-10-08T12:55:28Z</time>
      </trkpt>
      <trkpt lat="48.37118" lon="2.78797">
        <ele>91.39</ele>
        <time>2020-10-08T12:55:33Z</time>
      </trkpt>
      <trkpt lat="48.3712" lon="2.78792">
        <ele>91.72</ele>
        <time>2020-10-08T12:55:38Z</time>
      </trkpt>
      <trkpt lat="48.37121" lon="2.7879">
        <ele>91.7</ele>
        <time>2020-10-08T12:55:43Z</time>
      </trkpt>
      <trkpt lat="48.37124" lon="2.78784">
        <ele>91.47</ele>
        <time>2020-10-08T12:55:48Z</time>
      </trkpt>
      <trkpt lat="48.37129" lon="2.78777">
        <ele>91.38</ele>
        <time>2020-10-08T12:55:53Z</time>
      </trkpt>
      <trkpt lat="48.37133" lon="2.78768">
        <ele>91.2</ele>
        <time>2020-10-08T12:55:58Z</time>
      </trkpt>
      <trkpt lat="48.37135" lon="2.78762">
        <ele>91.17</ele>
        <time>2020-10-08T12:56:03Z</time>
      </trkpt>
      <trkpt lat="48.37137" lon="2.78754">
        <ele>91.15</ele>
        <time>2020-10-08T12:56:08Z</time>
      </trkpt>
      <trkpt lat="48.37141" lon="2.78746">
        <ele>91.22</ele>
        <time>2020-10-08T12:56:13Z</time>
      </trkpt>
      <trkpt lat="48.37143" lon="2.7874">
        <ele>91.39</ele>
        <time>2020-10-08T12:56:18Z</time>
      </trkpt>
      <trkpt lat="48.37146" lon="2.78728">
        <ele>91.4</ele>
        <time>2020-10-08T12:56:23Z</time>
      </trkpt>
      <trkpt lat="48.37149" lon="2.78722">
        <ele>91.44</ele>
        <time>2020-10-08T12:56:28Z</time>
      </trkpt>
      <trkpt lat="48.37153" lon="2.78713">
        <ele>91.44</ele>
        <time>2020-10-08T12:56:33Z</time>
      </trkpt>
      <trkpt lat="48.37156" lon="2.78704">
        <ele>91.37</ele>
        <time>2020-10-08T12:56:38Z</time>
      </trkpt>
      <trkpt lat="48.37159" lon="2.78698">
        <ele>91.31</ele>
        <time>2020-10-08T12:56:43Z</time>
      </trkpt>
      <trkpt lat="48.37161" lon="2.78688">
        <ele>91.5</ele>
        <time>2020-10-08T12:56:48Z</time>
      </trkpt>
      <trkpt lat="48.37164" lon="2.78681">
        <ele>91.84</ele>
        <time>2020-10-08T12:56:53Z</time>
      </trkpt>
      <trkpt lat="48.37165" lon="2.78675">
        <ele>91.81</ele>
        <time>2020-10-08T12:56:58Z</time>
      </trkpt>
      <trkpt lat="48.37167" lon="2.78667">
        <ele>91.59</ele>
        <time>2020-10-08T12:57:03Z</time>
      </trkpt>
      <trkpt lat="48.37171" lon="2.78658">
        <ele>91.47</ele>
        <time>2020-10-08T12:57:08Z</time>
      </trkpt>
      <trkpt lat="48.37173" lon="2.78651">
        <ele>91.49</ele>
        <time>2020-10-08T12:57:13Z</time>
      </trkpt>
      <trkpt lat="48.37178" lon="2.78643">
        <ele>91.59</ele>
        <time>2020-10-08T12:57:18Z</time>
      </trkpt>
      <trkpt lat="48.37182" lon="2.78636">
        <ele>91.69</ele>
        <time>2020-10-08T12:57:23Z</time>
      </trkpt>
      <trkpt lat="48.37186" lon="2.78626">
        <ele>91.65</ele>
        <time>2020-10-08T12:57:28Z</time>
      </trkpt>
      <trkpt lat="48.37189" lon="2.78621">
        <ele>91.6</ele>
        <time>2020-10-08T12:57:33Z</time>
      </trkpt>
      <trkpt lat="48.37194" lon="2.78614">
        <ele>91.54</ele>
        <time>2020-10-08T12:57:38Z</time>
      </trkpt>
      <trkpt lat="48.37198" lon="2.78606">
        <ele>91.31</ele>
        <time>2020-10-08T12:57:43Z</time>
      </trkpt>
      <trkpt lat="48.37199" lon="2.78597">
        <ele>91.31</ele>
        <time>2020-10-08T12:57:48Z</time>
      </trkpt>
      <trkpt lat="48.37204" lon="2.78589">
        <ele>91.4</ele>
        <time>2020-10-08T12:57:53Z</time>
      </trkpt>
      <trkpt lat="48.37204" lon="2.78579">
        <ele>91.44</ele>
        <time>2020-10-08T12:57:58Z</time>
      </trkpt>
      <trkpt lat="48.37206" lon="2.78569">
        <ele>91.42</ele>
        <time>2020-10-08T12:58:03Z</time>
      </trkpt>
      <trkpt lat="48.37209" lon="2.78561">
        <ele>91.37</ele>
        <time>2020-10-08T12:58:08Z</time>
      </trkpt>
      <trkpt lat="48.37212" lon="2.78557">
        <ele>91.16</ele>
        <time>2020-10-08T12:58:13Z</time>
      </trkpt>
      <trkpt lat="48.37216" lon="2.78549">
        <ele>91.29</ele>
        <time>2020-10-08T12:58:18Z</time>
      </trkpt>
      <trkpt lat="48.3722" lon="2.78541">
        <ele>91.38</ele>
        <time>2020-10-08T12:58:23Z</time>
      </trkpt>
      <trkpt lat="48.37222" lon="2.78536">
        <ele>91.4</ele>
        <time>2020-10-08T12:58:28Z</time>
      </trkpt>
      <trkpt lat="48.37224" lon="2.78526">
        <ele>91.08</ele>
        <time>2020-10-08T12:58:33Z</time>
      </trkpt>
      <trkpt lat="48.37228" lon="2.78517">
        <ele>90.98</ele>
        <time>2020-10-08T12:58:38Z</time>
      </trkpt>
      <trkpt lat="48.37229" lon="2.78511">
        <ele>90.96</ele>
        <time>2020-10-08T12:58:43Z</time>
      </trkpt>
      <trkpt lat="48.37231" lon="2.78501">
        <ele>91</ele>
        <time>2020-10-08T12:58:48Z</time>
      </trkpt>
      <trkpt lat="48.37232" lon="2.78494">
        <ele>91.22</ele>
        <time>2020-10-08T12:58:53Z</time>
      </trkpt>
      <trkpt lat="48.37235" lon="2.78487">
        <ele>91.47</ele>
        <time>2020-10-08T12:58:58Z</time>
      </trkpt>
      <trkpt lat="48.37237" lon="2.78481">
        <ele>91.44</ele>
        <time>2020-10-08T12:59:03Z</time>
      </trkpt>
      <trkpt lat="48.37239" lon="2.78474">
        <ele>91.26</ele>
        <time>2020-10-08T12:59:08Z</time>
      </trkpt>
      <trkpt lat="48.37242" lon="2.78465">
        <ele>91.27</ele>
        <time>2020-10-08T12:59:13Z</time>
      </trkpt>
      <trkpt lat="48.37245" lon="2.78456">
        <ele>91.15</ele>
        <time>2020-10-08T12:59:18Z</time>
      </trkpt>
      <trkpt lat="48.37247" lon="2.78448">
        <ele>91.15</ele>
        <time>2020-10-08T12:59:23Z</time>
      </trkpt>
      <trkpt lat="48.3725" lon="2.78439">
        <ele>91.24</ele>
        <time>2020-10-08T12:59:28Z</time>
      </trkpt>
      <trkpt lat="48.37252" lon="2.78431">
        <ele>91.37</ele>
        <time>2020-10-08T12:59:33Z</time>
      </trkpt>
      <trkpt lat="48.37255" lon="2.78422">
        <ele>91.46</ele>
        <time>2020-10-08T12:59:38Z</time>
      </trkpt>
      <trkpt lat="48.37258" lon="2.78415">
        <ele>91.51</ele>
        <time>2020-10-08T12:59:43Z</time>
      </trkpt>
      <trkpt lat="48.3726" lon="2.78406">
        <ele>91.56</ele>
        <time>2020-10-08T12:59:48Z</time>
      </trkpt>
      <trkpt lat="48.37263" lon="2.78399">
        <ele>91.41</ele>
        <time>2020-10-08T12:59:53Z</time>
      </trkpt>
      <trkpt lat="48.37265" lon="2.78393">
        <ele>91.41</ele>
        <time>2020-10-08T12:59:58Z</time>
      </trkpt>
      <trkpt lat="48.37268" lon="2.78388">
        <ele>91.41</ele>
        <time>2020-10-08T13:00:03Z</time>
      </trkpt>
      <trkpt lat="48.3727" lon="2.78381">
        <ele>91.53</ele>
        <time>2020-10-08T13:00:08Z</time>
      </trkpt>
      <trkpt lat="48.37273" lon="2.78375">
        <ele>91.54</ele>
        <time>2020-10-08T13:00:13Z</time>
      </trkpt>
      <trkpt lat="48.37275" lon="2.78367">
        <ele>91.49</ele>
        <time>2020-10-08T13:00:18Z</time>
      </trkpt>
      <trkpt lat="48.37278" lon="2.78358">
        <ele>91.3</ele>
        <time>2020-10-08T13:00:23Z</time>
      </trkpt>
      <trkpt lat="48.37281" lon="2.78347">
        <ele>91.17</ele>
        <time>2020-10-08T13:00:28Z</time>
      </trkpt>
      <trkpt lat="48.37283" lon="2.7834">
        <ele>91.21</ele>
        <time>2020-10-08T13:00:33Z</time>
      </trkpt>
      <trkpt lat="48.37286" lon="2.78333">
        <ele>91.31</ele>
        <time>2020-10-08T13:00:38Z</time>
      </trkpt>
      <trkpt lat="48.37289" lon="2.78325">
        <ele>91.44</ele>
        <time>2020-10-08T13:00:43Z</time>
      </trkpt>
      <trkpt lat="48.37292" lon="2.78317">
        <ele>91.33</ele>
        <time>2020-10-08T13:00:48Z</time>
      </trkpt>
      <trkpt lat="48.37295" lon="2.7831">
        <ele>91.32</ele>
        <time>2020-10-08T13:00:53Z</time>
      </trkpt>
      <trkpt lat="48.37297" lon="2.78302">
        <ele>91.35</ele>
        <time>2020-10-08T13:00:58Z</time>
      </trkpt>
      <trkpt lat="48.37299" lon="2.78296">
        <ele>91.37</ele>
        <time>2020-10-08T13:01:03Z</time>
      </trkpt>
      <trkpt lat="48.37302" lon="2.78287">
        <ele>91.48</ele>
        <time>2020-10-08T13:01:08Z</time>
      </trkpt>
      <trkpt lat="48.37304" lon="2.7828">
        <ele>91.61</ele>
        <time>2020-10-08T13:01:13Z</time>
      </trkpt>
      <trkpt lat="48.37306" lon="2.78272">
        <ele>91.58</ele>
        <time>2020-10-08T13:01:18Z</time>
      </trkpt>
      <trkpt lat="48.37309" lon="2.78263">
        <ele>91.4</ele>
        <time>2020-10-08T13:01:23Z</time>
      </trkpt>
      <trkpt lat="48.37312" lon="2.78254">
        <ele>91.38</ele>
        <time>2020-10-08T13:01:28Z</time>
      </trkpt>
      <trkpt lat="48.37316" lon="2.78247">
        <ele>91.38</ele>
        <time>2020-10-08T13:01:33Z</time>
      </trkpt>
      <trkpt lat="48.37319" lon="2.78239">
        <ele>91.33</ele>
        <time>2020-10-08T13:01:38Z</time>
      </trkpt>
      <trkpt lat="48.37322" lon="2.7823">
        <ele>91.33</ele>
        <time>2020-10-08T13:01:43Z</time>
      </trkpt>
      <trkpt lat="48.37325" lon="2.78221">
        <ele>91.37</ele>
        <time>2020-10-08T13:01:48Z</time>
      </trkpt>
      <trkpt lat="48.37327" lon="2.78213">
        <ele>91.38</ele>
        <time>2020-10-08T13:01:53Z</time>
      </trkpt>
      <trkpt lat="48.3733" lon="2.78206">
        <ele>91.45</ele>
        <time>2020-10-08T13:01:58Z</time>
      </trkpt>
      <trkpt lat="48.37333" lon="2.78198">
        <ele>91.48</ele>
        <time>2020-10-08T13:02:03Z</time>
      </trkpt>
      <trkpt lat="48.37335" lon="2.7819">
        <ele>91.61</ele>
        <time>2020-10-08T13:02:08Z</time>
      </trkpt>
      <trkpt lat="48.37336" lon="2.7818">
        <ele>91.61</ele>
        <time>2020-10-08T13:02:13Z</time>
      </trkpt>
      <trkpt lat="48.37339" lon="2.78173">
        <ele>91.5</ele>
        <time>2020-10-08T13:02:18Z</time>
      </trkpt>
      <trkpt lat="48.37342" lon="2.78164">
        <ele>91.54</ele>
        <time>2020-10-08T13:02:23Z</time>
      </trkpt>
      <trkpt lat="48.37345" lon="2.78158">
        <ele>91.74</ele>
        <time>2020-10-08T13:02:28Z</time>
      </trkpt>
      <trkpt lat="48.37348" lon="2.78151">
        <ele>91.76</ele>
        <time>2020-10-08T13:02:33Z</time>
      </trkpt>
      <trkpt lat="48.37351" lon="2.78146">
        <ele>91.73</ele>
        <time>2020-10-08T13:02:38Z</time>
      </trkpt>
      <trkpt lat="48.37353" lon="2.78139">
        <ele>91.74</ele>
        <time>2020-10-08T13:02:43Z</time>
      </trkpt>
      <trkpt lat="48.37354" lon="2.7813">
        <ele>91.85</ele>
        <time>2020-10-08T13:02:48Z</time>
      </trkpt>
      <trkpt lat="48.37353" lon="2.78123">
        <ele>91.86</ele>
        <time>2020-10-08T13:02:53Z</time>
      </trkpt>
      <trkpt lat="48.37355" lon="2.78115">
        <ele>91.76</ele>
        <time>2020-10-08T13:02:58Z</time>
      </trkpt>
      <trkpt lat="48.37355" lon="2.78113">
        <ele>91.57</ele>
        <time>2020-10-08T13:03:03Z</time>
      </trkpt>
      <trkpt lat="48.37356" lon="2.78112">
        <ele>91.57</ele>
        <time>2020-10-08T13:03:08Z</time>
      </trkpt>
      <trkpt lat="48.37356" lon="2.78112">
        <ele>91.57</ele>
        <time>2020-10-08T13:03:13Z</time>
      </trkpt>
      <trkpt lat="48.37356" lon="2.78111">
        <ele>91.57</ele>
        <time>2020-10-08T13:03:18Z</time>
      </trkpt>
      <trkpt lat="48.37358" lon="2.78111">
        <ele>91.57</ele>
        <time>2020-10-08T13:03:23Z</time>
      </trkpt>
      <trkpt lat="48.37358" lon="2.78111">
        <ele>91.57</ele>
        <time>2020-10-08T13:03:28Z</time>
      </trkpt>
      <trkpt lat="48.37357" lon="2.78112">
        <ele>91.57</ele>
        <time>2020-10-08T13:03:33Z</time>
      </trkpt>
      <trkpt lat="48.37359" lon="2.78111">
        <ele>91.57</ele>
        <time>2020-10-08T13:03:38Z</time>
      </trkpt>
      <trkpt lat="48.37361" lon="2.7811">
        <ele>91.57</ele>
        <time>2020-10-08T13:03:43Z</time>
      </trkpt>
      <trkpt lat="48.37361" lon="2.78101">
        <ele>91.49</ele>
        <time>2020-10-08T13:03:48Z</time>
      </trkpt>
      <trkpt lat="48.37363" lon="2.78094">
        <ele>90.8</ele>
        <time>2020-10-08T13:03:53Z</time>
      </trkpt>
      <trkpt lat="48.37365" lon="2.78087">
        <ele>90.68</ele>
        <time>2020-10-08T13:03:58Z</time>
      </trkpt>
      <trkpt lat="48.37366" lon="2.78079">
        <ele>90.55</ele>
        <time>2020-10-08T13:04:03Z</time>
      </trkpt>
      <trkpt lat="48.37367" lon="2.7807">
        <ele>90.25</ele>
        <time>2020-10-08T13:04:08Z</time>
      </trkpt>
      <trkpt lat="48.37368" lon="2.78061">
        <ele>90.05</ele>
        <time>2020-10-08T13:04:13Z</time>
      </trkpt>
      <trkpt lat="48.37366" lon="2.78052">
        <ele>89.83</ele>
        <time>2020-10-08T13:04:18Z</time>
      </trkpt>
      <trkpt lat="48.37365" lon="2.78041">
        <ele>89.74</ele>
        <time>2020-10-08T13:04:23Z</time>
      </trkpt>
      <trkpt lat="48.37366" lon="2.78031">
        <ele>89.78</ele>
        <time>2020-10-08T13:04:28Z</time>
      </trkpt>
      <trkpt lat="48.37368" lon="2.78024">
        <ele>89.66</ele>
        <time>2020-10-08T13:04:33Z</time>
      </trkpt>
      <trkpt lat="48.37368" lon="2.78016">
        <ele>89.64</ele>
        <time>2020-10-08T13:04:38Z</time>
      </trkpt>
      <trkpt lat="48.37368" lon="2.78009">
        <ele>89.62</ele>
        <time>2020-10-08T13:04:43Z</time>
      </trkpt>
      <trkpt lat="48.37368" lon="2.78002">
        <ele>89.61</ele>
        <time>2020-10-08T13:04:48Z</time>
      </trkpt>
      <trkpt lat="48.37369" lon="2.77995">
        <ele>89.66</ele>
        <time>2020-10-08T13:04:53Z</time>
      </trkpt>
      <trkpt lat="48.37371" lon="2.77988">
        <ele>89.78</ele>
        <time>2020-10-08T13:04:58Z</time>
      </trkpt>
      <trkpt lat="48.37373" lon="2.7798">
        <ele>89.81</ele>
        <time>2020-10-08T13:05:03Z</time>
      </trkpt>
      <trkpt lat="48.37377" lon="2.77974">
        <ele>89.84</ele>
        <time>2020-10-08T13:05:08Z</time>
      </trkpt>
      <trkpt lat="48.37378" lon="2.77966">
        <ele>89.92</ele>
        <time>2020-10-08T13:05:13Z</time>
      </trkpt>
      <trkpt lat="48.3738" lon="2.77959">
        <ele>89.97</ele>
        <time>2020-10-08T13:05:18Z</time>
      </trkpt>
      <trkpt lat="48.37383" lon="2.77951">
        <ele>89.92</ele>
        <time>2020-10-08T13:05:23Z</time>
      </trkpt>
      <trkpt lat="48.37385" lon="2.77944">
        <ele>89.98</ele>
        <time>2020-10-08T13:05:28Z</time>
      </trkpt>
      <trkpt lat="48.37384" lon="2.77935">
        <ele>90.01</ele>
        <time>2020-10-08T13:05:33Z</time>
      </trkpt>
      <trkpt lat="48.37386" lon="2.77926">
        <ele>89.94</ele>
        <time>2020-10-08T13:05:38Z</time>
      </trkpt>
      <trkpt lat="48.37387" lon="2.7792">
        <ele>89.91</ele>
        <time>2020-10-08T13:05:43Z</time>
      </trkpt>
      <trkpt lat="48.37388" lon="2.77912">
        <ele>89.89</ele>
        <time>2020-10-08T13:05:48Z</time>
      </trkpt>
      <trkpt lat="48.37387" lon="2.77901">
        <ele>89.83</ele>
        <time>2020-10-08T13:05:53Z</time>
      </trkpt>
      <trkpt lat="48.37391" lon="2.77893">
        <ele>89.7</ele>
        <time>2020-10-08T13:05:58Z</time>
      </trkpt>
      <trkpt lat="48.37393" lon="2.77886">
        <ele>89.69</ele>
        <time>2020-10-08T13:06:03Z</time>
      </trkpt>
      <trkpt lat="48.37394" lon="2.77878">
        <ele>89.65</ele>
        <time>2020-10-08T13:06:08Z</time>
      </trkpt>
      <trkpt lat="48.37396" lon="2.77869">
        <ele>89.55</ele>
        <time>2020-10-08T13:06:13Z</time>
      </trkpt>
      <trkpt lat="48.37397" lon="2.77861">
        <ele>89.55</ele>
        <time>2020-10-08T13:06:18Z</time>
      </trkpt>
      <trkpt lat="48.37399" lon="2.77854">
        <ele>89.67</ele>
        <time>2020-10-08T13:06:23Z</time>
      </trkpt>
      <trkpt lat="48.374" lon="2.77847">
        <ele>89.77</ele>
        <time>2020-10-08T13:06:28Z</time>
      </trkpt>
      <trkpt lat="48.374" lon="2.77839">
        <ele>89.9</ele>
        <time>2020-10-08T13:06:33Z</time>
      </trkpt>
      <trkpt lat="48.37402" lon="2.77832">
        <ele>89.96</ele>
        <time>2020-10-08T13:06:38Z</time>
      </trkpt>
      <trkpt lat="48.37404" lon="2.77823">
        <ele>90.09</ele>
        <time>2020-10-08T13:06:43Z</time>
      </trkpt>
      <trkpt lat="48.37404" lon="2.77816">
        <ele>90.24</ele>
        <time>2020-10-08T13:06:48Z</time>
      </trkpt>
      <trkpt lat="48.37405" lon="2.77809">
        <ele>90.36</ele>
        <time>2020-10-08T13:06:53Z</time>
      </trkpt>
      <trkpt lat="48.37407" lon="2.77802">
        <ele>90.64</ele>
        <time>2020-10-08T13:06:58Z</time>
      </trkpt>
      <trkpt lat="48.37408" lon="2.77795">
        <ele>90.85</ele>
        <time>2020-10-08T13:07:03Z</time>
      </trkpt>
      <trkpt lat="48.37409" lon="2.77788">
        <ele>90.92</ele>
        <time>2020-10-08T13:07:08Z</time>
      </trkpt>
      <trkpt lat="48.3741" lon="2.77781">
        <ele>91.17</ele>
        <time>2020-10-08T13:07:13Z</time>
      </trkpt>
      <trkpt lat="48.37412" lon="2.77772">
        <ele>91.3</ele>
        <time>2020-10-08T13:07:18Z</time>
      </trkpt>
      <trkpt lat="48.37413" lon="2.77766">
        <ele>91.86</ele>
        <time>2020-10-08T13:07:23Z</time>
      </trkpt>
      <trkpt lat="48.37413" lon="2.77759">
        <ele>92.52</ele>
        <time>2020-10-08T13:07:28Z</time>
      </trkpt>
      <trkpt lat="48.37414" lon="2.77751">
        <ele>92.83</ele>
        <time>2020-10-08T13:07:33Z</time>
      </trkpt>
      <trkpt lat="48.37416" lon="2.77744">
        <ele>92.86</ele>
        <time>2020-10-08T13:07:38Z</time>
      </trkpt>
      <trkpt lat="48.37416" lon="2.77737">
        <ele>92.71</ele>
        <time>2020-10-08T13:07:43Z</time>
      </trkpt>
      <trkpt lat="48.37416" lon="2.77729">
        <ele>92.45</ele>
        <time>2020-10-08T13:07:48Z</time>
      </trkpt>
      <trkpt lat="48.37416" lon="2.77719">
        <ele>92.27</ele>
        <time>2020-10-08T13:07:53Z</time>
      </trkpt>
      <trkpt lat="48.37415" lon="2.7771">
        <ele>92.24</ele>
        <time>2020-10-08T13:07:58Z</time>
      </trkpt>
      <trkpt lat="48.37414" lon="2.77702">
        <ele>92</ele>
        <time>2020-10-08T13:08:03Z</time>
      </trkpt>
      <trkpt lat="48.37414" lon="2.77695">
        <ele>91.6</ele>
        <time>2020-10-08T13:08:08Z</time>
      </trkpt>
      <trkpt lat="48.37415" lon="2.77687">
        <ele>91.24</ele>
        <time>2020-10-08T13:08:13Z</time>
      </trkpt>
      <trkpt lat="48.37416" lon="2.77678">
        <ele>91.03</ele>
        <time>2020-10-08T13:08:18Z</time>
      </trkpt>
      <trkpt lat="48.37417" lon="2.77668">
        <ele>90.89</ele>
        <time>2020-10-08T13:08:23Z</time>
      </trkpt>
      <trkpt lat="48.37419" lon="2.7766">
        <ele>90.84</ele>
        <time>2020-10-08T13:08:28Z</time>
      </trkpt>
      <trkpt lat="48.37421" lon="2.77651">
        <ele>90.81</ele>
        <time>2020-10-08T13:08:33Z</time>
      </trkpt>
      <trkpt lat="48.37423" lon="2.77644">
        <ele>90.72</ele>
        <time>2020-10-08T13:08:38Z</time>
      </trkpt>
      <trkpt lat="48.37425" lon="2.77636">
        <ele>90.59</ele>
        <time>2020-10-08T13:08:43Z</time>
      </trkpt>
      <trkpt lat="48.37426" lon="2.77626">
        <ele>90.66</ele>
        <time>2020-10-08T13:08:48Z</time>
      </trkpt>
      <trkpt lat="48.37427" lon="2.77617">
        <ele>90.71</ele>
        <time>2020-10-08T13:08:53Z</time>
      </trkpt>
      <trkpt lat="48.37428" lon="2.77608">
        <ele>90.68</ele>
        <time>2020-10-08T13:08:58Z</time>
      </trkpt>
      <trkpt lat="48.37431" lon="2.77602">
        <ele>90.77</ele>
        <time>2020-10-08T13:09:03Z</time>
      </trkpt>
      <trkpt lat="48.37434" lon="2.77594">
        <ele>90.93</ele>
        <time>2020-10-08T13:09:08Z</time>
      </trkpt>
      <trkpt lat="48.37435" lon="2.77586">
        <ele>91.03</ele>
        <time>2020-10-08T13:09:13Z</time>
      </trkpt>
      <trkpt lat="48.37435" lon="2.77579">
        <ele>91.25</ele>
        <time>2020-10-08T13:09:18Z</time>
      </trkpt>
      <trkpt lat="48.37436" lon="2.77571">
        <ele>91.31</ele>
        <time>2020-10-08T13:09:23Z</time>
      </trkpt>
      <trkpt lat="48.37435" lon="2.77561">
        <ele>91.35</ele>
        <time>2020-10-08T13:09:28Z</time>
      </trkpt>
      <trkpt lat="48.37437" lon="2.77552">
        <ele>91.44</ele>
        <time>2020-10-08T13:09:33Z</time>
      </trkpt>
      <trkpt lat="48.37439" lon="2.77547">
        <ele>91.45</ele>
        <time>2020-10-08T13:09:38Z</time>
      </trkpt>
      <trkpt lat="48.37442" lon="2.77537">
        <ele>91.45</ele>
        <time>2020-10-08T13:09:43Z</time>
      </trkpt>
      <trkpt lat="48.37443" lon="2.77529">
        <ele>91.36</ele>
        <time>2020-10-08T13:09:48Z</time>
      </trkpt>
      <trkpt lat="48.37443" lon="2.77522">
        <ele>91.2</ele>
        <time>2020-10-08T13:09:53Z</time>
      </trkpt>
      <trkpt lat="48.37444" lon="2.77515">
        <ele>91.09</ele>
        <time>2020-10-08T13:09:58Z</time>
      </trkpt>
      <trkpt lat="48.37446" lon="2.77508">
        <ele>90.88</ele>
        <time>2020-10-08T13:10:03Z</time>
      </trkpt>
      <trkpt lat="48.37447" lon="2.77501">
        <ele>90.77</ele>
        <time>2020-10-08T13:10:08Z</time>
      </trkpt>
      <trkpt lat="48.3745" lon="2.77491">
        <ele>90.72</ele>
        <time>2020-10-08T13:10:13Z</time>
      </trkpt>
      <trkpt lat="48.3745" lon="2.77481">
        <ele>90.72</ele>
        <time>2020-10-08T13:10:18Z</time>
      </trkpt>
      <trkpt lat="48.37451" lon="2.77473">
        <ele>90.74</ele>
        <time>2020-10-08T13:10:23Z</time>
      </trkpt>
      <trkpt lat="48.37453" lon="2.77465">
        <ele>90.74</ele>
        <time>2020-10-08T13:10:28Z</time>
      </trkpt>
      <trkpt lat="48.37454" lon="2.77458">
        <ele>90.66</ele>
        <time>2020-10-08T13:10:33Z</time>
      </trkpt>
      <trkpt lat="48.37454" lon="2.77449">
        <ele>90.58</ele>
        <time>2020-10-08T13:10:38Z</time>
      </trkpt>
      <trkpt lat="48.37455" lon="2.7744">
        <ele>90.64</ele>
        <time>2020-10-08T13:10:43Z</time>
      </trkpt>
      <trkpt lat="48.37456" lon="2.77433">
        <ele>90.85</ele>
        <time>2020-10-08T13:10:48Z</time>
      </trkpt>
      <trkpt lat="48.37457" lon="2.77427">
        <ele>91.03</ele>
        <time>2020-10-08T13:10:53Z</time>
      </trkpt>
      <trkpt lat="48.37458" lon="2.7742">
        <ele>91.06</ele>
        <time>2020-10-08T13:10:58Z</time>
      </trkpt>
      <trkpt lat="48.37459" lon="2.77413">
        <ele>91.03</ele>
        <time>2020-10-08T13:11:03Z</time>
      </trkpt>
      <trkpt lat="48.37461" lon="2.77403">
        <ele>90.95</ele>
        <time>2020-10-08T13:11:08Z</time>
      </trkpt>
      <trkpt lat="48.37461" lon="2.77394">
        <ele>91.09</ele>
        <time>2020-10-08T13:11:13Z</time>
      </trkpt>
      <trkpt lat="48.37461" lon="2.77384">
        <ele>91.31</ele>
        <time>2020-10-08T13:11:18Z</time>
      </trkpt>
      <trkpt lat="48.37461" lon="2.77375">
        <ele>91.43</ele>
        <time>2020-10-08T13:11:23Z</time>
      </trkpt>
      <trkpt lat="48.37462" lon="2.77367">
        <ele>92</ele>
        <time>2020-10-08T13:11:28Z</time>
      </trkpt>
      <trkpt lat="48.37463" lon="2.77359">
        <ele>92.32</ele>
        <time>2020-10-08T13:11:33Z</time>
      </trkpt>
      <trkpt lat="48.37467" lon="2.77352">
        <ele>92.09</ele>
        <time>2020-10-08T13:11:38Z</time>
      </trkpt>
      <trkpt lat="48.37469" lon="2.77344">
        <ele>91.9</ele>
        <time>2020-10-08T13:11:43Z</time>
      </trkpt>
      <trkpt lat="48.37469" lon="2.77336">
        <ele>91.8</ele>
        <time>2020-10-08T13:11:48Z</time>
      </trkpt>
      <trkpt lat="48.37471" lon="2.77329">
        <ele>91.64</ele>
        <time>2020-10-08T13:11:53Z</time>
      </trkpt>
      <trkpt lat="48.37471" lon="2.77324">
        <ele>91.52</ele>
        <time>2020-10-08T13:11:58Z</time>
      </trkpt>
      <trkpt lat="48.37472" lon="2.77316">
        <ele>91.39</ele>
        <time>2020-10-08T13:12:03Z</time>
      </trkpt>
      <trkpt lat="48.37472" lon="2.77309">
        <ele>91.17</ele>
        <time>2020-10-08T13:12:08Z</time>
      </trkpt>
      <trkpt lat="48.37473" lon="2.77299">
        <ele>91.03</ele>
        <time>2020-10-08T13:12:13Z</time>
      </trkpt>
      <trkpt lat="48.37474" lon="2.77291">
        <ele>90.93</ele>
        <time>2020-10-08T13:12:18Z</time>
      </trkpt>
      <trkpt lat="48.37476" lon="2.77282">
        <ele>90.96</ele>
        <time>2020-10-08T13:12:23Z</time>
      </trkpt>
      <trkpt lat="48.37477" lon="2.77273">
        <ele>90.95</ele>
        <time>2020-10-08T13:12:28Z</time>
      </trkpt>
      <trkpt lat="48.37478" lon="2.77264">
        <ele>90.95</ele>
        <time>2020-10-08T13:12:33Z</time>
      </trkpt>
      <trkpt lat="48.37481" lon="2.77255">
        <ele>90.99</ele>
        <time>2020-10-08T13:12:38Z</time>
      </trkpt>
      <trkpt lat="48.37483" lon="2.77246">
        <ele>91.1</ele>
        <time>2020-10-08T13:12:43Z</time>
      </trkpt>
      <trkpt lat="48.37485" lon="2.77239">
        <ele>91.13</ele>
        <time>2020-10-08T13:12:48Z</time>
      </trkpt>
      <trkpt lat="48.37486" lon="2.7723">
        <ele>91.14</ele>
        <time>2020-10-08T13:12:53Z</time>
      </trkpt>
      <trkpt lat="48.37487" lon="2.77221">
        <ele>90.92</ele>
        <time>2020-10-08T13:12:58Z</time>
      </trkpt>
      <trkpt lat="48.37489" lon="2.77214">
        <ele>90.81</ele>
        <time>2020-10-08T13:13:03Z</time>
      </trkpt>
      <trkpt lat="48.37492" lon="2.77207">
        <ele>90.88</ele>
        <time>2020-10-08T13:13:08Z</time>
      </trkpt>
      <trkpt lat="48.37492" lon="2.77199">
        <ele>90.89</ele>
        <time>2020-10-08T13:13:13Z</time>
      </trkpt>
      <trkpt lat="48.37494" lon="2.7719">
        <ele>90.81</ele>
        <time>2020-10-08T13:13:18Z</time>
      </trkpt>
      <trkpt lat="48.37495" lon="2.77184">
        <ele>90.68</ele>
        <time>2020-10-08T13:13:23Z</time>
      </trkpt>
      <trkpt lat="48.37495" lon="2.77175">
        <ele>90.69</ele>
        <time>2020-10-08T13:13:28Z</time>
      </trkpt>
      <trkpt lat="48.37496" lon="2.77165">
        <ele>90.65</ele>
        <time>2020-10-08T13:13:33Z</time>
      </trkpt>
      <trkpt lat="48.37497" lon="2.77159">
        <ele>90.38</ele>
        <time>2020-10-08T13:13:38Z</time>
      </trkpt>
      <trkpt lat="48.37498" lon="2.77151">
        <ele>90.37</ele>
        <time>2020-10-08T13:13:43Z</time>
      </trkpt>
      <trkpt lat="48.37499" lon="2.7714">
        <ele>90.88</ele>
        <time>2020-10-08T13:13:48Z</time>
      </trkpt>
      <trkpt lat="48.375" lon="2.7713">
        <ele>91.29</ele>
        <time>2020-10-08T13:13:53Z</time>
      </trkpt>
      <trkpt lat="48.37503" lon="2.77122">
        <ele>91.38</ele>
        <time>2020-10-08T13:13:58Z</time>
      </trkpt>
      <trkpt lat="48.37505" lon="2.77116">
        <ele>91.41</ele>
        <time>2020-10-08T13:14:03Z</time>
      </trkpt>
      <trkpt lat="48.37507" lon="2.77111">
        <ele>91.37</ele>
        <time>2020-10-08T13:14:08Z</time>
      </trkpt>
      <trkpt lat="48.37508" lon="2.77106">
        <ele>91.21</ele>
        <time>2020-10-08T13:14:13Z</time>
      </trkpt>
      <trkpt lat="48.37508" lon="2.77105">
        <ele>91.37</ele>
        <time>2020-10-08T13:14:18Z</time>
      </trkpt>
      <trkpt lat="48.37508" lon="2.77103">
        <ele>91.37</ele>
        <time>2020-10-08T13:14:23Z</time>
      </trkpt>
      <trkpt lat="48.3751" lon="2.77098">
        <ele>91.37</ele>
        <time>2020-10-08T13:14:28Z</time>
      </trkpt>
      <trkpt lat="48.37512" lon="2.7709">
        <ele>91.37</ele>
        <time>2020-10-08T13:14:33Z</time>
      </trkpt>
      <trkpt lat="48.37511" lon="2.77079">
        <ele>91.2</ele>
        <time>2020-10-08T13:14:38Z</time>
      </trkpt>
      <trkpt lat="48.37511" lon="2.77071">
        <ele>91.16</ele>
        <time>2020-10-08T13:14:43Z</time>
      </trkpt>
      <trkpt lat="48.37513" lon="2.77062">
        <ele>91.1</ele>
        <time>2020-10-08T13:14:48Z</time>
      </trkpt>
      <trkpt lat="48.37516" lon="2.77054">
        <ele>91.05</ele>
        <time>2020-10-08T13:14:53Z</time>
      </trkpt>
      <trkpt lat="48.37518" lon="2.77046">
        <ele>91.05</ele>
        <time>2020-10-08T13:14:58Z</time>
      </trkpt>
      <trkpt lat="48.37517" lon="2.77035">
        <ele>91.17</ele>
        <time>2020-10-08T13:15:03Z</time>
      </trkpt>
      <trkpt lat="48.37518" lon="2.77026">
        <ele>91.45</ele>
        <time>2020-10-08T13:15:08Z</time>
      </trkpt>
      <trkpt lat="48.37517" lon="2.77016">
        <ele>91.45</ele>
        <time>2020-10-08T13:15:13Z</time>
      </trkpt>
      <trkpt lat="48.37517" lon="2.77006">
        <ele>91.42</ele>
        <time>2020-10-08T13:15:18Z</time>
      </trkpt>
      <trkpt lat="48.37518" lon="2.76998">
        <ele>91.34</ele>
        <time>2020-10-08T13:15:23Z</time>
      </trkpt>
      <trkpt lat="48.3752" lon="2.76989">
        <ele>91.3</ele>
        <time>2020-10-08T13:15:28Z</time>
      </trkpt>
      <trkpt lat="48.37522" lon="2.76982">
        <ele>91.31</ele>
        <time>2020-10-08T13:15:33Z</time>
      </trkpt>
      <trkpt lat="48.37524" lon="2.76973">
        <ele>91.42</ele>
        <time>2020-10-08T13:15:38Z</time>
      </trkpt>
      <trkpt lat="48.37527" lon="2.76966">
        <ele>91.44</ele>
        <time>2020-10-08T13:15:43Z</time>
      </trkpt>
      <trkpt lat="48.37529" lon="2.76957">
        <ele>91.44</ele>
        <time>2020-10-08T13:15:48Z</time>
      </trkpt>
      <trkpt lat="48.37531" lon="2.76951">
        <ele>91.31</ele>
        <time>2020-10-08T13:15:53Z</time>
      </trkpt>
      <trkpt lat="48.37532" lon="2.76943">
        <ele>91.23</ele>
        <time>2020-10-08T13:15:58Z</time>
      </trkpt>
      <trkpt lat="48.37534" lon="2.76936">
        <ele>91.18</ele>
        <time>2020-10-08T13:16:03Z</time>
      </trkpt>
      <trkpt lat="48.37533" lon="2.76929">
        <ele>91.1</ele>
        <time>2020-10-08T13:16:08Z</time>
      </trkpt>
      <trkpt lat="48.37533" lon="2.76921">
        <ele>91.21</ele>
        <time>2020-10-08T13:16:13Z</time>
      </trkpt>
      <trkpt lat="48.37535" lon="2.76917">
        <ele>91.45</ele>
        <time>2020-10-08T13:16:18Z</time>
      </trkpt>
      <trkpt lat="48.37536" lon="2.76911">
        <ele>91.67</ele>
        <time>2020-10-08T13:16:23Z</time>
      </trkpt>
      <trkpt lat="48.37538" lon="2.76902">
        <ele>91.77</ele>
        <time>2020-10-08T13:16:28Z</time>
      </trkpt>
      <trkpt lat="48.37539" lon="2.76893">
        <ele>91.83</ele>
        <time>2020-10-08T13:16:33Z</time>
      </trkpt>
      <trkpt lat="48.3754" lon="2.76885">
        <ele>91.89</ele>
        <time>2020-10-08T13:16:38Z</time>
      </trkpt>
      <trkpt lat="48.37541" lon="2.76875">
        <ele>92.14</ele>
        <time>2020-10-08T13:16:43Z</time>
      </trkpt>
      <trkpt lat="48.37542" lon="2.76868">
        <ele>92.16</ele>
        <time>2020-10-08T13:16:48Z</time>
      </trkpt>
      <trkpt lat="48.37542" lon="2.7686">
        <ele>92.23</ele>
        <time>2020-10-08T13:16:53Z</time>
      </trkpt>
      <trkpt lat="48.37544" lon="2.76855">
        <ele>92.48</ele>
        <time>2020-10-08T13:16:58Z</time>
      </trkpt>
      <trkpt lat="48.37545" lon="2.7685">
        <ele>92.61</ele>
        <time>2020-10-08T13:17:03Z</time>
      </trkpt>
      <trkpt lat="48.37546" lon="2.76841">
        <ele>93.08</ele>
        <time>2020-10-08T13:17:08Z</time>
      </trkpt>
      <trkpt lat="48.37547" lon="2.76829">
        <ele>93.12</ele>
        <time>2020-10-08T13:17:13Z</time>
      </trkpt>
      <trkpt lat="48.37548" lon="2.76819">
        <ele>93.14</ele>
        <time>2020-10-08T13:17:18Z</time>
      </trkpt>
      <trkpt lat="48.37548" lon="2.76808">
        <ele>93.24</ele>
        <time>2020-10-08T13:17:23Z</time>
      </trkpt>
      <trkpt lat="48.37549" lon="2.76801">
        <ele>93.44</ele>
        <time>2020-10-08T13:17:28Z</time>
      </trkpt>
      <trkpt lat="48.37551" lon="2.76796">
        <ele>93.22</ele>
        <time>2020-10-08T13:17:33Z</time>
      </trkpt>
      <trkpt lat="48.37554" lon="2.76789">
        <ele>92.94</ele>
        <time>2020-10-08T13:17:38Z</time>
      </trkpt>
      <trkpt lat="48.37558" lon="2.76782">
        <ele>92.76</ele>
        <time>2020-10-08T13:17:43Z</time>
      </trkpt>
      <trkpt lat="48.37562" lon="2.76778">
        <ele>92.7</ele>
        <time>2020-10-08T13:17:48Z</time>
      </trkpt>
      <trkpt lat="48.37567" lon="2.76775">
        <ele>92.68</ele>
        <time>2020-10-08T13:17:53Z</time>
      </trkpt>
      <trkpt lat="48.37571" lon="2.76773">
        <ele>92.7</ele>
        <time>2020-10-08T13:17:58Z</time>
      </trkpt>
      <trkpt lat="48.37576" lon="2.76772">
        <ele>92.78</ele>
        <time>2020-10-08T13:18:03Z</time>
      </trkpt>
      <trkpt lat="48.37579" lon="2.76774">
        <ele>92.84</ele>
        <time>2020-10-08T13:18:08Z</time>
      </trkpt>
      <trkpt lat="48.37584" lon="2.76775">
        <ele>92.91</ele>
        <time>2020-10-08T13:18:13Z</time>
      </trkpt>
      <trkpt lat="48.37589" lon="2.76777">
        <ele>93.1</ele>
        <time>2020-10-08T13:18:18Z</time>
      </trkpt>
      <trkpt lat="48.37594" lon="2.76776">
        <ele>93.19</ele>
        <time>2020-10-08T13:18:23Z</time>
      </trkpt>
      <trkpt lat="48.37599" lon="2.76776">
        <ele>93.32</ele>
        <time>2020-10-08T13:18:28Z</time>
      </trkpt>
      <trkpt lat="48.37603" lon="2.76776">
        <ele>93.54</ele>
        <time>2020-10-08T13:18:33Z</time>
      </trkpt>
      <trkpt lat="48.37605" lon="2.76776">
        <ele>93.82</ele>
        <time>2020-10-08T13:18:38Z</time>
      </trkpt>
      <trkpt lat="48.3761" lon="2.76777">
        <ele>94.22</ele>
        <time>2020-10-08T13:18:43Z</time>
      </trkpt>
      <trkpt lat="48.37614" lon="2.76778">
        <ele>94.47</ele>
        <time>2020-10-08T13:18:48Z</time>
      </trkpt>
      <trkpt lat="48.3762" lon="2.76779">
        <ele>94.66</ele>
        <time>2020-10-08T13:18:53Z</time>
      </trkpt>
      <trkpt lat="48.37625" lon="2.76778">
        <ele>94.86</ele>
        <time>2020-10-08T13:18:58Z</time>
      </trkpt>
      <trkpt lat="48.37632" lon="2.76777">
        <ele>95.1</ele>
        <time>2020-10-08T13:19:03Z</time>
      </trkpt>
      <trkpt lat="48.37638" lon="2.76776">
        <ele>95.35</ele>
        <time>2020-10-08T13:19:08Z</time>
      </trkpt>
      <trkpt lat="48.37643" lon="2.76774">
        <ele>95.54</ele>
        <time>2020-10-08T13:19:13Z</time>
      </trkpt>
      <trkpt lat="48.37647" lon="2.76774">
        <ele>95.58</ele>
        <time>2020-10-08T13:19:18Z</time>
      </trkpt>
      <trkpt lat="48.37652" lon="2.76774">
        <ele>95.66</ele>
        <time>2020-10-08T13:19:23Z</time>
      </trkpt>
      <trkpt lat="48.37656" lon="2.76775">
        <ele>95.93</ele>
        <time>2020-10-08T13:19:28Z</time>
      </trkpt>
      <trkpt lat="48.37662" lon="2.76777">
        <ele>96.31</ele>
        <time>2020-10-08T13:19:33Z</time>
      </trkpt>
      <trkpt lat="48.37666" lon="2.76778">
        <ele>96.64</ele>
        <time>2020-10-08T13:19:38Z</time>
      </trkpt>
      <trkpt lat="48.37671" lon="2.76779">
        <ele>96.99</ele>
        <time>2020-10-08T13:19:43Z</time>
      </trkpt>
      <trkpt lat="48.37677" lon="2.76781">
        <ele>97.16</ele>
        <time>2020-10-08T13:19:48Z</time>
      </trkpt>
      <trkpt lat="48.37683" lon="2.76782">
        <ele>97.45</ele>
        <time>2020-10-08T13:19:53Z</time>
      </trkpt>
      <trkpt lat="48.37689" lon="2.76784">
        <ele>97.46</ele>
        <time>2020-10-08T13:19:58Z</time>
      </trkpt>
      <trkpt lat="48.37696" lon="2.76783">
        <ele>97.35</ele>
        <time>2020-10-08T13:20:03Z</time>
      </trkpt>
      <trkpt lat="48.377" lon="2.76783">
        <ele>97.21</ele>
        <time>2020-10-08T13:20:08Z</time>
      </trkpt>
      <trkpt lat="48.37702" lon="2.76783">
        <ele>96.89</ele>
        <time>2020-10-08T13:20:13Z</time>
      </trkpt>
      <trkpt lat="48.37706" lon="2.76784">
        <ele>96.67</ele>
        <time>2020-10-08T13:20:18Z</time>
      </trkpt>
      <trkpt lat="48.37711" lon="2.76784">
        <ele>96.48</ele>
        <time>2020-10-08T13:20:23Z</time>
      </trkpt>
      <trkpt lat="48.37715" lon="2.76784">
        <ele>96.31</ele>
        <time>2020-10-08T13:20:28Z</time>
      </trkpt>
      <trkpt lat="48.37719" lon="2.76785">
        <ele>96.23</ele>
        <time>2020-10-08T13:20:33Z</time>
      </trkpt>
      <trkpt lat="48.37722" lon="2.76787">
        <ele>96.01</ele>
        <time>2020-10-08T13:20:38Z</time>
      </trkpt>
      <trkpt lat="48.37727" lon="2.76787">
        <ele>95.8</ele>
        <time>2020-10-08T13:20:43Z</time>
      </trkpt>
      <trkpt lat="48.37731" lon="2.76789">
        <ele>95.63</ele>
        <time>2020-10-08T13:20:48Z</time>
      </trkpt>
      <trkpt lat="48.37738" lon="2.7679">
        <ele>95.63</ele>
        <time>2020-10-08T13:20:53Z</time>
      </trkpt>
      <trkpt lat="48.37743" lon="2.76786">
        <ele>95.62</ele>
        <time>2020-10-08T13:20:58Z</time>
      </trkpt>
      <trkpt lat="48.37746" lon="2.76783">
        <ele>95.4</ele>
        <time>2020-10-08T13:21:03Z</time>
      </trkpt>
      <trkpt lat="48.37749" lon="2.76778">
        <ele>95.42</ele>
        <time>2020-10-08T13:21:08Z</time>
      </trkpt>
      <trkpt lat="48.37752" lon="2.76771">
        <ele>95.7</ele>
        <time>2020-10-08T13:21:13Z</time>
      </trkpt>
      <trkpt lat="48.37755" lon="2.76763">
        <ele>95.69</ele>
        <time>2020-10-08T13:21:18Z</time>
      </trkpt>
      <trkpt lat="48.37758" lon="2.76757">
        <ele>95.57</ele>
        <time>2020-10-08T13:21:23Z</time>
      </trkpt>
      <trkpt lat="48.37763" lon="2.76753">
        <ele>95.67</ele>
        <time>2020-10-08T13:21:28Z</time>
      </trkpt>
      <trkpt lat="48.37765" lon="2.76748">
        <ele>95.82</ele>
        <time>2020-10-08T13:21:33Z</time>
      </trkpt>
      <trkpt lat="48.37768" lon="2.76743">
        <ele>95.77</ele>
        <time>2020-10-08T13:21:38Z</time>
      </trkpt>
      <trkpt lat="48.37771" lon="2.76736">
        <ele>95.71</ele>
        <time>2020-10-08T13:21:43Z</time>
      </trkpt>
      <trkpt lat="48.37773" lon="2.76731">
        <ele>95.62</ele>
        <time>2020-10-08T13:21:48Z</time>
      </trkpt>
      <trkpt lat="48.37777" lon="2.76723">
        <ele>95.46</ele>
        <time>2020-10-08T13:21:53Z</time>
      </trkpt>
      <trkpt lat="48.3778" lon="2.76716">
        <ele>95.1</ele>
        <time>2020-10-08T13:21:58Z</time>
      </trkpt>
      <trkpt lat="48.37782" lon="2.76705">
        <ele>94.95</ele>
        <time>2020-10-08T13:22:03Z</time>
      </trkpt>
      <trkpt lat="48.37785" lon="2.76699">
        <ele>94.8</ele>
        <time>2020-10-08T13:22:08Z</time>
      </trkpt>
      <trkpt lat="48.37789" lon="2.76695">
        <ele>94.5</ele>
        <time>2020-10-08T13:22:13Z</time>
      </trkpt>
      <trkpt lat="48.37791" lon="2.76693">
        <ele>94.24</ele>
        <time>2020-10-08T13:22:18Z</time>
      </trkpt>
      <trkpt lat="48.37793" lon="2.76688">
        <ele>93.7</ele>
        <time>2020-10-08T13:22:23Z</time>
      </trkpt>
      <trkpt lat="48.37797" lon="2.76676">
        <ele>93.05</ele>
        <time>2020-10-08T13:22:28Z</time>
      </trkpt>
      <trkpt lat="48.37799" lon="2.76666">
        <ele>92.84</ele>
        <time>2020-10-08T13:22:33Z</time>
      </trkpt>
      <trkpt lat="48.378" lon="2.76657">
        <ele>93.05</ele>
        <time>2020-10-08T13:22:38Z</time>
      </trkpt>
      <trkpt lat="48.37802" lon="2.76647">
        <ele>93.11</ele>
        <time>2020-10-08T13:22:43Z</time>
      </trkpt>
      <trkpt lat="48.37805" lon="2.76639">
        <ele>92.87</ele>
        <time>2020-10-08T13:22:48Z</time>
      </trkpt>
      <trkpt lat="48.37809" lon="2.76631">
        <ele>92.8</ele>
        <time>2020-10-08T13:22:53Z</time>
      </trkpt>
      <trkpt lat="48.37809" lon="2.76622">
        <ele>92.83</ele>
        <time>2020-10-08T13:22:58Z</time>
      </trkpt>
      <trkpt lat="48.3781" lon="2.76614">
        <ele>93.05</ele>
        <time>2020-10-08T13:23:03Z</time>
      </trkpt>
      <trkpt lat="48.37812" lon="2.76608">
        <ele>93.27</ele>
        <time>2020-10-08T13:23:08Z</time>
      </trkpt>
      <trkpt lat="48.37815" lon="2.76603">
        <ele>93.6</ele>
        <time>2020-10-08T13:23:13Z</time>
      </trkpt>
      <trkpt lat="48.37816" lon="2.76597">
        <ele>93.8</ele>
        <time>2020-10-08T13:23:18Z</time>
      </trkpt>
      <trkpt lat="48.37819" lon="2.76591">
        <ele>93.8</ele>
        <time>2020-10-08T13:23:23Z</time>
      </trkpt>
      <trkpt lat="48.37823" lon="2.76585">
        <ele>93.78</ele>
        <time>2020-10-08T13:23:28Z</time>
      </trkpt>
      <trkpt lat="48.37826" lon="2.76578">
        <ele>93.78</ele>
        <time>2020-10-08T13:23:33Z</time>
      </trkpt>
      <trkpt lat="48.37829" lon="2.76571">
        <ele>93.87</ele>
        <time>2020-10-08T13:23:38Z</time>
      </trkpt>
      <trkpt lat="48.3783" lon="2.76563">
        <ele>93.79</ele>
        <time>2020-10-08T13:23:43Z</time>
      </trkpt>
      <trkpt lat="48.37831" lon="2.76555">
        <ele>93.59</ele>
        <time>2020-10-08T13:23:48Z</time>
      </trkpt>
      <trkpt lat="48.37834" lon="2.76548">
        <ele>93.46</ele>
        <time>2020-10-08T13:23:53Z</time>
      </trkpt>
      <trkpt lat="48.37838" lon="2.76541">
        <ele>93.44</ele>
        <time>2020-10-08T13:23:58Z</time>
      </trkpt>
      <trkpt lat="48.37839" lon="2.76533">
        <ele>93.56</ele>
        <time>2020-10-08T13:24:03Z</time>
      </trkpt>
      <trkpt lat="48.3784" lon="2.76527">
        <ele>93.75</ele>
        <time>2020-10-08T13:24:08Z</time>
      </trkpt>
      <trkpt lat="48.37841" lon="2.76521">
        <ele>94.47</ele>
        <time>2020-10-08T13:24:13Z</time>
      </trkpt>
      <trkpt lat="48.37844" lon="2.76514">
        <ele>95.04</ele>
        <time>2020-10-08T13:24:18Z</time>
      </trkpt>
      <trkpt lat="48.37846" lon="2.76506">
        <ele>95.07</ele>
        <time>2020-10-08T13:24:23Z</time>
      </trkpt>
      <trkpt lat="48.3785" lon="2.76497">
        <ele>95.29</ele>
        <time>2020-10-08T13:24:28Z</time>
      </trkpt>
      <trkpt lat="48.37855" lon="2.76486">
        <ele>95.14</ele>
        <time>2020-10-08T13:24:33Z</time>
      </trkpt>
      <trkpt lat="48.3786" lon="2.76477">
        <ele>94.53</ele>
        <time>2020-10-08T13:24:38Z</time>
      </trkpt>
      <trkpt lat="48.37863" lon="2.7647">
        <ele>94.19</ele>
        <time>2020-10-08T13:24:43Z</time>
      </trkpt>
      <trkpt lat="48.37865" lon="2.76461">
        <ele>93.9</ele>
        <time>2020-10-08T13:24:48Z</time>
      </trkpt>
      <trkpt lat="48.37868" lon="2.76452">
        <ele>93.91</ele>
        <time>2020-10-08T13:24:53Z</time>
      </trkpt>
      <trkpt lat="48.37869" lon="2.76446">
        <ele>93.82</ele>
        <time>2020-10-08T13:24:58Z</time>
      </trkpt>
      <trkpt lat="48.37873" lon="2.76439">
        <ele>93.4</ele>
        <time>2020-10-08T13:25:03Z</time>
      </trkpt>
      <trkpt lat="48.37876" lon="2.76434">
        <ele>93.17</ele>
        <time>2020-10-08T13:25:08Z</time>
      </trkpt>
      <trkpt lat="48.37877" lon="2.76427">
        <ele>93.01</ele>
        <time>2020-10-08T13:25:13Z</time>
      </trkpt>
      <trkpt lat="48.37878" lon="2.7642">
        <ele>92.74</ele>
        <time>2020-10-08T13:25:18Z</time>
      </trkpt>
      <trkpt lat="48.37881" lon="2.76414">
        <ele>92.59</ele>
        <time>2020-10-08T13:25:23Z</time>
      </trkpt>
      <trkpt lat="48.37883" lon="2.76406">
        <ele>92.21</ele>
        <time>2020-10-08T13:25:28Z</time>
      </trkpt>
      <trkpt lat="48.37884" lon="2.76395">
        <ele>92.07</ele>
        <time>2020-10-08T13:25:33Z</time>
      </trkpt>
      <trkpt lat="48.37884" lon="2.76386">
        <ele>91.98</ele>
        <time>2020-10-08T13:25:38Z</time>
      </trkpt>
      <trkpt lat="48.37886" lon="2.76378">
        <ele>91.96</ele>
        <time>2020-10-08T13:25:43Z</time>
      </trkpt>
      <trkpt lat="48.37886" lon="2.76371">
        <ele>91.95</ele>
        <time>2020-10-08T13:25:48Z</time>
      </trkpt>
      <trkpt lat="48.37889" lon="2.76364">
        <ele>92.14</ele>
        <time>2020-10-08T13:25:53Z</time>
      </trkpt>
      <trkpt lat="48.37893" lon="2.76359">
        <ele>92.42</ele>
        <time>2020-10-08T13:25:58Z</time>
      </trkpt>
      <trkpt lat="48.37896" lon="2.76354">
        <ele>92.42</ele>
        <time>2020-10-08T13:26:03Z</time>
      </trkpt>
      <trkpt lat="48.37898" lon="2.76347">
        <ele>92.22</ele>
        <time>2020-10-08T13:26:08Z</time>
      </trkpt>
      <trkpt lat="48.37902" lon="2.76342">
        <ele>92</ele>
        <time>2020-10-08T13:26:13Z</time>
      </trkpt>
      <trkpt lat="48.37903" lon="2.76337">
        <ele>91.93</ele>
        <time>2020-10-08T13:26:18Z</time>
      </trkpt>
      <trkpt lat="48.37903" lon="2.76331">
        <ele>91.88</ele>
        <time>2020-10-08T13:26:23Z</time>
      </trkpt>
      <trkpt lat="48.37906" lon="2.76322">
        <ele>91.79</ele>
        <time>2020-10-08T13:26:28Z</time>
      </trkpt>
      <trkpt lat="48.37908" lon="2.76315">
        <ele>91.73</ele>
        <time>2020-10-08T13:26:33Z</time>
      </trkpt>
      <trkpt lat="48.3791" lon="2.76311">
        <ele>91.76</ele>
        <time>2020-10-08T13:26:38Z</time>
      </trkpt>
      <trkpt lat="48.37915" lon="2.76303">
        <ele>92</ele>
        <time>2020-10-08T13:26:43Z</time>
      </trkpt>
      <trkpt lat="48.37918" lon="2.76297">
        <ele>92</ele>
        <time>2020-10-08T13:26:48Z</time>
      </trkpt>
      <trkpt lat="48.37921" lon="2.76288">
        <ele>91.87</ele>
        <time>2020-10-08T13:26:53Z</time>
      </trkpt>
      <trkpt lat="48.37923" lon="2.7628">
        <ele>91.83</ele>
        <time>2020-10-08T13:26:58Z</time>
      </trkpt>
      <trkpt lat="48.37926" lon="2.76275">
        <ele>91.66</ele>
        <time>2020-10-08T13:27:03Z</time>
      </trkpt>
      <trkpt lat="48.37929" lon="2.76269">
        <ele>91.68</ele>
        <time>2020-10-08T13:27:08Z</time>
      </trkpt>
      <trkpt lat="48.37935" lon="2.76264">
        <ele>91.79</ele>
        <time>2020-10-08T13:27:13Z</time>
      </trkpt>
      <trkpt lat="48.3794" lon="2.76259">
        <ele>91.77</ele>
        <time>2020-10-08T13:27:18Z</time>
      </trkpt>
      <trkpt lat="48.37942" lon="2.76251">
        <ele>91.54</ele>
        <time>2020-10-08T13:27:23Z</time>
      </trkpt>
      <trkpt lat="48.37945" lon="2.76245">
        <ele>91.48</ele>
        <time>2020-10-08T13:27:28Z</time>
      </trkpt>
      <trkpt lat="48.37948" lon="2.76239">
        <ele>91.47</ele>
        <time>2020-10-08T13:27:33Z</time>
      </trkpt>
      <trkpt lat="48.3795" lon="2.76232">
        <ele>91.55</ele>
        <time>2020-10-08T13:27:38Z</time>
      </trkpt>
      <trkpt lat="48.37953" lon="2.76225">
        <ele>91.69</ele>
        <time>2020-10-08T13:27:43Z</time>
      </trkpt>
      <trkpt lat="48.37957" lon="2.76219">
        <ele>91.7</ele>
        <time>2020-10-08T13:27:48Z</time>
      </trkpt>
      <trkpt lat="48.37958" lon="2.76211">
        <ele>91.76</ele>
        <time>2020-10-08T13:27:53Z</time>
      </trkpt>
      <trkpt lat="48.37957" lon="2.76202">
        <ele>92.09</ele>
        <time>2020-10-08T13:27:58Z</time>
      </trkpt>
      <trkpt lat="48.37957" lon="2.76191">
        <ele>92.08</ele>
        <time>2020-10-08T13:28:03Z</time>
      </trkpt>
      <trkpt lat="48.37957" lon="2.76184">
        <ele>92</ele>
        <time>2020-10-08T13:28:08Z</time>
      </trkpt>
      <trkpt lat="48.37956" lon="2.76175">
        <ele>91.67</ele>
        <time>2020-10-08T13:28:13Z</time>
      </trkpt>
      <trkpt lat="48.37955" lon="2.76168">
        <ele>91.61</ele>
        <time>2020-10-08T13:28:18Z</time>
      </trkpt>
      <trkpt lat="48.37956" lon="2.76162">
        <ele>91.3</ele>
        <time>2020-10-08T13:28:23Z</time>
      </trkpt>
      <trkpt lat="48.37956" lon="2.76157">
        <ele>91.11</ele>
        <time>2020-10-08T13:28:28Z</time>
      </trkpt>
      <trkpt lat="48.37957" lon="2.76151">
        <ele>91.06</ele>
        <time>2020-10-08T13:28:33Z</time>
      </trkpt>
      <trkpt lat="48.37954" lon="2.76145">
        <ele>90.99</ele>
        <time>2020-10-08T13:28:38Z</time>
      </trkpt>
      <trkpt lat="48.37954" lon="2.7614">
        <ele>90.83</ele>
        <time>2020-10-08T13:28:43Z</time>
      </trkpt>
      <trkpt lat="48.37956" lon="2.76133">
        <ele>90.69</ele>
        <time>2020-10-08T13:28:48Z</time>
      </trkpt>
      <trkpt lat="48.37958" lon="2.76124">
        <ele>90.47</ele>
        <time>2020-10-08T13:28:53Z</time>
      </trkpt>
      <trkpt lat="48.3796" lon="2.76115">
        <ele>90.45</ele>
        <time>2020-10-08T13:28:58Z</time>
      </trkpt>
      <trkpt lat="48.3796" lon="2.76108">
        <ele>90.64</ele>
        <time>2020-10-08T13:29:03Z</time>
      </trkpt>
      <trkpt lat="48.37961" lon="2.761">
        <ele>90.89</ele>
        <time>2020-10-08T13:29:08Z</time>
      </trkpt>
      <trkpt lat="48.37961" lon="2.76092">
        <ele>90.9</ele>
        <time>2020-10-08T13:29:13Z</time>
      </trkpt>
      <trkpt lat="48.37962" lon="2.76084">
        <ele>90.95</ele>
        <time>2020-10-08T13:29:18Z</time>
      </trkpt>
      <trkpt lat="48.37962" lon="2.76077">
        <ele>91.15</ele>
        <time>2020-10-08T13:29:23Z</time>
      </trkpt>
      <trkpt lat="48.37962" lon="2.76069">
        <ele>91.14</ele>
        <time>2020-10-08T13:29:28Z</time>
      </trkpt>
      <trkpt lat="48.37964" lon="2.76062">
        <ele>91.06</ele>
        <time>2020-10-08T13:29:33Z</time>
      </trkpt>
      <trkpt lat="48.37966" lon="2.76056">
        <ele>90.81</ele>
        <time>2020-10-08T13:29:38Z</time>
      </trkpt>
      <trkpt lat="48.37967" lon="2.76048">
        <ele>90.54</ele>
        <time>2020-10-08T13:29:43Z</time>
      </trkpt>
      <trkpt lat="48.37966" lon="2.76043">
        <ele>90.41</ele>
        <time>2020-10-08T13:29:48Z</time>
      </trkpt>
      <trkpt lat="48.37966" lon="2.76036">
        <ele>90.33</ele>
        <time>2020-10-08T13:29:53Z</time>
      </trkpt>
      <trkpt lat="48.37964" lon="2.76028">
        <ele>90.28</ele>
        <time>2020-10-08T13:29:58Z</time>
      </trkpt>
      <trkpt lat="48.37962" lon="2.76019">
        <ele>90.09</ele>
        <time>2020-10-08T13:30:03Z</time>
      </trkpt>
      <trkpt lat="48.37963" lon="2.7601">
        <ele>90.01</ele>
        <time>2020-10-08T13:30:08Z</time>
      </trkpt>
      <trkpt lat="48.37965" lon="2.76005">
        <ele>89.98</ele>
        <time>2020-10-08T13:30:13Z</time>
      </trkpt>
      <trkpt lat="48.37966" lon="2.75996">
        <ele>89.95</ele>
        <time>2020-10-08T13:30:18Z</time>
      </trkpt>
      <trkpt lat="48.37967" lon="2.75988">
        <ele>89.92</ele>
        <time>2020-10-08T13:30:23Z</time>
      </trkpt>
      <trkpt lat="48.37966" lon="2.75981">
        <ele>89.85</ele>
        <time>2020-10-08T13:30:28Z</time>
      </trkpt>
      <trkpt lat="48.37967" lon="2.7597">
        <ele>90.01</ele>
        <time>2020-10-08T13:30:33Z</time>
      </trkpt>
      <trkpt lat="48.37968" lon="2.7596">
        <ele>90.28</ele>
        <time>2020-10-08T13:30:38Z</time>
      </trkpt>
      <trkpt lat="48.37968" lon="2.75952">
        <ele>90.13</ele>
        <time>2020-10-08T13:30:43Z</time>
      </trkpt>
      <trkpt lat="48.37968" lon="2.75945">
        <ele>90.04</ele>
        <time>2020-10-08T13:30:48Z</time>
      </trkpt>
      <trkpt lat="48.37966" lon="2.75938">
        <ele>89.98</ele>
        <time>2020-10-08T13:30:53Z</time>
      </trkpt>
      <trkpt lat="48.37965" lon="2.75933">
        <ele>89.82</ele>
        <time>2020-10-08T13:30:58Z</time>
      </trkpt>
      <trkpt lat="48.37966" lon="2.75926">
        <ele>89.86</ele>
        <time>2020-10-08T13:31:03Z</time>
      </trkpt>
      <trkpt lat="48.37966" lon="2.75918">
        <ele>90.07</ele>
        <time>2020-10-08T13:31:08Z</time>
      </trkpt>
      <trkpt lat="48.37967" lon="2.7591">
        <ele>90.18</ele>
        <time>2020-10-08T13:31:13Z</time>
      </trkpt>
      <trkpt lat="48.37969" lon="2.75903">
        <ele>90.16</ele>
        <time>2020-10-08T13:31:18Z</time>
      </trkpt>
      <trkpt lat="48.37969" lon="2.75897">
        <ele>90.33</ele>
        <time>2020-10-08T13:31:23Z</time>
      </trkpt>
      <trkpt lat="48.3797" lon="2.75888">
        <ele>90.65</ele>
        <time>2020-10-08T13:31:28Z</time>
      </trkpt>
      <trkpt lat="48.37968" lon="2.75879">
        <ele>90.9</ele>
        <time>2020-10-08T13:31:33Z</time>
      </trkpt>
      <trkpt lat="48.37967" lon="2.75872">
        <ele>91.05</ele>
        <time>2020-10-08T13:31:38Z</time>
      </trkpt>
      <trkpt lat="48.37967" lon="2.75864">
        <ele>90.99</ele>
        <time>2020-10-08T13:31:43Z</time>
      </trkpt>
      <trkpt lat="48.37968" lon="2.75856">
        <ele>90.75</ele>
        <time>2020-10-08T13:31:48Z</time>
      </trkpt>
      <trkpt lat="48.37968" lon="2.75849">
        <ele>90.61</ele>
        <time>2020-10-08T13:31:53Z</time>
      </trkpt>
      <trkpt lat="48.3797" lon="2.75838">
        <ele>90.59</ele>
        <time>2020-10-08T13:31:58Z</time>
      </trkpt>
      <trkpt lat="48.37973" lon="2.7583">
        <ele>90.55</ele>
        <time>2020-10-08T13:32:03Z</time>
      </trkpt>
      <trkpt lat="48.37969" lon="2.75825">
        <ele>89.91</ele>
        <time>2020-10-08T13:32:08Z</time>
      </trkpt>
      <trkpt lat="48.37964" lon="2.75822">
        <ele>89.61</ele>
        <time>2020-10-08T13:32:13Z</time>
      </trkpt>
      <trkpt lat="48.37961" lon="2.75818">
        <ele>89.3</ele>
        <time>2020-10-08T13:32:18Z</time>
      </trkpt>
      <trkpt lat="48.37959" lon="2.75816">
        <ele>89.15</ele>
        <time>2020-10-08T13:32:23Z</time>
      </trkpt>
      <trkpt lat="48.37957" lon="2.75815">
        <ele>88.94</ele>
        <time>2020-10-08T13:32:28Z</time>
      </trkpt>
      <trkpt lat="48.37954" lon="2.75814">
        <ele>88.88</ele>
        <time>2020-10-08T13:32:33Z</time>
      </trkpt>
      <trkpt lat="48.37951" lon="2.75813">
        <ele>88.84</ele>
        <time>2020-10-08T13:32:38Z</time>
      </trkpt>
      <trkpt lat="48.37946" lon="2.75814">
        <ele>88.98</ele>
        <time>2020-10-08T13:32:43Z</time>
      </trkpt>
      <trkpt lat="48.37942" lon="2.75813">
        <ele>89.12</ele>
        <time>2020-10-08T13:32:48Z</time>
      </trkpt>
      <trkpt lat="48.37936" lon="2.75811">
        <ele>89.32</ele>
        <time>2020-10-08T13:32:53Z</time>
      </trkpt>
      <trkpt lat="48.37931" lon="2.75811">
        <ele>89.83</ele>
        <time>2020-10-08T13:32:58Z</time>
      </trkpt>
      <trkpt lat="48.37926" lon="2.75809">
        <ele>90.18</ele>
        <time>2020-10-08T13:33:03Z</time>
      </trkpt>
      <trkpt lat="48.37923" lon="2.75807">
        <ele>90.61</ele>
        <time>2020-10-08T13:33:08Z</time>
      </trkpt>
      <trkpt lat="48.37919" lon="2.75806">
        <ele>91.32</ele>
        <time>2020-10-08T13:33:13Z</time>
      </trkpt>
      <trkpt lat="48.37914" lon="2.75805">
        <ele>91.6</ele>
        <time>2020-10-08T13:33:18Z</time>
      </trkpt>
      <trkpt lat="48.37907" lon="2.75802">
        <ele>92.02</ele>
        <time>2020-10-08T13:33:23Z</time>
      </trkpt>
      <trkpt lat="48.37901" lon="2.75801">
        <ele>92.64</ele>
        <time>2020-10-08T13:33:28Z</time>
      </trkpt>
      <trkpt lat="48.37896" lon="2.75801">
        <ele>93.21</ele>
        <time>2020-10-08T13:33:33Z</time>
      </trkpt>
      <trkpt lat="48.37892" lon="2.75801">
        <ele>93.81</ele>
        <time>2020-10-08T13:33:38Z</time>
      </trkpt>
      <trkpt lat="48.37884" lon="2.75802">
        <ele>94.46</ele>
        <time>2020-10-08T13:33:43Z</time>
      </trkpt>
      <trkpt lat="48.37879" lon="2.758">
        <ele>95.35</ele>
        <time>2020-10-08T13:33:48Z</time>
      </trkpt>
      <trkpt lat="48.37877" lon="2.75801">
        <ele>96.16</ele>
        <time>2020-10-08T13:33:53Z</time>
      </trkpt>
      <trkpt lat="48.37875" lon="2.75802">
        <ele>96.81</ele>
        <time>2020-10-08T13:33:58Z</time>
      </trkpt>
      <trkpt lat="48.37872" lon="2.75805">
        <ele>97.44</ele>
        <time>2020-10-08T13:34:03Z</time>
      </trkpt>
      <trkpt lat="48.37871" lon="2.75808">
        <ele>98.25</ele>
        <time>2020-10-08T13:34:08Z</time>
      </trkpt>
      <trkpt lat="48.37871" lon="2.75815">
        <ele>99.07</ele>
        <time>2020-10-08T13:34:13Z</time>
      </trkpt>
      <trkpt lat="48.37873" lon="2.7582">
        <ele>99.73</ele>
        <time>2020-10-08T13:34:18Z</time>
      </trkpt>
      <trkpt lat="48.37872" lon="2.75827">
        <ele>100.46</ele>
        <time>2020-10-08T13:34:23Z</time>
      </trkpt>
      <trkpt lat="48.37873" lon="2.75833">
        <ele>101</ele>
        <time>2020-10-08T13:34:28Z</time>
      </trkpt>
      <trkpt lat="48.37872" lon="2.75838">
        <ele>101.36</ele>
        <time>2020-10-08T13:34:33Z</time>
      </trkpt>
      <trkpt lat="48.37873" lon="2.75844">
        <ele>101.66</ele>
        <time>2020-10-08T13:34:38Z</time>
      </trkpt>
      <trkpt lat="48.37874" lon="2.75852">
        <ele>102.02</ele>
        <time>2020-10-08T13:34:43Z</time>
      </trkpt>
      <trkpt lat="48.37874" lon="2.75859">
        <ele>102.47</ele>
        <time>2020-10-08T13:34:48Z</time>
      </trkpt>
      <trkpt lat="48.37873" lon="2.75863">
        <ele>102.7</ele>
        <time>2020-10-08T13:34:53Z</time>
      </trkpt>
      <trkpt lat="48.37869" lon="2.75865">
        <ele>103.08</ele>
        <time>2020-10-08T13:34:58Z</time>
      </trkpt>
      <trkpt lat="48.37869" lon="2.75866">
        <ele>103.43</ele>
        <time>2020-10-08T13:35:03Z</time>
      </trkpt>
      <trkpt lat="48.37867" lon="2.75867">
        <ele>103.06</ele>
        <time>2020-10-08T13:35:08Z</time>
      </trkpt>
      <trkpt lat="48.37866" lon="2.75866">
        <ele>103.26</ele>
        <time>2020-10-08T13:35:13Z</time>
      </trkpt>
      <trkpt lat="48.37866" lon="2.75867">
        <ele>103.36</ele>
        <time>2020-10-08T13:35:18Z</time>
      </trkpt>
      <trkpt lat="48.37866" lon="2.75867">
        <ele>103.61</ele>
        <time>2020-10-08T13:35:24Z</time>
      </trkpt>
      <trkpt lat="48.37866" lon="2.75867">
        <ele>103.71</ele>
        <time>2020-10-08T13:35:29Z</time>
      </trkpt>
      <trkpt lat="48.37865" lon="2.75867">
        <ele>103.71</ele>
        <time>2020-10-08T13:35:35Z</time>
      </trkpt>
      <trkpt lat="48.37864" lon="2.75867">
        <ele>103.76</ele>
        <time>2020-10-08T13:35:40Z</time>
      </trkpt>
      <trkpt lat="48.37865" lon="2.75866">
        <ele>103.75</ele>
        <time>2020-10-08T13:35:45Z</time>
      </trkpt>
      <trkpt lat="48.37864" lon="2.75866">
        <ele>103.71</ele>
        <time>2020-10-08T13:35:50Z</time>
      </trkpt>
      <trkpt lat="48.37864" lon="2.75866">
        <ele>103.5</ele>
        <time>2020-10-08T13:35:55Z</time>
      </trkpt>
      <trkpt lat="48.37865" lon="2.75866">
        <ele>103.23</ele>
        <time>2020-10-08T13:36:00Z</time>
      </trkpt>
      <trkpt lat="48.37864" lon="2.75865">
        <ele>103.23</ele>
        <time>2020-10-08T13:36:05Z</time>
      </trkpt>
      <trkpt lat="48.37864" lon="2.75865">
        <ele>103.23</ele>
        <time>2020-10-08T13:36:10Z</time>
      </trkpt>
      <trkpt lat="48.37863" lon="2.75864">
        <ele>103.23</ele>
        <time>2020-10-08T13:36:15Z</time>
      </trkpt>
      <trkpt lat="48.37862" lon="2.75864">
        <ele>103.23</ele>
        <time>2020-10-08T13:36:20Z</time>
      </trkpt>
      <trkpt lat="48.37862" lon="2.75864">
        <ele>103.23</ele>
        <time>2020-10-08T13:36:25Z</time>
      </trkpt>
      <trkpt lat="48.3786" lon="2.75863">
        <ele>103.23</ele>
        <time>2020-10-08T13:36:30Z</time>
      </trkpt>
      <trkpt lat="48.37859" lon="2.75863">
        <ele>103.6</ele>
        <time>2020-10-08T13:36:35Z</time>
      </trkpt>
      <trkpt lat="48.3786" lon="2.75865">
        <ele>103.58</ele>
        <time>2020-10-08T13:36:40Z</time>
      </trkpt>
      <trkpt lat="48.3786" lon="2.75864">
        <ele>103.47</ele>
        <time>2020-10-08T13:36:45Z</time>
      </trkpt>
      <trkpt lat="48.3786" lon="2.75864">
        <ele>103.45</ele>
        <time>2020-10-08T13:36:50Z</time>
      </trkpt>
      <trkpt lat="48.37861" lon="2.75863">
        <ele>103.49</ele>
        <time>2020-10-08T13:36:55Z</time>
      </trkpt>
      <trkpt lat="48.37861" lon="2.75864">
        <ele>103.49</ele>
        <time>2020-10-08T13:37:00Z</time>
      </trkpt>
      <trkpt lat="48.37862" lon="2.75864">
        <ele>103.49</ele>
        <time>2020-10-08T13:37:05Z</time>
      </trkpt>
      <trkpt lat="48.37865" lon="2.75866">
        <ele>103.63</ele>
        <time>2020-10-08T13:37:10Z</time>
      </trkpt>
      <trkpt lat="48.37866" lon="2.75868">
        <ele>103.83</ele>
        <time>2020-10-08T13:37:15Z</time>
      </trkpt>
      <trkpt lat="48.37867" lon="2.75867">
        <ele>103.78</ele>
        <time>2020-10-08T13:37:20Z</time>
      </trkpt>
      <trkpt lat="48.37867" lon="2.75867">
        <ele>103.78</ele>
        <time>2020-10-08T13:37:25Z</time>
      </trkpt>
      <trkpt lat="48.37864" lon="2.75867">
        <ele>103.62</ele>
        <time>2020-10-08T13:37:30Z</time>
      </trkpt>
      <trkpt lat="48.37864" lon="2.75867">
        <ele>103.28</ele>
        <time>2020-10-08T13:37:35Z</time>
      </trkpt>
      <trkpt lat="48.37864" lon="2.75867">
        <ele>103.28</ele>
        <time>2020-10-08T13:37:40Z</time>
      </trkpt>
      <trkpt lat="48.37863" lon="2.75866">
        <ele>103.28</ele>
        <time>2020-10-08T13:37:45Z</time>
      </trkpt>
      <trkpt lat="48.37862" lon="2.75867">
        <ele>103.28</ele>
        <time>2020-10-08T13:37:50Z</time>
      </trkpt>
      <trkpt lat="48.3786" lon="2.75868">
        <ele>103.28</ele>
        <time>2020-10-08T13:37:55Z</time>
      </trkpt>
      <trkpt lat="48.3786" lon="2.75867">
        <ele>103.28</ele>
        <time>2020-10-08T13:38:00Z</time>
      </trkpt>
      <trkpt lat="48.37859" lon="2.75866">
        <ele>103.28</ele>
        <time>2020-10-08T13:38:05Z</time>
      </trkpt>
      <trkpt lat="48.37861" lon="2.75868">
        <ele>103.28</ele>
        <time>2020-10-08T13:38:10Z</time>
      </trkpt>
      <trkpt lat="48.37863" lon="2.7587">
        <ele>103.28</ele>
        <time>2020-10-08T13:38:15Z</time>
      </trkpt>
      <trkpt lat="48.37862" lon="2.75871">
        <ele>103.28</ele>
        <time>2020-10-08T13:38:20Z</time>
      </trkpt>
      <trkpt lat="48.37862" lon="2.75872">
        <ele>103.28</ele>
        <time>2020-10-08T13:38:25Z</time>
      </trkpt>
      <trkpt lat="48.37861" lon="2.75871">
        <ele>103.28</ele>
        <time>2020-10-08T13:38:30Z</time>
      </trkpt>
      <trkpt lat="48.3786" lon="2.75872">
        <ele>103.28</ele>
        <time>2020-10-08T13:38:35Z</time>
      </trkpt>
      <trkpt lat="48.3786" lon="2.7587">
        <ele>103.28</ele>
        <time>2020-10-08T13:38:40Z</time>
      </trkpt>
      <trkpt lat="48.3786" lon="2.75869">
        <ele>103.28</ele>
        <time>2020-10-08T13:38:45Z</time>
      </trkpt>
      <trkpt lat="48.37859" lon="2.7587">
        <ele>103.28</ele>
        <time>2020-10-08T13:38:50Z</time>
      </trkpt>
      <trkpt lat="48.3786" lon="2.75869">
        <ele>103.28</ele>
        <time>2020-10-08T13:38:55Z</time>
      </trkpt>
      <trkpt lat="48.37861" lon="2.75867">
        <ele>103.28</ele>
        <time>2020-10-08T13:39:00Z</time>
      </trkpt>
      <trkpt lat="48.37861" lon="2.75867">
        <ele>103.28</ele>
        <time>2020-10-08T13:39:05Z</time>
      </trkpt>
      <trkpt lat="48.37861" lon="2.75864">
        <ele>103.28</ele>
        <time>2020-10-08T13:39:10Z</time>
      </trkpt>
      <trkpt lat="48.37861" lon="2.75862">
        <ele>103.28</ele>
        <time>2020-10-08T13:39:15Z</time>
      </trkpt>
      <trkpt lat="48.37861" lon="2.75862">
        <ele>103.28</ele>
        <time>2020-10-08T13:39:20Z</time>
      </trkpt>
      <trkpt lat="48.3786" lon="2.75862">
        <ele>103.28</ele>
        <time>2020-10-08T13:39:25Z</time>
      </trkpt>
      <trkpt lat="48.37859" lon="2.75863">
        <ele>103.28</ele>
        <time>2020-10-08T13:39:30Z</time>
      </trkpt>
      <trkpt lat="48.37858" lon="2.75863">
        <ele>103.28</ele>
        <time>2020-10-08T13:39:35Z</time>
      </trkpt>
      <trkpt lat="48.37858" lon="2.75866">
        <ele>103.28</ele>
        <time>2020-10-08T13:39:40Z</time>
      </trkpt>
      <trkpt lat="48.37858" lon="2.75868">
        <ele>103.28</ele>
        <time>2020-10-08T13:39:45Z</time>
      </trkpt>
      <trkpt lat="48.37857" lon="2.7587">
        <ele>103.28</ele>
        <time>2020-10-08T13:39:50Z</time>
      </trkpt>
      <trkpt lat="48.37857" lon="2.75871">
        <ele>103.28</ele>
        <time>2020-10-08T13:39:55Z</time>
      </trkpt>
      <trkpt lat="48.37857" lon="2.75872">
        <ele>103.28</ele>
        <time>2020-10-08T13:40:00Z</time>
      </trkpt>
      <trkpt lat="48.37857" lon="2.75872">
        <ele>103.28</ele>
        <time>2020-10-08T13:40:05Z</time>
      </trkpt>
      <trkpt lat="48.37858" lon="2.75871">
        <ele>103.28</ele>
        <time>2020-10-08T13:40:10Z</time>
      </trkpt>
      <trkpt lat="48.37858" lon="2.7587">
        <ele>103.28</ele>
        <time>2020-10-08T13:40:15Z</time>
      </trkpt>
      <trkpt lat="48.37858" lon="2.7587">
        <ele>103.28</ele>
        <time>2020-10-08T13:40:20Z</time>
      </trkpt>
      <trkpt lat="48.37859" lon="2.7587">
        <ele>103.28</ele>
        <time>2020-10-08T13:40:25Z</time>
      </trkpt>
      <trkpt lat="48.3786" lon="2.75869">
        <ele>103.28</ele>
        <time>2020-10-08T13:40:30Z</time>
      </trkpt>
      <trkpt lat="48.3786" lon="2.75869">
        <ele>103.28</ele>
        <time>2020-10-08T13:40:35Z</time>
      </trkpt>
      <trkpt lat="48.3786" lon="2.7587">
        <ele>103.28</ele>
        <time>2020-10-08T13:40:40Z</time>
      </trkpt>
      <trkpt lat="48.3786" lon="2.75869">
        <ele>103.28</ele>
        <time>2020-10-08T13:40:45Z</time>
      </trkpt>
      <trkpt lat="48.3786" lon="2.7587">
        <ele>103.28</ele>
        <time>2020-10-08T13:40:50Z</time>
      </trkpt>
      <trkpt lat="48.3786" lon="2.7587">
        <ele>103.28</ele>
        <time>2020-10-08T13:40:55Z</time>
      </trkpt>
      <trkpt lat="48.37859" lon="2.7587">
        <ele>103.28</ele>
        <time>2020-10-08T13:41:00Z</time>
      </trkpt>
      <trkpt lat="48.37858" lon="2.7587">
        <ele>103.28</ele>
        <time>2020-10-08T13:41:05Z</time>
      </trkpt>
      <trkpt lat="48.37859" lon="2.75871">
        <ele>103.28</ele>
        <time>2020-10-08T13:41:10Z</time>
      </trkpt>
      <trkpt lat="48.37859" lon="2.75871">
        <ele>103.28</ele>
        <time>2020-10-08T13:41:15Z</time>
      </trkpt>
      <trkpt lat="48.3786" lon="2.75869">
        <ele>103.28</ele>
        <time>2020-10-08T13:41:20Z</time>
      </trkpt>
      <trkpt lat="48.3786" lon="2.75869">
        <ele>103.28</ele>
        <time>2020-10-08T13:41:25Z</time>
      </trkpt>
      <trkpt lat="48.3786" lon="2.75868">
        <ele>103.28</ele>
        <time>2020-10-08T13:41:30Z</time>
      </trkpt>
      <trkpt lat="48.3786" lon="2.75867">
        <ele>103.28</ele>
        <time>2020-10-08T13:41:35Z</time>
      </trkpt>
      <trkpt lat="48.37858" lon="2.75868">
        <ele>103.28</ele>
        <time>2020-10-08T13:41:40Z</time>
      </trkpt>
      <trkpt lat="48.37857" lon="2.75868">
        <ele>103.28</ele>
        <time>2020-10-08T13:41:45Z</time>
      </trkpt>
      <trkpt lat="48.37856" lon="2.75868">
        <ele>103.28</ele>
        <time>2020-10-08T13:41:50Z</time>
      </trkpt>
      <trkpt lat="48.37857" lon="2.75867">
        <ele>103.28</ele>
        <time>2020-10-08T13:41:55Z</time>
      </trkpt>
      <trkpt lat="48.37857" lon="2.75868">
        <ele>103.28</ele>
        <time>2020-10-08T13:42:00Z</time>
      </trkpt>
      <trkpt lat="48.37858" lon="2.75869">
        <ele>103.28</ele>
        <time>2020-10-08T13:42:05Z</time>
      </trkpt>
      <trkpt lat="48.37858" lon="2.7587">
        <ele>103.28</ele>
        <time>2020-10-08T13:42:10Z</time>
      </trkpt>
      <trkpt lat="48.37859" lon="2.7587">
        <ele>103.28</ele>
        <time>2020-10-08T13:42:15Z</time>
      </trkpt>
      <trkpt lat="48.37859" lon="2.75869">
        <ele>103.28</ele>
        <time>2020-10-08T13:42:20Z</time>
      </trkpt>
      <trkpt lat="48.3786" lon="2.75868">
        <ele>103.28</ele>
        <time>2020-10-08T13:42:25Z</time>
      </trkpt>
      <trkpt lat="48.37861" lon="2.75867">
        <ele>103.28</ele>
        <time>2020-10-08T13:42:30Z</time>
      </trkpt>
      <trkpt lat="48.37861" lon="2.75869">
        <ele>103.28</ele>
        <time>2020-10-08T13:42:35Z</time>
      </trkpt>
      <trkpt lat="48.3786" lon="2.7587">
        <ele>103.28</ele>
        <time>2020-10-08T13:42:40Z</time>
      </trkpt>
      <trkpt lat="48.37859" lon="2.75872">
        <ele>103.28</ele>
        <time>2020-10-08T13:42:45Z</time>
      </trkpt>
      <trkpt lat="48.37858" lon="2.75872">
        <ele>103.28</ele>
        <time>2020-10-08T13:42:50Z</time>
      </trkpt>
      <trkpt lat="48.37858" lon="2.75873">
        <ele>103.28</ele>
        <time>2020-10-08T13:42:55Z</time>
      </trkpt>
      <trkpt lat="48.37857" lon="2.75872">
        <ele>103.28</ele>
        <time>2020-10-08T13:43:00Z</time>
      </trkpt>
      <trkpt lat="48.37858" lon="2.75872">
        <ele>103.28</ele>
        <time>2020-10-08T13:43:05Z</time>
      </trkpt>
      <trkpt lat="48.3786" lon="2.75871">
        <ele>103.28</ele>
        <time>2020-10-08T13:43:10Z</time>
      </trkpt>
      <trkpt lat="48.3786" lon="2.75872">
        <ele>103.28</ele>
        <time>2020-10-08T13:43:15Z</time>
      </trkpt>
      <trkpt lat="48.3786" lon="2.75872">
        <ele>103.28</ele>
        <time>2020-10-08T13:43:20Z</time>
      </trkpt>
      <trkpt lat="48.3786" lon="2.7587">
        <ele>103.28</ele>
        <time>2020-10-08T13:43:25Z</time>
      </trkpt>
      <trkpt lat="48.3786" lon="2.75869">
        <ele>103.28</ele>
        <time>2020-10-08T13:43:30Z</time>
      </trkpt>
      <trkpt lat="48.3786" lon="2.75869">
        <ele>103.28</ele>
        <time>2020-10-08T13:43:35Z</time>
      </trkpt>
      <trkpt lat="48.3786" lon="2.75868">
        <ele>103.28</ele>
        <time>2020-10-08T13:43:40Z</time>
      </trkpt>
      <trkpt lat="48.37861" lon="2.75868">
        <ele>103.28</ele>
        <time>2020-10-08T13:43:45Z</time>
      </trkpt>
      <trkpt lat="48.37862" lon="2.75866">
        <ele>103.28</ele>
        <time>2020-10-08T13:43:50Z</time>
      </trkpt>
      <trkpt lat="48.37864" lon="2.75866">
        <ele>103.28</ele>
        <time>2020-10-08T13:43:55Z</time>
      </trkpt>
      <trkpt lat="48.37864" lon="2.75866">
        <ele>103.28</ele>
        <time>2020-10-08T13:44:00Z</time>
      </trkpt>
      <trkpt lat="48.37865" lon="2.75866">
        <ele>103.28</ele>
        <time>2020-10-08T13:44:05Z</time>
      </trkpt>
      <trkpt lat="48.37866" lon="2.75869">
        <ele>103.28</ele>
        <time>2020-10-08T13:44:10Z</time>
      </trkpt>
      <trkpt lat="48.37866" lon="2.7587">
        <ele>103.28</ele>
        <time>2020-10-08T13:44:15Z</time>
      </trkpt>
      <trkpt lat="48.37866" lon="2.75871">
        <ele>103.28</ele>
        <time>2020-10-08T13:44:20Z</time>
      </trkpt>
      <trkpt lat="48.37865" lon="2.75871">
        <ele>103.28</ele>
        <time>2020-10-08T13:44:25Z</time>
      </trkpt>
      <trkpt lat="48.37863" lon="2.7587">
        <ele>103.28</ele>
        <time>2020-10-08T13:44:30Z</time>
      </trkpt>
      <trkpt lat="48.37862" lon="2.7587">
        <ele>103.28</ele>
        <time>2020-10-08T13:44:35Z</time>
      </trkpt>
      <trkpt lat="48.37862" lon="2.7587">
        <ele>103.28</ele>
        <time>2020-10-08T13:44:40Z</time>
      </trkpt>
      <trkpt lat="48.37861" lon="2.75872">
        <ele>103.28</ele>
        <time>2020-10-08T13:44:45Z</time>
      </trkpt>
      <trkpt lat="48.37855" lon="2.75869">
        <ele>103.28</ele>
        <time>2020-10-08T13:44:50Z</time>
      </trkpt>
      <trkpt lat="48.37849" lon="2.75867">
        <ele>102.99</ele>
        <time>2020-10-08T13:44:55Z</time>
      </trkpt>
      <trkpt lat="48.37845" lon="2.75864">
        <ele>102.51</ele>
        <time>2020-10-08T13:45:00Z</time>
      </trkpt>
      <trkpt lat="48.37842" lon="2.75859">
        <ele>102.18</ele>
        <time>2020-10-08T13:45:05Z</time>
      </trkpt>
      <trkpt lat="48.37839" lon="2.75856">
        <ele>101.62</ele>
        <time>2020-10-08T13:45:10Z</time>
      </trkpt>
      <trkpt lat="48.37835" lon="2.7585">
        <ele>101.21</ele>
        <time>2020-10-08T13:45:15Z</time>
      </trkpt>
      <trkpt lat="48.37833" lon="2.75847">
        <ele>100.98</ele>
        <time>2020-10-08T13:45:20Z</time>
      </trkpt>
      <trkpt lat="48.37828" lon="2.75845">
        <ele>100.67</ele>
        <time>2020-10-08T13:45:25Z</time>
      </trkpt>
      <trkpt lat="48.37822" lon="2.75842">
        <ele>100.18</ele>
        <time>2020-10-08T13:45:30Z</time>
      </trkpt>
      <trkpt lat="48.37816" lon="2.75841">
        <ele>99.8</ele>
        <time>2020-10-08T13:45:35Z</time>
      </trkpt>
      <trkpt lat="48.37812" lon="2.75838">
        <ele>99.44</ele>
        <time>2020-10-08T13:45:40Z</time>
      </trkpt>
      <trkpt lat="48.37807" lon="2.75837">
        <ele>99.03</ele>
        <time>2020-10-08T13:45:45Z</time>
      </trkpt>
      <trkpt lat="48.37803" lon="2.75835">
        <ele>98.78</ele>
        <time>2020-10-08T13:45:50Z</time>
      </trkpt>
      <trkpt lat="48.37797" lon="2.75831">
        <ele>98.52</ele>
        <time>2020-10-08T13:45:55Z</time>
      </trkpt>
      <trkpt lat="48.37792" lon="2.75829">
        <ele>97.96</ele>
        <time>2020-10-08T13:46:00Z</time>
      </trkpt>
      <trkpt lat="48.37788" lon="2.75828">
        <ele>97.41</ele>
        <time>2020-10-08T13:46:05Z</time>
      </trkpt>
      <trkpt lat="48.37785" lon="2.75827">
        <ele>96.75</ele>
        <time>2020-10-08T13:46:10Z</time>
      </trkpt>
      <trkpt lat="48.37781" lon="2.75824">
        <ele>96.52</ele>
        <time>2020-10-08T13:46:15Z</time>
      </trkpt>
      <trkpt lat="48.37775" lon="2.7582">
        <ele>96.47</ele>
        <time>2020-10-08T13:46:20Z</time>
      </trkpt>
      <trkpt lat="48.3777" lon="2.75819">
        <ele>96.44</ele>
        <time>2020-10-08T13:46:25Z</time>
      </trkpt>
      <trkpt lat="48.37764" lon="2.75819">
        <ele>96.19</ele>
        <time>2020-10-08T13:46:30Z</time>
      </trkpt>
      <trkpt lat="48.37759" lon="2.75818">
        <ele>95.85</ele>
        <time>2020-10-08T13:46:35Z</time>
      </trkpt>
      <trkpt lat="48.37754" lon="2.75816">
        <ele>95.57</ele>
        <time>2020-10-08T13:46:40Z</time>
      </trkpt>
      <trkpt lat="48.37748" lon="2.75815">
        <ele>95.19</ele>
        <time>2020-10-08T13:46:45Z</time>
      </trkpt>
      <trkpt lat="48.37741" lon="2.75814">
        <ele>95.16</ele>
        <time>2020-10-08T13:46:50Z</time>
      </trkpt>
      <trkpt lat="48.37734" lon="2.75812">
        <ele>95.2</ele>
        <time>2020-10-08T13:46:55Z</time>
      </trkpt>
      <trkpt lat="48.3773" lon="2.75809">
        <ele>95.4</ele>
        <time>2020-10-08T13:47:00Z</time>
      </trkpt>
      <trkpt lat="48.37725" lon="2.75807">
        <ele>95.67</ele>
        <time>2020-10-08T13:47:05Z</time>
      </trkpt>
      <trkpt lat="48.37721" lon="2.75805">
        <ele>96.34</ele>
        <time>2020-10-08T13:47:10Z</time>
      </trkpt>
      <trkpt lat="48.37716" lon="2.75803">
        <ele>96.44</ele>
        <time>2020-10-08T13:47:15Z</time>
      </trkpt>
      <trkpt lat="48.37712" lon="2.75802">
        <ele>96.24</ele>
        <time>2020-10-08T13:47:20Z</time>
      </trkpt>
      <trkpt lat="48.37708" lon="2.758">
        <ele>95.86</ele>
        <time>2020-10-08T13:47:25Z</time>
      </trkpt>
      <trkpt lat="48.377" lon="2.75795">
        <ele>95.2</ele>
        <time>2020-10-08T13:47:30Z</time>
      </trkpt>
      <trkpt lat="48.37695" lon="2.75793">
        <ele>94.93</ele>
        <time>2020-10-08T13:47:35Z</time>
      </trkpt>
      <trkpt lat="48.37689" lon="2.7579">
        <ele>94.91</ele>
        <time>2020-10-08T13:47:40Z</time>
      </trkpt>
      <trkpt lat="48.37683" lon="2.75787">
        <ele>94.64</ele>
        <time>2020-10-08T13:47:45Z</time>
      </trkpt>
      <trkpt lat="48.37678" lon="2.75783">
        <ele>93.77</ele>
        <time>2020-10-08T13:47:50Z</time>
      </trkpt>
      <trkpt lat="48.37673" lon="2.7578">
        <ele>93.56</ele>
        <time>2020-10-08T13:47:55Z</time>
      </trkpt>
      <trkpt lat="48.37668" lon="2.75778">
        <ele>93.54</ele>
        <time>2020-10-08T13:48:00Z</time>
      </trkpt>
      <trkpt lat="48.37662" lon="2.75774">
        <ele>93.21</ele>
        <time>2020-10-08T13:48:05Z</time>
      </trkpt>
      <trkpt lat="48.37659" lon="2.75771">
        <ele>92.77</ele>
        <time>2020-10-08T13:48:10Z</time>
      </trkpt>
      <trkpt lat="48.37654" lon="2.75768">
        <ele>92.42</ele>
        <time>2020-10-08T13:48:15Z</time>
      </trkpt>
      <trkpt lat="48.37648" lon="2.75763">
        <ele>92.12</ele>
        <time>2020-10-08T13:48:20Z</time>
      </trkpt>
      <trkpt lat="48.37643" lon="2.75758">
        <ele>92.18</ele>
        <time>2020-10-08T13:48:25Z</time>
      </trkpt>
      <trkpt lat="48.37637" lon="2.75753">
        <ele>92.24</ele>
        <time>2020-10-08T13:48:30Z</time>
      </trkpt>
      <trkpt lat="48.37631" lon="2.7575">
        <ele>92</ele>
        <time>2020-10-08T13:48:35Z</time>
      </trkpt>
      <trkpt lat="48.37626" lon="2.75746">
        <ele>91.79</ele>
        <time>2020-10-08T13:48:40Z</time>
      </trkpt>
      <trkpt lat="48.37622" lon="2.75742">
        <ele>91.53</ele>
        <time>2020-10-08T13:48:45Z</time>
      </trkpt>
      <trkpt lat="48.37617" lon="2.75739">
        <ele>91.31</ele>
        <time>2020-10-08T13:48:50Z</time>
      </trkpt>
      <trkpt lat="48.37612" lon="2.75735">
        <ele>91.37</ele>
        <time>2020-10-08T13:48:55Z</time>
      </trkpt>
      <trkpt lat="48.37607" lon="2.75731">
        <ele>91.45</ele>
        <time>2020-10-08T13:49:00Z</time>
      </trkpt>
      <trkpt lat="48.37602" lon="2.75727">
        <ele>91.5</ele>
        <time>2020-10-08T13:49:05Z</time>
      </trkpt>
      <trkpt lat="48.37597" lon="2.75724">
        <ele>91.5</ele>
        <time>2020-10-08T13:49:10Z</time>
      </trkpt>
      <trkpt lat="48.37592" lon="2.75721">
        <ele>91.28</ele>
        <time>2020-10-08T13:49:15Z</time>
      </trkpt>
      <trkpt lat="48.37587" lon="2.75718">
        <ele>90.96</ele>
        <time>2020-10-08T13:49:20Z</time>
      </trkpt>
      <trkpt lat="48.37581" lon="2.75715">
        <ele>90.97</ele>
        <time>2020-10-08T13:49:25Z</time>
      </trkpt>
      <trkpt lat="48.37576" lon="2.75711">
        <ele>91.09</ele>
        <time>2020-10-08T13:49:30Z</time>
      </trkpt>
      <trkpt lat="48.37572" lon="2.75707">
        <ele>91.05</ele>
        <time>2020-10-08T13:49:35Z</time>
      </trkpt>
      <trkpt lat="48.37568" lon="2.75702">
        <ele>90.91</ele>
        <time>2020-10-08T13:49:40Z</time>
      </trkpt>
      <trkpt lat="48.37563" lon="2.75699">
        <ele>90.96</ele>
        <time>2020-10-08T13:49:45Z</time>
      </trkpt>
      <trkpt lat="48.37557" lon="2.75695">
        <ele>90.95</ele>
        <time>2020-10-08T13:49:50Z</time>
      </trkpt>
      <trkpt lat="48.37551" lon="2.75692">
        <ele>90.78</ele>
        <time>2020-10-08T13:49:55Z</time>
      </trkpt>
      <trkpt lat="48.37546" lon="2.75689">
        <ele>90.56</ele>
        <time>2020-10-08T13:50:00Z</time>
      </trkpt>
      <trkpt lat="48.37541" lon="2.75685">
        <ele>90.54</ele>
        <time>2020-10-08T13:50:05Z</time>
      </trkpt>
      <trkpt lat="48.37537" lon="2.75683">
        <ele>90.53</ele>
        <time>2020-10-08T13:50:10Z</time>
      </trkpt>
      <trkpt lat="48.3753" lon="2.7568">
        <ele>90.5</ele>
        <time>2020-10-08T13:50:15Z</time>
      </trkpt>
      <trkpt lat="48.37524" lon="2.75677">
        <ele>90.45</ele>
        <time>2020-10-08T13:50:20Z</time>
      </trkpt>
      <trkpt lat="48.37518" lon="2.75673">
        <ele>90.23</ele>
        <time>2020-10-08T13:50:25Z</time>
      </trkpt>
      <trkpt lat="48.37512" lon="2.7567">
        <ele>90.21</ele>
        <time>2020-10-08T13:50:30Z</time>
      </trkpt>
      <trkpt lat="48.37507" lon="2.75665">
        <ele>90.11</ele>
        <time>2020-10-08T13:50:35Z</time>
      </trkpt>
      <trkpt lat="48.37501" lon="2.75662">
        <ele>90.05</ele>
        <time>2020-10-08T13:50:40Z</time>
      </trkpt>
      <trkpt lat="48.37496" lon="2.75658">
        <ele>90.03</ele>
        <time>2020-10-08T13:50:45Z</time>
      </trkpt>
      <trkpt lat="48.37491" lon="2.75652">
        <ele>89.84</ele>
        <time>2020-10-08T13:50:50Z</time>
      </trkpt>
      <trkpt lat="48.37486" lon="2.75648">
        <ele>89.86</ele>
        <time>2020-10-08T13:50:55Z</time>
      </trkpt>
      <trkpt lat="48.37481" lon="2.75644">
        <ele>89.81</ele>
        <time>2020-10-08T13:51:00Z</time>
      </trkpt>
      <trkpt lat="48.37476" lon="2.7564">
        <ele>89.54</ele>
        <time>2020-10-08T13:51:05Z</time>
      </trkpt>
      <trkpt lat="48.37471" lon="2.75637">
        <ele>89.41</ele>
        <time>2020-10-08T13:51:10Z</time>
      </trkpt>
      <trkpt lat="48.37467" lon="2.75633">
        <ele>89.45</ele>
        <time>2020-10-08T13:51:15Z</time>
      </trkpt>
      <trkpt lat="48.37461" lon="2.7563">
        <ele>89.59</ele>
        <time>2020-10-08T13:51:20Z</time>
      </trkpt>
      <trkpt lat="48.37458" lon="2.75633">
        <ele>89.55</ele>
        <time>2020-10-08T13:51:25Z</time>
      </trkpt>
      <trkpt lat="48.37459" lon="2.75641">
        <ele>89.31</ele>
        <time>2020-10-08T13:51:30Z</time>
      </trkpt>
      <trkpt lat="48.3746" lon="2.75648">
        <ele>89.28</ele>
        <time>2020-10-08T13:51:35Z</time>
      </trkpt>
      <trkpt lat="48.3746" lon="2.75655">
        <ele>89.19</ele>
        <time>2020-10-08T13:51:40Z</time>
      </trkpt>
      <trkpt lat="48.3746" lon="2.75662">
        <ele>89.19</ele>
        <time>2020-10-08T13:51:45Z</time>
      </trkpt>
      <trkpt lat="48.37459" lon="2.75671">
        <ele>89.28</ele>
        <time>2020-10-08T13:51:50Z</time>
      </trkpt>
      <trkpt lat="48.37459" lon="2.75677">
        <ele>89.51</ele>
        <time>2020-10-08T13:51:55Z</time>
      </trkpt>
      <trkpt lat="48.37458" lon="2.75685">
        <ele>89.65</ele>
        <time>2020-10-08T13:52:00Z</time>
      </trkpt>
      <trkpt lat="48.37457" lon="2.75691">
        <ele>89.77</ele>
        <time>2020-10-08T13:52:05Z</time>
      </trkpt>
      <trkpt lat="48.37456" lon="2.75698">
        <ele>90.12</ele>
        <time>2020-10-08T13:52:10Z</time>
      </trkpt>
      <trkpt lat="48.37455" lon="2.75706">
        <ele>90.06</ele>
        <time>2020-10-08T13:52:15Z</time>
      </trkpt>
      <trkpt lat="48.37455" lon="2.75713">
        <ele>89.87</ele>
        <time>2020-10-08T13:52:20Z</time>
      </trkpt>
      <trkpt lat="48.37454" lon="2.7572">
        <ele>89.79</ele>
        <time>2020-10-08T13:52:25Z</time>
      </trkpt>
      <trkpt lat="48.37453" lon="2.75728">
        <ele>89.79</ele>
        <time>2020-10-08T13:52:30Z</time>
      </trkpt>
      <trkpt lat="48.37452" lon="2.75734">
        <ele>89.84</ele>
        <time>2020-10-08T13:52:35Z</time>
      </trkpt>
      <trkpt lat="48.3745" lon="2.75742">
        <ele>89.9</ele>
        <time>2020-10-08T13:52:40Z</time>
      </trkpt>
      <trkpt lat="48.37449" lon="2.75748">
        <ele>90.22</ele>
        <time>2020-10-08T13:52:45Z</time>
      </trkpt>
      <trkpt lat="48.37448" lon="2.75756">
        <ele>90.19</ele>
        <time>2020-10-08T13:52:50Z</time>
      </trkpt>
      <trkpt lat="48.37447" lon="2.75764">
        <ele>89.86</ele>
        <time>2020-10-08T13:52:55Z</time>
      </trkpt>
      <trkpt lat="48.37447" lon="2.75771">
        <ele>89.7</ele>
        <time>2020-10-08T13:53:00Z</time>
      </trkpt>
      <trkpt lat="48.37447" lon="2.75778">
        <ele>89.63</ele>
        <time>2020-10-08T13:53:05Z</time>
      </trkpt>
      <trkpt lat="48.37446" lon="2.75786">
        <ele>89.66</ele>
        <time>2020-10-08T13:53:10Z</time>
      </trkpt>
      <trkpt lat="48.37446" lon="2.75793">
        <ele>89.79</ele>
        <time>2020-10-08T13:53:15Z</time>
      </trkpt>
      <trkpt lat="48.37445" lon="2.758">
        <ele>90.19</ele>
        <time>2020-10-08T13:53:20Z</time>
      </trkpt>
      <trkpt lat="48.37443" lon="2.75807">
        <ele>90.44</ele>
        <time>2020-10-08T13:53:25Z</time>
      </trkpt>
      <trkpt lat="48.37442" lon="2.75813">
        <ele>90.45</ele>
        <time>2020-10-08T13:53:30Z</time>
      </trkpt>
      <trkpt lat="48.37441" lon="2.75819">
        <ele>90.41</ele>
        <time>2020-10-08T13:53:35Z</time>
      </trkpt>
      <trkpt lat="48.37442" lon="2.75828">
        <ele>90.35</ele>
        <time>2020-10-08T13:53:40Z</time>
      </trkpt>
      <trkpt lat="48.3744" lon="2.75837">
        <ele>90.41</ele>
        <time>2020-10-08T13:53:45Z</time>
      </trkpt>
      <trkpt lat="48.37438" lon="2.75847">
        <ele>90.58</ele>
        <time>2020-10-08T13:53:50Z</time>
      </trkpt>
      <trkpt lat="48.37437" lon="2.75855">
        <ele>90.82</ele>
        <time>2020-10-08T13:53:55Z</time>
      </trkpt>
      <trkpt lat="48.37434" lon="2.75862">
        <ele>90.96</ele>
        <time>2020-10-08T13:54:00Z</time>
      </trkpt>
      <trkpt lat="48.37435" lon="2.75861">
        <ele>91.34</ele>
        <time>2020-10-08T13:54:05Z</time>
      </trkpt>
      <trkpt lat="48.37435" lon="2.75861">
        <ele>91.51</ele>
        <time>2020-10-08T13:54:10Z</time>
      </trkpt>
      <trkpt lat="48.37435" lon="2.75862">
        <ele>91.46</ele>
        <time>2020-10-08T13:54:15Z</time>
      </trkpt>
      <trkpt lat="48.37435" lon="2.75861">
        <ele>91.42</ele>
        <time>2020-10-08T13:54:20Z</time>
      </trkpt>
      <trkpt lat="48.37435" lon="2.7586">
        <ele>91.41</ele>
        <time>2020-10-08T13:54:25Z</time>
      </trkpt>
      <trkpt lat="48.37435" lon="2.75859">
        <ele>91.3</ele>
        <time>2020-10-08T13:54:30Z</time>
      </trkpt>
      <trkpt lat="48.37436" lon="2.75858">
        <ele>91.45</ele>
        <time>2020-10-08T13:54:35Z</time>
      </trkpt>
      <trkpt lat="48.37437" lon="2.75858">
        <ele>91.55</ele>
        <time>2020-10-08T13:54:40Z</time>
      </trkpt>
      <trkpt lat="48.37437" lon="2.75858">
        <ele>91.64</ele>
        <time>2020-10-08T13:54:45Z</time>
      </trkpt>
      <trkpt lat="48.37437" lon="2.75858">
        <ele>91.64</ele>
        <time>2020-10-08T13:54:50Z</time>
      </trkpt>
      <trkpt lat="48.37438" lon="2.75859">
        <ele>91.55</ele>
        <time>2020-10-08T13:54:55Z</time>
      </trkpt>
      <trkpt lat="48.37438" lon="2.75859">
        <ele>91.49</ele>
        <time>2020-10-08T13:55:00Z</time>
      </trkpt>
      <trkpt lat="48.37437" lon="2.75858">
        <ele>91.13</ele>
        <time>2020-10-08T13:55:05Z</time>
      </trkpt>
      <trkpt lat="48.37437" lon="2.75859">
        <ele>91.13</ele>
        <time>2020-10-08T13:55:10Z</time>
      </trkpt>
      <trkpt lat="48.37437" lon="2.75861">
        <ele>91.13</ele>
        <time>2020-10-08T13:55:15Z</time>
      </trkpt>
      <trkpt lat="48.37437" lon="2.7587">
        <ele>91.13</ele>
        <time>2020-10-08T13:55:20Z</time>
      </trkpt>
      <trkpt lat="48.37437" lon="2.75878">
        <ele>91.62</ele>
        <time>2020-10-08T13:55:25Z</time>
      </trkpt>
      <trkpt lat="48.37435" lon="2.75889">
        <ele>91.76</ele>
        <time>2020-10-08T13:55:30Z</time>
      </trkpt>
      <trkpt lat="48.37433" lon="2.75898">
        <ele>91.76</ele>
        <time>2020-10-08T13:55:35Z</time>
      </trkpt>
      <trkpt lat="48.37431" lon="2.75908">
        <ele>91.83</ele>
        <time>2020-10-08T13:55:40Z</time>
      </trkpt>
      <trkpt lat="48.37431" lon="2.75919">
        <ele>91.8</ele>
        <time>2020-10-08T13:55:45Z</time>
      </trkpt>
      <trkpt lat="48.37431" lon="2.75926">
        <ele>91.75</ele>
        <time>2020-10-08T13:55:50Z</time>
      </trkpt>
      <trkpt lat="48.37429" lon="2.75934">
        <ele>91.73</ele>
        <time>2020-10-08T13:55:55Z</time>
      </trkpt>
      <trkpt lat="48.37428" lon="2.75941">
        <ele>91.82</ele>
        <time>2020-10-08T13:56:00Z</time>
      </trkpt>
      <trkpt lat="48.37429" lon="2.75952">
        <ele>91.76</ele>
        <time>2020-10-08T13:56:05Z</time>
      </trkpt>
      <trkpt lat="48.37428" lon="2.75962">
        <ele>91.74</ele>
        <time>2020-10-08T13:56:10Z</time>
      </trkpt>
      <trkpt lat="48.37428" lon="2.75973">
        <ele>91.71</ele>
        <time>2020-10-08T13:56:15Z</time>
      </trkpt>
      <trkpt lat="48.37426" lon="2.75981">
        <ele>91.65</ele>
        <time>2020-10-08T13:56:20Z</time>
      </trkpt>
      <trkpt lat="48.37425" lon="2.7599">
        <ele>91.71</ele>
        <time>2020-10-08T13:56:25Z</time>
      </trkpt>
      <trkpt lat="48.37424" lon="2.76">
        <ele>91.56</ele>
        <time>2020-10-08T13:56:30Z</time>
      </trkpt>
      <trkpt lat="48.37424" lon="2.7601">
        <ele>91.45</ele>
        <time>2020-10-08T13:56:35Z</time>
      </trkpt>
      <trkpt lat="48.37422" lon="2.76018">
        <ele>91.42</ele>
        <time>2020-10-08T13:56:40Z</time>
      </trkpt>
      <trkpt lat="48.37422" lon="2.76028">
        <ele>91.49</ele>
        <time>2020-10-08T13:56:45Z</time>
      </trkpt>
      <trkpt lat="48.37421" lon="2.76036">
        <ele>91.72</ele>
        <time>2020-10-08T13:56:50Z</time>
      </trkpt>
      <trkpt lat="48.37419" lon="2.76041">
        <ele>91.76</ele>
        <time>2020-10-08T13:56:55Z</time>
      </trkpt>
      <trkpt lat="48.37417" lon="2.76047">
        <ele>91.78</ele>
        <time>2020-10-08T13:57:00Z</time>
      </trkpt>
      <trkpt lat="48.37416" lon="2.76056">
        <ele>91.76</ele>
        <time>2020-10-08T13:57:05Z</time>
      </trkpt>
      <trkpt lat="48.37414" lon="2.76064">
        <ele>91.76</ele>
        <time>2020-10-08T13:57:10Z</time>
      </trkpt>
      <trkpt lat="48.37413" lon="2.76072">
        <ele>91.76</ele>
        <time>2020-10-08T13:57:15Z</time>
      </trkpt>
      <trkpt lat="48.37412" lon="2.76078">
        <ele>91.86</ele>
        <time>2020-10-08T13:57:20Z</time>
      </trkpt>
      <trkpt lat="48.3741" lon="2.76084">
        <ele>91.88</ele>
        <time>2020-10-08T13:57:25Z</time>
      </trkpt>
      <trkpt lat="48.3741" lon="2.76093">
        <ele>91.79</ele>
        <time>2020-10-08T13:57:30Z</time>
      </trkpt>
      <trkpt lat="48.37409" lon="2.76102">
        <ele>91.74</ele>
        <time>2020-10-08T13:57:35Z</time>
      </trkpt>
      <trkpt lat="48.37408" lon="2.76111">
        <ele>91.77</ele>
        <time>2020-10-08T13:57:40Z</time>
      </trkpt>
      <trkpt lat="48.37407" lon="2.76119">
        <ele>91.64</ele>
        <time>2020-10-08T13:57:45Z</time>
      </trkpt>
      <trkpt lat="48.37405" lon="2.76125">
        <ele>91.6</ele>
        <time>2020-10-08T13:57:50Z</time>
      </trkpt>
      <trkpt lat="48.37404" lon="2.76134">
        <ele>91.68</ele>
        <time>2020-10-08T13:57:55Z</time>
      </trkpt>
      <trkpt lat="48.37404" lon="2.76144">
        <ele>91.48</ele>
        <time>2020-10-08T13:58:00Z</time>
      </trkpt>
      <trkpt lat="48.37405" lon="2.76153">
        <ele>91.45</ele>
        <time>2020-10-08T13:58:05Z</time>
      </trkpt>
      <trkpt lat="48.37403" lon="2.76161">
        <ele>91.42</ele>
        <time>2020-10-08T13:58:10Z</time>
      </trkpt>
      <trkpt lat="48.37401" lon="2.76168">
        <ele>91.49</ele>
        <time>2020-10-08T13:58:15Z</time>
      </trkpt>
      <trkpt lat="48.37399" lon="2.76174">
        <ele>91.73</ele>
        <time>2020-10-08T13:58:20Z</time>
      </trkpt>
      <trkpt lat="48.37397" lon="2.76182">
        <ele>91.78</ele>
        <time>2020-10-08T13:58:25Z</time>
      </trkpt>
      <trkpt lat="48.37397" lon="2.7619">
        <ele>91.68</ele>
        <time>2020-10-08T13:58:30Z</time>
      </trkpt>
      <trkpt lat="48.37397" lon="2.76204">
        <ele>92</ele>
        <time>2020-10-08T13:58:35Z</time>
      </trkpt>
      <trkpt lat="48.37394" lon="2.76213">
        <ele>92.02</ele>
        <time>2020-10-08T13:58:40Z</time>
      </trkpt>
      <trkpt lat="48.37387" lon="2.76214">
        <ele>92.04</ele>
        <time>2020-10-08T13:58:45Z</time>
      </trkpt>
      <trkpt lat="48.37382" lon="2.76215">
        <ele>91.9</ele>
        <time>2020-10-08T13:58:50Z</time>
      </trkpt>
      <trkpt lat="48.37378" lon="2.76214">
        <ele>91.88</ele>
        <time>2020-10-08T13:58:55Z</time>
      </trkpt>
      <trkpt lat="48.37373" lon="2.76214">
        <ele>91.89</ele>
        <time>2020-10-08T13:59:00Z</time>
      </trkpt>
      <trkpt lat="48.37366" lon="2.76212">
        <ele>91.8</ele>
        <time>2020-10-08T13:59:05Z</time>
      </trkpt>
      <trkpt lat="48.37359" lon="2.76211">
        <ele>91.52</ele>
        <time>2020-10-08T13:59:10Z</time>
      </trkpt>
      <trkpt lat="48.37354" lon="2.7621">
        <ele>91.3</ele>
        <time>2020-10-08T13:59:15Z</time>
      </trkpt>
      <trkpt lat="48.37349" lon="2.76208">
        <ele>91.38</ele>
        <time>2020-10-08T13:59:20Z</time>
      </trkpt>
      <trkpt lat="48.37345" lon="2.76206">
        <ele>91.71</ele>
        <time>2020-10-08T13:59:25Z</time>
      </trkpt>
      <trkpt lat="48.37341" lon="2.76202">
        <ele>91.93</ele>
        <time>2020-10-08T13:59:30Z</time>
      </trkpt>
      <trkpt lat="48.37337" lon="2.76199">
        <ele>91.78</ele>
        <time>2020-10-08T13:59:35Z</time>
      </trkpt>
      <trkpt lat="48.37333" lon="2.76199">
        <ele>91.33</ele>
        <time>2020-10-08T13:59:40Z</time>
      </trkpt>
      <trkpt lat="48.37327" lon="2.76198">
        <ele>91.17</ele>
        <time>2020-10-08T13:59:45Z</time>
      </trkpt>
      <trkpt lat="48.37322" lon="2.76196">
        <ele>91.14</ele>
        <time>2020-10-08T13:59:50Z</time>
      </trkpt>
      <trkpt lat="48.37317" lon="2.76194">
        <ele>91.15</ele>
        <time>2020-10-08T13:59:55Z</time>
      </trkpt>
      <trkpt lat="48.37311" lon="2.76194">
        <ele>91.16</ele>
        <time>2020-10-08T14:00:00Z</time>
      </trkpt>
      <trkpt lat="48.37305" lon="2.76194">
        <ele>91.16</ele>
        <time>2020-10-08T14:00:05Z</time>
      </trkpt>
      <trkpt lat="48.37299" lon="2.76193">
        <ele>91.46</ele>
        <time>2020-10-08T14:00:10Z</time>
      </trkpt>
      <trkpt lat="48.37292" lon="2.76191">
        <ele>91.7</ele>
        <time>2020-10-08T14:00:15Z</time>
      </trkpt>
      <trkpt lat="48.37283" lon="2.76189">
        <ele>91.73</ele>
        <time>2020-10-08T14:00:20Z</time>
      </trkpt>
      <trkpt lat="48.37276" lon="2.76189">
        <ele>91.95</ele>
        <time>2020-10-08T14:00:25Z</time>
      </trkpt>
      <trkpt lat="48.3727" lon="2.76187">
        <ele>91.85</ele>
        <time>2020-10-08T14:00:30Z</time>
      </trkpt>
      <trkpt lat="48.37265" lon="2.76186">
        <ele>91.79</ele>
        <time>2020-10-08T14:00:35Z</time>
      </trkpt>
      <trkpt lat="48.3726" lon="2.76186">
        <ele>91.69</ele>
        <time>2020-10-08T14:00:40Z</time>
      </trkpt>
      <trkpt lat="48.37256" lon="2.76185">
        <ele>91.61</ele>
        <time>2020-10-08T14:00:45Z</time>
      </trkpt>
      <trkpt lat="48.37254" lon="2.76183">
        <ele>91.55</ele>
        <time>2020-10-08T14:00:50Z</time>
      </trkpt>
      <trkpt lat="48.3725" lon="2.76181">
        <ele>91.69</ele>
        <time>2020-10-08T14:00:55Z</time>
      </trkpt>
      <trkpt lat="48.37242" lon="2.7618">
        <ele>91.82</ele>
        <time>2020-10-08T14:01:00Z</time>
      </trkpt>
      <trkpt lat="48.37237" lon="2.76179">
        <ele>91.86</ele>
        <time>2020-10-08T14:01:05Z</time>
      </trkpt>
      <trkpt lat="48.37232" lon="2.76177">
        <ele>91.96</ele>
        <time>2020-10-08T14:01:10Z</time>
      </trkpt>
      <trkpt lat="48.37226" lon="2.76173">
        <ele>92.29</ele>
        <time>2020-10-08T14:01:15Z</time>
      </trkpt>
      <trkpt lat="48.3722" lon="2.76169">
        <ele>92.41</ele>
        <time>2020-10-08T14:01:20Z</time>
      </trkpt>
      <trkpt lat="48.37216" lon="2.76165">
        <ele>92.48</ele>
        <time>2020-10-08T14:01:25Z</time>
      </trkpt>
      <trkpt lat="48.37211" lon="2.76162">
        <ele>92.46</ele>
        <time>2020-10-08T14:01:30Z</time>
      </trkpt>
      <trkpt lat="48.37205" lon="2.76161">
        <ele>92.23</ele>
        <time>2020-10-08T14:01:35Z</time>
      </trkpt>
      <trkpt lat="48.372" lon="2.76158">
        <ele>92.24</ele>
        <time>2020-10-08T14:01:40Z</time>
      </trkpt>
      <trkpt lat="48.37196" lon="2.76157">
        <ele>92.14</ele>
        <time>2020-10-08T14:01:45Z</time>
      </trkpt>
      <trkpt lat="48.3719" lon="2.76154">
        <ele>91.91</ele>
        <time>2020-10-08T14:01:50Z</time>
      </trkpt>
      <trkpt lat="48.37184" lon="2.76153">
        <ele>91.8</ele>
        <time>2020-10-08T14:01:55Z</time>
      </trkpt>
      <trkpt lat="48.37178" lon="2.76152">
        <ele>91.83</ele>
        <time>2020-10-08T14:02:00Z</time>
      </trkpt>
      <trkpt lat="48.37173" lon="2.7615">
        <ele>91.8</ele>
        <time>2020-10-08T14:02:05Z</time>
      </trkpt>
      <trkpt lat="48.37168" lon="2.76149">
        <ele>91.75</ele>
        <time>2020-10-08T14:02:10Z</time>
      </trkpt>
      <trkpt lat="48.37166" lon="2.76144">
        <ele>91.75</ele>
        <time>2020-10-08T14:02:15Z</time>
      </trkpt>
      <trkpt lat="48.37165" lon="2.76144">
        <ele>91.65</ele>
        <time>2020-10-08T14:02:20Z</time>
      </trkpt>
      <trkpt lat="48.37158" lon="2.76144">
        <ele>91.67</ele>
        <time>2020-10-08T14:02:25Z</time>
      </trkpt>
      <trkpt lat="48.37152" lon="2.76141">
        <ele>91.81</ele>
        <time>2020-10-08T14:02:30Z</time>
      </trkpt>
      <trkpt lat="48.37148" lon="2.76136">
        <ele>92.02</ele>
        <time>2020-10-08T14:02:35Z</time>
      </trkpt>
      <trkpt lat="48.37143" lon="2.76132">
        <ele>92.39</ele>
        <time>2020-10-08T14:02:40Z</time>
      </trkpt>
      <trkpt lat="48.37139" lon="2.76129">
        <ele>92.53</ele>
        <time>2020-10-08T14:02:45Z</time>
      </trkpt>
      <trkpt lat="48.37133" lon="2.76125">
        <ele>92.39</ele>
        <time>2020-10-08T14:02:51Z</time>
      </trkpt>
      <trkpt lat="48.37129" lon="2.76123">
        <ele>92.27</ele>
        <time>2020-10-08T14:02:55Z</time>
      </trkpt>
      <trkpt lat="48.37124" lon="2.7612">
        <ele>92.35</ele>
        <time>2020-10-08T14:03:01Z</time>
      </trkpt>
      <trkpt lat="48.37118" lon="2.76117">
        <ele>92.44</ele>
        <time>2020-10-08T14:03:06Z</time>
      </trkpt>
      <trkpt lat="48.37114" lon="2.76114">
        <ele>92.5</ele>
        <time>2020-10-08T14:03:11Z</time>
      </trkpt>
      <trkpt lat="48.37109" lon="2.76112">
        <ele>92.51</ele>
        <time>2020-10-08T14:03:16Z</time>
      </trkpt>
      <trkpt lat="48.37104" lon="2.76109">
        <ele>92.46</ele>
        <time>2020-10-08T14:03:21Z</time>
      </trkpt>
      <trkpt lat="48.37097" lon="2.76104">
        <ele>92.56</ele>
        <time>2020-10-08T14:03:29Z</time>
      </trkpt>
      <trkpt lat="48.37093" lon="2.76101">
        <ele>92.62</ele>
        <time>2020-10-08T14:03:34Z</time>
      </trkpt>
      <trkpt lat="48.37088" lon="2.76099">
        <ele>92.74</ele>
        <time>2020-10-08T14:03:39Z</time>
      </trkpt>
      <trkpt lat="48.37083" lon="2.76095">
        <ele>92.64</ele>
        <time>2020-10-08T14:03:44Z</time>
      </trkpt>
      <trkpt lat="48.37079" lon="2.76091">
        <ele>92.59</ele>
        <time>2020-10-08T14:03:49Z</time>
      </trkpt>
      <trkpt lat="48.37073" lon="2.76088">
        <ele>92.56</ele>
        <time>2020-10-08T14:03:54Z</time>
      </trkpt>
      <trkpt lat="48.37069" lon="2.76085">
        <ele>92.62</ele>
        <time>2020-10-08T14:03:59Z</time>
      </trkpt>
      <trkpt lat="48.37063" lon="2.76082">
        <ele>92.98</ele>
        <time>2020-10-08T14:04:04Z</time>
      </trkpt>
      <trkpt lat="48.37059" lon="2.7608">
        <ele>93.12</ele>
        <time>2020-10-08T14:04:09Z</time>
      </trkpt>
      <trkpt lat="48.37055" lon="2.76078">
        <ele>93.25</ele>
        <time>2020-10-08T14:04:13Z</time>
      </trkpt>
      <trkpt lat="48.37049" lon="2.76076">
        <ele>93.29</ele>
        <time>2020-10-08T14:04:18Z</time>
      </trkpt>
      <trkpt lat="48.37043" lon="2.76073">
        <ele>93.43</ele>
        <time>2020-10-08T14:04:24Z</time>
      </trkpt>
      <trkpt lat="48.37038" lon="2.76068">
        <ele>93.59</ele>
        <time>2020-10-08T14:04:29Z</time>
      </trkpt>
      <trkpt lat="48.37034" lon="2.76065">
        <ele>93.54</ele>
        <time>2020-10-08T14:04:34Z</time>
      </trkpt>
      <trkpt lat="48.37029" lon="2.76066">
        <ele>93.45</ele>
        <time>2020-10-08T14:04:39Z</time>
      </trkpt>
      <trkpt lat="48.37027" lon="2.76069">
        <ele>93.68</ele>
        <time>2020-10-08T14:04:44Z</time>
      </trkpt>
      <trkpt lat="48.37026" lon="2.76073">
        <ele>93.74</ele>
        <time>2020-10-08T14:04:49Z</time>
      </trkpt>
      <trkpt lat="48.37025" lon="2.76078">
        <ele>93.78</ele>
        <time>2020-10-08T14:04:54Z</time>
      </trkpt>
      <trkpt lat="48.37024" lon="2.76084">
        <ele>93.76</ele>
        <time>2020-10-08T14:04:59Z</time>
      </trkpt>
      <trkpt lat="48.37025" lon="2.7609">
        <ele>93.61</ele>
        <time>2020-10-08T14:05:04Z</time>
      </trkpt>
      <trkpt lat="48.37025" lon="2.76098">
        <ele>93.33</ele>
        <time>2020-10-08T14:05:09Z</time>
      </trkpt>
      <trkpt lat="48.37026" lon="2.76104">
        <ele>93.24</ele>
        <time>2020-10-08T14:05:14Z</time>
      </trkpt>
      <trkpt lat="48.37026" lon="2.76114">
        <ele>92.98</ele>
        <time>2020-10-08T14:05:19Z</time>
      </trkpt>
      <trkpt lat="48.37025" lon="2.76122">
        <ele>92.91</ele>
        <time>2020-10-08T14:05:24Z</time>
      </trkpt>
      <trkpt lat="48.37025" lon="2.76127">
        <ele>93.13</ele>
        <time>2020-10-08T14:05:29Z</time>
      </trkpt>
      <trkpt lat="48.37025" lon="2.76132">
        <ele>93.16</ele>
        <time>2020-10-08T14:05:34Z</time>
      </trkpt>
      <trkpt lat="48.37026" lon="2.76142">
        <ele>92.98</ele>
        <time>2020-10-08T14:05:39Z</time>
      </trkpt>
      <trkpt lat="48.37025" lon="2.76149">
        <ele>92.84</ele>
        <time>2020-10-08T14:05:44Z</time>
      </trkpt>
      <trkpt lat="48.37025" lon="2.76158">
        <ele>92.58</ele>
        <time>2020-10-08T14:05:49Z</time>
      </trkpt>
      <trkpt lat="48.37026" lon="2.76164">
        <ele>92.43</ele>
        <time>2020-10-08T14:05:54Z</time>
      </trkpt>
      <trkpt lat="48.37026" lon="2.76171">
        <ele>92.4</ele>
        <time>2020-10-08T14:05:59Z</time>
      </trkpt>
      <trkpt lat="48.37026" lon="2.7618">
        <ele>92.42</ele>
        <time>2020-10-08T14:06:04Z</time>
      </trkpt>
      <trkpt lat="48.37025" lon="2.76188">
        <ele>92.17</ele>
        <time>2020-10-08T14:06:09Z</time>
      </trkpt>
      <trkpt lat="48.37023" lon="2.76198">
        <ele>92.14</ele>
        <time>2020-10-08T14:06:15Z</time>
      </trkpt>
      <trkpt lat="48.37022" lon="2.76205">
        <ele>92.09</ele>
        <time>2020-10-08T14:06:20Z</time>
      </trkpt>
      <trkpt lat="48.37022" lon="2.76215">
        <ele>91.99</ele>
        <time>2020-10-08T14:06:25Z</time>
      </trkpt>
      <trkpt lat="48.37021" lon="2.76222">
        <ele>91.93</ele>
        <time>2020-10-08T14:06:30Z</time>
      </trkpt>
      <trkpt lat="48.37021" lon="2.7623">
        <ele>91.74</ele>
        <time>2020-10-08T14:06:35Z</time>
      </trkpt>
      <trkpt lat="48.37023" lon="2.76238">
        <ele>91.58</ele>
        <time>2020-10-08T14:06:41Z</time>
      </trkpt>
      <trkpt lat="48.37022" lon="2.76246">
        <ele>91.73</ele>
        <time>2020-10-08T14:06:46Z</time>
      </trkpt>
      <trkpt lat="48.37023" lon="2.76255">
        <ele>91.88</ele>
        <time>2020-10-08T14:06:52Z</time>
      </trkpt>
      <trkpt lat="48.37021" lon="2.76262">
        <ele>91.77</ele>
        <time>2020-10-08T14:06:57Z</time>
      </trkpt>
      <trkpt lat="48.3702" lon="2.76271">
        <ele>91.44</ele>
        <time>2020-10-08T14:07:02Z</time>
      </trkpt>
      <trkpt lat="48.3702" lon="2.76282">
        <ele>91.35</ele>
        <time>2020-10-08T14:07:08Z</time>
      </trkpt>
      <trkpt lat="48.3702" lon="2.76291">
        <ele>91.15</ele>
        <time>2020-10-08T14:07:13Z</time>
      </trkpt>
      <trkpt lat="48.37019" lon="2.76299">
        <ele>90.9</ele>
        <time>2020-10-08T14:07:18Z</time>
      </trkpt>
      <trkpt lat="48.37019" lon="2.76307">
        <ele>90.79</ele>
        <time>2020-10-08T14:07:23Z</time>
      </trkpt>
      <trkpt lat="48.37017" lon="2.76315">
        <ele>90.61</ele>
        <time>2020-10-08T14:07:28Z</time>
      </trkpt>
      <trkpt lat="48.37015" lon="2.76323">
        <ele>90.55</ele>
        <time>2020-10-08T14:07:33Z</time>
      </trkpt>
      <trkpt lat="48.37016" lon="2.76331">
        <ele>90.47</ele>
        <time>2020-10-08T14:07:38Z</time>
      </trkpt>
      <trkpt lat="48.37016" lon="2.76337">
        <ele>90.43</ele>
        <time>2020-10-08T14:07:43Z</time>
      </trkpt>
      <trkpt lat="48.37016" lon="2.76344">
        <ele>90.45</ele>
        <time>2020-10-08T14:07:48Z</time>
      </trkpt>
      <trkpt lat="48.37016" lon="2.76352">
        <ele>90.48</ele>
        <time>2020-10-08T14:07:53Z</time>
      </trkpt>
      <trkpt lat="48.37016" lon="2.76359">
        <ele>90.48</ele>
        <time>2020-10-08T14:07:58Z</time>
      </trkpt>
      <trkpt lat="48.37015" lon="2.76366">
        <ele>90.67</ele>
        <time>2020-10-08T14:08:03Z</time>
      </trkpt>
      <trkpt lat="48.37015" lon="2.76376">
        <ele>90.64</ele>
        <time>2020-10-08T14:08:08Z</time>
      </trkpt>
      <trkpt lat="48.37014" lon="2.76383">
        <ele>90.67</ele>
        <time>2020-10-08T14:08:13Z</time>
      </trkpt>
      <trkpt lat="48.37012" lon="2.76392">
        <ele>90.77</ele>
        <time>2020-10-08T14:08:18Z</time>
      </trkpt>
      <trkpt lat="48.37011" lon="2.764">
        <ele>90.92</ele>
        <time>2020-10-08T14:08:23Z</time>
      </trkpt>
      <trkpt lat="48.37011" lon="2.76408">
        <ele>91.21</ele>
        <time>2020-10-08T14:08:28Z</time>
      </trkpt>
      <trkpt lat="48.37012" lon="2.76416">
        <ele>91.49</ele>
        <time>2020-10-08T14:08:33Z</time>
      </trkpt>
      <trkpt lat="48.37012" lon="2.76423">
        <ele>91.4</ele>
        <time>2020-10-08T14:08:38Z</time>
      </trkpt>
      <trkpt lat="48.3701" lon="2.76428">
        <ele>91.11</ele>
        <time>2020-10-08T14:08:43Z</time>
      </trkpt>
      <trkpt lat="48.3701" lon="2.76434">
        <ele>90.73</ele>
        <time>2020-10-08T14:08:48Z</time>
      </trkpt>
      <trkpt lat="48.37009" lon="2.76442">
        <ele>90.3</ele>
        <time>2020-10-08T14:08:53Z</time>
      </trkpt>
      <trkpt lat="48.37011" lon="2.7645">
        <ele>89.82</ele>
        <time>2020-10-08T14:08:58Z</time>
      </trkpt>
      <trkpt lat="48.37011" lon="2.76457">
        <ele>89.97</ele>
        <time>2020-10-08T14:09:03Z</time>
      </trkpt>
      <trkpt lat="48.37011" lon="2.76464">
        <ele>90</ele>
        <time>2020-10-08T14:09:08Z</time>
      </trkpt>
      <trkpt lat="48.3701" lon="2.76472">
        <ele>90.11</ele>
        <time>2020-10-08T14:09:13Z</time>
      </trkpt>
      <trkpt lat="48.37011" lon="2.7648">
        <ele>90.22</ele>
        <time>2020-10-08T14:09:18Z</time>
      </trkpt>
      <trkpt lat="48.37011" lon="2.76485">
        <ele>90.36</ele>
        <time>2020-10-08T14:09:23Z</time>
      </trkpt>
      <trkpt lat="48.37011" lon="2.76486">
        <ele>90.64</ele>
        <time>2020-10-08T14:09:28Z</time>
      </trkpt>
      <trkpt lat="48.37011" lon="2.76487">
        <ele>90.69</ele>
        <time>2020-10-08T14:09:33Z</time>
      </trkpt>
      <trkpt lat="48.37011" lon="2.76488">
        <ele>90.57</ele>
        <time>2020-10-08T14:09:38Z</time>
      </trkpt>
      <trkpt lat="48.37011" lon="2.76488">
        <ele>90.54</ele>
        <time>2020-10-08T14:09:43Z</time>
      </trkpt>
      <trkpt lat="48.37011" lon="2.76487">
        <ele>90.49</ele>
        <time>2020-10-08T14:09:48Z</time>
      </trkpt>
      <trkpt lat="48.37011" lon="2.76487">
        <ele>90.42</ele>
        <time>2020-10-08T14:09:53Z</time>
      </trkpt>
      <trkpt lat="48.37012" lon="2.76488">
        <ele>90.43</ele>
        <time>2020-10-08T14:09:58Z</time>
      </trkpt>
      <trkpt lat="48.37012" lon="2.7649">
        <ele>90.67</ele>
        <time>2020-10-08T14:10:03Z</time>
      </trkpt>
      <trkpt lat="48.37012" lon="2.76496">
        <ele>90.88</ele>
        <time>2020-10-08T14:10:08Z</time>
      </trkpt>
      <trkpt lat="48.37012" lon="2.76503">
        <ele>91.1</ele>
        <time>2020-10-08T14:10:13Z</time>
      </trkpt>
      <trkpt lat="48.37012" lon="2.76508">
        <ele>91.6</ele>
        <time>2020-10-08T14:10:18Z</time>
      </trkpt>
      <trkpt lat="48.37011" lon="2.76516">
        <ele>91.95</ele>
        <time>2020-10-08T14:10:23Z</time>
      </trkpt>
      <trkpt lat="48.37012" lon="2.76523">
        <ele>91.79</ele>
        <time>2020-10-08T14:10:28Z</time>
      </trkpt>
      <trkpt lat="48.37013" lon="2.76532">
        <ele>91.59</ele>
        <time>2020-10-08T14:10:33Z</time>
      </trkpt>
      <trkpt lat="48.37011" lon="2.76539">
        <ele>91.58</ele>
        <time>2020-10-08T14:10:38Z</time>
      </trkpt>
      <trkpt lat="48.37009" lon="2.76546">
        <ele>91.21</ele>
        <time>2020-10-08T14:10:43Z</time>
      </trkpt>
      <trkpt lat="48.37008" lon="2.76553">
        <ele>90.73</ele>
        <time>2020-10-08T14:10:48Z</time>
      </trkpt>
      <trkpt lat="48.37006" lon="2.7656">
        <ele>90.22</ele>
        <time>2020-10-08T14:10:53Z</time>
      </trkpt>
      <trkpt lat="48.37006" lon="2.76566">
        <ele>90.19</ele>
        <time>2020-10-08T14:10:58Z</time>
      </trkpt>
      <trkpt lat="48.37006" lon="2.76573">
        <ele>90.22</ele>
        <time>2020-10-08T14:11:04Z</time>
      </trkpt>
      <trkpt lat="48.37005" lon="2.76582">
        <ele>90.01</ele>
        <time>2020-10-08T14:11:09Z</time>
      </trkpt>
      <trkpt lat="48.37005" lon="2.76589">
        <ele>89.9</ele>
        <time>2020-10-08T14:11:14Z</time>
      </trkpt>
      <trkpt lat="48.37005" lon="2.76596">
        <ele>89.63</ele>
        <time>2020-10-08T14:11:19Z</time>
      </trkpt>
      <trkpt lat="48.37005" lon="2.76603">
        <ele>89.47</ele>
        <time>2020-10-08T14:11:24Z</time>
      </trkpt>
      <trkpt lat="48.37005" lon="2.76611">
        <ele>89.73</ele>
        <time>2020-10-08T14:11:29Z</time>
      </trkpt>
      <trkpt lat="48.37005" lon="2.76617">
        <ele>90.13</ele>
        <time>2020-10-08T14:11:34Z</time>
      </trkpt>
      <trkpt lat="48.37004" lon="2.76627">
        <ele>90.33</ele>
        <time>2020-10-08T14:11:39Z</time>
      </trkpt>
      <trkpt lat="48.37003" lon="2.76636">
        <ele>90.49</ele>
        <time>2020-10-08T14:11:44Z</time>
      </trkpt>
      <trkpt lat="48.37002" lon="2.76643">
        <ele>90.68</ele>
        <time>2020-10-08T14:11:49Z</time>
      </trkpt>
      <trkpt lat="48.37" lon="2.76651">
        <ele>90.85</ele>
        <time>2020-10-08T14:11:54Z</time>
      </trkpt>
      <trkpt lat="48.37" lon="2.76657">
        <ele>91.03</ele>
        <time>2020-10-08T14:11:59Z</time>
      </trkpt>
      <trkpt lat="48.36999" lon="2.76663">
        <ele>91.13</ele>
        <time>2020-10-08T14:12:04Z</time>
      </trkpt>
      <trkpt lat="48.36997" lon="2.76671">
        <ele>91.13</ele>
        <time>2020-10-08T14:12:09Z</time>
      </trkpt>
      <trkpt lat="48.36997" lon="2.76679">
        <ele>91.08</ele>
        <time>2020-10-08T14:12:14Z</time>
      </trkpt>
      <trkpt lat="48.36998" lon="2.76688">
        <ele>91.09</ele>
        <time>2020-10-08T14:12:19Z</time>
      </trkpt>
      <trkpt lat="48.36998" lon="2.76696">
        <ele>91.38</ele>
        <time>2020-10-08T14:12:24Z</time>
      </trkpt>
      <trkpt lat="48.36999" lon="2.76704">
        <ele>91.56</ele>
        <time>2020-10-08T14:12:29Z</time>
      </trkpt>
      <trkpt lat="48.36999" lon="2.76713">
        <ele>92.15</ele>
        <time>2020-10-08T14:12:34Z</time>
      </trkpt>
      <trkpt lat="48.37" lon="2.76718">
        <ele>92.91</ele>
        <time>2020-10-08T14:12:39Z</time>
      </trkpt>
      <trkpt lat="48.37" lon="2.76719">
        <ele>93.27</ele>
        <time>2020-10-08T14:12:44Z</time>
      </trkpt>
      <trkpt lat="48.36999" lon="2.7672">
        <ele>93.26</ele>
        <time>2020-10-08T14:12:49Z</time>
      </trkpt>
      <trkpt lat="48.36999" lon="2.7672">
        <ele>93.2</ele>
        <time>2020-10-08T14:12:54Z</time>
      </trkpt>
      <trkpt lat="48.37" lon="2.7672">
        <ele>93.35</ele>
        <time>2020-10-08T14:12:58Z</time>
      </trkpt>
      <trkpt lat="48.37002" lon="2.76721">
        <ele>93.4</ele>
        <time>2020-10-08T14:13:04Z</time>
      </trkpt>
      <trkpt lat="48.37003" lon="2.76719">
        <ele>93.4</ele>
        <time>2020-10-08T14:13:09Z</time>
      </trkpt>
      <trkpt lat="48.37002" lon="2.76717">
        <ele>93.39</ele>
        <time>2020-10-08T14:13:14Z</time>
      </trkpt>
      <trkpt lat="48.37003" lon="2.76717">
        <ele>93.31</ele>
        <time>2020-10-08T14:13:19Z</time>
      </trkpt>
      <trkpt lat="48.37004" lon="2.76717">
        <ele>93.29</ele>
        <time>2020-10-08T14:13:24Z</time>
      </trkpt>
      <trkpt lat="48.37003" lon="2.76718">
        <ele>93.26</ele>
        <time>2020-10-08T14:13:29Z</time>
      </trkpt>
      <trkpt lat="48.37002" lon="2.76719">
        <ele>93.18</ele>
        <time>2020-10-08T14:13:34Z</time>
      </trkpt>
      <trkpt lat="48.37001" lon="2.7672">
        <ele>93.13</ele>
        <time>2020-10-08T14:13:39Z</time>
      </trkpt>
      <trkpt lat="48.37001" lon="2.7672">
        <ele>93</ele>
        <time>2020-10-08T14:13:44Z</time>
      </trkpt>
      <trkpt lat="48.37" lon="2.76721">
        <ele>92.8</ele>
        <time>2020-10-08T14:13:49Z</time>
      </trkpt>
      <trkpt lat="48.37" lon="2.7672">
        <ele>92.79</ele>
        <time>2020-10-08T14:13:54Z</time>
      </trkpt>
      <trkpt lat="48.37" lon="2.76721">
        <ele>92.78</ele>
        <time>2020-10-08T14:13:59Z</time>
      </trkpt>
      <trkpt lat="48.36999" lon="2.76722">
        <ele>92.77</ele>
        <time>2020-10-08T14:14:04Z</time>
      </trkpt>
      <trkpt lat="48.36998" lon="2.76723">
        <ele>93.03</ele>
        <time>2020-10-08T14:14:09Z</time>
      </trkpt>
      <trkpt lat="48.36998" lon="2.76726">
        <ele>93.02</ele>
        <time>2020-10-08T14:14:14Z</time>
      </trkpt>
      <trkpt lat="48.36997" lon="2.76727">
        <ele>92.83</ele>
        <time>2020-10-08T14:14:19Z</time>
      </trkpt>
      <trkpt lat="48.36997" lon="2.76727">
        <ele>92.72</ele>
        <time>2020-10-08T14:14:24Z</time>
      </trkpt>
      <trkpt lat="48.36997" lon="2.76728">
        <ele>92.71</ele>
        <time>2020-10-08T14:14:29Z</time>
      </trkpt>
      <trkpt lat="48.36996" lon="2.76729">
        <ele>92.76</ele>
        <time>2020-10-08T14:14:34Z</time>
      </trkpt>
      <trkpt lat="48.36996" lon="2.76729">
        <ele>92.85</ele>
        <time>2020-10-08T14:14:39Z</time>
      </trkpt>
      <trkpt lat="48.36995" lon="2.76729">
        <ele>92.98</ele>
        <time>2020-10-08T14:14:44Z</time>
      </trkpt>
      <trkpt lat="48.36996" lon="2.76728">
        <ele>92.98</ele>
        <time>2020-10-08T14:14:49Z</time>
      </trkpt>
      <trkpt lat="48.36997" lon="2.76729">
        <ele>92.98</ele>
        <time>2020-10-08T14:14:54Z</time>
      </trkpt>
      <trkpt lat="48.36998" lon="2.76729">
        <ele>92.98</ele>
        <time>2020-10-08T14:14:59Z</time>
      </trkpt>
      <trkpt lat="48.36998" lon="2.76727">
        <ele>92.98</ele>
        <time>2020-10-08T14:15:04Z</time>
      </trkpt>
      <trkpt lat="48.37001" lon="2.76727">
        <ele>92.98</ele>
        <time>2020-10-08T14:15:09Z</time>
      </trkpt>
      <trkpt lat="48.37002" lon="2.76726">
        <ele>92.98</ele>
        <time>2020-10-08T14:15:14Z</time>
      </trkpt>
      <trkpt lat="48.37002" lon="2.76725">
        <ele>92.98</ele>
        <time>2020-10-08T14:15:19Z</time>
      </trkpt>
      <trkpt lat="48.37002" lon="2.76724">
        <ele>92.98</ele>
        <time>2020-10-08T14:15:24Z</time>
      </trkpt>
      <trkpt lat="48.37" lon="2.76721">
        <ele>92.98</ele>
        <time>2020-10-08T14:15:29Z</time>
      </trkpt>
      <trkpt lat="48.37001" lon="2.76719">
        <ele>92.98</ele>
        <time>2020-10-08T14:15:34Z</time>
      </trkpt>
      <trkpt lat="48.37" lon="2.7672">
        <ele>92.98</ele>
        <time>2020-10-08T14:15:39Z</time>
      </trkpt>
      <trkpt lat="48.37" lon="2.76722">
        <ele>92.98</ele>
        <time>2020-10-08T14:15:44Z</time>
      </trkpt>
      <trkpt lat="48.37002" lon="2.76725">
        <ele>92.98</ele>
        <time>2020-10-08T14:15:49Z</time>
      </trkpt>
      <trkpt lat="48.37003" lon="2.76723">
        <ele>92.98</ele>
        <time>2020-10-08T14:15:54Z</time>
      </trkpt>
      <trkpt lat="48.37005" lon="2.76724">
        <ele>92.98</ele>
        <time>2020-10-08T14:15:59Z</time>
      </trkpt>
      <trkpt lat="48.37005" lon="2.76724">
        <ele>92.98</ele>
        <time>2020-10-08T14:16:04Z</time>
      </trkpt>
      <trkpt lat="48.37005" lon="2.76725">
        <ele>92.98</ele>
        <time>2020-10-08T14:16:09Z</time>
      </trkpt>
      <trkpt lat="48.37004" lon="2.76724">
        <ele>92.98</ele>
        <time>2020-10-08T14:16:14Z</time>
      </trkpt>
      <trkpt lat="48.37005" lon="2.76724">
        <ele>92.98</ele>
        <time>2020-10-08T14:16:19Z</time>
      </trkpt>
      <trkpt lat="48.37003" lon="2.7672">
        <ele>92.98</ele>
        <time>2020-10-08T14:16:24Z</time>
      </trkpt>
      <trkpt lat="48.37002" lon="2.7672">
        <ele>92.98</ele>
        <time>2020-10-08T14:16:29Z</time>
      </trkpt>
      <trkpt lat="48.37002" lon="2.7672">
        <ele>92.98</ele>
        <time>2020-10-08T14:16:34Z</time>
      </trkpt>
      <trkpt lat="48.37001" lon="2.7672">
        <ele>92.98</ele>
        <time>2020-10-08T14:16:39Z</time>
      </trkpt>
      <trkpt lat="48.37" lon="2.7672">
        <ele>92.98</ele>
        <time>2020-10-08T14:16:44Z</time>
      </trkpt>
      <trkpt lat="48.36999" lon="2.7672">
        <ele>92.98</ele>
        <time>2020-10-08T14:16:49Z</time>
      </trkpt>
      <trkpt lat="48.36998" lon="2.7672">
        <ele>92.98</ele>
        <time>2020-10-08T14:16:54Z</time>
      </trkpt>
      <trkpt lat="48.36998" lon="2.76719">
        <ele>92.98</ele>
        <time>2020-10-08T14:16:59Z</time>
      </trkpt>
      <trkpt lat="48.36997" lon="2.7672">
        <ele>92.98</ele>
        <time>2020-10-08T14:17:04Z</time>
      </trkpt>
      <trkpt lat="48.36997" lon="2.7672">
        <ele>92.98</ele>
        <time>2020-10-08T14:17:09Z</time>
      </trkpt>
      <trkpt lat="48.36996" lon="2.76721">
        <ele>92.98</ele>
        <time>2020-10-08T14:17:14Z</time>
      </trkpt>
      <trkpt lat="48.36995" lon="2.76723">
        <ele>92.98</ele>
        <time>2020-10-08T14:17:19Z</time>
      </trkpt>
      <trkpt lat="48.36995" lon="2.76723">
        <ele>92.98</ele>
        <time>2020-10-08T14:17:24Z</time>
      </trkpt>
      <trkpt lat="48.36996" lon="2.76724">
        <ele>92.98</ele>
        <time>2020-10-08T14:17:29Z</time>
      </trkpt>
      <trkpt lat="48.36996" lon="2.76724">
        <ele>92.98</ele>
        <time>2020-10-08T14:17:34Z</time>
      </trkpt>
      <trkpt lat="48.36995" lon="2.76724">
        <ele>92.98</ele>
        <time>2020-10-08T14:17:39Z</time>
      </trkpt>
      <trkpt lat="48.36996" lon="2.76723">
        <ele>92.98</ele>
        <time>2020-10-08T14:17:44Z</time>
      </trkpt>
      <trkpt lat="48.36997" lon="2.76723">
        <ele>92.98</ele>
        <time>2020-10-08T14:17:49Z</time>
      </trkpt>
      <trkpt lat="48.36997" lon="2.76723">
        <ele>92.98</ele>
        <time>2020-10-08T14:17:54Z</time>
      </trkpt>
      <trkpt lat="48.36997" lon="2.76724">
        <ele>92.98</ele>
        <time>2020-10-08T14:17:59Z</time>
      </trkpt>
      <trkpt lat="48.37" lon="2.76725">
        <ele>92.98</ele>
        <time>2020-10-08T14:18:04Z</time>
      </trkpt>
      <trkpt lat="48.37001" lon="2.76724">
        <ele>92.98</ele>
        <time>2020-10-08T14:18:09Z</time>
      </trkpt>
      <trkpt lat="48.37001" lon="2.76723">
        <ele>92.98</ele>
        <time>2020-10-08T14:18:14Z</time>
      </trkpt>
      <trkpt lat="48.37001" lon="2.76723">
        <ele>92.98</ele>
        <time>2020-10-08T14:18:19Z</time>
      </trkpt>
      <trkpt lat="48.37001" lon="2.76722">
        <ele>92.98</ele>
        <time>2020-10-08T14:18:24Z</time>
      </trkpt>
      <trkpt lat="48.37001" lon="2.76723">
        <ele>92.98</ele>
        <time>2020-10-08T14:18:29Z</time>
      </trkpt>
      <trkpt lat="48.37001" lon="2.76723">
        <ele>92.98</ele>
        <time>2020-10-08T14:18:34Z</time>
      </trkpt>
      <trkpt lat="48.37001" lon="2.76723">
        <ele>92.98</ele>
        <time>2020-10-08T14:18:39Z</time>
      </trkpt>
      <trkpt lat="48.36999" lon="2.76724">
        <ele>92.98</ele>
        <time>2020-10-08T14:18:44Z</time>
      </trkpt>
      <trkpt lat="48.36999" lon="2.76724">
        <ele>92.98</ele>
        <time>2020-10-08T14:18:49Z</time>
      </trkpt>
      <trkpt lat="48.37" lon="2.76726">
        <ele>92.98</ele>
        <time>2020-10-08T14:18:54Z</time>
      </trkpt>
      <trkpt lat="48.37001" lon="2.76726">
        <ele>92.98</ele>
        <time>2020-10-08T14:18:59Z</time>
      </trkpt>
      <trkpt lat="48.37001" lon="2.76726">
        <ele>92.98</ele>
        <time>2020-10-08T14:19:04Z</time>
      </trkpt>
      <trkpt lat="48.37001" lon="2.76727">
        <ele>92.98</ele>
        <time>2020-10-08T14:19:09Z</time>
      </trkpt>
      <trkpt lat="48.37" lon="2.76729">
        <ele>92.98</ele>
        <time>2020-10-08T14:19:14Z</time>
      </trkpt>
      <trkpt lat="48.37" lon="2.76728">
        <ele>92.98</ele>
        <time>2020-10-08T14:19:19Z</time>
      </trkpt>
      <trkpt lat="48.37001" lon="2.76727">
        <ele>92.98</ele>
        <time>2020-10-08T14:19:24Z</time>
      </trkpt>
      <trkpt lat="48.37001" lon="2.76726">
        <ele>92.98</ele>
        <time>2020-10-08T14:19:29Z</time>
      </trkpt>
      <trkpt lat="48.37001" lon="2.76726">
        <ele>92.98</ele>
        <time>2020-10-08T14:19:34Z</time>
      </trkpt>
      <trkpt lat="48.37001" lon="2.76727">
        <ele>92.98</ele>
        <time>2020-10-08T14:19:39Z</time>
      </trkpt>
      <trkpt lat="48.37001" lon="2.76728">
        <ele>92.98</ele>
        <time>2020-10-08T14:19:44Z</time>
      </trkpt>
      <trkpt lat="48.37001" lon="2.76728">
        <ele>92.98</ele>
        <time>2020-10-08T14:19:49Z</time>
      </trkpt>
      <trkpt lat="48.37001" lon="2.76728">
        <ele>92.98</ele>
        <time>2020-10-08T14:19:54Z</time>
      </trkpt>
      <trkpt lat="48.37001" lon="2.76726">
        <ele>92.98</ele>
        <time>2020-10-08T14:19:59Z</time>
      </trkpt>
      <trkpt lat="48.37001" lon="2.76726">
        <ele>92.98</ele>
        <time>2020-10-08T14:20:04Z</time>
      </trkpt>
      <trkpt lat="48.36999" lon="2.76727">
        <ele>92.98</ele>
        <time>2020-10-08T14:20:09Z</time>
      </trkpt>
      <trkpt lat="48.36998" lon="2.76726">
        <ele>92.98</ele>
        <time>2020-10-08T14:20:14Z</time>
      </trkpt>
      <trkpt lat="48.36998" lon="2.76725">
        <ele>92.98</ele>
        <time>2020-10-08T14:20:19Z</time>
      </trkpt>
      <trkpt lat="48.36998" lon="2.76724">
        <ele>92.98</ele>
        <time>2020-10-08T14:20:24Z</time>
      </trkpt>
      <trkpt lat="48.36998" lon="2.76722">
        <ele>92.98</ele>
        <time>2020-10-08T14:20:29Z</time>
      </trkpt>
      <trkpt lat="48.36998" lon="2.76721">
        <ele>92.98</ele>
        <time>2020-10-08T14:20:34Z</time>
      </trkpt>
      <trkpt lat="48.36998" lon="2.76721">
        <ele>92.98</ele>
        <time>2020-10-08T14:20:39Z</time>
      </trkpt>
      <trkpt lat="48.36999" lon="2.76722">
        <ele>92.98</ele>
        <time>2020-10-08T14:20:44Z</time>
      </trkpt>
      <trkpt lat="48.37" lon="2.76723">
        <ele>92.98</ele>
        <time>2020-10-08T14:20:49Z</time>
      </trkpt>
      <trkpt lat="48.37001" lon="2.76723">
        <ele>92.98</ele>
        <time>2020-10-08T14:20:54Z</time>
      </trkpt>
      <trkpt lat="48.37002" lon="2.76724">
        <ele>92.98</ele>
        <time>2020-10-08T14:20:59Z</time>
      </trkpt>
      <trkpt lat="48.37002" lon="2.76724">
        <ele>92.98</ele>
        <time>2020-10-08T14:21:04Z</time>
      </trkpt>
      <trkpt lat="48.37003" lon="2.76725">
        <ele>92.98</ele>
        <time>2020-10-08T14:21:09Z</time>
      </trkpt>
      <trkpt lat="48.37004" lon="2.76723">
        <ele>92.98</ele>
        <time>2020-10-08T14:21:14Z</time>
      </trkpt>
      <trkpt lat="48.37004" lon="2.76723">
        <ele>92.98</ele>
        <time>2020-10-08T14:21:19Z</time>
      </trkpt>
      <trkpt lat="48.37005" lon="2.76722">
        <ele>92.98</ele>
        <time>2020-10-08T14:21:24Z</time>
      </trkpt>
      <trkpt lat="48.37005" lon="2.76722">
        <ele>92.98</ele>
        <time>2020-10-08T14:21:29Z</time>
      </trkpt>
      <trkpt lat="48.37005" lon="2.76721">
        <ele>92.98</ele>
        <time>2020-10-08T14:21:34Z</time>
      </trkpt>
      <trkpt lat="48.37004" lon="2.76721">
        <ele>92.98</ele>
        <time>2020-10-08T14:21:39Z</time>
      </trkpt>
      <trkpt lat="48.37004" lon="2.76721">
        <ele>92.98</ele>
        <time>2020-10-08T14:21:44Z</time>
      </trkpt>
      <trkpt lat="48.37004" lon="2.76721">
        <ele>92.98</ele>
        <time>2020-10-08T14:21:49Z</time>
      </trkpt>
      <trkpt lat="48.37004" lon="2.76723">
        <ele>92.98</ele>
        <time>2020-10-08T14:21:54Z</time>
      </trkpt>
      <trkpt lat="48.37004" lon="2.76723">
        <ele>92.98</ele>
        <time>2020-10-08T14:21:59Z</time>
      </trkpt>
      <trkpt lat="48.37005" lon="2.76722">
        <ele>92.98</ele>
        <time>2020-10-08T14:22:04Z</time>
      </trkpt>
      <trkpt lat="48.37006" lon="2.76722">
        <ele>92.98</ele>
        <time>2020-10-08T14:22:09Z</time>
      </trkpt>
      <trkpt lat="48.37005" lon="2.76723">
        <ele>92.98</ele>
        <time>2020-10-08T14:22:14Z</time>
      </trkpt>
      <trkpt lat="48.37005" lon="2.76724">
        <ele>92.98</ele>
        <time>2020-10-08T14:22:19Z</time>
      </trkpt>
      <trkpt lat="48.37004" lon="2.76724">
        <ele>92.98</ele>
        <time>2020-10-08T14:22:24Z</time>
      </trkpt>
      <trkpt lat="48.37003" lon="2.76725">
        <ele>92.98</ele>
        <time>2020-10-08T14:22:29Z</time>
      </trkpt>
      <trkpt lat="48.37003" lon="2.76726">
        <ele>92.98</ele>
        <time>2020-10-08T14:22:34Z</time>
      </trkpt>
      <trkpt lat="48.37003" lon="2.76727">
        <ele>92.98</ele>
        <time>2020-10-08T14:22:39Z</time>
      </trkpt>
      <trkpt lat="48.37003" lon="2.76727">
        <ele>92.98</ele>
        <time>2020-10-08T14:22:44Z</time>
      </trkpt>
      <trkpt lat="48.37005" lon="2.76726">
        <ele>92.98</ele>
        <time>2020-10-08T14:22:49Z</time>
      </trkpt>
      <trkpt lat="48.37005" lon="2.76724">
        <ele>92.98</ele>
        <time>2020-10-08T14:22:54Z</time>
      </trkpt>
      <trkpt lat="48.37007" lon="2.76723">
        <ele>92.98</ele>
        <time>2020-10-08T14:22:59Z</time>
      </trkpt>
      <trkpt lat="48.37007" lon="2.76721">
        <ele>92.98</ele>
        <time>2020-10-08T14:23:04Z</time>
      </trkpt>
      <trkpt lat="48.37006" lon="2.7672">
        <ele>92.98</ele>
        <time>2020-10-08T14:23:09Z</time>
      </trkpt>
      <trkpt lat="48.37006" lon="2.7672">
        <ele>92.98</ele>
        <time>2020-10-08T14:23:14Z</time>
      </trkpt>
      <trkpt lat="48.37007" lon="2.76722">
        <ele>92.98</ele>
        <time>2020-10-08T14:23:19Z</time>
      </trkpt>
      <trkpt lat="48.37008" lon="2.76723">
        <ele>92.98</ele>
        <time>2020-10-08T14:23:24Z</time>
      </trkpt>
      <trkpt lat="48.37008" lon="2.76724">
        <ele>92.98</ele>
        <time>2020-10-08T14:23:29Z</time>
      </trkpt>
      <trkpt lat="48.37009" lon="2.76725">
        <ele>92.98</ele>
        <time>2020-10-08T14:23:34Z</time>
      </trkpt>
      <trkpt lat="48.37009" lon="2.76725">
        <ele>92.98</ele>
        <time>2020-10-08T14:23:39Z</time>
      </trkpt>
      <trkpt lat="48.37009" lon="2.76726">
        <ele>92.98</ele>
        <time>2020-10-08T14:23:44Z</time>
      </trkpt>
      <trkpt lat="48.37008" lon="2.76726">
        <ele>92.98</ele>
        <time>2020-10-08T14:23:49Z</time>
      </trkpt>
      <trkpt lat="48.37008" lon="2.76726">
        <ele>92.98</ele>
        <time>2020-10-08T14:23:54Z</time>
      </trkpt>
      <trkpt lat="48.37008" lon="2.76725">
        <ele>92.98</ele>
        <time>2020-10-08T14:23:59Z</time>
      </trkpt>
      <trkpt lat="48.37006" lon="2.76725">
        <ele>92.98</ele>
        <time>2020-10-08T14:24:04Z</time>
      </trkpt>
      <trkpt lat="48.37006" lon="2.76725">
        <ele>92.98</ele>
        <time>2020-10-08T14:24:09Z</time>
      </trkpt>
      <trkpt lat="48.37006" lon="2.76725">
        <ele>92.98</ele>
        <time>2020-10-08T14:24:14Z</time>
      </trkpt>
      <trkpt lat="48.37007" lon="2.76725">
        <ele>92.98</ele>
        <time>2020-10-08T14:24:19Z</time>
      </trkpt>
      <trkpt lat="48.37006" lon="2.76726">
        <ele>92.98</ele>
        <time>2020-10-08T14:24:24Z</time>
      </trkpt>
      <trkpt lat="48.37006" lon="2.76726">
        <ele>92.98</ele>
        <time>2020-10-08T14:24:29Z</time>
      </trkpt>
      <trkpt lat="48.37006" lon="2.76726">
        <ele>92.98</ele>
        <time>2020-10-08T14:24:34Z</time>
      </trkpt>
      <trkpt lat="48.37006" lon="2.76726">
        <ele>92.98</ele>
        <time>2020-10-08T14:24:39Z</time>
      </trkpt>
      <trkpt lat="48.37005" lon="2.76725">
        <ele>92.98</ele>
        <time>2020-10-08T14:24:44Z</time>
      </trkpt>
      <trkpt lat="48.37005" lon="2.76724">
        <ele>92.98</ele>
        <time>2020-10-08T14:24:49Z</time>
      </trkpt>
      <trkpt lat="48.37006" lon="2.76723">
        <ele>92.98</ele>
        <time>2020-10-08T14:24:54Z</time>
      </trkpt>
      <trkpt lat="48.37006" lon="2.76723">
        <ele>92.98</ele>
        <time>2020-10-08T14:24:59Z</time>
      </trkpt>
      <trkpt lat="48.37006" lon="2.76723">
        <ele>92.98</ele>
        <time>2020-10-08T14:25:04Z</time>
      </trkpt>
      <trkpt lat="48.37006" lon="2.76723">
        <ele>92.98</ele>
        <time>2020-10-08T14:25:09Z</time>
      </trkpt>
      <trkpt lat="48.37006" lon="2.76723">
        <ele>92.98</ele>
        <time>2020-10-08T14:25:14Z</time>
      </trkpt>
      <trkpt lat="48.37006" lon="2.76722">
        <ele>92.98</ele>
        <time>2020-10-08T14:25:19Z</time>
      </trkpt>
      <trkpt lat="48.37005" lon="2.76723">
        <ele>92.98</ele>
        <time>2020-10-08T14:25:24Z</time>
      </trkpt>
      <trkpt lat="48.37003" lon="2.76724">
        <ele>92.98</ele>
        <time>2020-10-08T14:25:29Z</time>
      </trkpt>
      <trkpt lat="48.37003" lon="2.76725">
        <ele>92.98</ele>
        <time>2020-10-08T14:25:34Z</time>
      </trkpt>
      <trkpt lat="48.37002" lon="2.76724">
        <ele>92.98</ele>
        <time>2020-10-08T14:25:39Z</time>
      </trkpt>
      <trkpt lat="48.37002" lon="2.76723">
        <ele>92.98</ele>
        <time>2020-10-08T14:25:44Z</time>
      </trkpt>
      <trkpt lat="48.37003" lon="2.76722">
        <ele>92.98</ele>
        <time>2020-10-08T14:25:49Z</time>
      </trkpt>
      <trkpt lat="48.37003" lon="2.76723">
        <ele>92.98</ele>
        <time>2020-10-08T14:25:54Z</time>
      </trkpt>
      <trkpt lat="48.37002" lon="2.76724">
        <ele>92.98</ele>
        <time>2020-10-08T14:25:59Z</time>
      </trkpt>
      <trkpt lat="48.37002" lon="2.76724">
        <ele>92.98</ele>
        <time>2020-10-08T14:26:04Z</time>
      </trkpt>
      <trkpt lat="48.37003" lon="2.76726">
        <ele>92.98</ele>
        <time>2020-10-08T14:26:09Z</time>
      </trkpt>
      <trkpt lat="48.37003" lon="2.76725">
        <ele>92.98</ele>
        <time>2020-10-08T14:26:14Z</time>
      </trkpt>
      <trkpt lat="48.37003" lon="2.76725">
        <ele>92.98</ele>
        <time>2020-10-08T14:26:19Z</time>
      </trkpt>
      <trkpt lat="48.37004" lon="2.76724">
        <ele>92.98</ele>
        <time>2020-10-08T14:26:24Z</time>
      </trkpt>
      <trkpt lat="48.37004" lon="2.76723">
        <ele>92.98</ele>
        <time>2020-10-08T14:26:29Z</time>
      </trkpt>
      <trkpt lat="48.37005" lon="2.76724">
        <ele>92.98</ele>
        <time>2020-10-08T14:26:34Z</time>
      </trkpt>
      <trkpt lat="48.37006" lon="2.76724">
        <ele>92.98</ele>
        <time>2020-10-08T14:26:39Z</time>
      </trkpt>
      <trkpt lat="48.37006" lon="2.76724">
        <ele>92.98</ele>
        <time>2020-10-08T14:26:44Z</time>
      </trkpt>
      <trkpt lat="48.37006" lon="2.76725">
        <ele>92.98</ele>
        <time>2020-10-08T14:26:49Z</time>
      </trkpt>
      <trkpt lat="48.37006" lon="2.76725">
        <ele>92.98</ele>
        <time>2020-10-08T14:26:54Z</time>
      </trkpt>
      <trkpt lat="48.37007" lon="2.76726">
        <ele>92.98</ele>
        <time>2020-10-08T14:26:59Z</time>
      </trkpt>
      <trkpt lat="48.37008" lon="2.76725">
        <ele>92.98</ele>
        <time>2020-10-08T14:27:04Z</time>
      </trkpt>
      <trkpt lat="48.37009" lon="2.76725">
        <ele>92.98</ele>
        <time>2020-10-08T14:27:09Z</time>
      </trkpt>
      <trkpt lat="48.37009" lon="2.76724">
        <ele>92.98</ele>
        <time>2020-10-08T14:27:14Z</time>
      </trkpt>
      <trkpt lat="48.37009" lon="2.76724">
        <ele>92.98</ele>
        <time>2020-10-08T14:27:19Z</time>
      </trkpt>
      <trkpt lat="48.37009" lon="2.76724">
        <ele>92.98</ele>
        <time>2020-10-08T14:27:24Z</time>
      </trkpt>
      <trkpt lat="48.3701" lon="2.76723">
        <ele>92.98</ele>
        <time>2020-10-08T14:27:29Z</time>
      </trkpt>
      <trkpt lat="48.37011" lon="2.76723">
        <ele>92.98</ele>
        <time>2020-10-08T14:27:34Z</time>
      </trkpt>
      <trkpt lat="48.37009" lon="2.76722">
        <ele>92.98</ele>
        <time>2020-10-08T14:27:39Z</time>
      </trkpt>
      <trkpt lat="48.37009" lon="2.76722">
        <ele>92.98</ele>
        <time>2020-10-08T14:27:44Z</time>
      </trkpt>
      <trkpt lat="48.37008" lon="2.76721">
        <ele>92.98</ele>
        <time>2020-10-08T14:27:49Z</time>
      </trkpt>
      <trkpt lat="48.37006" lon="2.76721">
        <ele>92.98</ele>
        <time>2020-10-08T14:27:54Z</time>
      </trkpt>
      <trkpt lat="48.37005" lon="2.76721">
        <ele>92.98</ele>
        <time>2020-10-08T14:27:59Z</time>
      </trkpt>
      <trkpt lat="48.37009" lon="2.76717">
        <ele>92.98</ele>
        <time>2020-10-08T14:28:04Z</time>
      </trkpt>
      <trkpt lat="48.3701" lon="2.76716">
        <ele>92.98</ele>
        <time>2020-10-08T14:28:09Z</time>
      </trkpt>
      <trkpt lat="48.37013" lon="2.76716">
        <ele>92.98</ele>
        <time>2020-10-08T14:28:14Z</time>
      </trkpt>
      <trkpt lat="48.37016" lon="2.76716">
        <ele>92.98</ele>
        <time>2020-10-08T14:28:19Z</time>
      </trkpt>
      <trkpt lat="48.37019" lon="2.76717">
        <ele>92.98</ele>
        <time>2020-10-08T14:28:24Z</time>
      </trkpt>
      <trkpt lat="48.37023" lon="2.76717">
        <ele>92.98</ele>
        <time>2020-10-08T14:28:29Z</time>
      </trkpt>
      <trkpt lat="48.37028" lon="2.76718">
        <ele>92.98</ele>
        <time>2020-10-08T14:28:34Z</time>
      </trkpt>
      <trkpt lat="48.37033" lon="2.76718">
        <ele>92.98</ele>
        <time>2020-10-08T14:28:39Z</time>
      </trkpt>
      <trkpt lat="48.37038" lon="2.76719">
        <ele>92.98</ele>
        <time>2020-10-08T14:28:44Z</time>
      </trkpt>
      <trkpt lat="48.37043" lon="2.7672">
        <ele>91.92</ele>
        <time>2020-10-08T14:28:49Z</time>
      </trkpt>
      <trkpt lat="48.37048" lon="2.7672">
        <ele>91.21</ele>
        <time>2020-10-08T14:28:54Z</time>
      </trkpt>
      <trkpt lat="48.37053" lon="2.7672">
        <ele>91.09</ele>
        <time>2020-10-08T14:28:59Z</time>
      </trkpt>
      <trkpt lat="48.37059" lon="2.7672">
        <ele>90.92</ele>
        <time>2020-10-08T14:29:04Z</time>
      </trkpt>
      <trkpt lat="48.37062" lon="2.76721">
        <ele>90.7</ele>
        <time>2020-10-08T14:29:09Z</time>
      </trkpt>
      <trkpt lat="48.37067" lon="2.76722">
        <ele>90.58</ele>
        <time>2020-10-08T14:29:14Z</time>
      </trkpt>
      <trkpt lat="48.37073" lon="2.76722">
        <ele>90.67</ele>
        <time>2020-10-08T14:29:19Z</time>
      </trkpt>
      <trkpt lat="48.37078" lon="2.76721">
        <ele>90.59</ele>
        <time>2020-10-08T14:29:24Z</time>
      </trkpt>
      <trkpt lat="48.37084" lon="2.76722">
        <ele>90.44</ele>
        <time>2020-10-08T14:29:29Z</time>
      </trkpt>
      <trkpt lat="48.37089" lon="2.76722">
        <ele>90.41</ele>
        <time>2020-10-08T14:29:34Z</time>
      </trkpt>
      <trkpt lat="48.37095" lon="2.76722">
        <ele>90.4</ele>
        <time>2020-10-08T14:29:39Z</time>
      </trkpt>
      <trkpt lat="48.37101" lon="2.76723">
        <ele>90.31</ele>
        <time>2020-10-08T14:29:44Z</time>
      </trkpt>
      <trkpt lat="48.37106" lon="2.76725">
        <ele>90.48</ele>
        <time>2020-10-08T14:29:49Z</time>
      </trkpt>
      <trkpt lat="48.37112" lon="2.76726">
        <ele>90.66</ele>
        <time>2020-10-08T14:29:54Z</time>
      </trkpt>
      <trkpt lat="48.37119" lon="2.76728">
        <ele>90.85</ele>
        <time>2020-10-08T14:29:59Z</time>
      </trkpt>
      <trkpt lat="48.37124" lon="2.76727">
        <ele>91.03</ele>
        <time>2020-10-08T14:30:04Z</time>
      </trkpt>
      <trkpt lat="48.37129" lon="2.76727">
        <ele>91.29</ele>
        <time>2020-10-08T14:30:09Z</time>
      </trkpt>
      <trkpt lat="48.37136" lon="2.76727">
        <ele>91.45</ele>
        <time>2020-10-08T14:30:14Z</time>
      </trkpt>
      <trkpt lat="48.3714" lon="2.76728">
        <ele>91.59</ele>
        <time>2020-10-08T14:30:19Z</time>
      </trkpt>
      <trkpt lat="48.37146" lon="2.76728">
        <ele>91.66</ele>
        <time>2020-10-08T14:30:24Z</time>
      </trkpt>
      <trkpt lat="48.37153" lon="2.7673">
        <ele>91.6</ele>
        <time>2020-10-08T14:30:29Z</time>
      </trkpt>
      <trkpt lat="48.37159" lon="2.76729">
        <ele>91.51</ele>
        <time>2020-10-08T14:30:34Z</time>
      </trkpt>
      <trkpt lat="48.37164" lon="2.76729">
        <ele>91.43</ele>
        <time>2020-10-08T14:30:39Z</time>
      </trkpt>
      <trkpt lat="48.37171" lon="2.7673">
        <ele>91.34</ele>
        <time>2020-10-08T14:30:44Z</time>
      </trkpt>
      <trkpt lat="48.37176" lon="2.76731">
        <ele>91.35</ele>
        <time>2020-10-08T14:30:49Z</time>
      </trkpt>
      <trkpt lat="48.37181" lon="2.7673">
        <ele>91.41</ele>
        <time>2020-10-08T14:30:54Z</time>
      </trkpt>
      <trkpt lat="48.37185" lon="2.7673">
        <ele>91.41</ele>
        <time>2020-10-08T14:30:59Z</time>
      </trkpt>
      <trkpt lat="48.37191" lon="2.76729">
        <ele>91.37</ele>
        <time>2020-10-08T14:31:04Z</time>
      </trkpt>
      <trkpt lat="48.37198" lon="2.76729">
        <ele>91.34</ele>
        <time>2020-10-08T14:31:09Z</time>
      </trkpt>
      <trkpt lat="48.37203" lon="2.76731">
        <ele>91.32</ele>
        <time>2020-10-08T14:31:14Z</time>
      </trkpt>
      <trkpt lat="48.37209" lon="2.76733">
        <ele>91.34</ele>
        <time>2020-10-08T14:31:19Z</time>
      </trkpt>
      <trkpt lat="48.37214" lon="2.76734">
        <ele>91.28</ele>
        <time>2020-10-08T14:31:24Z</time>
      </trkpt>
      <trkpt lat="48.37219" lon="2.76734">
        <ele>91.16</ele>
        <time>2020-10-08T14:31:29Z</time>
      </trkpt>
      <trkpt lat="48.37224" lon="2.76734">
        <ele>91.18</ele>
        <time>2020-10-08T14:31:34Z</time>
      </trkpt>
      <trkpt lat="48.37231" lon="2.76734">
        <ele>91.16</ele>
        <time>2020-10-08T14:31:39Z</time>
      </trkpt>
      <trkpt lat="48.37237" lon="2.76735">
        <ele>91.12</ele>
        <time>2020-10-08T14:31:44Z</time>
      </trkpt>
      <trkpt lat="48.37243" lon="2.76735">
        <ele>91.03</ele>
        <time>2020-10-08T14:31:49Z</time>
      </trkpt>
      <trkpt lat="48.37249" lon="2.76736">
        <ele>91.07</ele>
        <time>2020-10-08T14:31:54Z</time>
      </trkpt>
      <trkpt lat="48.37254" lon="2.76736">
        <ele>91.08</ele>
        <time>2020-10-08T14:31:59Z</time>
      </trkpt>
      <trkpt lat="48.37259" lon="2.76737">
        <ele>91.16</ele>
        <time>2020-10-08T14:32:04Z</time>
      </trkpt>
      <trkpt lat="48.37263" lon="2.76736">
        <ele>91.19</ele>
        <time>2020-10-08T14:32:09Z</time>
      </trkpt>
      <trkpt lat="48.37268" lon="2.76737">
        <ele>91.27</ele>
        <time>2020-10-08T14:32:14Z</time>
      </trkpt>
      <trkpt lat="48.37273" lon="2.76736">
        <ele>91.38</ele>
        <time>2020-10-08T14:32:19Z</time>
      </trkpt>
      <trkpt lat="48.37277" lon="2.76736">
        <ele>91.38</ele>
        <time>2020-10-08T14:32:24Z</time>
      </trkpt>
      <trkpt lat="48.37282" lon="2.76737">
        <ele>91.79</ele>
        <time>2020-10-08T14:32:29Z</time>
      </trkpt>
      <trkpt lat="48.37289" lon="2.76739">
        <ele>92.06</ele>
        <time>2020-10-08T14:32:34Z</time>
      </trkpt>
      <trkpt lat="48.37296" lon="2.76739">
        <ele>92.07</ele>
        <time>2020-10-08T14:32:39Z</time>
      </trkpt>
      <trkpt lat="48.37301" lon="2.76739">
        <ele>92.17</ele>
        <time>2020-10-08T14:32:44Z</time>
      </trkpt>
      <trkpt lat="48.37306" lon="2.76739">
        <ele>92.27</ele>
        <time>2020-10-08T14:32:49Z</time>
      </trkpt>
      <trkpt lat="48.37312" lon="2.7674">
        <ele>92.45</ele>
        <time>2020-10-08T14:32:54Z</time>
      </trkpt>
      <trkpt lat="48.37316" lon="2.76741">
        <ele>92.76</ele>
        <time>2020-10-08T14:32:59Z</time>
      </trkpt>
      <trkpt lat="48.3732" lon="2.76742">
        <ele>93</ele>
        <time>2020-10-08T14:33:04Z</time>
      </trkpt>
      <trkpt lat="48.37324" lon="2.76748">
        <ele>93.01</ele>
        <time>2020-10-08T14:33:09Z</time>
      </trkpt>
      <trkpt lat="48.37326" lon="2.76756">
        <ele>92.98</ele>
        <time>2020-10-08T14:33:14Z</time>
      </trkpt>
      <trkpt lat="48.37326" lon="2.76762">
        <ele>92.88</ele>
        <time>2020-10-08T14:33:19Z</time>
      </trkpt>
      <trkpt lat="48.37327" lon="2.7677">
        <ele>92.56</ele>
        <time>2020-10-08T14:33:24Z</time>
      </trkpt>
      <trkpt lat="48.37329" lon="2.76779">
        <ele>92.17</ele>
        <time>2020-10-08T14:33:29Z</time>
      </trkpt>
      <trkpt lat="48.37328" lon="2.76788">
        <ele>91.98</ele>
        <time>2020-10-08T14:33:34Z</time>
      </trkpt>
      <trkpt lat="48.37328" lon="2.76797">
        <ele>91.73</ele>
        <time>2020-10-08T14:33:39Z</time>
      </trkpt>
      <trkpt lat="48.37328" lon="2.76807">
        <ele>91.51</ele>
        <time>2020-10-08T14:33:44Z</time>
      </trkpt>
      <trkpt lat="48.37327" lon="2.76816">
        <ele>91.45</ele>
        <time>2020-10-08T14:33:49Z</time>
      </trkpt>
      <trkpt lat="48.37327" lon="2.76824">
        <ele>91.31</ele>
        <time>2020-10-08T14:33:54Z</time>
      </trkpt>
      <trkpt lat="48.37326" lon="2.76831">
        <ele>91.31</ele>
        <time>2020-10-08T14:33:59Z</time>
      </trkpt>
      <trkpt lat="48.37324" lon="2.7684">
        <ele>91.4</ele>
        <time>2020-10-08T14:34:04Z</time>
      </trkpt>
      <trkpt lat="48.37324" lon="2.76848">
        <ele>91.38</ele>
        <time>2020-10-08T14:34:09Z</time>
      </trkpt>
      <trkpt lat="48.37322" lon="2.76856">
        <ele>91.32</ele>
        <time>2020-10-08T14:34:14Z</time>
      </trkpt>
      <trkpt lat="48.37321" lon="2.76864">
        <ele>91.25</ele>
        <time>2020-10-08T14:34:19Z</time>
      </trkpt>
      <trkpt lat="48.3732" lon="2.76875">
        <ele>91.38</ele>
        <time>2020-10-08T14:34:24Z</time>
      </trkpt>
      <trkpt lat="48.37319" lon="2.7688">
        <ele>91.46</ele>
        <time>2020-10-08T14:34:29Z</time>
      </trkpt>
      <trkpt lat="48.37318" lon="2.76889">
        <ele>91.18</ele>
        <time>2020-10-08T14:34:34Z</time>
      </trkpt>
      <trkpt lat="48.37316" lon="2.76896">
        <ele>91.13</ele>
        <time>2020-10-08T14:34:39Z</time>
      </trkpt>
      <trkpt lat="48.37316" lon="2.76904">
        <ele>91.12</ele>
        <time>2020-10-08T14:34:44Z</time>
      </trkpt>
      <trkpt lat="48.37314" lon="2.76912">
        <ele>91.13</ele>
        <time>2020-10-08T14:34:49Z</time>
      </trkpt>
      <trkpt lat="48.37313" lon="2.76922">
        <ele>91.09</ele>
        <time>2020-10-08T14:34:54Z</time>
      </trkpt>
      <trkpt lat="48.37311" lon="2.7693">
        <ele>90.88</ele>
        <time>2020-10-08T14:34:59Z</time>
      </trkpt>
      <trkpt lat="48.37311" lon="2.76937">
        <ele>90.84</ele>
        <time>2020-10-08T14:35:04Z</time>
      </trkpt>
      <trkpt lat="48.37312" lon="2.76944">
        <ele>90.85</ele>
        <time>2020-10-08T14:35:09Z</time>
      </trkpt>
      <trkpt lat="48.3731" lon="2.76952">
        <ele>90.89</ele>
        <time>2020-10-08T14:35:14Z</time>
      </trkpt>
      <trkpt lat="48.37307" lon="2.7696">
        <ele>90.78</ele>
        <time>2020-10-08T14:35:19Z</time>
      </trkpt>
      <trkpt lat="48.37307" lon="2.76968">
        <ele>90.6</ele>
        <time>2020-10-08T14:35:24Z</time>
      </trkpt>
      <trkpt lat="48.37307" lon="2.76977">
        <ele>90.45</ele>
        <time>2020-10-08T14:35:29Z</time>
      </trkpt>
      <trkpt lat="48.37307" lon="2.76985">
        <ele>90.54</ele>
        <time>2020-10-08T14:35:34Z</time>
      </trkpt>
      <trkpt lat="48.37305" lon="2.76996">
        <ele>90.71</ele>
        <time>2020-10-08T14:35:39Z</time>
      </trkpt>
      <trkpt lat="48.37305" lon="2.77004">
        <ele>90.75</ele>
        <time>2020-10-08T14:35:44Z</time>
      </trkpt>
      <trkpt lat="48.37302" lon="2.77012">
        <ele>90.84</ele>
        <time>2020-10-08T14:35:49Z</time>
      </trkpt>
      <trkpt lat="48.373" lon="2.7702">
        <ele>91.03</ele>
        <time>2020-10-08T14:35:54Z</time>
      </trkpt>
      <trkpt lat="48.373" lon="2.77028">
        <ele>91.04</ele>
        <time>2020-10-08T14:35:59Z</time>
      </trkpt>
      <trkpt lat="48.37299" lon="2.77037">
        <ele>91.02</ele>
        <time>2020-10-08T14:36:04Z</time>
      </trkpt>
      <trkpt lat="48.37298" lon="2.77045">
        <ele>91.15</ele>
        <time>2020-10-08T14:36:09Z</time>
      </trkpt>
      <trkpt lat="48.373" lon="2.77053">
        <ele>91.43</ele>
        <time>2020-10-08T14:36:14Z</time>
      </trkpt>
      <trkpt lat="48.37298" lon="2.77062">
        <ele>91.47</ele>
        <time>2020-10-08T14:36:19Z</time>
      </trkpt>
      <trkpt lat="48.37298" lon="2.7707">
        <ele>91.55</ele>
        <time>2020-10-08T14:36:24Z</time>
      </trkpt>
      <trkpt lat="48.37297" lon="2.77077">
        <ele>91.58</ele>
        <time>2020-10-08T14:36:29Z</time>
      </trkpt>
      <trkpt lat="48.37295" lon="2.77085">
        <ele>91.51</ele>
        <time>2020-10-08T14:36:34Z</time>
      </trkpt>
      <trkpt lat="48.37294" lon="2.77094">
        <ele>91.46</ele>
        <time>2020-10-08T14:36:39Z</time>
      </trkpt>
      <trkpt lat="48.37294" lon="2.77102">
        <ele>91.4</ele>
        <time>2020-10-08T14:36:44Z</time>
      </trkpt>
      <trkpt lat="48.37293" lon="2.77109">
        <ele>91.38</ele>
        <time>2020-10-08T14:36:49Z</time>
      </trkpt>
      <trkpt lat="48.37291" lon="2.77117">
        <ele>91.58</ele>
        <time>2020-10-08T14:36:54Z</time>
      </trkpt>
      <trkpt lat="48.3729" lon="2.77125">
        <ele>91.7</ele>
        <time>2020-10-08T14:36:59Z</time>
      </trkpt>
      <trkpt lat="48.37289" lon="2.77133">
        <ele>91.98</ele>
        <time>2020-10-08T14:37:04Z</time>
      </trkpt>
      <trkpt lat="48.37289" lon="2.7714">
        <ele>92.17</ele>
        <time>2020-10-08T14:37:09Z</time>
      </trkpt>
      <trkpt lat="48.3729" lon="2.77145">
        <ele>92.37</ele>
        <time>2020-10-08T14:37:14Z</time>
      </trkpt>
      <trkpt lat="48.3729" lon="2.77151">
        <ele>92.68</ele>
        <time>2020-10-08T14:37:19Z</time>
      </trkpt>
      <trkpt lat="48.37289" lon="2.77158">
        <ele>92.93</ele>
        <time>2020-10-08T14:37:24Z</time>
      </trkpt>
      <trkpt lat="48.37289" lon="2.77163">
        <ele>93.03</ele>
        <time>2020-10-08T14:37:29Z</time>
      </trkpt>
      <trkpt lat="48.37287" lon="2.77168">
        <ele>93.04</ele>
        <time>2020-10-08T14:37:34Z</time>
      </trkpt>
      <trkpt lat="48.37285" lon="2.77175">
        <ele>93.29</ele>
        <time>2020-10-08T14:37:39Z</time>
      </trkpt>
      <trkpt lat="48.37285" lon="2.77182">
        <ele>93.5</ele>
        <time>2020-10-08T14:37:44Z</time>
      </trkpt>
      <trkpt lat="48.37284" lon="2.77188">
        <ele>93.67</ele>
        <time>2020-10-08T14:37:49Z</time>
      </trkpt>
      <trkpt lat="48.37281" lon="2.77194">
        <ele>93.65</ele>
        <time>2020-10-08T14:37:54Z</time>
      </trkpt>
      <trkpt lat="48.37281" lon="2.77201">
        <ele>93.53</ele>
        <time>2020-10-08T14:37:59Z</time>
      </trkpt>
      <trkpt lat="48.3728" lon="2.77207">
        <ele>93.33</ele>
        <time>2020-10-08T14:38:04Z</time>
      </trkpt>
      <trkpt lat="48.37278" lon="2.77212">
        <ele>92.96</ele>
        <time>2020-10-08T14:38:09Z</time>
      </trkpt>
      <trkpt lat="48.37277" lon="2.77219">
        <ele>92.58</ele>
        <time>2020-10-08T14:38:14Z</time>
      </trkpt>
      <trkpt lat="48.37277" lon="2.77224">
        <ele>92.52</ele>
        <time>2020-10-08T14:38:19Z</time>
      </trkpt>
      <trkpt lat="48.37277" lon="2.77228">
        <ele>92.58</ele>
        <time>2020-10-08T14:38:24Z</time>
      </trkpt>
      <trkpt lat="48.37277" lon="2.77232">
        <ele>92.56</ele>
        <time>2020-10-08T14:38:29Z</time>
      </trkpt>
      <trkpt lat="48.37277" lon="2.77238">
        <ele>92.68</ele>
        <time>2020-10-08T14:38:34Z</time>
      </trkpt>
      <trkpt lat="48.37277" lon="2.77245">
        <ele>92.96</ele>
        <time>2020-10-08T14:38:39Z</time>
      </trkpt>
      <trkpt lat="48.37276" lon="2.77254">
        <ele>93.02</ele>
        <time>2020-10-08T14:38:44Z</time>
      </trkpt>
      <trkpt lat="48.37275" lon="2.77261">
        <ele>92.99</ele>
        <time>2020-10-08T14:38:49Z</time>
      </trkpt>
      <trkpt lat="48.37274" lon="2.77269">
        <ele>92.86</ele>
        <time>2020-10-08T14:38:54Z</time>
      </trkpt>
      <trkpt lat="48.37274" lon="2.77276">
        <ele>92.95</ele>
        <time>2020-10-08T14:38:59Z</time>
      </trkpt>
      <trkpt lat="48.37273" lon="2.77284">
        <ele>93.04</ele>
        <time>2020-10-08T14:39:04Z</time>
      </trkpt>
      <trkpt lat="48.37272" lon="2.7729">
        <ele>93.06</ele>
        <time>2020-10-08T14:39:09Z</time>
      </trkpt>
      <trkpt lat="48.37271" lon="2.77297">
        <ele>93.1</ele>
        <time>2020-10-08T14:39:14Z</time>
      </trkpt>
      <trkpt lat="48.37272" lon="2.77304">
        <ele>93.04</ele>
        <time>2020-10-08T14:39:19Z</time>
      </trkpt>
      <trkpt lat="48.37271" lon="2.77311">
        <ele>92.8</ele>
        <time>2020-10-08T14:39:24Z</time>
      </trkpt>
      <trkpt lat="48.37269" lon="2.77319">
        <ele>92.56</ele>
        <time>2020-10-08T14:39:29Z</time>
      </trkpt>
      <trkpt lat="48.37268" lon="2.77325">
        <ele>92.46</ele>
        <time>2020-10-08T14:39:34Z</time>
      </trkpt>
      <trkpt lat="48.37268" lon="2.77332">
        <ele>92.62</ele>
        <time>2020-10-08T14:39:39Z</time>
      </trkpt>
      <trkpt lat="48.37268" lon="2.77341">
        <ele>92.76</ele>
        <time>2020-10-08T14:39:44Z</time>
      </trkpt>
      <trkpt lat="48.37268" lon="2.77348">
        <ele>92.75</ele>
        <time>2020-10-08T14:39:49Z</time>
      </trkpt>
      <trkpt lat="48.37266" lon="2.77356">
        <ele>92.66</ele>
        <time>2020-10-08T14:39:54Z</time>
      </trkpt>
      <trkpt lat="48.37265" lon="2.77363">
        <ele>92.66</ele>
        <time>2020-10-08T14:39:59Z</time>
      </trkpt>
      <trkpt lat="48.37264" lon="2.7737">
        <ele>92.76</ele>
        <time>2020-10-08T14:40:04Z</time>
      </trkpt>
      <trkpt lat="48.37263" lon="2.77377">
        <ele>92.8</ele>
        <time>2020-10-08T14:40:09Z</time>
      </trkpt>
      <trkpt lat="48.37261" lon="2.77384">
        <ele>92.8</ele>
        <time>2020-10-08T14:40:14Z</time>
      </trkpt>
      <trkpt lat="48.3726" lon="2.77392">
        <ele>92.87</ele>
        <time>2020-10-08T14:40:19Z</time>
      </trkpt>
      <trkpt lat="48.3726" lon="2.77399">
        <ele>92.92</ele>
        <time>2020-10-08T14:40:24Z</time>
      </trkpt>
      <trkpt lat="48.3726" lon="2.77407">
        <ele>93.21</ele>
        <time>2020-10-08T14:40:29Z</time>
      </trkpt>
      <trkpt lat="48.3726" lon="2.77413">
        <ele>93.69</ele>
        <time>2020-10-08T14:40:34Z</time>
      </trkpt>
      <trkpt lat="48.3726" lon="2.77419">
        <ele>94.09</ele>
        <time>2020-10-08T14:40:39Z</time>
      </trkpt>
      <trkpt lat="48.37259" lon="2.77426">
        <ele>94.33</ele>
        <time>2020-10-08T14:40:44Z</time>
      </trkpt>
      <trkpt lat="48.37259" lon="2.77431">
        <ele>94.93</ele>
        <time>2020-10-08T14:40:49Z</time>
      </trkpt>
      <trkpt lat="48.37257" lon="2.77438">
        <ele>95.32</ele>
        <time>2020-10-08T14:40:54Z</time>
      </trkpt>
      <trkpt lat="48.37254" lon="2.77444">
        <ele>95.42</ele>
        <time>2020-10-08T14:40:59Z</time>
      </trkpt>
      <trkpt lat="48.37252" lon="2.77451">
        <ele>95.53</ele>
        <time>2020-10-08T14:41:04Z</time>
      </trkpt>
      <trkpt lat="48.3725" lon="2.7746">
        <ele>95.53</ele>
        <time>2020-10-08T14:41:09Z</time>
      </trkpt>
      <trkpt lat="48.37249" lon="2.77466">
        <ele>95.61</ele>
        <time>2020-10-08T14:41:14Z</time>
      </trkpt>
      <trkpt lat="48.37247" lon="2.77474">
        <ele>95.75</ele>
        <time>2020-10-08T14:41:19Z</time>
      </trkpt>
      <trkpt lat="48.37246" lon="2.7748">
        <ele>95.57</ele>
        <time>2020-10-08T14:41:24Z</time>
      </trkpt>
      <trkpt lat="48.37245" lon="2.77487">
        <ele>94.9</ele>
        <time>2020-10-08T14:41:29Z</time>
      </trkpt>
      <trkpt lat="48.37244" lon="2.77494">
        <ele>94.39</ele>
        <time>2020-10-08T14:41:34Z</time>
      </trkpt>
      <trkpt lat="48.37242" lon="2.77502">
        <ele>93.79</ele>
        <time>2020-10-08T14:41:39Z</time>
      </trkpt>
      <trkpt lat="48.37242" lon="2.77509">
        <ele>93.28</ele>
        <time>2020-10-08T14:41:44Z</time>
      </trkpt>
      <trkpt lat="48.37244" lon="2.77517">
        <ele>93.26</ele>
        <time>2020-10-08T14:41:49Z</time>
      </trkpt>
      <trkpt lat="48.37245" lon="2.77524">
        <ele>93.29</ele>
        <time>2020-10-08T14:41:54Z</time>
      </trkpt>
      <trkpt lat="48.37243" lon="2.77532">
        <ele>93.33</ele>
        <time>2020-10-08T14:41:59Z</time>
      </trkpt>
      <trkpt lat="48.37242" lon="2.77537">
        <ele>93.73</ele>
        <time>2020-10-08T14:42:04Z</time>
      </trkpt>
      <trkpt lat="48.3724" lon="2.77544">
        <ele>93.73</ele>
        <time>2020-10-08T14:42:09Z</time>
      </trkpt>
      <trkpt lat="48.37239" lon="2.77552">
        <ele>93.98</ele>
        <time>2020-10-08T14:42:14Z</time>
      </trkpt>
      <trkpt lat="48.37238" lon="2.77558">
        <ele>94.17</ele>
        <time>2020-10-08T14:42:19Z</time>
      </trkpt>
      <trkpt lat="48.37238" lon="2.77565">
        <ele>94.08</ele>
        <time>2020-10-08T14:42:24Z</time>
      </trkpt>
      <trkpt lat="48.37237" lon="2.77572">
        <ele>93.95</ele>
        <time>2020-10-08T14:42:29Z</time>
      </trkpt>
      <trkpt lat="48.37236" lon="2.7758">
        <ele>93.87</ele>
        <time>2020-10-08T14:42:34Z</time>
      </trkpt>
      <trkpt lat="48.37235" lon="2.77588">
        <ele>93.86</ele>
        <time>2020-10-08T14:42:39Z</time>
      </trkpt>
      <trkpt lat="48.37233" lon="2.77595">
        <ele>93.78</ele>
        <time>2020-10-08T14:42:44Z</time>
      </trkpt>
      <trkpt lat="48.37233" lon="2.77603">
        <ele>93.67</ele>
        <time>2020-10-08T14:42:49Z</time>
      </trkpt>
      <trkpt lat="48.37235" lon="2.7761">
        <ele>93.56</ele>
        <time>2020-10-08T14:42:54Z</time>
      </trkpt>
      <trkpt lat="48.37234" lon="2.77618">
        <ele>93.4</ele>
        <time>2020-10-08T14:42:59Z</time>
      </trkpt>
      <trkpt lat="48.37233" lon="2.77625">
        <ele>93.23</ele>
        <time>2020-10-08T14:43:04Z</time>
      </trkpt>
      <trkpt lat="48.37231" lon="2.77633">
        <ele>93.06</ele>
        <time>2020-10-08T14:43:09Z</time>
      </trkpt>
      <trkpt lat="48.3723" lon="2.77639">
        <ele>92.87</ele>
        <time>2020-10-08T14:43:14Z</time>
      </trkpt>
      <trkpt lat="48.37229" lon="2.77647">
        <ele>92.84</ele>
        <time>2020-10-08T14:43:19Z</time>
      </trkpt>
      <trkpt lat="48.37228" lon="2.77655">
        <ele>92.84</ele>
        <time>2020-10-08T14:43:24Z</time>
      </trkpt>
      <trkpt lat="48.37225" lon="2.77662">
        <ele>92.8</ele>
        <time>2020-10-08T14:43:29Z</time>
      </trkpt>
      <trkpt lat="48.37224" lon="2.7767">
        <ele>92.76</ele>
        <time>2020-10-08T14:43:34Z</time>
      </trkpt>
      <trkpt lat="48.37223" lon="2.77679">
        <ele>92.56</ele>
        <time>2020-10-08T14:43:39Z</time>
      </trkpt>
      <trkpt lat="48.37223" lon="2.77687">
        <ele>92.54</ele>
        <time>2020-10-08T14:43:44Z</time>
      </trkpt>
      <trkpt lat="48.37221" lon="2.77692">
        <ele>92.67</ele>
        <time>2020-10-08T14:43:49Z</time>
      </trkpt>
      <trkpt lat="48.3722" lon="2.777">
        <ele>92.65</ele>
        <time>2020-10-08T14:43:54Z</time>
      </trkpt>
      <trkpt lat="48.37219" lon="2.77707">
        <ele>92.56</ele>
        <time>2020-10-08T14:43:59Z</time>
      </trkpt>
      <trkpt lat="48.37219" lon="2.77714">
        <ele>92.49</ele>
        <time>2020-10-08T14:44:04Z</time>
      </trkpt>
      <trkpt lat="48.3722" lon="2.77722">
        <ele>92.45</ele>
        <time>2020-10-08T14:44:09Z</time>
      </trkpt>
      <trkpt lat="48.37219" lon="2.77729">
        <ele>92.42</ele>
        <time>2020-10-08T14:44:14Z</time>
      </trkpt>
      <trkpt lat="48.37219" lon="2.77736">
        <ele>92.45</ele>
        <time>2020-10-08T14:44:19Z</time>
      </trkpt>
      <trkpt lat="48.37217" lon="2.77742">
        <ele>92.49</ele>
        <time>2020-10-08T14:44:24Z</time>
      </trkpt>
      <trkpt lat="48.37216" lon="2.77749">
        <ele>92.59</ele>
        <time>2020-10-08T14:44:29Z</time>
      </trkpt>
      <trkpt lat="48.37217" lon="2.77756">
        <ele>92.63</ele>
        <time>2020-10-08T14:44:34Z</time>
      </trkpt>
      <trkpt lat="48.37217" lon="2.77762">
        <ele>92.62</ele>
        <time>2020-10-08T14:44:39Z</time>
      </trkpt>
      <trkpt lat="48.37214" lon="2.77769">
        <ele>92.5</ele>
        <time>2020-10-08T14:44:44Z</time>
      </trkpt>
      <trkpt lat="48.37214" lon="2.77777">
        <ele>92.27</ele>
        <time>2020-10-08T14:44:49Z</time>
      </trkpt>
      <trkpt lat="48.37213" lon="2.77784">
        <ele>92.3</ele>
        <time>2020-10-08T14:44:54Z</time>
      </trkpt>
      <trkpt lat="48.37212" lon="2.77793">
        <ele>92.4</ele>
        <time>2020-10-08T14:44:59Z</time>
      </trkpt>
      <trkpt lat="48.37211" lon="2.77798">
        <ele>92.35</ele>
        <time>2020-10-08T14:45:04Z</time>
      </trkpt>
      <trkpt lat="48.37209" lon="2.77805">
        <ele>92.29</ele>
        <time>2020-10-08T14:45:09Z</time>
      </trkpt>
      <trkpt lat="48.37207" lon="2.77814">
        <ele>92.25</ele>
        <time>2020-10-08T14:45:14Z</time>
      </trkpt>
      <trkpt lat="48.37206" lon="2.77821">
        <ele>92.31</ele>
        <time>2020-10-08T14:45:19Z</time>
      </trkpt>
      <trkpt lat="48.37206" lon="2.77829">
        <ele>92.15</ele>
        <time>2020-10-08T14:45:24Z</time>
      </trkpt>
      <trkpt lat="48.37205" lon="2.77836">
        <ele>91.89</ele>
        <time>2020-10-08T14:45:29Z</time>
      </trkpt>
      <trkpt lat="48.37204" lon="2.77843">
        <ele>91.71</ele>
        <time>2020-10-08T14:45:34Z</time>
      </trkpt>
      <trkpt lat="48.37204" lon="2.77852">
        <ele>91.59</ele>
        <time>2020-10-08T14:45:39Z</time>
      </trkpt>
      <trkpt lat="48.37203" lon="2.7786">
        <ele>91.61</ele>
        <time>2020-10-08T14:45:44Z</time>
      </trkpt>
      <trkpt lat="48.37203" lon="2.77868">
        <ele>91.71</ele>
        <time>2020-10-08T14:45:49Z</time>
      </trkpt>
      <trkpt lat="48.37202" lon="2.77875">
        <ele>91.68</ele>
        <time>2020-10-08T14:45:54Z</time>
      </trkpt>
      <trkpt lat="48.37203" lon="2.77882">
        <ele>91.59</ele>
        <time>2020-10-08T14:45:59Z</time>
      </trkpt>
      <trkpt lat="48.37202" lon="2.7789">
        <ele>91.44</ele>
        <time>2020-10-08T14:46:04Z</time>
      </trkpt>
      <trkpt lat="48.37202" lon="2.77897">
        <ele>91.3</ele>
        <time>2020-10-08T14:46:09Z</time>
      </trkpt>
      <trkpt lat="48.37202" lon="2.77903">
        <ele>91.33</ele>
        <time>2020-10-08T14:46:14Z</time>
      </trkpt>
      <trkpt lat="48.37202" lon="2.77912">
        <ele>91.58</ele>
        <time>2020-10-08T14:46:19Z</time>
      </trkpt>
      <trkpt lat="48.37199" lon="2.77921">
        <ele>91.6</ele>
        <time>2020-10-08T14:46:24Z</time>
      </trkpt>
      <trkpt lat="48.37199" lon="2.77928">
        <ele>91.57</ele>
        <time>2020-10-08T14:46:29Z</time>
      </trkpt>
      <trkpt lat="48.37198" lon="2.77933">
        <ele>91.36</ele>
        <time>2020-10-08T14:46:34Z</time>
      </trkpt>
      <trkpt lat="48.37197" lon="2.7794">
        <ele>91.09</ele>
        <time>2020-10-08T14:46:39Z</time>
      </trkpt>
      <trkpt lat="48.37194" lon="2.77946">
        <ele>90.8</ele>
        <time>2020-10-08T14:46:44Z</time>
      </trkpt>
      <trkpt lat="48.37194" lon="2.77953">
        <ele>90.76</ele>
        <time>2020-10-08T14:46:49Z</time>
      </trkpt>
      <trkpt lat="48.37191" lon="2.77964">
        <ele>90.85</ele>
        <time>2020-10-08T14:46:54Z</time>
      </trkpt>
      <trkpt lat="48.37189" lon="2.77974">
        <ele>90.89</ele>
        <time>2020-10-08T14:46:59Z</time>
      </trkpt>
      <trkpt lat="48.37187" lon="2.77983">
        <ele>90.86</ele>
        <time>2020-10-08T14:47:04Z</time>
      </trkpt>
      <trkpt lat="48.37187" lon="2.7799">
        <ele>90.81</ele>
        <time>2020-10-08T14:47:09Z</time>
      </trkpt>
      <trkpt lat="48.37186" lon="2.77998">
        <ele>90.78</ele>
        <time>2020-10-08T14:47:14Z</time>
      </trkpt>
      <trkpt lat="48.37186" lon="2.78005">
        <ele>90.66</ele>
        <time>2020-10-08T14:47:19Z</time>
      </trkpt>
      <trkpt lat="48.37185" lon="2.78011">
        <ele>90.46</ele>
        <time>2020-10-08T14:47:24Z</time>
      </trkpt>
      <trkpt lat="48.37184" lon="2.78019">
        <ele>90.3</ele>
        <time>2020-10-08T14:47:29Z</time>
      </trkpt>
      <trkpt lat="48.37183" lon="2.78027">
        <ele>90.06</ele>
        <time>2020-10-08T14:47:34Z</time>
      </trkpt>
      <trkpt lat="48.37183" lon="2.78033">
        <ele>90.07</ele>
        <time>2020-10-08T14:47:39Z</time>
      </trkpt>
      <trkpt lat="48.37182" lon="2.7804">
        <ele>90.26</ele>
        <time>2020-10-08T14:47:44Z</time>
      </trkpt>
      <trkpt lat="48.37181" lon="2.78047">
        <ele>90.47</ele>
        <time>2020-10-08T14:47:49Z</time>
      </trkpt>
      <trkpt lat="48.3718" lon="2.78053">
        <ele>90.62</ele>
        <time>2020-10-08T14:47:54Z</time>
      </trkpt>
      <trkpt lat="48.3718" lon="2.78061">
        <ele>90.77</ele>
        <time>2020-10-08T14:47:59Z</time>
      </trkpt>
      <trkpt lat="48.37177" lon="2.78072">
        <ele>90.73</ele>
        <time>2020-10-08T14:48:04Z</time>
      </trkpt>
      <trkpt lat="48.37177" lon="2.78081">
        <ele>90.56</ele>
        <time>2020-10-08T14:48:09Z</time>
      </trkpt>
      <trkpt lat="48.37176" lon="2.78089">
        <ele>90.48</ele>
        <time>2020-10-08T14:48:14Z</time>
      </trkpt>
      <trkpt lat="48.37176" lon="2.78097">
        <ele>90.47</ele>
        <time>2020-10-08T14:48:19Z</time>
      </trkpt>
      <trkpt lat="48.37176" lon="2.78104">
        <ele>90.47</ele>
        <time>2020-10-08T14:48:24Z</time>
      </trkpt>
      <trkpt lat="48.37176" lon="2.78111">
        <ele>90.47</ele>
        <time>2020-10-08T14:48:29Z</time>
      </trkpt>
      <trkpt lat="48.37175" lon="2.78117">
        <ele>90.47</ele>
        <time>2020-10-08T14:48:34Z</time>
      </trkpt>
      <trkpt lat="48.37173" lon="2.78126">
        <ele>90.43</ele>
        <time>2020-10-08T14:48:39Z</time>
      </trkpt>
      <trkpt lat="48.37171" lon="2.78134">
        <ele>90.24</ele>
        <time>2020-10-08T14:48:44Z</time>
      </trkpt>
      <trkpt lat="48.3717" lon="2.7814">
        <ele>90.02</ele>
        <time>2020-10-08T14:48:49Z</time>
      </trkpt>
      <trkpt lat="48.37167" lon="2.78147">
        <ele>90.09</ele>
        <time>2020-10-08T14:48:54Z</time>
      </trkpt>
      <trkpt lat="48.37165" lon="2.78155">
        <ele>90.29</ele>
        <time>2020-10-08T14:48:59Z</time>
      </trkpt>
      <trkpt lat="48.37165" lon="2.78164">
        <ele>90.33</ele>
        <time>2020-10-08T14:49:04Z</time>
      </trkpt>
      <trkpt lat="48.37164" lon="2.78174">
        <ele>90.36</ele>
        <time>2020-10-08T14:49:09Z</time>
      </trkpt>
      <trkpt lat="48.37165" lon="2.78183">
        <ele>90.4</ele>
        <time>2020-10-08T14:49:14Z</time>
      </trkpt>
      <trkpt lat="48.37166" lon="2.78189">
        <ele>90.39</ele>
        <time>2020-10-08T14:49:19Z</time>
      </trkpt>
      <trkpt lat="48.37166" lon="2.78193">
        <ele>90.47</ele>
        <time>2020-10-08T14:49:24Z</time>
      </trkpt>
      <trkpt lat="48.37167" lon="2.78197">
        <ele>90.38</ele>
        <time>2020-10-08T14:49:29Z</time>
      </trkpt>
      <trkpt lat="48.37171" lon="2.782">
        <ele>90.27</ele>
        <time>2020-10-08T14:49:34Z</time>
      </trkpt>
      <trkpt lat="48.37174" lon="2.78202">
        <ele>90.19</ele>
        <time>2020-10-08T14:49:39Z</time>
      </trkpt>
      <trkpt lat="48.37178" lon="2.78203">
        <ele>89.96</ele>
        <time>2020-10-08T14:49:44Z</time>
      </trkpt>
      <trkpt lat="48.37178" lon="2.78203">
        <ele>89.75</ele>
        <time>2020-10-08T14:49:49Z</time>
      </trkpt>
      <trkpt lat="48.37177" lon="2.78202">
        <ele>89.81</ele>
        <time>2020-10-08T14:49:54Z</time>
      </trkpt>
      <trkpt lat="48.37176" lon="2.78202">
        <ele>89.85</ele>
        <time>2020-10-08T14:49:59Z</time>
      </trkpt>
      <trkpt lat="48.37175" lon="2.78202">
        <ele>89.89</ele>
        <time>2020-10-08T14:50:04Z</time>
      </trkpt>
      <trkpt lat="48.37174" lon="2.782">
        <ele>89.99</ele>
        <time>2020-10-08T14:50:09Z</time>
      </trkpt>
      <trkpt lat="48.37173" lon="2.78198">
        <ele>89.92</ele>
        <time>2020-10-08T14:50:14Z</time>
      </trkpt>
      <trkpt lat="48.37172" lon="2.78197">
        <ele>89.79</ele>
        <time>2020-10-08T14:50:19Z</time>
      </trkpt>
      <trkpt lat="48.37171" lon="2.78197">
        <ele>89.81</ele>
        <time>2020-10-08T14:50:24Z</time>
      </trkpt>
      <trkpt lat="48.37171" lon="2.78196">
        <ele>90.04</ele>
        <time>2020-10-08T14:50:29Z</time>
      </trkpt>
      <trkpt lat="48.37172" lon="2.78195">
        <ele>90.11</ele>
        <time>2020-10-08T14:50:34Z</time>
      </trkpt>
      <trkpt lat="48.37171" lon="2.78194">
        <ele>90.25</ele>
        <time>2020-10-08T14:50:39Z</time>
      </trkpt>
      <trkpt lat="48.37171" lon="2.78195">
        <ele>90.34</ele>
        <time>2020-10-08T14:50:44Z</time>
      </trkpt>
      <trkpt lat="48.3717" lon="2.78199">
        <ele>90.28</ele>
        <time>2020-10-08T14:50:49Z</time>
      </trkpt>
      <trkpt lat="48.37169" lon="2.78201">
        <ele>89.99</ele>
        <time>2020-10-08T14:50:54Z</time>
      </trkpt>
      <trkpt lat="48.37169" lon="2.78201">
        <ele>89.99</ele>
        <time>2020-10-08T14:50:59Z</time>
      </trkpt>
      <trkpt lat="48.3717" lon="2.782">
        <ele>89.99</ele>
        <time>2020-10-08T14:51:04Z</time>
      </trkpt>
      <trkpt lat="48.37169" lon="2.782">
        <ele>89.99</ele>
        <time>2020-10-08T14:51:09Z</time>
      </trkpt>
      <trkpt lat="48.3717" lon="2.78199">
        <ele>89.99</ele>
        <time>2020-10-08T14:51:14Z</time>
      </trkpt>
      <trkpt lat="48.37171" lon="2.78199">
        <ele>89.99</ele>
        <time>2020-10-08T14:51:19Z</time>
      </trkpt>
      <trkpt lat="48.37171" lon="2.78198">
        <ele>89.99</ele>
        <time>2020-10-08T14:51:24Z</time>
      </trkpt>
      <trkpt lat="48.37172" lon="2.78194">
        <ele>89.99</ele>
        <time>2020-10-08T14:51:29Z</time>
      </trkpt>
      <trkpt lat="48.37174" lon="2.78191">
        <ele>89.99</ele>
        <time>2020-10-08T14:51:34Z</time>
      </trkpt>
      <trkpt lat="48.37179" lon="2.7819">
        <ele>89.99</ele>
        <time>2020-10-08T14:51:39Z</time>
      </trkpt>
      <trkpt lat="48.37183" lon="2.78191">
        <ele>90.05</ele>
        <time>2020-10-08T14:51:44Z</time>
      </trkpt>
      <trkpt lat="48.37189" lon="2.78189">
        <ele>90.16</ele>
        <time>2020-10-08T14:51:49Z</time>
      </trkpt>
      <trkpt lat="48.37195" lon="2.78189">
        <ele>90.2</ele>
        <time>2020-10-08T14:51:54Z</time>
      </trkpt>
      <trkpt lat="48.37201" lon="2.78191">
        <ele>90.44</ele>
        <time>2020-10-08T14:51:59Z</time>
      </trkpt>
      <trkpt lat="48.37204" lon="2.78192">
        <ele>90.5</ele>
        <time>2020-10-08T14:52:04Z</time>
      </trkpt>
      <trkpt lat="48.37205" lon="2.78192">
        <ele>90.53</ele>
        <time>2020-10-08T14:52:09Z</time>
      </trkpt>
      <trkpt lat="48.37206" lon="2.78193">
        <ele>90.61</ele>
        <time>2020-10-08T14:52:14Z</time>
      </trkpt>
      <trkpt lat="48.37206" lon="2.78195">
        <ele>90.59</ele>
        <time>2020-10-08T14:52:19Z</time>
      </trkpt>
      <trkpt lat="48.37205" lon="2.78196">
        <ele>90.56</ele>
        <time>2020-10-08T14:52:24Z</time>
      </trkpt>
      <trkpt lat="48.372" lon="2.78198">
        <ele>90.42</ele>
        <time>2020-10-08T14:52:29Z</time>
      </trkpt>
      <trkpt lat="48.37195" lon="2.78199">
        <ele>90.27</ele>
        <time>2020-10-08T14:52:34Z</time>
      </trkpt>
      <trkpt lat="48.3719" lon="2.782">
        <ele>90.13</ele>
        <time>2020-10-08T14:52:39Z</time>
      </trkpt>
      <trkpt lat="48.37185" lon="2.78202">
        <ele>90.13</ele>
        <time>2020-10-08T14:52:44Z</time>
      </trkpt>
      <trkpt lat="48.37181" lon="2.78204">
        <ele>89.97</ele>
        <time>2020-10-08T14:52:49Z</time>
      </trkpt>
      <trkpt lat="48.37176" lon="2.78206">
        <ele>89.83</ele>
        <time>2020-10-08T14:52:54Z</time>
      </trkpt>
      <trkpt lat="48.37173" lon="2.78207">
        <ele>89.79</ele>
        <time>2020-10-08T14:52:59Z</time>
      </trkpt>
      <trkpt lat="48.37172" lon="2.78209">
        <ele>89.77</ele>
        <time>2020-10-08T14:53:04Z</time>
      </trkpt>
      <trkpt lat="48.37172" lon="2.7821">
        <ele>89.76</ele>
        <time>2020-10-08T14:53:09Z</time>
      </trkpt>
      <trkpt lat="48.37172" lon="2.78211">
        <ele>89.7</ele>
        <time>2020-10-08T14:53:14Z</time>
      </trkpt>
      <trkpt lat="48.3717" lon="2.78213">
        <ele>89.68</ele>
        <time>2020-10-08T14:53:19Z</time>
      </trkpt>
      <trkpt lat="48.37171" lon="2.78212">
        <ele>89.7</ele>
        <time>2020-10-08T14:53:24Z</time>
      </trkpt>
      <trkpt lat="48.3717" lon="2.78211">
        <ele>89.61</ele>
        <time>2020-10-08T14:53:29Z</time>
      </trkpt>
      <trkpt lat="48.3717" lon="2.78212">
        <ele>89.51</ele>
        <time>2020-10-08T14:53:34Z</time>
      </trkpt>
      <trkpt lat="48.37168" lon="2.78212">
        <ele>89.45</ele>
        <time>2020-10-08T14:53:39Z</time>
      </trkpt>
      <trkpt lat="48.37168" lon="2.78212">
        <ele>89.45</ele>
        <time>2020-10-08T14:53:44Z</time>
      </trkpt>
      <trkpt lat="48.37168" lon="2.78209">
        <ele>89.46</ele>
        <time>2020-10-08T14:53:49Z</time>
      </trkpt>
      <trkpt lat="48.37168" lon="2.78208">
        <ele>89.58</ele>
        <time>2020-10-08T14:53:54Z</time>
      </trkpt>
      <trkpt lat="48.37169" lon="2.78206">
        <ele>89.63</ele>
        <time>2020-10-08T14:53:59Z</time>
      </trkpt>
      <trkpt lat="48.37169" lon="2.78205">
        <ele>89.67</ele>
        <time>2020-10-08T14:54:04Z</time>
      </trkpt>
      <trkpt lat="48.37169" lon="2.78204">
        <ele>89.91</ele>
        <time>2020-10-08T14:54:09Z</time>
      </trkpt>
      <trkpt lat="48.37169" lon="2.78204">
        <ele>89.91</ele>
        <time>2020-10-08T14:54:14Z</time>
      </trkpt>
      <trkpt lat="48.37168" lon="2.78202">
        <ele>89.91</ele>
        <time>2020-10-08T14:54:19Z</time>
      </trkpt>
      <trkpt lat="48.37167" lon="2.782">
        <ele>89.91</ele>
        <time>2020-10-08T14:54:24Z</time>
      </trkpt>
      <trkpt lat="48.37167" lon="2.782">
        <ele>89.91</ele>
        <time>2020-10-08T14:54:29Z</time>
      </trkpt>
      <trkpt lat="48.37166" lon="2.782">
        <ele>89.91</ele>
        <time>2020-10-08T14:54:34Z</time>
      </trkpt>
      <trkpt lat="48.37164" lon="2.78201">
        <ele>89.91</ele>
        <time>2020-10-08T14:54:39Z</time>
      </trkpt>
      <trkpt lat="48.37162" lon="2.78201">
        <ele>89.91</ele>
        <time>2020-10-08T14:54:44Z</time>
      </trkpt>
      <trkpt lat="48.37162" lon="2.78202">
        <ele>89.91</ele>
        <time>2020-10-08T14:54:49Z</time>
      </trkpt>
      <trkpt lat="48.37161" lon="2.78203">
        <ele>89.91</ele>
        <time>2020-10-08T14:54:54Z</time>
      </trkpt>
      <trkpt lat="48.37162" lon="2.78203">
        <ele>89.91</ele>
        <time>2020-10-08T14:54:59Z</time>
      </trkpt>
      <trkpt lat="48.37164" lon="2.78204">
        <ele>89.91</ele>
        <time>2020-10-08T14:55:04Z</time>
      </trkpt>
      <trkpt lat="48.37165" lon="2.78203">
        <ele>89.91</ele>
        <time>2020-10-08T14:55:09Z</time>
      </trkpt>
      <trkpt lat="48.37166" lon="2.78201">
        <ele>89.91</ele>
        <time>2020-10-08T14:55:14Z</time>
      </trkpt>
      <trkpt lat="48.37168" lon="2.78199">
        <ele>89.91</ele>
        <time>2020-10-08T14:55:19Z</time>
      </trkpt>
      <trkpt lat="48.37169" lon="2.78199">
        <ele>89.91</ele>
        <time>2020-10-08T14:55:24Z</time>
      </trkpt>
      <trkpt lat="48.37168" lon="2.78199">
        <ele>89.91</ele>
        <time>2020-10-08T14:55:29Z</time>
      </trkpt>
      <trkpt lat="48.37167" lon="2.782">
        <ele>89.91</ele>
        <time>2020-10-08T14:55:34Z</time>
      </trkpt>
      <trkpt lat="48.37166" lon="2.78199">
        <ele>89.91</ele>
        <time>2020-10-08T14:55:39Z</time>
      </trkpt>
      <trkpt lat="48.37165" lon="2.78197">
        <ele>89.91</ele>
        <time>2020-10-08T14:55:44Z</time>
      </trkpt>
      <trkpt lat="48.37166" lon="2.78195">
        <ele>89.91</ele>
        <time>2020-10-08T14:55:49Z</time>
      </trkpt>
      <trkpt lat="48.37166" lon="2.78195">
        <ele>89.91</ele>
        <time>2020-10-08T14:55:54Z</time>
      </trkpt>
      <trkpt lat="48.37167" lon="2.78197">
        <ele>89.91</ele>
        <time>2020-10-08T14:55:59Z</time>
      </trkpt>
      <trkpt lat="48.37168" lon="2.782">
        <ele>89.91</ele>
        <time>2020-10-08T14:56:04Z</time>
      </trkpt>
      <trkpt lat="48.37167" lon="2.78204">
        <ele>89.91</ele>
        <time>2020-10-08T14:56:09Z</time>
      </trkpt>
      <trkpt lat="48.37166" lon="2.78205">
        <ele>89.91</ele>
        <time>2020-10-08T14:56:14Z</time>
      </trkpt>
      <trkpt lat="48.37167" lon="2.78206">
        <ele>89.91</ele>
        <time>2020-10-08T14:56:19Z</time>
      </trkpt>
      <trkpt lat="48.37167" lon="2.78207">
        <ele>89.91</ele>
        <time>2020-10-08T14:56:24Z</time>
      </trkpt>
      <trkpt lat="48.37167" lon="2.78212">
        <ele>89.91</ele>
        <time>2020-10-08T14:56:29Z</time>
      </trkpt>
      <trkpt lat="48.37168" lon="2.78219">
        <ele>89.91</ele>
        <time>2020-10-08T14:56:34Z</time>
      </trkpt>
      <trkpt lat="48.37174" lon="2.78225">
        <ele>89.91</ele>
        <time>2020-10-08T14:56:39Z</time>
      </trkpt>
      <trkpt lat="48.37179" lon="2.78229">
        <ele>89.91</ele>
        <time>2020-10-08T14:56:44Z</time>
      </trkpt>
      <trkpt lat="48.37183" lon="2.78234">
        <ele>89.81</ele>
        <time>2020-10-08T14:56:49Z</time>
      </trkpt>
      <trkpt lat="48.37186" lon="2.78239">
        <ele>89.59</ele>
        <time>2020-10-08T14:56:54Z</time>
      </trkpt>
      <trkpt lat="48.37187" lon="2.78243">
        <ele>89.49</ele>
        <time>2020-10-08T14:56:59Z</time>
      </trkpt>
      <trkpt lat="48.37191" lon="2.78248">
        <ele>89.61</ele>
        <time>2020-10-08T14:57:04Z</time>
      </trkpt>
      <trkpt lat="48.37192" lon="2.78253">
        <ele>89.63</ele>
        <time>2020-10-08T14:57:09Z</time>
      </trkpt>
      <trkpt lat="48.37195" lon="2.78258">
        <ele>89.58</ele>
        <time>2020-10-08T14:57:14Z</time>
      </trkpt>
      <trkpt lat="48.37198" lon="2.78265">
        <ele>89.48</ele>
        <time>2020-10-08T14:57:19Z</time>
      </trkpt>
      <trkpt lat="48.37201" lon="2.78273">
        <ele>89.5</ele>
        <time>2020-10-08T14:57:24Z</time>
      </trkpt>
      <trkpt lat="48.37204" lon="2.78279">
        <ele>89.73</ele>
        <time>2020-10-08T14:57:29Z</time>
      </trkpt>
      <trkpt lat="48.37207" lon="2.78285">
        <ele>89.74</ele>
        <time>2020-10-08T14:57:34Z</time>
      </trkpt>
      <trkpt lat="48.37211" lon="2.78293">
        <ele>89.72</ele>
        <time>2020-10-08T14:57:39Z</time>
      </trkpt>
      <trkpt lat="48.37212" lon="2.78299">
        <ele>89.72</ele>
        <time>2020-10-08T14:57:44Z</time>
      </trkpt>
      <trkpt lat="48.37215" lon="2.78305">
        <ele>89.9</ele>
        <time>2020-10-08T14:57:49Z</time>
      </trkpt>
      <trkpt lat="48.37218" lon="2.78312">
        <ele>89.96</ele>
        <time>2020-10-08T14:57:54Z</time>
      </trkpt>
      <trkpt lat="48.37221" lon="2.78318">
        <ele>89.96</ele>
        <time>2020-10-08T14:57:59Z</time>
      </trkpt>
      <trkpt lat="48.37225" lon="2.78324">
        <ele>89.92</ele>
        <time>2020-10-08T14:58:04Z</time>
      </trkpt>
      <trkpt lat="48.37228" lon="2.78328">
        <ele>90.03</ele>
        <time>2020-10-08T14:58:09Z</time>
      </trkpt>
      <trkpt lat="48.37232" lon="2.78334">
        <ele>90.32</ele>
        <time>2020-10-08T14:58:14Z</time>
      </trkpt>
      <trkpt lat="48.37235" lon="2.78339">
        <ele>90.42</ele>
        <time>2020-10-08T14:58:19Z</time>
      </trkpt>
      <trkpt lat="48.37238" lon="2.78344">
        <ele>90.57</ele>
        <time>2020-10-08T14:58:24Z</time>
      </trkpt>
      <trkpt lat="48.37242" lon="2.7835">
        <ele>90.76</ele>
        <time>2020-10-08T14:58:29Z</time>
      </trkpt>
      <trkpt lat="48.37246" lon="2.78355">
        <ele>91.15</ele>
        <time>2020-10-08T14:58:34Z</time>
      </trkpt>
      <trkpt lat="48.37249" lon="2.78359">
        <ele>91.45</ele>
        <time>2020-10-08T14:58:39Z</time>
      </trkpt>
      <trkpt lat="48.37253" lon="2.78366">
        <ele>91.73</ele>
        <time>2020-10-08T14:58:44Z</time>
      </trkpt>
      <trkpt lat="48.37258" lon="2.78372">
        <ele>91.91</ele>
        <time>2020-10-08T14:58:49Z</time>
      </trkpt>
      <trkpt lat="48.37261" lon="2.78377">
        <ele>92.13</ele>
        <time>2020-10-08T14:58:54Z</time>
      </trkpt>
      <trkpt lat="48.37264" lon="2.78383">
        <ele>92.4</ele>
        <time>2020-10-08T14:58:59Z</time>
      </trkpt>
      <trkpt lat="48.37267" lon="2.78387">
        <ele>92.88</ele>
        <time>2020-10-08T14:59:04Z</time>
      </trkpt>
      <trkpt lat="48.37269" lon="2.78392">
        <ele>93.21</ele>
        <time>2020-10-08T14:59:09Z</time>
      </trkpt>
      <trkpt lat="48.37271" lon="2.78399">
        <ele>93.43</ele>
        <time>2020-10-08T14:59:14Z</time>
      </trkpt>
      <trkpt lat="48.37273" lon="2.78405">
        <ele>93.17</ele>
        <time>2020-10-08T14:59:19Z</time>
      </trkpt>
      <trkpt lat="48.37275" lon="2.7841">
        <ele>92.89</ele>
        <time>2020-10-08T14:59:24Z</time>
      </trkpt>
      <trkpt lat="48.37278" lon="2.78416">
        <ele>92.78</ele>
        <time>2020-10-08T14:59:29Z</time>
      </trkpt>
      <trkpt lat="48.3728" lon="2.78424">
        <ele>92.6</ele>
        <time>2020-10-08T14:59:34Z</time>
      </trkpt>
      <trkpt lat="48.37282" lon="2.78431">
        <ele>92.42</ele>
        <time>2020-10-08T14:59:39Z</time>
      </trkpt>
      <trkpt lat="48.37282" lon="2.78438">
        <ele>92.15</ele>
        <time>2020-10-08T14:59:44Z</time>
      </trkpt>
      <trkpt lat="48.37283" lon="2.78441">
        <ele>92</ele>
        <time>2020-10-08T14:59:49Z</time>
      </trkpt>
      <trkpt lat="48.37285" lon="2.78447">
        <ele>91.86</ele>
        <time>2020-10-08T14:59:54Z</time>
      </trkpt>
      <trkpt lat="48.37287" lon="2.78453">
        <ele>91.8</ele>
        <time>2020-10-08T14:59:59Z</time>
      </trkpt>
      <trkpt lat="48.37289" lon="2.78462">
        <ele>91.7</ele>
        <time>2020-10-08T15:00:04Z</time>
      </trkpt>
      <trkpt lat="48.37288" lon="2.78472">
        <ele>91.67</ele>
        <time>2020-10-08T15:00:09Z</time>
      </trkpt>
      <trkpt lat="48.37287" lon="2.78482">
        <ele>91.67</ele>
        <time>2020-10-08T15:00:14Z</time>
      </trkpt>
      <trkpt lat="48.37288" lon="2.78489">
        <ele>91.72</ele>
        <time>2020-10-08T15:00:19Z</time>
      </trkpt>
      <trkpt lat="48.37287" lon="2.78498">
        <ele>91.77</ele>
        <time>2020-10-08T15:00:24Z</time>
      </trkpt>
      <trkpt lat="48.37287" lon="2.78506">
        <ele>91.85</ele>
        <time>2020-10-08T15:00:29Z</time>
      </trkpt>
      <trkpt lat="48.3729" lon="2.78516">
        <ele>91.88</ele>
        <time>2020-10-08T15:00:34Z</time>
      </trkpt>
      <trkpt lat="48.37291" lon="2.78524">
        <ele>91.9</ele>
        <time>2020-10-08T15:00:39Z</time>
      </trkpt>
      <trkpt lat="48.37293" lon="2.78533">
        <ele>91.93</ele>
        <time>2020-10-08T15:00:44Z</time>
      </trkpt>
      <trkpt lat="48.37295" lon="2.7854">
        <ele>92.03</ele>
        <time>2020-10-08T15:00:49Z</time>
      </trkpt>
      <trkpt lat="48.37296" lon="2.78548">
        <ele>92.02</ele>
        <time>2020-10-08T15:00:54Z</time>
      </trkpt>
      <trkpt lat="48.37298" lon="2.78555">
        <ele>91.97</ele>
        <time>2020-10-08T15:00:59Z</time>
      </trkpt>
      <trkpt lat="48.373" lon="2.78561">
        <ele>91.95</ele>
        <time>2020-10-08T15:01:04Z</time>
      </trkpt>
      <trkpt lat="48.37302" lon="2.78569">
        <ele>91.92</ele>
        <time>2020-10-08T15:01:09Z</time>
      </trkpt>
      <trkpt lat="48.37304" lon="2.78577">
        <ele>91.95</ele>
        <time>2020-10-08T15:01:14Z</time>
      </trkpt>
      <trkpt lat="48.37307" lon="2.78586">
        <ele>92.07</ele>
        <time>2020-10-08T15:01:19Z</time>
      </trkpt>
      <trkpt lat="48.37308" lon="2.78595">
        <ele>92.07</ele>
        <time>2020-10-08T15:01:24Z</time>
      </trkpt>
      <trkpt lat="48.37309" lon="2.78604">
        <ele>92.14</ele>
        <time>2020-10-08T15:01:29Z</time>
      </trkpt>
      <trkpt lat="48.3731" lon="2.78612">
        <ele>92.14</ele>
        <time>2020-10-08T15:01:34Z</time>
      </trkpt>
      <trkpt lat="48.37311" lon="2.78621">
        <ele>92.15</ele>
        <time>2020-10-08T15:01:39Z</time>
      </trkpt>
      <trkpt lat="48.37313" lon="2.78629">
        <ele>92.08</ele>
        <time>2020-10-08T15:01:44Z</time>
      </trkpt>
      <trkpt lat="48.37315" lon="2.78636">
        <ele>91.95</ele>
        <time>2020-10-08T15:01:49Z</time>
      </trkpt>
      <trkpt lat="48.37316" lon="2.78643">
        <ele>92</ele>
        <time>2020-10-08T15:01:54Z</time>
      </trkpt>
      <trkpt lat="48.37316" lon="2.78651">
        <ele>92.07</ele>
        <time>2020-10-08T15:01:59Z</time>
      </trkpt>
      <trkpt lat="48.37319" lon="2.78658">
        <ele>92.05</ele>
        <time>2020-10-08T15:02:04Z</time>
      </trkpt>
      <trkpt lat="48.37321" lon="2.78665">
        <ele>92.05</ele>
        <time>2020-10-08T15:02:09Z</time>
      </trkpt>
      <trkpt lat="48.37324" lon="2.78672">
        <ele>92.14</ele>
        <time>2020-10-08T15:02:14Z</time>
      </trkpt>
      <trkpt lat="48.37326" lon="2.78679">
        <ele>92.2</ele>
        <time>2020-10-08T15:02:19Z</time>
      </trkpt>
      <trkpt lat="48.37328" lon="2.78687">
        <ele>92.16</ele>
        <time>2020-10-08T15:02:24Z</time>
      </trkpt>
      <trkpt lat="48.3733" lon="2.78694">
        <ele>92.1</ele>
        <time>2020-10-08T15:02:29Z</time>
      </trkpt>
      <trkpt lat="48.37332" lon="2.787">
        <ele>92</ele>
        <time>2020-10-08T15:02:34Z</time>
      </trkpt>
      <trkpt lat="48.37334" lon="2.78707">
        <ele>91.96</ele>
        <time>2020-10-08T15:02:39Z</time>
      </trkpt>
      <trkpt lat="48.37337" lon="2.78714">
        <ele>92.14</ele>
        <time>2020-10-08T15:02:44Z</time>
      </trkpt>
      <trkpt lat="48.3734" lon="2.78721">
        <ele>92.33</ele>
        <time>2020-10-08T15:02:49Z</time>
      </trkpt>
      <trkpt lat="48.37344" lon="2.78728">
        <ele>92.41</ele>
        <time>2020-10-08T15:02:54Z</time>
      </trkpt>
      <trkpt lat="48.37346" lon="2.78735">
        <ele>92.5</ele>
        <time>2020-10-08T15:02:59Z</time>
      </trkpt>
      <trkpt lat="48.37343" lon="2.78742">
        <ele>92.71</ele>
        <time>2020-10-08T15:03:04Z</time>
      </trkpt>
      <trkpt lat="48.3734" lon="2.78748">
        <ele>92.56</ele>
        <time>2020-10-08T15:03:09Z</time>
      </trkpt>
      <trkpt lat="48.37335" lon="2.78752">
        <ele>92.2</ele>
        <time>2020-10-08T15:03:14Z</time>
      </trkpt>
      <trkpt lat="48.37332" lon="2.78755">
        <ele>91.01</ele>
        <time>2020-10-08T15:03:19Z</time>
      </trkpt>
      <trkpt lat="48.3733" lon="2.78758">
        <ele>90.1</ele>
        <time>2020-10-08T15:03:24Z</time>
      </trkpt>
      <trkpt lat="48.37329" lon="2.78759">
        <ele>89.5</ele>
        <time>2020-10-08T15:03:29Z</time>
      </trkpt>
      <trkpt lat="48.37328" lon="2.78761">
        <ele>89.41</ele>
        <time>2020-10-08T15:03:34Z</time>
      </trkpt>
      <trkpt lat="48.3732" lon="2.78758">
        <ele>89.37</ele>
        <time>2020-10-08T15:03:39Z</time>
      </trkpt>
      <trkpt lat="48.37332" lon="2.78753">
        <ele>89.38</ele>
        <time>2020-10-08T15:03:44Z</time>
      </trkpt>
      <trkpt lat="48.37343" lon="2.78775">
        <ele>90.12</ele>
        <time>2020-10-08T15:03:49Z</time>
      </trkpt>
      <trkpt lat="48.37352" lon="2.78788">
        <ele>90.89</ele>
        <time>2020-10-08T15:03:54Z</time>
      </trkpt>
      <trkpt lat="48.37357" lon="2.78785">
        <ele>91.99</ele>
        <time>2020-10-08T15:03:59Z</time>
      </trkpt>
      <trkpt lat="48.37359" lon="2.78784">
        <ele>92.89</ele>
        <time>2020-10-08T15:04:04Z</time>
      </trkpt>
      <trkpt lat="48.37359" lon="2.78786">
        <ele>93.01</ele>
        <time>2020-10-08T15:04:09Z</time>
      </trkpt>
      <trkpt lat="48.37357" lon="2.78791">
        <ele>92.82</ele>
        <time>2020-10-08T15:04:14Z</time>
      </trkpt>
      <trkpt lat="48.37356" lon="2.78793">
        <ele>92.68</ele>
        <time>2020-10-08T15:04:19Z</time>
      </trkpt>
      <trkpt lat="48.37356" lon="2.78795">
        <ele>92.63</ele>
        <time>2020-10-08T15:04:24Z</time>
      </trkpt>
      <trkpt lat="48.37356" lon="2.78795">
        <ele>92.63</ele>
        <time>2020-10-08T15:04:29Z</time>
      </trkpt>
      <trkpt lat="48.37354" lon="2.788">
        <ele>92.64</ele>
        <time>2020-10-08T15:04:34Z</time>
      </trkpt>
      <trkpt lat="48.3735" lon="2.78806">
        <ele>92.62</ele>
        <time>2020-10-08T15:04:39Z</time>
      </trkpt>
      <trkpt lat="48.37346" lon="2.78811">
        <ele>92.67</ele>
        <time>2020-10-08T15:04:44Z</time>
      </trkpt>
      <trkpt lat="48.37342" lon="2.78815">
        <ele>92.66</ele>
        <time>2020-10-08T15:04:49Z</time>
      </trkpt>
      <trkpt lat="48.37338" lon="2.78819">
        <ele>92.71</ele>
        <time>2020-10-08T15:04:54Z</time>
      </trkpt>
      <trkpt lat="48.37334" lon="2.78824">
        <ele>92.82</ele>
        <time>2020-10-08T15:04:59Z</time>
      </trkpt>
      <trkpt lat="48.3733" lon="2.78827">
        <ele>92.54</ele>
        <time>2020-10-08T15:05:04Z</time>
      </trkpt>
      <trkpt lat="48.37325" lon="2.78831">
        <ele>92.52</ele>
        <time>2020-10-08T15:05:09Z</time>
      </trkpt>
      <trkpt lat="48.37321" lon="2.78836">
        <ele>92.65</ele>
        <time>2020-10-08T15:05:14Z</time>
      </trkpt>
      <trkpt lat="48.37318" lon="2.78842">
        <ele>92.69</ele>
        <time>2020-10-08T15:05:19Z</time>
      </trkpt>
      <trkpt lat="48.37314" lon="2.78847">
        <ele>92.68</ele>
        <time>2020-10-08T15:05:24Z</time>
      </trkpt>
      <trkpt lat="48.37311" lon="2.78853">
        <ele>92.65</ele>
        <time>2020-10-08T15:05:29Z</time>
      </trkpt>
      <trkpt lat="48.37307" lon="2.78859">
        <ele>92.5</ele>
        <time>2020-10-08T15:05:34Z</time>
      </trkpt>
      <trkpt lat="48.37303" lon="2.78866">
        <ele>92.4</ele>
        <time>2020-10-08T15:05:39Z</time>
      </trkpt>
      <trkpt lat="48.373" lon="2.7887">
        <ele>92.36</ele>
        <time>2020-10-08T15:05:44Z</time>
      </trkpt>
      <trkpt lat="48.37296" lon="2.78873">
        <ele>92.49</ele>
        <time>2020-10-08T15:05:49Z</time>
      </trkpt>
      <trkpt lat="48.37293" lon="2.78878">
        <ele>92.6</ele>
        <time>2020-10-08T15:05:54Z</time>
      </trkpt>
      <trkpt lat="48.37291" lon="2.78881">
        <ele>92.64</ele>
        <time>2020-10-08T15:05:59Z</time>
      </trkpt>
      <trkpt lat="48.37287" lon="2.78885">
        <ele>92.5</ele>
        <time>2020-10-08T15:06:04Z</time>
      </trkpt>
      <trkpt lat="48.37284" lon="2.7889">
        <ele>92.24</ele>
        <time>2020-10-08T15:06:09Z</time>
      </trkpt>
      <trkpt lat="48.3728" lon="2.78896">
        <ele>92.23</ele>
        <time>2020-10-08T15:06:14Z</time>
      </trkpt>
      <trkpt lat="48.37275" lon="2.78902">
        <ele>92.13</ele>
        <time>2020-10-08T15:06:19Z</time>
      </trkpt>
      <trkpt lat="48.37272" lon="2.78908">
        <ele>92.09</ele>
        <time>2020-10-08T15:06:24Z</time>
      </trkpt>
      <trkpt lat="48.37267" lon="2.78915">
        <ele>92.03</ele>
        <time>2020-10-08T15:06:29Z</time>
      </trkpt>
      <trkpt lat="48.37265" lon="2.78921">
        <ele>92.02</ele>
        <time>2020-10-08T15:06:34Z</time>
      </trkpt>
      <trkpt lat="48.37261" lon="2.78927">
        <ele>92.02</ele>
        <time>2020-10-08T15:06:39Z</time>
      </trkpt>
      <trkpt lat="48.37257" lon="2.78933">
        <ele>92.02</ele>
        <time>2020-10-08T15:06:44Z</time>
      </trkpt>
      <trkpt lat="48.37252" lon="2.78939">
        <ele>91.91</ele>
        <time>2020-10-08T15:06:49Z</time>
      </trkpt>
      <trkpt lat="48.37248" lon="2.78944">
        <ele>91.9</ele>
        <time>2020-10-08T15:06:54Z</time>
      </trkpt>
      <trkpt lat="48.37243" lon="2.78951">
        <ele>92.01</ele>
        <time>2020-10-08T15:06:59Z</time>
      </trkpt>
      <trkpt lat="48.37241" lon="2.78954">
        <ele>92.04</ele>
        <time>2020-10-08T15:07:04Z</time>
      </trkpt>
      <trkpt lat="48.37239" lon="2.78959">
        <ele>92.04</ele>
        <time>2020-10-08T15:07:09Z</time>
      </trkpt>
      <trkpt lat="48.37237" lon="2.78963">
        <ele>92.04</ele>
        <time>2020-10-08T15:07:14Z</time>
      </trkpt>
      <trkpt lat="48.37234" lon="2.78968">
        <ele>92.04</ele>
        <time>2020-10-08T15:07:19Z</time>
      </trkpt>
      <trkpt lat="48.37232" lon="2.78973">
        <ele>92.04</ele>
        <time>2020-10-08T15:07:24Z</time>
      </trkpt>
      <trkpt lat="48.37227" lon="2.78977">
        <ele>92.04</ele>
        <time>2020-10-08T15:07:29Z</time>
      </trkpt>
      <trkpt lat="48.37223" lon="2.7898">
        <ele>92.04</ele>
        <time>2020-10-08T15:07:34Z</time>
      </trkpt>
      <trkpt lat="48.37219" lon="2.78984">
        <ele>92.04</ele>
        <time>2020-10-08T15:07:39Z</time>
      </trkpt>
      <trkpt lat="48.37216" lon="2.7899">
        <ele>92.04</ele>
        <time>2020-10-08T15:07:44Z</time>
      </trkpt>
      <trkpt lat="48.37212" lon="2.78996">
        <ele>92.04</ele>
        <time>2020-10-08T15:07:49Z</time>
      </trkpt>
      <trkpt lat="48.37208" lon="2.79001">
        <ele>91.88</ele>
        <time>2020-10-08T15:07:54Z</time>
      </trkpt>
      <trkpt lat="48.37206" lon="2.79005">
        <ele>91.84</ele>
        <time>2020-10-08T15:07:59Z</time>
      </trkpt>
      <trkpt lat="48.37201" lon="2.79011">
        <ele>91.82</ele>
        <time>2020-10-08T15:08:04Z</time>
      </trkpt>
      <trkpt lat="48.37197" lon="2.79015">
        <ele>91.78</ele>
        <time>2020-10-08T15:08:09Z</time>
      </trkpt>
      <trkpt lat="48.37195" lon="2.79021">
        <ele>91.72</ele>
        <time>2020-10-08T15:08:14Z</time>
      </trkpt>
      <trkpt lat="48.37191" lon="2.79026">
        <ele>91.64</ele>
        <time>2020-10-08T15:08:19Z</time>
      </trkpt>
      <trkpt lat="48.37187" lon="2.79032">
        <ele>91.64</ele>
        <time>2020-10-08T15:08:24Z</time>
      </trkpt>
      <trkpt lat="48.37184" lon="2.79037">
        <ele>91.66</ele>
        <time>2020-10-08T15:08:29Z</time>
      </trkpt>
      <trkpt lat="48.37183" lon="2.79042">
        <ele>91.61</ele>
        <time>2020-10-08T15:08:34Z</time>
      </trkpt>
      <trkpt lat="48.37178" lon="2.79049">
        <ele>91.5</ele>
        <time>2020-10-08T15:08:39Z</time>
      </trkpt>
      <trkpt lat="48.37175" lon="2.79055">
        <ele>91.36</ele>
        <time>2020-10-08T15:08:44Z</time>
      </trkpt>
      <trkpt lat="48.37171" lon="2.79059">
        <ele>91.26</ele>
        <time>2020-10-08T15:08:49Z</time>
      </trkpt>
      <trkpt lat="48.37166" lon="2.79064">
        <ele>91.3</ele>
        <time>2020-10-08T15:08:54Z</time>
      </trkpt>
      <trkpt lat="48.37162" lon="2.79068">
        <ele>91.5</ele>
        <time>2020-10-08T15:08:59Z</time>
      </trkpt>
      <trkpt lat="48.37158" lon="2.79071">
        <ele>91.79</ele>
        <time>2020-10-08T15:09:04Z</time>
      </trkpt>
      <trkpt lat="48.37156" lon="2.79074">
        <ele>91.98</ele>
        <time>2020-10-08T15:09:09Z</time>
      </trkpt>
      <trkpt lat="48.37152" lon="2.79079">
        <ele>92</ele>
        <time>2020-10-08T15:09:14Z</time>
      </trkpt>
      <trkpt lat="48.3715" lon="2.79086">
        <ele>91.95</ele>
        <time>2020-10-08T15:09:19Z</time>
      </trkpt>
      <trkpt lat="48.37147" lon="2.79092">
        <ele>91.97</ele>
        <time>2020-10-08T15:09:24Z</time>
      </trkpt>
      <trkpt lat="48.37143" lon="2.79098">
        <ele>91.82</ele>
        <time>2020-10-08T15:09:29Z</time>
      </trkpt>
      <trkpt lat="48.37139" lon="2.79106">
        <ele>91.63</ele>
        <time>2020-10-08T15:09:34Z</time>
      </trkpt>
      <trkpt lat="48.37135" lon="2.79112">
        <ele>91.75</ele>
        <time>2020-10-08T15:09:39Z</time>
      </trkpt>
      <trkpt lat="48.37131" lon="2.79118">
        <ele>91.81</ele>
        <time>2020-10-08T15:09:44Z</time>
      </trkpt>
      <trkpt lat="48.37127" lon="2.79124">
        <ele>91.6</ele>
        <time>2020-10-08T15:09:49Z</time>
      </trkpt>
      <trkpt lat="48.37124" lon="2.79129">
        <ele>91.48</ele>
        <time>2020-10-08T15:09:54Z</time>
      </trkpt>
      <trkpt lat="48.37122" lon="2.79132">
        <ele>91.38</ele>
        <time>2020-10-08T15:09:59Z</time>
      </trkpt>
      <trkpt lat="48.37121" lon="2.79135">
        <ele>91.19</ele>
        <time>2020-10-08T15:10:04Z</time>
      </trkpt>
      <trkpt lat="48.37116" lon="2.79141">
        <ele>91.2</ele>
        <time>2020-10-08T15:10:09Z</time>
      </trkpt>
      <trkpt lat="48.37112" lon="2.79147">
        <ele>91.18</ele>
        <time>2020-10-08T15:10:14Z</time>
      </trkpt>
      <trkpt lat="48.37107" lon="2.79154">
        <ele>91.1</ele>
        <time>2020-10-08T15:10:19Z</time>
      </trkpt>
      <trkpt lat="48.37105" lon="2.79159">
        <ele>90.91</ele>
        <time>2020-10-08T15:10:24Z</time>
      </trkpt>
      <trkpt lat="48.37105" lon="2.7916">
        <ele>90.87</ele>
        <time>2020-10-08T15:10:29Z</time>
      </trkpt>
      <trkpt lat="48.37102" lon="2.79166">
        <ele>90.74</ele>
        <time>2020-10-08T15:10:34Z</time>
      </trkpt>
      <trkpt lat="48.37097" lon="2.79172">
        <ele>90.47</ele>
        <time>2020-10-08T15:10:39Z</time>
      </trkpt>
      <trkpt lat="48.37093" lon="2.7918">
        <ele>90.35</ele>
        <time>2020-10-08T15:10:44Z</time>
      </trkpt>
      <trkpt lat="48.3709" lon="2.79186">
        <ele>90.41</ele>
        <time>2020-10-08T15:10:49Z</time>
      </trkpt>
      <trkpt lat="48.37091" lon="2.79192">
        <ele>90.54</ele>
        <time>2020-10-08T15:10:54Z</time>
      </trkpt>
      <trkpt lat="48.37094" lon="2.79199">
        <ele>90.76</ele>
        <time>2020-10-08T15:10:59Z</time>
      </trkpt>
      <trkpt lat="48.37098" lon="2.79204">
        <ele>90.89</ele>
        <time>2020-10-08T15:11:04Z</time>
      </trkpt>
      <trkpt lat="48.37101" lon="2.79208">
        <ele>90.86</ele>
        <time>2020-10-08T15:11:09Z</time>
      </trkpt>
      <trkpt lat="48.37105" lon="2.79215">
        <ele>90.73</ele>
        <time>2020-10-08T15:11:14Z</time>
      </trkpt>
      <trkpt lat="48.37106" lon="2.79222">
        <ele>90.6</ele>
        <time>2020-10-08T15:11:19Z</time>
      </trkpt>
      <trkpt lat="48.37108" lon="2.79229">
        <ele>90.61</ele>
        <time>2020-10-08T15:11:24Z</time>
      </trkpt>
      <trkpt lat="48.37111" lon="2.79235">
        <ele>90.63</ele>
        <time>2020-10-08T15:11:29Z</time>
      </trkpt>
      <trkpt lat="48.37114" lon="2.79241">
        <ele>90.8</ele>
        <time>2020-10-08T15:11:34Z</time>
      </trkpt>
      <trkpt lat="48.37114" lon="2.79245">
        <ele>90.99</ele>
        <time>2020-10-08T15:11:39Z</time>
      </trkpt>
      <trkpt lat="48.37116" lon="2.79254">
        <ele>90.63</ele>
        <time>2020-10-08T15:11:44Z</time>
      </trkpt>
      <trkpt lat="48.37121" lon="2.79259">
        <ele>90.43</ele>
        <time>2020-10-08T15:11:49Z</time>
      </trkpt>
      <trkpt lat="48.37125" lon="2.79262">
        <ele>90.41</ele>
        <time>2020-10-08T15:11:54Z</time>
      </trkpt>
      <trkpt lat="48.37127" lon="2.79269">
        <ele>90.44</ele>
        <time>2020-10-08T15:11:59Z</time>
      </trkpt>
      <trkpt lat="48.3713" lon="2.79275">
        <ele>90.49</ele>
        <time>2020-10-08T15:12:04Z</time>
      </trkpt>
      <trkpt lat="48.37131" lon="2.79281">
        <ele>90.52</ele>
        <time>2020-10-08T15:12:09Z</time>
      </trkpt>
      <trkpt lat="48.37133" lon="2.79289">
        <ele>90.42</ele>
        <time>2020-10-08T15:12:14Z</time>
      </trkpt>
      <trkpt lat="48.37135" lon="2.79296">
        <ele>90.42</ele>
        <time>2020-10-08T15:12:19Z</time>
      </trkpt>
      <trkpt lat="48.37136" lon="2.79306">
        <ele>90.54</ele>
        <time>2020-10-08T15:12:24Z</time>
      </trkpt>
      <trkpt lat="48.37138" lon="2.79314">
        <ele>90.57</ele>
        <time>2020-10-08T15:12:29Z</time>
      </trkpt>
      <trkpt lat="48.3714" lon="2.79323">
        <ele>90.55</ele>
        <time>2020-10-08T15:12:34Z</time>
      </trkpt>
      <trkpt lat="48.37141" lon="2.79331">
        <ele>90.47</ele>
        <time>2020-10-08T15:12:39Z</time>
      </trkpt>
      <trkpt lat="48.37142" lon="2.79338">
        <ele>90.47</ele>
        <time>2020-10-08T15:12:44Z</time>
      </trkpt>
      <trkpt lat="48.37142" lon="2.79346">
        <ele>90.47</ele>
        <time>2020-10-08T15:12:49Z</time>
      </trkpt>
      <trkpt lat="48.37144" lon="2.79355">
        <ele>90.43</ele>
        <time>2020-10-08T15:12:54Z</time>
      </trkpt>
      <trkpt lat="48.37147" lon="2.79364">
        <ele>90.39</ele>
        <time>2020-10-08T15:12:59Z</time>
      </trkpt>
      <trkpt lat="48.37149" lon="2.79372">
        <ele>90.4</ele>
        <time>2020-10-08T15:13:04Z</time>
      </trkpt>
      <trkpt lat="48.3715" lon="2.79377">
        <ele>90.36</ele>
        <time>2020-10-08T15:13:09Z</time>
      </trkpt>
      <trkpt lat="48.37151" lon="2.79385">
        <ele>90.38</ele>
        <time>2020-10-08T15:13:14Z</time>
      </trkpt>
      <trkpt lat="48.3715" lon="2.79394">
        <ele>90.43</ele>
        <time>2020-10-08T15:13:19Z</time>
      </trkpt>
      <trkpt lat="48.3715" lon="2.79398">
        <ele>90.64</ele>
        <time>2020-10-08T15:13:24Z</time>
      </trkpt>
      <trkpt lat="48.37151" lon="2.79404">
        <ele>90.64</ele>
        <time>2020-10-08T15:13:29Z</time>
      </trkpt>
      <trkpt lat="48.37152" lon="2.79409">
        <ele>90.64</ele>
        <time>2020-10-08T15:13:34Z</time>
      </trkpt>
      <trkpt lat="48.37152" lon="2.79417">
        <ele>90.64</ele>
        <time>2020-10-08T15:13:39Z</time>
      </trkpt>
      <trkpt lat="48.37153" lon="2.79424">
        <ele>90.64</ele>
        <time>2020-10-08T15:13:44Z</time>
      </trkpt>
      <trkpt lat="48.37153" lon="2.79432">
        <ele>90.15</ele>
        <time>2020-10-08T15:13:49Z</time>
      </trkpt>
      <trkpt lat="48.37154" lon="2.79438">
        <ele>89.99</ele>
        <time>2020-10-08T15:13:54Z</time>
      </trkpt>
      <trkpt lat="48.37155" lon="2.79445">
        <ele>90.09</ele>
        <time>2020-10-08T15:13:59Z</time>
      </trkpt>
      <trkpt lat="48.37155" lon="2.79452">
        <ele>89.91</ele>
        <time>2020-10-08T15:14:04Z</time>
      </trkpt>
      <trkpt lat="48.37154" lon="2.7946">
        <ele>89.58</ele>
        <time>2020-10-08T15:14:09Z</time>
      </trkpt>
      <trkpt lat="48.37155" lon="2.79466">
        <ele>89.27</ele>
        <time>2020-10-08T15:14:14Z</time>
      </trkpt>
      <trkpt lat="48.37156" lon="2.79472">
        <ele>88.99</ele>
        <time>2020-10-08T15:14:19Z</time>
      </trkpt>
      <trkpt lat="48.37155" lon="2.79478">
        <ele>88.84</ele>
        <time>2020-10-08T15:14:24Z</time>
      </trkpt>
      <trkpt lat="48.37154" lon="2.79478">
        <ele>88.87</ele>
        <time>2020-10-08T15:14:29Z</time>
      </trkpt>
      <trkpt lat="48.37152" lon="2.7948">
        <ele>88.92</ele>
        <time>2020-10-08T15:14:34Z</time>
      </trkpt>
      <trkpt lat="48.37151" lon="2.79481">
        <ele>88.93</ele>
        <time>2020-10-08T15:14:39Z</time>
      </trkpt>
      <trkpt lat="48.3715" lon="2.79481">
        <ele>88.98</ele>
        <time>2020-10-08T15:14:44Z</time>
      </trkpt>
      <trkpt lat="48.37143" lon="2.79481">
        <ele>89.03</ele>
        <time>2020-10-08T15:14:49Z</time>
      </trkpt>
      <trkpt lat="48.37139" lon="2.79485">
        <ele>89.03</ele>
        <time>2020-10-08T15:14:53Z</time>
      </trkpt>
      <trkpt lat="48.37138" lon="2.79492">
        <ele>89.07</ele>
        <time>2020-10-08T15:14:59Z</time>
      </trkpt>
      <trkpt lat="48.37136" lon="2.79495">
        <ele>88.96</ele>
        <time>2020-10-08T15:15:04Z</time>
      </trkpt>
      <trkpt lat="48.37133" lon="2.79502">
        <ele>88.83</ele>
        <time>2020-10-08T15:15:09Z</time>
      </trkpt>
      <trkpt lat="48.37131" lon="2.79506">
        <ele>88.83</ele>
        <time>2020-10-08T15:15:14Z</time>
      </trkpt>
      <trkpt lat="48.37129" lon="2.79511">
        <ele>88.84</ele>
        <time>2020-10-08T15:15:19Z</time>
      </trkpt>
      <trkpt lat="48.37126" lon="2.79516">
        <ele>88.81</ele>
        <time>2020-10-08T15:15:24Z</time>
      </trkpt>
      <trkpt lat="48.37123" lon="2.79522">
        <ele>88.52</ele>
        <time>2020-10-08T15:15:29Z</time>
      </trkpt>
      <trkpt lat="48.3712" lon="2.79528">
        <ele>88.25</ele>
        <time>2020-10-08T15:15:34Z</time>
      </trkpt>
      <trkpt lat="48.37116" lon="2.79534">
        <ele>88.13</ele>
        <time>2020-10-08T15:15:39Z</time>
      </trkpt>
      <trkpt lat="48.37112" lon="2.79542">
        <ele>88.09</ele>
        <time>2020-10-08T15:15:44Z</time>
      </trkpt>
      <trkpt lat="48.37109" lon="2.79548">
        <ele>88</ele>
        <time>2020-10-08T15:15:49Z</time>
      </trkpt>
      <trkpt lat="48.37104" lon="2.79553">
        <ele>87.88</ele>
        <time>2020-10-08T15:15:54Z</time>
      </trkpt>
      <trkpt lat="48.371" lon="2.79557">
        <ele>87.86</ele>
        <time>2020-10-08T15:15:59Z</time>
      </trkpt>
      <trkpt lat="48.37097" lon="2.79562">
        <ele>87.71</ele>
        <time>2020-10-08T15:16:04Z</time>
      </trkpt>
      <trkpt lat="48.37095" lon="2.79566">
        <ele>87.6</ele>
        <time>2020-10-08T15:16:09Z</time>
      </trkpt>
      <trkpt lat="48.37091" lon="2.7957">
        <ele>87.49</ele>
        <time>2020-10-08T15:16:14Z</time>
      </trkpt>
      <trkpt lat="48.37089" lon="2.79575">
        <ele>87.54</ele>
        <time>2020-10-08T15:16:19Z</time>
      </trkpt>
      <trkpt lat="48.37086" lon="2.79579">
        <ele>87.59</ele>
        <time>2020-10-08T15:16:24Z</time>
      </trkpt>
      <trkpt lat="48.37082" lon="2.79585">
        <ele>87.48</ele>
        <time>2020-10-08T15:16:29Z</time>
      </trkpt>
      <trkpt lat="48.37078" lon="2.79591">
        <ele>87.35</ele>
        <time>2020-10-08T15:16:34Z</time>
      </trkpt>
      <trkpt lat="48.37074" lon="2.79598">
        <ele>87.5</ele>
        <time>2020-10-08T15:16:39Z</time>
      </trkpt>
      <trkpt lat="48.37068" lon="2.79604">
        <ele>87.69</ele>
        <time>2020-10-08T15:16:44Z</time>
      </trkpt>
      <trkpt lat="48.37064" lon="2.79609">
        <ele>87.41</ele>
        <time>2020-10-08T15:16:49Z</time>
      </trkpt>
      <trkpt lat="48.37061" lon="2.79614">
        <ele>87.2</ele>
        <time>2020-10-08T15:16:54Z</time>
      </trkpt>
      <trkpt lat="48.37058" lon="2.79618">
        <ele>87.04</ele>
        <time>2020-10-08T15:16:59Z</time>
      </trkpt>
      <trkpt lat="48.37055" lon="2.79621">
        <ele>86.96</ele>
        <time>2020-10-08T15:17:04Z</time>
      </trkpt>
      <trkpt lat="48.37051" lon="2.79626">
        <ele>86.94</ele>
        <time>2020-10-08T15:17:09Z</time>
      </trkpt>
      <trkpt lat="48.37046" lon="2.79633">
        <ele>87.12</ele>
        <time>2020-10-08T15:17:14Z</time>
      </trkpt>
      <trkpt lat="48.37043" lon="2.79637">
        <ele>87.08</ele>
        <time>2020-10-08T15:17:19Z</time>
      </trkpt>
      <trkpt lat="48.37042" lon="2.79641">
        <ele>87.03</ele>
        <time>2020-10-08T15:17:24Z</time>
      </trkpt>
      <trkpt lat="48.37037" lon="2.79647">
        <ele>87.01</ele>
        <time>2020-10-08T15:17:29Z</time>
      </trkpt>
      <trkpt lat="48.37033" lon="2.79654">
        <ele>87.03</ele>
        <time>2020-10-08T15:17:34Z</time>
      </trkpt>
      <trkpt lat="48.37029" lon="2.79658">
        <ele>87.1</ele>
        <time>2020-10-08T15:17:39Z</time>
      </trkpt>
      <trkpt lat="48.37025" lon="2.79663">
        <ele>87.13</ele>
        <time>2020-10-08T15:17:44Z</time>
      </trkpt>
      <trkpt lat="48.37022" lon="2.79668">
        <ele>87.27</ele>
        <time>2020-10-08T15:17:49Z</time>
      </trkpt>
      <trkpt lat="48.37018" lon="2.79673">
        <ele>87.27</ele>
        <time>2020-10-08T15:17:54Z</time>
      </trkpt>
      <trkpt lat="48.37013" lon="2.79678">
        <ele>87.12</ele>
        <time>2020-10-08T15:17:59Z</time>
      </trkpt>
      <trkpt lat="48.3701" lon="2.79685">
        <ele>87.04</ele>
        <time>2020-10-08T15:18:04Z</time>
      </trkpt>
      <trkpt lat="48.37004" lon="2.79692">
        <ele>86.8</ele>
        <time>2020-10-08T15:18:09Z</time>
      </trkpt>
      <trkpt lat="48.37" lon="2.79696">
        <ele>86.63</ele>
        <time>2020-10-08T15:18:14Z</time>
      </trkpt>
      <trkpt lat="48.36996" lon="2.797">
        <ele>86.5</ele>
        <time>2020-10-08T15:18:19Z</time>
      </trkpt>
      <trkpt lat="48.36994" lon="2.79705">
        <ele>86.34</ele>
        <time>2020-10-08T15:18:24Z</time>
      </trkpt>
      <trkpt lat="48.3699" lon="2.79709">
        <ele>86.34</ele>
        <time>2020-10-08T15:18:29Z</time>
      </trkpt>
      <trkpt lat="48.36986" lon="2.79713">
        <ele>86.15</ele>
        <time>2020-10-08T15:18:34Z</time>
      </trkpt>
      <trkpt lat="48.36982" lon="2.79719">
        <ele>86.02</ele>
        <time>2020-10-08T15:18:39Z</time>
      </trkpt>
      <trkpt lat="48.36978" lon="2.79725">
        <ele>85.94</ele>
        <time>2020-10-08T15:18:44Z</time>
      </trkpt>
      <trkpt lat="48.36973" lon="2.7973">
        <ele>86</ele>
        <time>2020-10-08T15:18:49Z</time>
      </trkpt>
      <trkpt lat="48.3697" lon="2.79735">
        <ele>85.95</ele>
        <time>2020-10-08T15:18:54Z</time>
      </trkpt>
      <trkpt lat="48.36968" lon="2.7974">
        <ele>85.83</ele>
        <time>2020-10-08T15:18:59Z</time>
      </trkpt>
      <trkpt lat="48.36965" lon="2.79743">
        <ele>85.87</ele>
        <time>2020-10-08T15:19:04Z</time>
      </trkpt>
      <trkpt lat="48.36962" lon="2.79745">
        <ele>86</ele>
        <time>2020-10-08T15:19:09Z</time>
      </trkpt>
      <trkpt lat="48.36957" lon="2.79751">
        <ele>85.88</ele>
        <time>2020-10-08T15:19:14Z</time>
      </trkpt>
      <trkpt lat="48.36952" lon="2.79758">
        <ele>85.79</ele>
        <time>2020-10-08T15:19:19Z</time>
      </trkpt>
      <trkpt lat="48.36946" lon="2.79766">
        <ele>85.67</ele>
        <time>2020-10-08T15:19:24Z</time>
      </trkpt>
      <trkpt lat="48.36942" lon="2.79771">
        <ele>85.45</ele>
        <time>2020-10-08T15:19:29Z</time>
      </trkpt>
      <trkpt lat="48.36939" lon="2.79775">
        <ele>85.43</ele>
        <time>2020-10-08T15:19:34Z</time>
      </trkpt>
      <trkpt lat="48.36937" lon="2.79781">
        <ele>85.42</ele>
        <time>2020-10-08T15:19:39Z</time>
      </trkpt>
      <trkpt lat="48.36933" lon="2.7979">
        <ele>85.42</ele>
        <time>2020-10-08T15:19:44Z</time>
      </trkpt>
      <trkpt lat="48.36929" lon="2.79796">
        <ele>85.54</ele>
        <time>2020-10-08T15:19:49Z</time>
      </trkpt>
      <trkpt lat="48.36924" lon="2.79802">
        <ele>85.57</ele>
        <time>2020-10-08T15:19:54Z</time>
      </trkpt>
      <trkpt lat="48.3692" lon="2.79808">
        <ele>85.57</ele>
        <time>2020-10-08T15:19:59Z</time>
      </trkpt>
      <trkpt lat="48.36916" lon="2.79811">
        <ele>85.63</ele>
        <time>2020-10-08T15:20:04Z</time>
      </trkpt>
      <trkpt lat="48.36911" lon="2.79815">
        <ele>85.7</ele>
        <time>2020-10-08T15:20:09Z</time>
      </trkpt>
      <trkpt lat="48.36908" lon="2.79818">
        <ele>85.82</ele>
        <time>2020-10-08T15:20:14Z</time>
      </trkpt>
      <trkpt lat="48.36905" lon="2.79822">
        <ele>85.59</ele>
        <time>2020-10-08T15:20:19Z</time>
      </trkpt>
      <trkpt lat="48.36901" lon="2.79829">
        <ele>85.59</ele>
        <time>2020-10-08T15:20:24Z</time>
      </trkpt>
      <trkpt lat="48.369" lon="2.79835">
        <ele>85.59</ele>
        <time>2020-10-08T15:20:29Z</time>
      </trkpt>
      <trkpt lat="48.36899" lon="2.7984">
        <ele>85.57</ele>
        <time>2020-10-08T15:20:34Z</time>
      </trkpt>
      <trkpt lat="48.36898" lon="2.79843">
        <ele>85.47</ele>
        <time>2020-10-08T15:20:39Z</time>
      </trkpt>
      <trkpt lat="48.36898" lon="2.79851">
        <ele>85.31</ele>
        <time>2020-10-08T15:20:44Z</time>
      </trkpt>
      <trkpt lat="48.36897" lon="2.79857">
        <ele>85.27</ele>
        <time>2020-10-08T15:20:49Z</time>
      </trkpt>
      <trkpt lat="48.36895" lon="2.79864">
        <ele>85.32</ele>
        <time>2020-10-08T15:20:54Z</time>
      </trkpt>
      <trkpt lat="48.36894" lon="2.79872">
        <ele>85.45</ele>
        <time>2020-10-08T15:20:59Z</time>
      </trkpt>
      <trkpt lat="48.36892" lon="2.79879">
        <ele>85.57</ele>
        <time>2020-10-08T15:21:04Z</time>
      </trkpt>
      <trkpt lat="48.36889" lon="2.79885">
        <ele>85.81</ele>
        <time>2020-10-08T15:21:09Z</time>
      </trkpt>
      <trkpt lat="48.36887" lon="2.79892">
        <ele>85.82</ele>
        <time>2020-10-08T15:21:14Z</time>
      </trkpt>
      <trkpt lat="48.36886" lon="2.79899">
        <ele>85.73</ele>
        <time>2020-10-08T15:21:19Z</time>
      </trkpt>
      <trkpt lat="48.36885" lon="2.79907">
        <ele>85.77</ele>
        <time>2020-10-08T15:21:24Z</time>
      </trkpt>
      <trkpt lat="48.36882" lon="2.79914">
        <ele>85.85</ele>
        <time>2020-10-08T15:21:29Z</time>
      </trkpt>
      <trkpt lat="48.36881" lon="2.79921">
        <ele>85.85</ele>
        <time>2020-10-08T15:21:34Z</time>
      </trkpt>
      <trkpt lat="48.36878" lon="2.79928">
        <ele>85.76</ele>
        <time>2020-10-08T15:21:39Z</time>
      </trkpt>
      <trkpt lat="48.36876" lon="2.79936">
        <ele>85.58</ele>
        <time>2020-10-08T15:21:44Z</time>
      </trkpt>
      <trkpt lat="48.36875" lon="2.79943">
        <ele>85.66</ele>
        <time>2020-10-08T15:21:49Z</time>
      </trkpt>
      <trkpt lat="48.36874" lon="2.7995">
        <ele>85.65</ele>
        <time>2020-10-08T15:21:54Z</time>
      </trkpt>
      <trkpt lat="48.36873" lon="2.79956">
        <ele>85.61</ele>
        <time>2020-10-08T15:21:59Z</time>
      </trkpt>
      <trkpt lat="48.36871" lon="2.79961">
        <ele>85.72</ele>
        <time>2020-10-08T15:22:04Z</time>
      </trkpt>
      <trkpt lat="48.36869" lon="2.79968">
        <ele>85.73</ele>
        <time>2020-10-08T15:22:09Z</time>
      </trkpt>
      <trkpt lat="48.36869" lon="2.79976">
        <ele>85.86</ele>
        <time>2020-10-08T15:22:14Z</time>
      </trkpt>
      <trkpt lat="48.36866" lon="2.79985">
        <ele>85.86</ele>
        <time>2020-10-08T15:22:19Z</time>
      </trkpt>
      <trkpt lat="48.36864" lon="2.79992">
        <ele>85.87</ele>
        <time>2020-10-08T15:22:24Z</time>
      </trkpt>
      <trkpt lat="48.36864" lon="2.79997">
        <ele>85.98</ele>
        <time>2020-10-08T15:22:29Z</time>
      </trkpt>
      <trkpt lat="48.36863" lon="2.80006">
        <ele>85.93</ele>
        <time>2020-10-08T15:22:34Z</time>
      </trkpt>
      <trkpt lat="48.36862" lon="2.80013">
        <ele>85.95</ele>
        <time>2020-10-08T15:22:39Z</time>
      </trkpt>
      <trkpt lat="48.36861" lon="2.80022">
        <ele>86.07</ele>
        <time>2020-10-08T15:22:44Z</time>
      </trkpt>
      <trkpt lat="48.36859" lon="2.80031">
        <ele>86.22</ele>
        <time>2020-10-08T15:22:49Z</time>
      </trkpt>
      <trkpt lat="48.36858" lon="2.80036">
        <ele>86.31</ele>
        <time>2020-10-08T15:22:54Z</time>
      </trkpt>
      <trkpt lat="48.36855" lon="2.80043">
        <ele>86.42</ele>
        <time>2020-10-08T15:22:59Z</time>
      </trkpt>
      <trkpt lat="48.36855" lon="2.8005">
        <ele>86.5</ele>
        <time>2020-10-08T15:23:04Z</time>
      </trkpt>
      <trkpt lat="48.36854" lon="2.80057">
        <ele>86.49</ele>
        <time>2020-10-08T15:23:09Z</time>
      </trkpt>
      <trkpt lat="48.36852" lon="2.80064">
        <ele>86.54</ele>
        <time>2020-10-08T15:23:14Z</time>
      </trkpt>
      <trkpt lat="48.3685" lon="2.80071">
        <ele>86.6</ele>
        <time>2020-10-08T15:23:19Z</time>
      </trkpt>
      <trkpt lat="48.36849" lon="2.80078">
        <ele>86.64</ele>
        <time>2020-10-08T15:23:24Z</time>
      </trkpt>
      <trkpt lat="48.36848" lon="2.80082">
        <ele>86.78</ele>
        <time>2020-10-08T15:23:29Z</time>
      </trkpt>
      <trkpt lat="48.36846" lon="2.80091">
        <ele>86.78</ele>
        <time>2020-10-08T15:23:34Z</time>
      </trkpt>
      <trkpt lat="48.36845" lon="2.80097">
        <ele>86.78</ele>
        <time>2020-10-08T15:23:39Z</time>
      </trkpt>
      <trkpt lat="48.36842" lon="2.80107">
        <ele>86.78</ele>
        <time>2020-10-08T15:23:44Z</time>
      </trkpt>
      <trkpt lat="48.36838" lon="2.80116">
        <ele>86.85</ele>
        <time>2020-10-08T15:23:49Z</time>
      </trkpt>
      <trkpt lat="48.36837" lon="2.80121">
        <ele>86.93</ele>
        <time>2020-10-08T15:23:54Z</time>
      </trkpt>
      <trkpt lat="48.36835" lon="2.80128">
        <ele>87</ele>
        <time>2020-10-08T15:23:59Z</time>
      </trkpt>
      <trkpt lat="48.36836" lon="2.80132">
        <ele>87.03</ele>
        <time>2020-10-08T15:24:04Z</time>
      </trkpt>
      <trkpt lat="48.36833" lon="2.8014">
        <ele>87.2</ele>
        <time>2020-10-08T15:24:09Z</time>
      </trkpt>
      <trkpt lat="48.3683" lon="2.80152">
        <ele>87.38</ele>
        <time>2020-10-08T15:24:14Z</time>
      </trkpt>
      <trkpt lat="48.36826" lon="2.80162">
        <ele>87.58</ele>
        <time>2020-10-08T15:24:19Z</time>
      </trkpt>
      <trkpt lat="48.36826" lon="2.80171">
        <ele>87.72</ele>
        <time>2020-10-08T15:24:24Z</time>
      </trkpt>
      <trkpt lat="48.36824" lon="2.80179">
        <ele>87.99</ele>
        <time>2020-10-08T15:24:29Z</time>
      </trkpt>
      <trkpt lat="48.36824" lon="2.80186">
        <ele>88.13</ele>
        <time>2020-10-08T15:24:34Z</time>
      </trkpt>
      <trkpt lat="48.36822" lon="2.80193">
        <ele>88.17</ele>
        <time>2020-10-08T15:24:39Z</time>
      </trkpt>
      <trkpt lat="48.3682" lon="2.802">
        <ele>88.31</ele>
        <time>2020-10-08T15:24:44Z</time>
      </trkpt>
      <trkpt lat="48.36818" lon="2.80205">
        <ele>88.34</ele>
        <time>2020-10-08T15:24:49Z</time>
      </trkpt>
      <trkpt lat="48.36814" lon="2.80212">
        <ele>88.48</ele>
        <time>2020-10-08T15:24:54Z</time>
      </trkpt>
      <trkpt lat="48.36811" lon="2.80217">
        <ele>88.76</ele>
        <time>2020-10-08T15:24:59Z</time>
      </trkpt>
      <trkpt lat="48.36808" lon="2.80223">
        <ele>88.82</ele>
        <time>2020-10-08T15:25:04Z</time>
      </trkpt>
      <trkpt lat="48.36805" lon="2.80226">
        <ele>88.94</ele>
        <time>2020-10-08T15:25:09Z</time>
      </trkpt>
      <trkpt lat="48.36801" lon="2.80231">
        <ele>89.14</ele>
        <time>2020-10-08T15:25:14Z</time>
      </trkpt>
      <trkpt lat="48.36798" lon="2.80237">
        <ele>89.3</ele>
        <time>2020-10-08T15:25:19Z</time>
      </trkpt>
      <trkpt lat="48.36795" lon="2.80242">
        <ele>89.36</ele>
        <time>2020-10-08T15:25:24Z</time>
      </trkpt>
      <trkpt lat="48.36793" lon="2.80244">
        <ele>89.41</ele>
        <time>2020-10-08T15:25:29Z</time>
      </trkpt>
      <trkpt lat="48.36787" lon="2.80251">
        <ele>89.61</ele>
        <time>2020-10-08T15:25:34Z</time>
      </trkpt>
      <trkpt lat="48.36782" lon="2.80256">
        <ele>89.9</ele>
        <time>2020-10-08T15:25:39Z</time>
      </trkpt>
      <trkpt lat="48.36779" lon="2.80261">
        <ele>90.33</ele>
        <time>2020-10-08T15:25:44Z</time>
      </trkpt>
      <trkpt lat="48.36774" lon="2.80265">
        <ele>90.56</ele>
        <time>2020-10-08T15:25:49Z</time>
      </trkpt>
      <trkpt lat="48.3677" lon="2.80271">
        <ele>90.66</ele>
        <time>2020-10-08T15:25:54Z</time>
      </trkpt>
      <trkpt lat="48.36767" lon="2.80273">
        <ele>90.77</ele>
        <time>2020-10-08T15:25:59Z</time>
      </trkpt>
      <trkpt lat="48.36764" lon="2.80277">
        <ele>90.9</ele>
        <time>2020-10-08T15:26:04Z</time>
      </trkpt>
      <trkpt lat="48.3676" lon="2.80281">
        <ele>90.95</ele>
        <time>2020-10-08T15:26:09Z</time>
      </trkpt>
      <trkpt lat="48.36756" lon="2.80285">
        <ele>91.07</ele>
        <time>2020-10-08T15:26:14Z</time>
      </trkpt>
      <trkpt lat="48.36753" lon="2.80291">
        <ele>91.22</ele>
        <time>2020-10-08T15:26:19Z</time>
      </trkpt>
      <trkpt lat="48.3675" lon="2.80295">
        <ele>91.37</ele>
        <time>2020-10-08T15:26:24Z</time>
      </trkpt>
      <trkpt lat="48.36748" lon="2.80298">
        <ele>91.44</ele>
        <time>2020-10-08T15:26:29Z</time>
      </trkpt>
      <trkpt lat="48.36745" lon="2.80303">
        <ele>91.57</ele>
        <time>2020-10-08T15:26:34Z</time>
      </trkpt>
      <trkpt lat="48.36742" lon="2.80305">
        <ele>91.8</ele>
        <time>2020-10-08T15:26:39Z</time>
      </trkpt>
      <trkpt lat="48.3674" lon="2.80304">
        <ele>92.36</ele>
        <time>2020-10-08T15:26:44Z</time>
      </trkpt>
      <trkpt lat="48.36738" lon="2.80308">
        <ele>92.53</ele>
        <time>2020-10-08T15:26:49Z</time>
      </trkpt>
      <trkpt lat="48.36738" lon="2.80309">
        <ele>92.58</ele>
        <time>2020-10-08T15:26:54Z</time>
      </trkpt>
      <trkpt lat="48.36738" lon="2.80312">
        <ele>92.29</ele>
        <time>2020-10-08T15:26:59Z</time>
      </trkpt>
      <trkpt lat="48.36737" lon="2.80314">
        <ele>92.08</ele>
        <time>2020-10-08T15:27:04Z</time>
      </trkpt>
      <trkpt lat="48.36733" lon="2.80315">
        <ele>92.02</ele>
        <time>2020-10-08T15:27:09Z</time>
      </trkpt>
      <trkpt lat="48.3673" lon="2.80318">
        <ele>91.87</ele>
        <time>2020-10-08T15:27:14Z</time>
      </trkpt>
      <trkpt lat="48.36728" lon="2.80324">
        <ele>91.62</ele>
        <time>2020-10-08T15:27:19Z</time>
      </trkpt>
      <trkpt lat="48.36726" lon="2.80328">
        <ele>91.56</ele>
        <time>2020-10-08T15:27:24Z</time>
      </trkpt>
      <trkpt lat="48.36723" lon="2.80332">
        <ele>91.56</ele>
        <time>2020-10-08T15:27:29Z</time>
      </trkpt>
      <trkpt lat="48.36721" lon="2.80338">
        <ele>91.58</ele>
        <time>2020-10-08T15:27:34Z</time>
      </trkpt>
      <trkpt lat="48.36716" lon="2.80344">
        <ele>91.65</ele>
        <time>2020-10-08T15:27:39Z</time>
      </trkpt>
      <trkpt lat="48.36715" lon="2.80348">
        <ele>91.78</ele>
        <time>2020-10-08T15:27:44Z</time>
      </trkpt>
      <trkpt lat="48.36716" lon="2.8035">
        <ele>91.91</ele>
        <time>2020-10-08T15:27:49Z</time>
      </trkpt>
      <trkpt lat="48.36717" lon="2.80355">
        <ele>91.91</ele>
        <time>2020-10-08T15:27:54Z</time>
      </trkpt>
      <trkpt lat="48.36718" lon="2.8036">
        <ele>91.91</ele>
        <time>2020-10-08T15:27:59Z</time>
      </trkpt>
      <trkpt lat="48.36721" lon="2.80368">
        <ele>92.02</ele>
        <time>2020-10-08T15:28:04Z</time>
      </trkpt>
      <trkpt lat="48.36722" lon="2.80376">
        <ele>92.15</ele>
        <time>2020-10-08T15:28:09Z</time>
      </trkpt>
      <trkpt lat="48.36724" lon="2.80383">
        <ele>92.4</ele>
        <time>2020-10-08T15:28:14Z</time>
      </trkpt>
      <trkpt lat="48.36726" lon="2.8039">
        <ele>92.42</ele>
        <time>2020-10-08T15:28:19Z</time>
      </trkpt>
      <trkpt lat="48.36728" lon="2.80396">
        <ele>92.36</ele>
        <time>2020-10-08T15:28:24Z</time>
      </trkpt>
      <trkpt lat="48.36731" lon="2.80403">
        <ele>92.16</ele>
        <time>2020-10-08T15:28:29Z</time>
      </trkpt>
      <trkpt lat="48.36734" lon="2.80409">
        <ele>92.27</ele>
        <time>2020-10-08T15:28:34Z</time>
      </trkpt>
      <trkpt lat="48.36738" lon="2.80415">
        <ele>92.2</ele>
        <time>2020-10-08T15:28:39Z</time>
      </trkpt>
      <trkpt lat="48.3674" lon="2.80421">
        <ele>92.08</ele>
        <time>2020-10-08T15:28:44Z</time>
      </trkpt>
      <trkpt lat="48.36743" lon="2.80425">
        <ele>92.3</ele>
        <time>2020-10-08T15:28:49Z</time>
      </trkpt>
      <trkpt lat="48.36745" lon="2.80431">
        <ele>92.38</ele>
        <time>2020-10-08T15:28:54Z</time>
      </trkpt>
      <trkpt lat="48.36747" lon="2.80437">
        <ele>92.21</ele>
        <time>2020-10-08T15:28:59Z</time>
      </trkpt>
      <trkpt lat="48.3675" lon="2.80443">
        <ele>92.11</ele>
        <time>2020-10-08T15:29:04Z</time>
      </trkpt>
      <trkpt lat="48.36754" lon="2.80447">
        <ele>92.15</ele>
        <time>2020-10-08T15:29:09Z</time>
      </trkpt>
      <trkpt lat="48.36758" lon="2.80454">
        <ele>92.17</ele>
        <time>2020-10-08T15:29:14Z</time>
      </trkpt>
      <trkpt lat="48.36759" lon="2.8046">
        <ele>92.13</ele>
        <time>2020-10-08T15:29:19Z</time>
      </trkpt>
      <trkpt lat="48.3676" lon="2.80465">
        <ele>92</ele>
        <time>2020-10-08T15:29:24Z</time>
      </trkpt>
      <trkpt lat="48.36764" lon="2.80469">
        <ele>91.85</ele>
        <time>2020-10-08T15:29:29Z</time>
      </trkpt>
      <trkpt lat="48.36767" lon="2.80474">
        <ele>91.75</ele>
        <time>2020-10-08T15:29:34Z</time>
      </trkpt>
      <trkpt lat="48.36769" lon="2.80479">
        <ele>91.7</ele>
        <time>2020-10-08T15:29:39Z</time>
      </trkpt>
      <trkpt lat="48.36773" lon="2.80487">
        <ele>91.62</ele>
        <time>2020-10-08T15:29:44Z</time>
      </trkpt>
      <trkpt lat="48.36778" lon="2.80496">
        <ele>91.49</ele>
        <time>2020-10-08T15:29:49Z</time>
      </trkpt>
      <trkpt lat="48.36781" lon="2.80504">
        <ele>91.38</ele>
        <time>2020-10-08T15:29:54Z</time>
      </trkpt>
      <trkpt lat="48.36785" lon="2.8051">
        <ele>91.51</ele>
        <time>2020-10-08T15:29:59Z</time>
      </trkpt>
      <trkpt lat="48.36786" lon="2.80512">
        <ele>91.2</ele>
        <time>2020-10-08T15:30:04Z</time>
      </trkpt>
      <trkpt lat="48.36788" lon="2.80512">
        <ele>91.2</ele>
        <time>2020-10-08T15:30:09Z</time>
      </trkpt>
      <trkpt lat="48.36788" lon="2.80512">
        <ele>91.2</ele>
        <time>2020-10-08T15:30:14Z</time>
      </trkpt>
      <trkpt lat="48.36788" lon="2.80512">
        <ele>91.2</ele>
        <time>2020-10-08T15:30:19Z</time>
      </trkpt>
      <trkpt lat="48.36788" lon="2.80512">
        <ele>91.2</ele>
        <time>2020-10-08T15:30:24Z</time>
      </trkpt>
      <trkpt lat="48.36789" lon="2.80513">
        <ele>91.2</ele>
        <time>2020-10-08T15:30:29Z</time>
      </trkpt>
      <trkpt lat="48.36789" lon="2.80512">
        <ele>91.2</ele>
        <time>2020-10-08T15:30:34Z</time>
      </trkpt>
      <trkpt lat="48.36789" lon="2.80511">
        <ele>91.2</ele>
        <time>2020-10-08T15:30:39Z</time>
      </trkpt>
      <trkpt lat="48.3679" lon="2.8051">
        <ele>91.2</ele>
        <time>2020-10-08T15:30:44Z</time>
      </trkpt>
      <trkpt lat="48.36791" lon="2.8051">
        <ele>91.2</ele>
        <time>2020-10-08T15:30:49Z</time>
      </trkpt>
      <trkpt lat="48.36792" lon="2.8051">
        <ele>91.2</ele>
        <time>2020-10-08T15:30:54Z</time>
      </trkpt>
      <trkpt lat="48.36792" lon="2.80511">
        <ele>91.2</ele>
        <time>2020-10-08T15:30:59Z</time>
      </trkpt>
      <trkpt lat="48.36791" lon="2.80511">
        <ele>91.2</ele>
        <time>2020-10-08T15:31:04Z</time>
      </trkpt>
      <trkpt lat="48.36792" lon="2.80509">
        <ele>91.2</ele>
        <time>2020-10-08T15:31:09Z</time>
      </trkpt>
      <trkpt lat="48.36791" lon="2.80508">
        <ele>91.2</ele>
        <time>2020-10-08T15:31:14Z</time>
      </trkpt>
      <trkpt lat="48.3679" lon="2.80509">
        <ele>91.2</ele>
        <time>2020-10-08T15:31:19Z</time>
      </trkpt>
      <trkpt lat="48.3679" lon="2.80509">
        <ele>91.2</ele>
        <time>2020-10-08T15:31:24Z</time>
      </trkpt>
      <trkpt lat="48.36789" lon="2.80509">
        <ele>91.2</ele>
        <time>2020-10-08T15:31:29Z</time>
      </trkpt>
      <trkpt lat="48.36789" lon="2.80508">
        <ele>91.2</ele>
        <time>2020-10-08T15:31:34Z</time>
      </trkpt>
      <trkpt lat="48.36789" lon="2.80507">
        <ele>91.2</ele>
        <time>2020-10-08T15:31:39Z</time>
      </trkpt>
      <trkpt lat="48.3679" lon="2.80503">
        <ele>91.2</ele>
        <time>2020-10-08T15:31:44Z</time>
      </trkpt>
      <trkpt lat="48.36792" lon="2.80501">
        <ele>91.2</ele>
        <time>2020-10-08T15:31:49Z</time>
      </trkpt>
      <trkpt lat="48.36793" lon="2.80502">
        <ele>91.2</ele>
        <time>2020-10-08T15:31:54Z</time>
      </trkpt>
      <trkpt lat="48.36793" lon="2.80503">
        <ele>91.2</ele>
        <time>2020-10-08T15:31:59Z</time>
      </trkpt>
      <trkpt lat="48.36791" lon="2.80507">
        <ele>91.2</ele>
        <time>2020-10-08T15:32:04Z</time>
      </trkpt>
      <trkpt lat="48.36788" lon="2.80511">
        <ele>91.28</ele>
        <time>2020-10-08T15:32:09Z</time>
      </trkpt>
      <trkpt lat="48.3679" lon="2.80512">
        <ele>91.4</ele>
        <time>2020-10-08T15:32:14Z</time>
      </trkpt>
      <trkpt lat="48.36791" lon="2.80513">
        <ele>91.4</ele>
        <time>2020-10-08T15:32:19Z</time>
      </trkpt>
      <trkpt lat="48.36791" lon="2.80513">
        <ele>91.33</ele>
        <time>2020-10-08T15:32:24Z</time>
      </trkpt>
      <trkpt lat="48.36791" lon="2.80514">
        <ele>91.18</ele>
        <time>2020-10-08T15:32:29Z</time>
      </trkpt>
      <trkpt lat="48.36791" lon="2.80513">
        <ele>91.08</ele>
        <time>2020-10-08T15:32:34Z</time>
      </trkpt>
      <trkpt lat="48.36792" lon="2.80513">
        <ele>91.03</ele>
        <time>2020-10-08T15:32:39Z</time>
      </trkpt>
      <trkpt lat="48.36792" lon="2.80514">
        <ele>91.03</ele>
        <time>2020-10-08T15:32:44Z</time>
      </trkpt>
      <trkpt lat="48.36794" lon="2.80513">
        <ele>91.23</ele>
        <time>2020-10-08T15:32:49Z</time>
      </trkpt>
      <trkpt lat="48.36794" lon="2.80511">
        <ele>91.24</ele>
        <time>2020-10-08T15:32:54Z</time>
      </trkpt>
      <trkpt lat="48.36795" lon="2.8051">
        <ele>91.13</ele>
        <time>2020-10-08T15:32:59Z</time>
      </trkpt>
      <trkpt lat="48.36795" lon="2.8051">
        <ele>91.27</ele>
        <time>2020-10-08T15:33:04Z</time>
      </trkpt>
      <trkpt lat="48.36794" lon="2.8051">
        <ele>91.18</ele>
        <time>2020-10-08T15:33:09Z</time>
      </trkpt>
      <trkpt lat="48.36793" lon="2.80509">
        <ele>91.29</ele>
        <time>2020-10-08T15:33:14Z</time>
      </trkpt>
      <trkpt lat="48.36794" lon="2.80508">
        <ele>91.41</ele>
        <time>2020-10-08T15:33:19Z</time>
      </trkpt>
      <trkpt lat="48.36795" lon="2.80507">
        <ele>91.41</ele>
        <time>2020-10-08T15:33:24Z</time>
      </trkpt>
      <trkpt lat="48.36795" lon="2.80506">
        <ele>91.41</ele>
        <time>2020-10-08T15:33:29Z</time>
      </trkpt>
      <trkpt lat="48.36795" lon="2.80506">
        <ele>91.41</ele>
        <time>2020-10-08T15:33:34Z</time>
      </trkpt>
      <trkpt lat="48.36796" lon="2.80506">
        <ele>91.41</ele>
        <time>2020-10-08T15:33:39Z</time>
      </trkpt>
      <trkpt lat="48.36798" lon="2.80508">
        <ele>91.41</ele>
        <time>2020-10-08T15:33:44Z</time>
      </trkpt>
      <trkpt lat="48.36801" lon="2.80515">
        <ele>91.41</ele>
        <time>2020-10-08T15:33:49Z</time>
      </trkpt>
      <trkpt lat="48.36803" lon="2.80519">
        <ele>91.41</ele>
        <time>2020-10-08T15:33:54Z</time>
      </trkpt>
      <trkpt lat="48.36803" lon="2.80521">
        <ele>91.41</ele>
        <time>2020-10-08T15:33:59Z</time>
      </trkpt>
      <trkpt lat="48.36804" lon="2.80524">
        <ele>91.41</ele>
        <time>2020-10-08T15:34:04Z</time>
      </trkpt>
      <trkpt lat="48.36803" lon="2.80525">
        <ele>91.41</ele>
        <time>2020-10-08T15:34:09Z</time>
      </trkpt>
      <trkpt lat="48.36803" lon="2.80526">
        <ele>91.41</ele>
        <time>2020-10-08T15:34:14Z</time>
      </trkpt>
      <trkpt lat="48.36803" lon="2.80526">
        <ele>91.41</ele>
        <time>2020-10-08T15:34:19Z</time>
      </trkpt>
      <trkpt lat="48.36804" lon="2.80526">
        <ele>91.41</ele>
        <time>2020-10-08T15:34:24Z</time>
      </trkpt>
      <trkpt lat="48.36807" lon="2.80528">
        <ele>91.41</ele>
        <time>2020-10-08T15:34:29Z</time>
      </trkpt>
      <trkpt lat="48.36809" lon="2.8053">
        <ele>91.31</ele>
        <time>2020-10-08T15:34:34Z</time>
      </trkpt>
      <trkpt lat="48.3681" lon="2.8053">
        <ele>90.92</ele>
        <time>2020-10-08T15:34:39Z</time>
      </trkpt>
      <trkpt lat="48.36811" lon="2.80531">
        <ele>91</ele>
        <time>2020-10-08T15:34:44Z</time>
      </trkpt>
      <trkpt lat="48.36811" lon="2.80533">
        <ele>90.89</ele>
        <time>2020-10-08T15:34:49Z</time>
      </trkpt>
      <trkpt lat="48.36813" lon="2.80535">
        <ele>90.75</ele>
        <time>2020-10-08T15:34:54Z</time>
      </trkpt>
      <trkpt lat="48.36815" lon="2.80537">
        <ele>90.64</ele>
        <time>2020-10-08T15:34:59Z</time>
      </trkpt>
      <trkpt lat="48.36815" lon="2.8054">
        <ele>90.81</ele>
        <time>2020-10-08T15:35:04Z</time>
      </trkpt>
      <trkpt lat="48.36815" lon="2.8054">
        <ele>90.8</ele>
        <time>2020-10-08T15:35:09Z</time>
      </trkpt>
      <trkpt lat="48.36815" lon="2.80541">
        <ele>90.69</ele>
        <time>2020-10-08T15:35:14Z</time>
      </trkpt>
      <trkpt lat="48.36814" lon="2.80541">
        <ele>90.62</ele>
        <time>2020-10-08T15:35:19Z</time>
      </trkpt>
      <trkpt lat="48.36815" lon="2.80541">
        <ele>90.76</ele>
        <time>2020-10-08T15:35:24Z</time>
      </trkpt>
      <trkpt lat="48.36816" lon="2.80541">
        <ele>91.02</ele>
        <time>2020-10-08T15:35:29Z</time>
      </trkpt>
      <trkpt lat="48.36816" lon="2.8054">
        <ele>91.28</ele>
        <time>2020-10-08T15:35:34Z</time>
      </trkpt>
      <trkpt lat="48.36815" lon="2.8054">
        <ele>91.28</ele>
        <time>2020-10-08T15:35:39Z</time>
      </trkpt>
      <trkpt lat="48.36815" lon="2.80541">
        <ele>91.28</ele>
        <time>2020-10-08T15:35:44Z</time>
      </trkpt>
      <trkpt lat="48.36815" lon="2.80541">
        <ele>91.28</ele>
        <time>2020-10-08T15:35:49Z</time>
      </trkpt>
      <trkpt lat="48.36815" lon="2.80541">
        <ele>91.28</ele>
        <time>2020-10-08T15:35:54Z</time>
      </trkpt>
      <trkpt lat="48.36815" lon="2.80541">
        <ele>91.28</ele>
        <time>2020-10-08T15:35:59Z</time>
      </trkpt>
      <trkpt lat="48.36814" lon="2.80541">
        <ele>91.28</ele>
        <time>2020-10-08T15:36:02Z</time>
      </trkpt>
    </trkseg>
  </trk>
</gpx>